<?xml version="1.0" encoding="UTF-8" standalone="no" ?>
<gpx xmlns="http://www.topografix.com/GPX/1/1" xmlns:xsi="http://www.w3.org/2001/XMLSchema-instance" xsi:schemaLocation="http://www.topografix.com/GPX/1/1 http://www.topografix.com/GPX/1/1/gpx.xsd" version="1.1" creator="VisuGPX - https://www.visugpx.com">
  <metadata>
    <name>sortie GR du 8 janvier 2012</name>
    <desc><![CDATA[Fontaines/Saône, Vancia, ruisseau des Echets]]></desc>
  </metadata>
  <trk>
    <name><![CDATA[2012-01-08T07:39:49Z]]></name>
    <trkseg>
      <trkpt lat="45.80394" lon="4.83122">
        <ele>238</ele>
        <time>2012-01-08T07:39:49Z</time>
      </trkpt>
      <trkpt lat="45.80388" lon="4.83118">
        <ele>238</ele>
        <time>2012-01-08T07:39:52Z</time>
      </trkpt>
      <trkpt lat="45.80387" lon="4.83118">
        <ele>238</ele>
        <time>2012-01-08T07:39:53Z</time>
      </trkpt>
      <trkpt lat="45.8038" lon="4.83131">
        <ele>237</ele>
        <time>2012-01-08T07:39:57Z</time>
      </trkpt>
      <trkpt lat="45.80375" lon="4.83145">
        <ele>237</ele>
        <time>2012-01-08T07:39:59Z</time>
      </trkpt>
      <trkpt lat="45.80373" lon="4.83154">
        <ele>237</ele>
        <time>2012-01-08T07:40:00Z</time>
      </trkpt>
      <trkpt lat="45.80371" lon="4.83163">
        <ele>237</ele>
        <time>2012-01-08T07:40:01Z</time>
      </trkpt>
      <trkpt lat="45.80362" lon="4.83198">
        <ele>234</ele>
        <time>2012-01-08T07:40:05Z</time>
      </trkpt>
      <trkpt lat="45.8036" lon="4.83207">
        <ele>234</ele>
        <time>2012-01-08T07:40:07Z</time>
      </trkpt>
      <trkpt lat="45.80362" lon="4.83216">
        <ele>234</ele>
        <time>2012-01-08T07:40:08Z</time>
      </trkpt>
      <trkpt lat="45.80375" lon="4.83229">
        <ele>234</ele>
        <time>2012-01-08T07:40:11Z</time>
      </trkpt>
      <trkpt lat="45.80384" lon="4.83234">
        <ele>234</ele>
        <time>2012-01-08T07:40:13Z</time>
      </trkpt>
      <trkpt lat="45.80389" lon="4.83239">
        <ele>234</ele>
        <time>2012-01-08T07:40:14Z</time>
      </trkpt>
      <trkpt lat="45.80394" lon="4.8324">
        <ele>234</ele>
        <time>2012-01-08T07:40:16Z</time>
      </trkpt>
      <trkpt lat="45.80394" lon="4.83256">
        <ele>230</ele>
        <time>2012-01-08T07:40:20Z</time>
      </trkpt>
      <trkpt lat="45.80384" lon="4.8328">
        <ele>229</ele>
        <time>2012-01-08T07:40:23Z</time>
      </trkpt>
      <trkpt lat="45.8038" lon="4.83291">
        <ele>229</ele>
        <time>2012-01-08T07:40:24Z</time>
      </trkpt>
      <trkpt lat="45.8037" lon="4.83326">
        <ele>227</ele>
        <time>2012-01-08T07:40:28Z</time>
      </trkpt>
      <trkpt lat="45.80367" lon="4.83333">
        <ele>227</ele>
        <time>2012-01-08T07:40:29Z</time>
      </trkpt>
      <trkpt lat="45.80361" lon="4.83359">
        <ele>221</ele>
        <time>2012-01-08T07:40:33Z</time>
      </trkpt>
      <trkpt lat="45.80356" lon="4.83366">
        <ele>220</ele>
        <time>2012-01-08T07:40:37Z</time>
      </trkpt>
      <trkpt lat="45.80359" lon="4.83383">
        <ele>219</ele>
        <time>2012-01-08T07:40:40Z</time>
      </trkpt>
      <trkpt lat="45.80363" lon="4.83396">
        <ele>219</ele>
        <time>2012-01-08T07:40:41Z</time>
      </trkpt>
      <trkpt lat="45.80374" lon="4.83397">
        <ele>219</ele>
        <time>2012-01-08T07:40:45Z</time>
      </trkpt>
      <trkpt lat="45.80379" lon="4.83401">
        <ele>219</ele>
        <time>2012-01-08T07:40:46Z</time>
      </trkpt>
      <trkpt lat="45.80389" lon="4.8341">
        <ele>219</ele>
        <time>2012-01-08T07:40:48Z</time>
      </trkpt>
      <trkpt lat="45.80399" lon="4.83417">
        <ele>215</ele>
        <time>2012-01-08T07:40:50Z</time>
      </trkpt>
      <trkpt lat="45.80425" lon="4.83439">
        <ele>218</ele>
        <time>2012-01-08T07:40:55Z</time>
      </trkpt>
      <trkpt lat="45.80431" lon="4.83446">
        <ele>218</ele>
        <time>2012-01-08T07:40:56Z</time>
      </trkpt>
      <trkpt lat="45.80456" lon="4.83472">
        <ele>218</ele>
        <time>2012-01-08T07:41:01Z</time>
      </trkpt>
      <trkpt lat="45.80461" lon="4.83476">
        <ele>218</ele>
        <time>2012-01-08T07:41:02Z</time>
      </trkpt>
      <trkpt lat="45.80483" lon="4.83484">
        <ele>219</ele>
        <time>2012-01-08T07:41:06Z</time>
      </trkpt>
      <trkpt lat="45.80488" lon="4.83484">
        <ele>219</ele>
        <time>2012-01-08T07:41:07Z</time>
      </trkpt>
      <trkpt lat="45.80496" lon="4.83487">
        <ele>219</ele>
        <time>2012-01-08T07:41:09Z</time>
      </trkpt>
      <trkpt lat="45.80504" lon="4.83494">
        <ele>220</ele>
        <time>2012-01-08T07:41:11Z</time>
      </trkpt>
      <trkpt lat="45.80507" lon="4.83496">
        <ele>220</ele>
        <time>2012-01-08T07:41:12Z</time>
      </trkpt>
      <trkpt lat="45.80523" lon="4.83504">
        <ele>219</ele>
        <time>2012-01-08T07:41:16Z</time>
      </trkpt>
      <trkpt lat="45.8053" lon="4.83514">
        <ele>218</ele>
        <time>2012-01-08T07:41:17Z</time>
      </trkpt>
      <trkpt lat="45.80557" lon="4.83549">
        <ele>217</ele>
        <time>2012-01-08T07:41:21Z</time>
      </trkpt>
      <trkpt lat="45.80564" lon="4.83554">
        <ele>217</ele>
        <time>2012-01-08T07:41:22Z</time>
      </trkpt>
      <trkpt lat="45.80574" lon="4.83564">
        <ele>216</ele>
        <time>2012-01-08T07:41:23Z</time>
      </trkpt>
      <trkpt lat="45.80594" lon="4.83574">
        <ele>215</ele>
        <time>2012-01-08T07:41:25Z</time>
      </trkpt>
      <trkpt lat="45.80603" lon="4.83575">
        <ele>215</ele>
        <time>2012-01-08T07:41:26Z</time>
      </trkpt>
      <trkpt lat="45.80645" lon="4.83589">
        <ele>208</ele>
        <time>2012-01-08T07:41:30Z</time>
      </trkpt>
      <trkpt lat="45.80655" lon="4.83593">
        <ele>208</ele>
        <time>2012-01-08T07:41:31Z</time>
      </trkpt>
      <trkpt lat="45.80685" lon="4.83603">
        <ele>208</ele>
        <time>2012-01-08T07:41:34Z</time>
      </trkpt>
      <trkpt lat="45.80703" lon="4.83613">
        <ele>207</ele>
        <time>2012-01-08T07:41:36Z</time>
      </trkpt>
      <trkpt lat="45.80721" lon="4.83625">
        <ele>207</ele>
        <time>2012-01-08T07:41:38Z</time>
      </trkpt>
      <trkpt lat="45.80756" lon="4.83648">
        <ele>206</ele>
        <time>2012-01-08T07:41:42Z</time>
      </trkpt>
      <trkpt lat="45.80789" lon="4.83674">
        <ele>204</ele>
        <time>2012-01-08T07:41:46Z</time>
      </trkpt>
      <trkpt lat="45.80796" lon="4.83681">
        <ele>204</ele>
        <time>2012-01-08T07:41:47Z</time>
      </trkpt>
      <trkpt lat="45.80802" lon="4.8369">
        <ele>204</ele>
        <time>2012-01-08T07:41:48Z</time>
      </trkpt>
      <trkpt lat="45.80809" lon="4.83703">
        <ele>204</ele>
        <time>2012-01-08T07:41:50Z</time>
      </trkpt>
      <trkpt lat="45.80812" lon="4.83708">
        <ele>204</ele>
        <time>2012-01-08T07:41:51Z</time>
      </trkpt>
      <trkpt lat="45.80817" lon="4.83712">
        <ele>204</ele>
        <time>2012-01-08T07:41:52Z</time>
      </trkpt>
      <trkpt lat="45.80821" lon="4.83712">
        <ele>204</ele>
        <time>2012-01-08T07:41:53Z</time>
      </trkpt>
      <trkpt lat="45.80843" lon="4.83708">
        <ele>206</ele>
        <time>2012-01-08T07:41:57Z</time>
      </trkpt>
      <trkpt lat="45.80853" lon="4.83712">
        <ele>206</ele>
        <time>2012-01-08T07:41:59Z</time>
      </trkpt>
      <trkpt lat="45.80858" lon="4.83714">
        <ele>206</ele>
        <time>2012-01-08T07:42:00Z</time>
      </trkpt>
      <trkpt lat="45.80863" lon="4.83717">
        <ele>206</ele>
        <time>2012-01-08T07:42:01Z</time>
      </trkpt>
      <trkpt lat="45.80885" lon="4.83735">
        <ele>207</ele>
        <time>2012-01-08T07:42:06Z</time>
      </trkpt>
      <trkpt lat="45.8089" lon="4.83739">
        <ele>207</ele>
        <time>2012-01-08T07:42:07Z</time>
      </trkpt>
      <trkpt lat="45.80894" lon="4.83742">
        <ele>207</ele>
        <time>2012-01-08T07:42:08Z</time>
      </trkpt>
      <trkpt lat="45.80921" lon="4.83762">
        <ele>208</ele>
        <time>2012-01-08T07:42:14Z</time>
      </trkpt>
      <trkpt lat="45.80935" lon="4.83772">
        <ele>208</ele>
        <time>2012-01-08T07:42:18Z</time>
      </trkpt>
      <trkpt lat="45.80954" lon="4.83787">
        <ele>208</ele>
        <time>2012-01-08T07:42:23Z</time>
      </trkpt>
      <trkpt lat="45.80961" lon="4.83792">
        <ele>208</ele>
        <time>2012-01-08T07:42:25Z</time>
      </trkpt>
      <trkpt lat="45.80988" lon="4.83803">
        <ele>208</ele>
        <time>2012-01-08T07:42:31Z</time>
      </trkpt>
      <trkpt lat="45.80993" lon="4.83805">
        <ele>208</ele>
        <time>2012-01-08T07:42:32Z</time>
      </trkpt>
      <trkpt lat="45.81023" lon="4.83819">
        <ele>209</ele>
        <time>2012-01-08T07:42:38Z</time>
      </trkpt>
      <trkpt lat="45.81041" lon="4.83824">
        <ele>209</ele>
        <time>2012-01-08T07:42:41Z</time>
      </trkpt>
      <trkpt lat="45.81059" lon="4.8383">
        <ele>209</ele>
        <time>2012-01-08T07:42:44Z</time>
      </trkpt>
      <trkpt lat="45.81085" lon="4.83838">
        <ele>208</ele>
        <time>2012-01-08T07:42:48Z</time>
      </trkpt>
      <trkpt lat="45.811" lon="4.83842">
        <ele>208</ele>
        <time>2012-01-08T07:42:50Z</time>
      </trkpt>
      <trkpt lat="45.81131" lon="4.83849">
        <ele>207</ele>
        <time>2012-01-08T07:42:54Z</time>
      </trkpt>
      <trkpt lat="45.81139" lon="4.8385">
        <ele>207</ele>
        <time>2012-01-08T07:42:55Z</time>
      </trkpt>
      <trkpt lat="45.81181" lon="4.83858">
        <ele>206</ele>
        <time>2012-01-08T07:43:00Z</time>
      </trkpt>
      <trkpt lat="45.81197" lon="4.83861">
        <ele>206</ele>
        <time>2012-01-08T07:43:02Z</time>
      </trkpt>
      <trkpt lat="45.81222" lon="4.83867">
        <ele>205</ele>
        <time>2012-01-08T07:43:05Z</time>
      </trkpt>
      <trkpt lat="45.81262" lon="4.83877">
        <ele>207</ele>
        <time>2012-01-08T07:43:10Z</time>
      </trkpt>
      <trkpt lat="45.81302" lon="4.83892">
        <ele>208</ele>
        <time>2012-01-08T07:43:16Z</time>
      </trkpt>
      <trkpt lat="45.81308" lon="4.83894">
        <ele>209</ele>
        <time>2012-01-08T07:43:17Z</time>
      </trkpt>
      <trkpt lat="45.81343" lon="4.83905">
        <ele>210</ele>
        <time>2012-01-08T07:43:23Z</time>
      </trkpt>
      <trkpt lat="45.81374" lon="4.83914">
        <ele>209</ele>
        <time>2012-01-08T07:43:28Z</time>
      </trkpt>
      <trkpt lat="45.81381" lon="4.83916">
        <ele>209</ele>
        <time>2012-01-08T07:43:29Z</time>
      </trkpt>
      <trkpt lat="45.81396" lon="4.83919">
        <ele>208</ele>
        <time>2012-01-08T07:43:31Z</time>
      </trkpt>
      <trkpt lat="45.8141" lon="4.83918">
        <ele>208</ele>
        <time>2012-01-08T07:43:33Z</time>
      </trkpt>
      <trkpt lat="45.81424" lon="4.83916">
        <ele>208</ele>
        <time>2012-01-08T07:43:35Z</time>
      </trkpt>
      <trkpt lat="45.81446" lon="4.83913">
        <ele>208</ele>
        <time>2012-01-08T07:43:38Z</time>
      </trkpt>
      <trkpt lat="45.8146" lon="4.83912">
        <ele>208</ele>
        <time>2012-01-08T07:43:40Z</time>
      </trkpt>
      <trkpt lat="45.81487" lon="4.83914">
        <ele>207</ele>
        <time>2012-01-08T07:43:44Z</time>
      </trkpt>
      <trkpt lat="45.815" lon="4.83917">
        <ele>206</ele>
        <time>2012-01-08T07:43:46Z</time>
      </trkpt>
      <trkpt lat="45.81513" lon="4.8392">
        <ele>206</ele>
        <time>2012-01-08T07:43:48Z</time>
      </trkpt>
      <trkpt lat="45.81525" lon="4.83924">
        <ele>207</ele>
        <time>2012-01-08T07:43:50Z</time>
      </trkpt>
      <trkpt lat="45.81535" lon="4.83931">
        <ele>207</ele>
        <time>2012-01-08T07:43:52Z</time>
      </trkpt>
      <trkpt lat="45.81554" lon="4.83942">
        <ele>207</ele>
        <time>2012-01-08T07:43:56Z</time>
      </trkpt>
      <trkpt lat="45.81572" lon="4.83953">
        <ele>207</ele>
        <time>2012-01-08T07:44:00Z</time>
      </trkpt>
      <trkpt lat="45.81575" lon="4.83955">
        <ele>207</ele>
        <time>2012-01-08T07:44:01Z</time>
      </trkpt>
      <trkpt lat="45.81579" lon="4.83956">
        <ele>207</ele>
        <time>2012-01-08T07:44:02Z</time>
      </trkpt>
      <trkpt lat="45.81595" lon="4.83964">
        <ele>209</ele>
        <time>2012-01-08T07:44:07Z</time>
      </trkpt>
      <trkpt lat="45.81597" lon="4.83975">
        <ele>208</ele>
        <time>2012-01-08T07:44:10Z</time>
      </trkpt>
      <trkpt lat="45.81596" lon="4.83979">
        <ele>208</ele>
        <time>2012-01-08T07:44:11Z</time>
      </trkpt>
      <trkpt lat="45.81593" lon="4.83983">
        <ele>208</ele>
        <time>2012-01-08T07:44:12Z</time>
      </trkpt>
      <trkpt lat="45.81585" lon="4.84004">
        <ele>206</ele>
        <time>2012-01-08T07:44:15Z</time>
      </trkpt>
      <trkpt lat="45.81583" lon="4.8401">
        <ele>205</ele>
        <time>2012-01-08T07:44:16Z</time>
      </trkpt>
      <trkpt lat="45.81586" lon="4.8402">
        <ele>205</ele>
        <time>2012-01-08T07:44:18Z</time>
      </trkpt>
      <trkpt lat="45.81594" lon="4.84027">
        <ele>204</ele>
        <time>2012-01-08T07:44:20Z</time>
      </trkpt>
      <trkpt lat="45.816" lon="4.84031">
        <ele>204</ele>
        <time>2012-01-08T07:44:21Z</time>
      </trkpt>
      <trkpt lat="45.8163" lon="4.84048">
        <ele>204</ele>
        <time>2012-01-08T07:44:26Z</time>
      </trkpt>
      <trkpt lat="45.81636" lon="4.84051">
        <ele>204</ele>
        <time>2012-01-08T07:44:27Z</time>
      </trkpt>
      <trkpt lat="45.81666" lon="4.84071">
        <ele>203</ele>
        <time>2012-01-08T07:44:33Z</time>
      </trkpt>
      <trkpt lat="45.8167" lon="4.84075">
        <ele>204</ele>
        <time>2012-01-08T07:44:35Z</time>
      </trkpt>
      <trkpt lat="45.81671" lon="4.84077">
        <ele>203</ele>
        <time>2012-01-08T07:44:36Z</time>
      </trkpt>
      <trkpt lat="45.81669" lon="4.84091">
        <ele>202</ele>
        <time>2012-01-08T07:44:39Z</time>
      </trkpt>
      <trkpt lat="45.81663" lon="4.8412">
        <ele>200</ele>
        <time>2012-01-08T07:44:43Z</time>
      </trkpt>
      <trkpt lat="45.81661" lon="4.84129">
        <ele>200</ele>
        <time>2012-01-08T07:44:44Z</time>
      </trkpt>
      <trkpt lat="45.81655" lon="4.84149">
        <ele>200</ele>
        <time>2012-01-08T07:44:47Z</time>
      </trkpt>
      <trkpt lat="45.81652" lon="4.84157">
        <ele>200</ele>
        <time>2012-01-08T07:44:50Z</time>
      </trkpt>
      <trkpt lat="45.81648" lon="4.84171">
        <ele>197</ele>
        <time>2012-01-08T07:44:53Z</time>
      </trkpt>
      <trkpt lat="45.81646" lon="4.84178">
        <ele>197</ele>
        <time>2012-01-08T07:44:54Z</time>
      </trkpt>
      <trkpt lat="45.81643" lon="4.84194">
        <ele>196</ele>
        <time>2012-01-08T07:44:56Z</time>
      </trkpt>
      <trkpt lat="45.81642" lon="4.84213">
        <ele>195</ele>
        <time>2012-01-08T07:44:58Z</time>
      </trkpt>
      <trkpt lat="45.81642" lon="4.84224">
        <ele>195</ele>
        <time>2012-01-08T07:44:59Z</time>
      </trkpt>
      <trkpt lat="45.81645" lon="4.84249">
        <ele>195</ele>
        <time>2012-01-08T07:45:01Z</time>
      </trkpt>
      <trkpt lat="45.81647" lon="4.84262">
        <ele>191</ele>
        <time>2012-01-08T07:45:02Z</time>
      </trkpt>
      <trkpt lat="45.81649" lon="4.84275">
        <ele>190</ele>
        <time>2012-01-08T07:45:03Z</time>
      </trkpt>
      <trkpt lat="45.81658" lon="4.84323">
        <ele>186</ele>
        <time>2012-01-08T07:45:07Z</time>
      </trkpt>
      <trkpt lat="45.8166" lon="4.84335">
        <ele>184</ele>
        <time>2012-01-08T07:45:08Z</time>
      </trkpt>
      <trkpt lat="45.81664" lon="4.84346">
        <ele>183</ele>
        <time>2012-01-08T07:45:09Z</time>
      </trkpt>
      <trkpt lat="45.81669" lon="4.84356">
        <ele>184</ele>
        <time>2012-01-08T07:45:10Z</time>
      </trkpt>
      <trkpt lat="45.81692" lon="4.84374">
        <ele>184</ele>
        <time>2012-01-08T07:45:13Z</time>
      </trkpt>
      <trkpt lat="45.81701" lon="4.84379">
        <ele>184</ele>
        <time>2012-01-08T07:45:14Z</time>
      </trkpt>
      <trkpt lat="45.81729" lon="4.84395">
        <ele>184</ele>
        <time>2012-01-08T07:45:18Z</time>
      </trkpt>
      <trkpt lat="45.81752" lon="4.84411">
        <ele>184</ele>
        <time>2012-01-08T07:45:22Z</time>
      </trkpt>
      <trkpt lat="45.81764" lon="4.84415">
        <ele>185</ele>
        <time>2012-01-08T07:45:24Z</time>
      </trkpt>
      <trkpt lat="45.81787" lon="4.84426">
        <ele>183</ele>
        <time>2012-01-08T07:45:28Z</time>
      </trkpt>
      <trkpt lat="45.818" lon="4.84436">
        <ele>183</ele>
        <time>2012-01-08T07:45:31Z</time>
      </trkpt>
      <trkpt lat="45.81811" lon="4.84443">
        <ele>183</ele>
        <time>2012-01-08T07:45:33Z</time>
      </trkpt>
      <trkpt lat="45.81816" lon="4.84448">
        <ele>183</ele>
        <time>2012-01-08T07:45:34Z</time>
      </trkpt>
      <trkpt lat="45.81835" lon="4.8446">
        <ele>183</ele>
        <time>2012-01-08T07:45:37Z</time>
      </trkpt>
      <trkpt lat="45.81865" lon="4.84468">
        <ele>183</ele>
        <time>2012-01-08T07:45:41Z</time>
      </trkpt>
      <trkpt lat="45.81873" lon="4.84471">
        <ele>182</ele>
        <time>2012-01-08T07:45:42Z</time>
      </trkpt>
      <trkpt lat="45.81911" lon="4.84479">
        <ele>180</ele>
        <time>2012-01-08T07:45:47Z</time>
      </trkpt>
      <trkpt lat="45.81949" lon="4.84485">
        <ele>182</ele>
        <time>2012-01-08T07:45:52Z</time>
      </trkpt>
      <trkpt lat="45.81964" lon="4.84488">
        <ele>183</ele>
        <time>2012-01-08T07:45:54Z</time>
      </trkpt>
      <trkpt lat="45.81988" lon="4.84495">
        <ele>181</ele>
        <time>2012-01-08T07:45:57Z</time>
      </trkpt>
      <trkpt lat="45.82002" lon="4.84501">
        <ele>178</ele>
        <time>2012-01-08T07:45:59Z</time>
      </trkpt>
      <trkpt lat="45.82024" lon="4.84508">
        <ele>178</ele>
        <time>2012-01-08T07:46:02Z</time>
      </trkpt>
      <trkpt lat="45.82038" lon="4.84513">
        <ele>178</ele>
        <time>2012-01-08T07:46:04Z</time>
      </trkpt>
      <trkpt lat="45.82059" lon="4.84523">
        <ele>179</ele>
        <time>2012-01-08T07:46:07Z</time>
      </trkpt>
      <trkpt lat="45.82072" lon="4.84529">
        <ele>179</ele>
        <time>2012-01-08T07:46:09Z</time>
      </trkpt>
      <trkpt lat="45.82091" lon="4.84533">
        <ele>180</ele>
        <time>2012-01-08T07:46:12Z</time>
      </trkpt>
      <trkpt lat="45.82097" lon="4.84533">
        <ele>180</ele>
        <time>2012-01-08T07:46:13Z</time>
      </trkpt>
      <trkpt lat="45.82104" lon="4.84533">
        <ele>180</ele>
        <time>2012-01-08T07:46:14Z</time>
      </trkpt>
      <trkpt lat="45.82135" lon="4.84532">
        <ele>180</ele>
        <time>2012-01-08T07:46:19Z</time>
      </trkpt>
      <trkpt lat="45.82146" lon="4.84531">
        <ele>180</ele>
        <time>2012-01-08T07:46:21Z</time>
      </trkpt>
      <trkpt lat="45.82174" lon="4.84517">
        <ele>182</ele>
        <time>2012-01-08T07:46:25Z</time>
      </trkpt>
      <trkpt lat="45.82185" lon="4.84517">
        <ele>181</ele>
        <time>2012-01-08T07:46:27Z</time>
      </trkpt>
      <trkpt lat="45.82213" lon="4.84518">
        <ele>181</ele>
        <time>2012-01-08T07:46:32Z</time>
      </trkpt>
      <trkpt lat="45.82231" lon="4.84517">
        <ele>182</ele>
        <time>2012-01-08T07:46:35Z</time>
      </trkpt>
      <trkpt lat="45.82249" lon="4.84516">
        <ele>183</ele>
        <time>2012-01-08T07:46:38Z</time>
      </trkpt>
      <trkpt lat="45.82261" lon="4.84514">
        <ele>183</ele>
        <time>2012-01-08T07:46:40Z</time>
      </trkpt>
      <trkpt lat="45.8229" lon="4.84515">
        <ele>182</ele>
        <time>2012-01-08T07:46:45Z</time>
      </trkpt>
      <trkpt lat="45.82296" lon="4.84516">
        <ele>181</ele>
        <time>2012-01-08T07:46:46Z</time>
      </trkpt>
      <trkpt lat="45.82326" lon="4.84522">
        <ele>182</ele>
        <time>2012-01-08T07:46:51Z</time>
      </trkpt>
      <trkpt lat="45.82355" lon="4.84528">
        <ele>180</ele>
        <time>2012-01-08T07:46:56Z</time>
      </trkpt>
      <trkpt lat="45.8236" lon="4.84529">
        <ele>179</ele>
        <time>2012-01-08T07:46:57Z</time>
      </trkpt>
      <trkpt lat="45.82366" lon="4.8453">
        <ele>179</ele>
        <time>2012-01-08T07:46:58Z</time>
      </trkpt>
      <trkpt lat="45.82377" lon="4.84533">
        <ele>179</ele>
        <time>2012-01-08T07:47:00Z</time>
      </trkpt>
      <trkpt lat="45.824" lon="4.8454">
        <ele>178</ele>
        <time>2012-01-08T07:47:04Z</time>
      </trkpt>
      <trkpt lat="45.82406" lon="4.8454">
        <ele>178</ele>
        <time>2012-01-08T07:47:05Z</time>
      </trkpt>
      <trkpt lat="45.82411" lon="4.84541">
        <ele>178</ele>
        <time>2012-01-08T07:47:06Z</time>
      </trkpt>
      <trkpt lat="45.82421" lon="4.84546">
        <ele>179</ele>
        <time>2012-01-08T07:47:08Z</time>
      </trkpt>
      <trkpt lat="45.82442" lon="4.84557">
        <ele>178</ele>
        <time>2012-01-08T07:47:12Z</time>
      </trkpt>
      <trkpt lat="45.82474" lon="4.84569">
        <ele>179</ele>
        <time>2012-01-08T07:47:18Z</time>
      </trkpt>
      <trkpt lat="45.82479" lon="4.8457">
        <ele>178</ele>
        <time>2012-01-08T07:47:19Z</time>
      </trkpt>
      <trkpt lat="45.825" lon="4.8457">
        <ele>179</ele>
        <time>2012-01-08T07:47:23Z</time>
      </trkpt>
      <trkpt lat="45.82512" lon="4.84569">
        <ele>180</ele>
        <time>2012-01-08T07:47:25Z</time>
      </trkpt>
      <trkpt lat="45.82517" lon="4.84567">
        <ele>180</ele>
        <time>2012-01-08T07:47:26Z</time>
      </trkpt>
      <trkpt lat="45.82531" lon="4.84563">
        <ele>181</ele>
        <time>2012-01-08T07:47:29Z</time>
      </trkpt>
      <trkpt lat="45.8254" lon="4.84564">
        <ele>181</ele>
        <time>2012-01-08T07:47:31Z</time>
      </trkpt>
      <trkpt lat="45.82554" lon="4.84568">
        <ele>181</ele>
        <time>2012-01-08T07:47:34Z</time>
      </trkpt>
      <trkpt lat="45.82577" lon="4.84579">
        <ele>179</ele>
        <time>2012-01-08T07:47:40Z</time>
      </trkpt>
      <trkpt lat="45.82589" lon="4.84583">
        <ele>178</ele>
        <time>2012-01-08T07:47:43Z</time>
      </trkpt>
      <trkpt lat="45.82611" lon="4.84593">
        <ele>179</ele>
        <time>2012-01-08T07:47:49Z</time>
      </trkpt>
      <trkpt lat="45.82626" lon="4.84596">
        <ele>180</ele>
        <time>2012-01-08T07:47:54Z</time>
      </trkpt>
      <trkpt lat="45.82651" lon="4.84606">
        <ele>180</ele>
        <time>2012-01-08T07:47:59Z</time>
      </trkpt>
      <trkpt lat="45.82662" lon="4.84611">
        <ele>180</ele>
        <time>2012-01-08T07:48:01Z</time>
      </trkpt>
      <trkpt lat="45.82681" lon="4.84618">
        <ele>181</ele>
        <time>2012-01-08T07:48:04Z</time>
      </trkpt>
      <trkpt lat="45.827" lon="4.84627">
        <ele>180</ele>
        <time>2012-01-08T07:48:07Z</time>
      </trkpt>
      <trkpt lat="45.82713" lon="4.84631">
        <ele>180</ele>
        <time>2012-01-08T07:48:09Z</time>
      </trkpt>
      <trkpt lat="45.82737" lon="4.84633">
        <ele>180</ele>
        <time>2012-01-08T07:48:13Z</time>
      </trkpt>
      <trkpt lat="45.82743" lon="4.84633">
        <ele>179</ele>
        <time>2012-01-08T07:48:14Z</time>
      </trkpt>
      <trkpt lat="45.8275" lon="4.84633">
        <ele>179</ele>
        <time>2012-01-08T07:48:15Z</time>
      </trkpt>
      <trkpt lat="45.82769" lon="4.84621">
        <ele>179</ele>
        <time>2012-01-08T07:48:18Z</time>
      </trkpt>
      <trkpt lat="45.82775" lon="4.84619">
        <ele>179</ele>
        <time>2012-01-08T07:48:19Z</time>
      </trkpt>
      <trkpt lat="45.82801" lon="4.84606">
        <ele>179</ele>
        <time>2012-01-08T07:48:24Z</time>
      </trkpt>
      <trkpt lat="45.82811" lon="4.84602">
        <ele>179</ele>
        <time>2012-01-08T07:48:26Z</time>
      </trkpt>
      <trkpt lat="45.82841" lon="4.84588">
        <ele>179</ele>
        <time>2012-01-08T07:48:32Z</time>
      </trkpt>
      <trkpt lat="45.8285" lon="4.84584">
        <ele>179</ele>
        <time>2012-01-08T07:48:34Z</time>
      </trkpt>
      <trkpt lat="45.82863" lon="4.8458">
        <ele>184</ele>
        <time>2012-01-08T07:48:37Z</time>
      </trkpt>
      <trkpt lat="45.82872" lon="4.84579">
        <ele>184</ele>
        <time>2012-01-08T07:48:39Z</time>
      </trkpt>
      <trkpt lat="45.82876" lon="4.84579">
        <ele>184</ele>
        <time>2012-01-08T07:48:40Z</time>
      </trkpt>
      <trkpt lat="45.82889" lon="4.8458">
        <ele>184</ele>
        <time>2012-01-08T07:48:43Z</time>
      </trkpt>
      <trkpt lat="45.829" lon="4.8458">
        <ele>183</ele>
        <time>2012-01-08T07:48:45Z</time>
      </trkpt>
      <trkpt lat="45.82929" lon="4.84585">
        <ele>179</ele>
        <time>2012-01-08T07:48:51Z</time>
      </trkpt>
      <trkpt lat="45.82939" lon="4.84586">
        <ele>179</ele>
        <time>2012-01-08T07:48:55Z</time>
      </trkpt>
      <trkpt lat="45.82942" lon="4.84586">
        <ele>178</ele>
        <time>2012-01-08T07:48:59Z</time>
      </trkpt>
      <trkpt lat="45.82942" lon="4.84587">
        <ele>178</ele>
        <time>2012-01-08T07:49:04Z</time>
      </trkpt>
      <trkpt lat="45.82948" lon="4.8459">
        <ele>178</ele>
        <time>2012-01-08T07:49:08Z</time>
      </trkpt>
      <trkpt lat="45.82965" lon="4.84595">
        <ele>178</ele>
        <time>2012-01-08T07:49:14Z</time>
      </trkpt>
      <trkpt lat="45.8297" lon="4.84597">
        <ele>178</ele>
        <time>2012-01-08T07:49:18Z</time>
      </trkpt>
      <trkpt lat="45.8297" lon="4.84598">
        <ele>178</ele>
        <time>2012-01-08T07:49:23Z</time>
      </trkpt>
      <trkpt lat="45.82972" lon="4.846">
        <ele>178</ele>
        <time>2012-01-08T07:49:28Z</time>
      </trkpt>
      <trkpt lat="45.8298" lon="4.84612">
        <ele>178</ele>
        <time>2012-01-08T07:49:34Z</time>
      </trkpt>
      <trkpt lat="45.82992" lon="4.84629">
        <ele>177</ele>
        <time>2012-01-08T07:49:40Z</time>
      </trkpt>
      <trkpt lat="45.82995" lon="4.84632">
        <ele>177</ele>
        <time>2012-01-08T07:49:41Z</time>
      </trkpt>
      <trkpt lat="45.83017" lon="4.84656">
        <ele>176</ele>
        <time>2012-01-08T07:49:47Z</time>
      </trkpt>
      <trkpt lat="45.83021" lon="4.8466">
        <ele>176</ele>
        <time>2012-01-08T07:49:48Z</time>
      </trkpt>
      <trkpt lat="45.83044" lon="4.84683">
        <ele>174</ele>
        <time>2012-01-08T07:49:53Z</time>
      </trkpt>
      <trkpt lat="45.83054" lon="4.84694">
        <ele>174</ele>
        <time>2012-01-08T07:49:55Z</time>
      </trkpt>
      <trkpt lat="45.83068" lon="4.8471">
        <ele>173</ele>
        <time>2012-01-08T07:49:58Z</time>
      </trkpt>
      <trkpt lat="45.83081" lon="4.84738">
        <ele>173</ele>
        <time>2012-01-08T07:50:02Z</time>
      </trkpt>
      <trkpt lat="45.83095" lon="4.8475">
        <ele>171</ele>
        <time>2012-01-08T07:50:05Z</time>
      </trkpt>
      <trkpt lat="45.83106" lon="4.84752">
        <ele>170</ele>
        <time>2012-01-08T07:50:07Z</time>
      </trkpt>
      <trkpt lat="45.83112" lon="4.84754">
        <ele>169</ele>
        <time>2012-01-08T07:50:08Z</time>
      </trkpt>
      <trkpt lat="45.83116" lon="4.84757">
        <ele>169</ele>
        <time>2012-01-08T07:50:09Z</time>
      </trkpt>
      <trkpt lat="45.83144" lon="4.84785">
        <ele>168</ele>
        <time>2012-01-08T07:50:16Z</time>
      </trkpt>
      <trkpt lat="45.83147" lon="4.84789">
        <ele>167</ele>
        <time>2012-01-08T07:50:17Z</time>
      </trkpt>
      <trkpt lat="45.83164" lon="4.84805">
        <ele>167</ele>
        <time>2012-01-08T07:50:22Z</time>
      </trkpt>
      <trkpt lat="45.83171" lon="4.84813">
        <ele>165</ele>
        <time>2012-01-08T07:50:24Z</time>
      </trkpt>
      <trkpt lat="45.83178" lon="4.8482">
        <ele>165</ele>
        <time>2012-01-08T07:50:26Z</time>
      </trkpt>
      <trkpt lat="45.83199" lon="4.8484">
        <ele>166</ele>
        <time>2012-01-08T07:50:31Z</time>
      </trkpt>
      <trkpt lat="45.83211" lon="4.84853">
        <ele>166</ele>
        <time>2012-01-08T07:50:34Z</time>
      </trkpt>
      <trkpt lat="45.83216" lon="4.84857">
        <ele>166</ele>
        <time>2012-01-08T07:50:36Z</time>
      </trkpt>
      <trkpt lat="45.83222" lon="4.84864">
        <ele>167</ele>
        <time>2012-01-08T07:50:41Z</time>
      </trkpt>
      <trkpt lat="45.83227" lon="4.84869">
        <ele>167</ele>
        <time>2012-01-08T07:50:44Z</time>
      </trkpt>
      <trkpt lat="45.83227" lon="4.84874">
        <ele>167</ele>
        <time>2012-01-08T07:50:46Z</time>
      </trkpt>
      <trkpt lat="45.83226" lon="4.8488">
        <ele>167</ele>
        <time>2012-01-08T07:50:48Z</time>
      </trkpt>
      <trkpt lat="45.83222" lon="4.84891">
        <ele>168</ele>
        <time>2012-01-08T07:50:51Z</time>
      </trkpt>
      <trkpt lat="45.8322" lon="4.84895">
        <ele>168</ele>
        <time>2012-01-08T07:50:52Z</time>
      </trkpt>
      <trkpt lat="45.83214" lon="4.84915">
        <ele>168</ele>
        <time>2012-01-08T07:50:57Z</time>
      </trkpt>
      <trkpt lat="45.83206" lon="4.84934">
        <ele>169</ele>
        <time>2012-01-08T07:51:02Z</time>
      </trkpt>
      <trkpt lat="45.83208" lon="4.8494">
        <ele>170</ele>
        <time>2012-01-08T07:51:04Z</time>
      </trkpt>
      <trkpt lat="45.8321" lon="4.8494">
        <ele>170</ele>
        <time>2012-01-08T07:51:05Z</time>
      </trkpt>
      <trkpt lat="45.83217" lon="4.84932">
        <ele>170</ele>
        <time>2012-01-08T07:51:08Z</time>
      </trkpt>
      <trkpt lat="45.83222" lon="4.84925">
        <ele>170</ele>
        <time>2012-01-08T07:51:10Z</time>
      </trkpt>
      <trkpt lat="45.83229" lon="4.84916">
        <ele>169</ele>
        <time>2012-01-08T07:51:13Z</time>
      </trkpt>
      <trkpt lat="45.83238" lon="4.84912">
        <ele>170</ele>
        <time>2012-01-08T07:51:17Z</time>
      </trkpt>
      <trkpt lat="45.83241" lon="4.84908">
        <ele>170</ele>
        <time>2012-01-08T07:51:19Z</time>
      </trkpt>
      <trkpt lat="45.83243" lon="4.84903">
        <ele>170</ele>
        <time>2012-01-08T07:51:22Z</time>
      </trkpt>
      <trkpt lat="45.83245" lon="4.84903">
        <ele>170</ele>
        <time>2012-01-08T07:51:40Z</time>
      </trkpt>
      <trkpt lat="45.83244" lon="4.84904">
        <ele>170</ele>
        <time>2012-01-08T07:51:49Z</time>
      </trkpt>
      <trkpt lat="45.83245" lon="4.84905">
        <ele>170</ele>
        <time>2012-01-08T07:51:51Z</time>
      </trkpt>
      <trkpt lat="45.83246" lon="4.84904">
        <ele>170</ele>
        <time>2012-01-08T07:51:58Z</time>
      </trkpt>
      <trkpt lat="45.83244" lon="4.84905">
        <ele>170</ele>
        <time>2012-01-08T07:52:18Z</time>
      </trkpt>
      <trkpt lat="45.83244" lon="4.84902">
        <ele>169</ele>
        <time>2012-01-08T07:52:22Z</time>
      </trkpt>
      <trkpt lat="45.83244" lon="4.84903">
        <ele>170</ele>
        <time>2012-01-08T07:52:38Z</time>
      </trkpt>
      <trkpt lat="45.83244" lon="4.84905">
        <ele>170</ele>
        <time>2012-01-08T07:52:43Z</time>
      </trkpt>
      <trkpt lat="45.83246" lon="4.84904">
        <ele>170</ele>
        <time>2012-01-08T07:52:48Z</time>
      </trkpt>
      <trkpt lat="45.83245" lon="4.84904">
        <ele>170</ele>
        <time>2012-01-08T07:53:02Z</time>
      </trkpt>
      <trkpt lat="45.83245" lon="4.84908">
        <ele>170</ele>
        <time>2012-01-08T07:54:18Z</time>
      </trkpt>
      <trkpt lat="45.83244" lon="4.84908">
        <ele>170</ele>
        <time>2012-01-08T07:54:24Z</time>
      </trkpt>
      <trkpt lat="45.83243" lon="4.84906">
        <ele>170</ele>
        <time>2012-01-08T07:54:30Z</time>
      </trkpt>
      <trkpt lat="45.83243" lon="4.84906">
        <ele>170</ele>
        <time>2012-01-08T07:54:36Z</time>
      </trkpt>
      <trkpt lat="45.83246" lon="4.84902">
        <ele>170</ele>
        <time>2012-01-08T07:55:03Z</time>
      </trkpt>
      <trkpt lat="45.83247" lon="4.84903">
        <ele>170</ele>
        <time>2012-01-08T07:55:08Z</time>
      </trkpt>
      <trkpt lat="45.83245" lon="4.84905">
        <ele>170</ele>
        <time>2012-01-08T07:56:18Z</time>
      </trkpt>
      <trkpt lat="45.83244" lon="4.84905">
        <ele>170</ele>
        <time>2012-01-08T07:56:25Z</time>
      </trkpt>
      <trkpt lat="45.83246" lon="4.84903">
        <ele>170</ele>
        <time>2012-01-08T07:58:03Z</time>
      </trkpt>
      <trkpt lat="45.83248" lon="4.84901">
        <ele>169</ele>
        <time>2012-01-08T07:58:09Z</time>
      </trkpt>
      <trkpt lat="45.83244" lon="4.84904">
        <ele>170</ele>
        <time>2012-01-08T07:58:43Z</time>
      </trkpt>
      <trkpt lat="45.83247" lon="4.84906">
        <ele>170</ele>
        <time>2012-01-08T08:00:04Z</time>
      </trkpt>
      <trkpt lat="45.83246" lon="4.84901">
        <ele>169</ele>
        <time>2012-01-08T08:00:31Z</time>
      </trkpt>
      <trkpt lat="45.83246" lon="4.849">
        <ele>169</ele>
        <time>2012-01-08T08:00:37Z</time>
      </trkpt>
      <trkpt lat="45.83245" lon="4.849">
        <ele>169</ele>
        <time>2012-01-08T08:00:38Z</time>
      </trkpt>
      <trkpt lat="45.83243" lon="4.849">
        <ele>169</ele>
        <time>2012-01-08T08:00:50Z</time>
      </trkpt>
      <trkpt lat="45.83242" lon="4.84899">
        <ele>169</ele>
        <time>2012-01-08T08:00:57Z</time>
      </trkpt>
      <trkpt lat="45.83244" lon="4.84899">
        <ele>169</ele>
        <time>2012-01-08T08:01:02Z</time>
      </trkpt>
      <trkpt lat="45.83245" lon="4.84897">
        <ele>169</ele>
        <time>2012-01-08T08:01:07Z</time>
      </trkpt>
      <trkpt lat="45.83246" lon="4.84896">
        <ele>169</ele>
        <time>2012-01-08T08:01:09Z</time>
      </trkpt>
      <trkpt lat="45.83249" lon="4.84897">
        <ele>169</ele>
        <time>2012-01-08T08:01:13Z</time>
      </trkpt>
      <trkpt lat="45.83253" lon="4.84901">
        <ele>171</ele>
        <time>2012-01-08T08:01:22Z</time>
      </trkpt>
      <trkpt lat="45.83254" lon="4.84901">
        <ele>171</ele>
        <time>2012-01-08T08:01:32Z</time>
      </trkpt>
      <trkpt lat="45.83255" lon="4.84905">
        <ele>171</ele>
        <time>2012-01-08T08:01:55Z</time>
      </trkpt>
      <trkpt lat="45.83258" lon="4.84902">
        <ele>171</ele>
        <time>2012-01-08T08:03:12Z</time>
      </trkpt>
      <trkpt lat="45.83256" lon="4.84899">
        <ele>171</ele>
        <time>2012-01-08T08:03:29Z</time>
      </trkpt>
      <trkpt lat="45.83254" lon="4.84896">
        <ele>170</ele>
        <time>2012-01-08T08:03:34Z</time>
      </trkpt>
      <trkpt lat="45.83256" lon="4.84899">
        <ele>171</ele>
        <time>2012-01-08T08:03:42Z</time>
      </trkpt>
      <trkpt lat="45.83257" lon="4.84902">
        <ele>171</ele>
        <time>2012-01-08T08:03:48Z</time>
      </trkpt>
      <trkpt lat="45.83251" lon="4.84901">
        <ele>171</ele>
        <time>2012-01-08T08:04:51Z</time>
      </trkpt>
      <trkpt lat="45.83249" lon="4.84901">
        <ele>169</ele>
        <time>2012-01-08T08:04:52Z</time>
      </trkpt>
      <trkpt lat="45.83247" lon="4.84902">
        <ele>169</ele>
        <time>2012-01-08T08:04:54Z</time>
      </trkpt>
      <trkpt lat="45.83243" lon="4.84903">
        <ele>169</ele>
        <time>2012-01-08T08:04:57Z</time>
      </trkpt>
      <trkpt lat="45.83244" lon="4.84903">
        <ele>170</ele>
        <time>2012-01-08T08:05:06Z</time>
      </trkpt>
      <trkpt lat="45.83245" lon="4.849">
        <ele>169</ele>
        <time>2012-01-08T08:05:26Z</time>
      </trkpt>
      <trkpt lat="45.83248" lon="4.84898">
        <ele>169</ele>
        <time>2012-01-08T08:05:36Z</time>
      </trkpt>
      <trkpt lat="45.83247" lon="4.84898">
        <ele>169</ele>
        <time>2012-01-08T08:05:37Z</time>
      </trkpt>
      <trkpt lat="45.83245" lon="4.84899">
        <ele>169</ele>
        <time>2012-01-08T08:05:41Z</time>
      </trkpt>
      <trkpt lat="45.83244" lon="4.84901">
        <ele>169</ele>
        <time>2012-01-08T08:05:50Z</time>
      </trkpt>
      <trkpt lat="45.83245" lon="4.849">
        <ele>169</ele>
        <time>2012-01-08T08:06:07Z</time>
      </trkpt>
      <trkpt lat="45.83249" lon="4.84898">
        <ele>169</ele>
        <time>2012-01-08T08:06:15Z</time>
      </trkpt>
      <trkpt lat="45.83251" lon="4.84901">
        <ele>171</ele>
        <time>2012-01-08T08:06:22Z</time>
      </trkpt>
      <trkpt lat="45.83256" lon="4.84905">
        <ele>171</ele>
        <time>2012-01-08T08:07:20Z</time>
      </trkpt>
      <trkpt lat="45.83257" lon="4.84904">
        <ele>171</ele>
        <time>2012-01-08T08:07:34Z</time>
      </trkpt>
      <trkpt lat="45.83254" lon="4.84901">
        <ele>171</ele>
        <time>2012-01-08T08:07:37Z</time>
      </trkpt>
      <trkpt lat="45.83252" lon="4.849">
        <ele>171</ele>
        <time>2012-01-08T08:07:39Z</time>
      </trkpt>
      <trkpt lat="45.83245" lon="4.84901">
        <ele>169</ele>
        <time>2012-01-08T08:07:45Z</time>
      </trkpt>
      <trkpt lat="45.83245" lon="4.84901">
        <ele>169</ele>
        <time>2012-01-08T08:07:48Z</time>
      </trkpt>
      <trkpt lat="45.83248" lon="4.84909">
        <ele>171</ele>
        <time>2012-01-08T08:08:02Z</time>
      </trkpt>
      <trkpt lat="45.83254" lon="4.8492">
        <ele>172</ele>
        <time>2012-01-08T08:08:07Z</time>
      </trkpt>
      <trkpt lat="45.83258" lon="4.84934">
        <ele>173</ele>
        <time>2012-01-08T08:08:12Z</time>
      </trkpt>
      <trkpt lat="45.8326" lon="4.84937">
        <ele>173</ele>
        <time>2012-01-08T08:08:13Z</time>
      </trkpt>
      <trkpt lat="45.83275" lon="4.84948">
        <ele>173</ele>
        <time>2012-01-08T08:08:19Z</time>
      </trkpt>
      <trkpt lat="45.8329" lon="4.84962">
        <ele>173</ele>
        <time>2012-01-08T08:08:25Z</time>
      </trkpt>
      <trkpt lat="45.83307" lon="4.84972">
        <ele>174</ele>
        <time>2012-01-08T08:08:31Z</time>
      </trkpt>
      <trkpt lat="45.83324" lon="4.84981">
        <ele>174</ele>
        <time>2012-01-08T08:08:37Z</time>
      </trkpt>
      <trkpt lat="45.83328" lon="4.84989">
        <ele>175</ele>
        <time>2012-01-08T08:08:38Z</time>
      </trkpt>
      <trkpt lat="45.83337" lon="4.85002">
        <ele>177</ele>
        <time>2012-01-08T08:08:42Z</time>
      </trkpt>
      <trkpt lat="45.83337" lon="4.85004">
        <ele>177</ele>
        <time>2012-01-08T08:08:43Z</time>
      </trkpt>
      <trkpt lat="45.83329" lon="4.85016">
        <ele>176</ele>
        <time>2012-01-08T08:08:47Z</time>
      </trkpt>
      <trkpt lat="45.83325" lon="4.85024">
        <ele>176</ele>
        <time>2012-01-08T08:08:49Z</time>
      </trkpt>
      <trkpt lat="45.83316" lon="4.85046">
        <ele>176</ele>
        <time>2012-01-08T08:08:54Z</time>
      </trkpt>
      <trkpt lat="45.83308" lon="4.85071">
        <ele>177</ele>
        <time>2012-01-08T08:08:59Z</time>
      </trkpt>
      <trkpt lat="45.83307" lon="4.85075">
        <ele>177</ele>
        <time>2012-01-08T08:09:00Z</time>
      </trkpt>
      <trkpt lat="45.83296" lon="4.85109">
        <ele>178</ele>
        <time>2012-01-08T08:09:07Z</time>
      </trkpt>
      <trkpt lat="45.83293" lon="4.85119">
        <ele>178</ele>
        <time>2012-01-08T08:09:09Z</time>
      </trkpt>
      <trkpt lat="45.83285" lon="4.85144">
        <ele>178</ele>
        <time>2012-01-08T08:09:14Z</time>
      </trkpt>
      <trkpt lat="45.83277" lon="4.85174">
        <ele>178</ele>
        <time>2012-01-08T08:09:19Z</time>
      </trkpt>
      <trkpt lat="45.83273" lon="4.85185">
        <ele>178</ele>
        <time>2012-01-08T08:09:21Z</time>
      </trkpt>
      <trkpt lat="45.83262" lon="4.85224">
        <ele>178</ele>
        <time>2012-01-08T08:09:29Z</time>
      </trkpt>
      <trkpt lat="45.83249" lon="4.85269">
        <ele>175</ele>
        <time>2012-01-08T08:09:37Z</time>
      </trkpt>
      <trkpt lat="45.83248" lon="4.85275">
        <ele>175</ele>
        <time>2012-01-08T08:09:38Z</time>
      </trkpt>
      <trkpt lat="45.83238" lon="4.85312">
        <ele>176</ele>
        <time>2012-01-08T08:09:45Z</time>
      </trkpt>
      <trkpt lat="45.83236" lon="4.85324">
        <ele>177</ele>
        <time>2012-01-08T08:09:47Z</time>
      </trkpt>
      <trkpt lat="45.83226" lon="4.85363">
        <ele>179</ele>
        <time>2012-01-08T08:09:54Z</time>
      </trkpt>
      <trkpt lat="45.83222" lon="4.85373">
        <ele>179</ele>
        <time>2012-01-08T08:09:56Z</time>
      </trkpt>
      <trkpt lat="45.83217" lon="4.85389">
        <ele>179</ele>
        <time>2012-01-08T08:09:59Z</time>
      </trkpt>
      <trkpt lat="45.83215" lon="4.854">
        <ele>179</ele>
        <time>2012-01-08T08:10:01Z</time>
      </trkpt>
      <trkpt lat="45.83212" lon="4.8541">
        <ele>179</ele>
        <time>2012-01-08T08:10:03Z</time>
      </trkpt>
      <trkpt lat="45.83208" lon="4.85426">
        <ele>181</ele>
        <time>2012-01-08T08:10:06Z</time>
      </trkpt>
      <trkpt lat="45.83205" lon="4.85436">
        <ele>181</ele>
        <time>2012-01-08T08:10:08Z</time>
      </trkpt>
      <trkpt lat="45.83194" lon="4.85477">
        <ele>182</ele>
        <time>2012-01-08T08:10:16Z</time>
      </trkpt>
      <trkpt lat="45.83192" lon="4.85482">
        <ele>182</ele>
        <time>2012-01-08T08:10:17Z</time>
      </trkpt>
      <trkpt lat="45.83183" lon="4.85517">
        <ele>184</ele>
        <time>2012-01-08T08:10:24Z</time>
      </trkpt>
      <trkpt lat="45.8318" lon="4.85528">
        <ele>184</ele>
        <time>2012-01-08T08:10:26Z</time>
      </trkpt>
      <trkpt lat="45.83172" lon="4.85554">
        <ele>185</ele>
        <time>2012-01-08T08:10:31Z</time>
      </trkpt>
      <trkpt lat="45.83166" lon="4.85579">
        <ele>187</ele>
        <time>2012-01-08T08:10:36Z</time>
      </trkpt>
      <trkpt lat="45.83167" lon="4.85592">
        <ele>188</ele>
        <time>2012-01-08T08:10:39Z</time>
      </trkpt>
      <trkpt lat="45.83162" lon="4.8561">
        <ele>190</ele>
        <time>2012-01-08T08:10:43Z</time>
      </trkpt>
      <trkpt lat="45.83151" lon="4.85625">
        <ele>191</ele>
        <time>2012-01-08T08:10:48Z</time>
      </trkpt>
      <trkpt lat="45.83153" lon="4.85638">
        <ele>192</ele>
        <time>2012-01-08T08:10:51Z</time>
      </trkpt>
      <trkpt lat="45.83156" lon="4.85649">
        <ele>192</ele>
        <time>2012-01-08T08:10:53Z</time>
      </trkpt>
      <trkpt lat="45.83161" lon="4.85668">
        <ele>193</ele>
        <time>2012-01-08T08:10:56Z</time>
      </trkpt>
      <trkpt lat="45.83162" lon="4.85675">
        <ele>194</ele>
        <time>2012-01-08T08:10:57Z</time>
      </trkpt>
      <trkpt lat="45.83165" lon="4.8569">
        <ele>195</ele>
        <time>2012-01-08T08:10:59Z</time>
      </trkpt>
      <trkpt lat="45.83169" lon="4.85705">
        <ele>191</ele>
        <time>2012-01-08T08:11:01Z</time>
      </trkpt>
      <trkpt lat="45.83176" lon="4.85729">
        <ele>191</ele>
        <time>2012-01-08T08:11:04Z</time>
      </trkpt>
      <trkpt lat="45.83187" lon="4.85768">
        <ele>192</ele>
        <time>2012-01-08T08:11:09Z</time>
      </trkpt>
      <trkpt lat="45.83191" lon="4.85782">
        <ele>191</ele>
        <time>2012-01-08T08:11:11Z</time>
      </trkpt>
      <trkpt lat="45.83202" lon="4.85816">
        <ele>191</ele>
        <time>2012-01-08T08:11:16Z</time>
      </trkpt>
      <trkpt lat="45.83204" lon="4.85824">
        <ele>191</ele>
        <time>2012-01-08T08:11:17Z</time>
      </trkpt>
      <trkpt lat="45.83205" lon="4.85831">
        <ele>191</ele>
        <time>2012-01-08T08:11:18Z</time>
      </trkpt>
      <trkpt lat="45.83209" lon="4.8586">
        <ele>194</ele>
        <time>2012-01-08T08:11:22Z</time>
      </trkpt>
      <trkpt lat="45.83211" lon="4.85882">
        <ele>194</ele>
        <time>2012-01-08T08:11:25Z</time>
      </trkpt>
      <trkpt lat="45.83216" lon="4.85932">
        <ele>198</ele>
        <time>2012-01-08T08:11:32Z</time>
      </trkpt>
      <trkpt lat="45.83217" lon="4.85939">
        <ele>198</ele>
        <time>2012-01-08T08:11:33Z</time>
      </trkpt>
      <trkpt lat="45.83222" lon="4.85996">
        <ele>198</ele>
        <time>2012-01-08T08:11:41Z</time>
      </trkpt>
      <trkpt lat="45.83229" lon="4.86051">
        <ele>200</ele>
        <time>2012-01-08T08:11:49Z</time>
      </trkpt>
      <trkpt lat="45.83229" lon="4.86058">
        <ele>199</ele>
        <time>2012-01-08T08:11:50Z</time>
      </trkpt>
      <trkpt lat="45.83231" lon="4.86109">
        <ele>201</ele>
        <time>2012-01-08T08:11:57Z</time>
      </trkpt>
      <trkpt lat="45.83232" lon="4.8613">
        <ele>202</ele>
        <time>2012-01-08T08:12:00Z</time>
      </trkpt>
      <trkpt lat="45.83234" lon="4.8616">
        <ele>202</ele>
        <time>2012-01-08T08:12:04Z</time>
      </trkpt>
      <trkpt lat="45.83235" lon="4.86198">
        <ele>205</ele>
        <time>2012-01-08T08:12:09Z</time>
      </trkpt>
      <trkpt lat="45.83236" lon="4.86213">
        <ele>206</ele>
        <time>2012-01-08T08:12:11Z</time>
      </trkpt>
      <trkpt lat="45.83236" lon="4.86262">
        <ele>207</ele>
        <time>2012-01-08T08:12:18Z</time>
      </trkpt>
      <trkpt lat="45.83235" lon="4.86268">
        <ele>208</ele>
        <time>2012-01-08T08:12:19Z</time>
      </trkpt>
      <trkpt lat="45.83232" lon="4.86295">
        <ele>209</ele>
        <time>2012-01-08T08:12:23Z</time>
      </trkpt>
      <trkpt lat="45.83232" lon="4.86308">
        <ele>208</ele>
        <time>2012-01-08T08:12:25Z</time>
      </trkpt>
      <trkpt lat="45.8323" lon="4.86322">
        <ele>208</ele>
        <time>2012-01-08T08:12:27Z</time>
      </trkpt>
      <trkpt lat="45.83229" lon="4.86337">
        <ele>208</ele>
        <time>2012-01-08T08:12:29Z</time>
      </trkpt>
      <trkpt lat="45.83226" lon="4.86378">
        <ele>211</ele>
        <time>2012-01-08T08:12:35Z</time>
      </trkpt>
      <trkpt lat="45.83224" lon="4.86406">
        <ele>210</ele>
        <time>2012-01-08T08:12:39Z</time>
      </trkpt>
      <trkpt lat="45.83222" lon="4.86434">
        <ele>209</ele>
        <time>2012-01-08T08:12:43Z</time>
      </trkpt>
      <trkpt lat="45.83219" lon="4.86454">
        <ele>209</ele>
        <time>2012-01-08T08:12:46Z</time>
      </trkpt>
      <trkpt lat="45.83218" lon="4.86461">
        <ele>209</ele>
        <time>2012-01-08T08:12:47Z</time>
      </trkpt>
      <trkpt lat="45.83211" lon="4.86479">
        <ele>209</ele>
        <time>2012-01-08T08:12:50Z</time>
      </trkpt>
      <trkpt lat="45.83208" lon="4.86484">
        <ele>209</ele>
        <time>2012-01-08T08:12:51Z</time>
      </trkpt>
      <trkpt lat="45.83205" lon="4.86489">
        <ele>210</ele>
        <time>2012-01-08T08:12:52Z</time>
      </trkpt>
      <trkpt lat="45.83186" lon="4.86523">
        <ele>208</ele>
        <time>2012-01-08T08:12:59Z</time>
      </trkpt>
      <trkpt lat="45.83183" lon="4.86527">
        <ele>208</ele>
        <time>2012-01-08T08:13:00Z</time>
      </trkpt>
      <trkpt lat="45.8317" lon="4.8654">
        <ele>208</ele>
        <time>2012-01-08T08:13:04Z</time>
      </trkpt>
      <trkpt lat="45.83169" lon="4.86544">
        <ele>208</ele>
        <time>2012-01-08T08:13:05Z</time>
      </trkpt>
      <trkpt lat="45.83171" lon="4.86552">
        <ele>207</ele>
        <time>2012-01-08T08:13:07Z</time>
      </trkpt>
      <trkpt lat="45.83178" lon="4.86557">
        <ele>207</ele>
        <time>2012-01-08T08:13:09Z</time>
      </trkpt>
      <trkpt lat="45.83182" lon="4.8656">
        <ele>207</ele>
        <time>2012-01-08T08:13:10Z</time>
      </trkpt>
      <trkpt lat="45.83186" lon="4.86563">
        <ele>207</ele>
        <time>2012-01-08T08:13:11Z</time>
      </trkpt>
      <trkpt lat="45.83195" lon="4.86571">
        <ele>206</ele>
        <time>2012-01-08T08:13:13Z</time>
      </trkpt>
      <trkpt lat="45.83208" lon="4.86588">
        <ele>206</ele>
        <time>2012-01-08T08:13:16Z</time>
      </trkpt>
      <trkpt lat="45.83213" lon="4.86593">
        <ele>205</ele>
        <time>2012-01-08T08:13:17Z</time>
      </trkpt>
      <trkpt lat="45.83221" lon="4.86604">
        <ele>205</ele>
        <time>2012-01-08T08:13:19Z</time>
      </trkpt>
      <trkpt lat="45.83232" lon="4.86619">
        <ele>205</ele>
        <time>2012-01-08T08:13:22Z</time>
      </trkpt>
      <trkpt lat="45.83242" lon="4.86633">
        <ele>205</ele>
        <time>2012-01-08T08:13:25Z</time>
      </trkpt>
      <trkpt lat="45.83251" lon="4.86645">
        <ele>205</ele>
        <time>2012-01-08T08:13:28Z</time>
      </trkpt>
      <trkpt lat="45.83255" lon="4.8665">
        <ele>205</ele>
        <time>2012-01-08T08:13:29Z</time>
      </trkpt>
      <trkpt lat="45.83271" lon="4.86668">
        <ele>206</ele>
        <time>2012-01-08T08:13:33Z</time>
      </trkpt>
      <trkpt lat="45.83291" lon="4.86697">
        <ele>209</ele>
        <time>2012-01-08T08:13:40Z</time>
      </trkpt>
      <trkpt lat="45.83296" lon="4.86705">
        <ele>209</ele>
        <time>2012-01-08T08:13:42Z</time>
      </trkpt>
      <trkpt lat="45.83312" lon="4.86728">
        <ele>210</ele>
        <time>2012-01-08T08:13:48Z</time>
      </trkpt>
      <trkpt lat="45.83322" lon="4.86742">
        <ele>211</ele>
        <time>2012-01-08T08:13:52Z</time>
      </trkpt>
      <trkpt lat="45.8333" lon="4.86757">
        <ele>212</ele>
        <time>2012-01-08T08:13:56Z</time>
      </trkpt>
      <trkpt lat="45.83338" lon="4.86791">
        <ele>226</ele>
        <time>2012-01-08T08:14:04Z</time>
      </trkpt>
      <trkpt lat="45.83338" lon="4.86821">
        <ele>223</ele>
        <time>2012-01-08T08:14:11Z</time>
      </trkpt>
      <trkpt lat="45.83337" lon="4.86843">
        <ele>223</ele>
        <time>2012-01-08T08:14:16Z</time>
      </trkpt>
      <trkpt lat="45.83336" lon="4.86855">
        <ele>227</ele>
        <time>2012-01-08T08:14:19Z</time>
      </trkpt>
      <trkpt lat="45.83334" lon="4.86886">
        <ele>230</ele>
        <time>2012-01-08T08:14:28Z</time>
      </trkpt>
      <trkpt lat="45.83333" lon="4.86895">
        <ele>218</ele>
        <time>2012-01-08T08:14:31Z</time>
      </trkpt>
      <trkpt lat="45.83332" lon="4.86905">
        <ele>220</ele>
        <time>2012-01-08T08:14:34Z</time>
      </trkpt>
      <trkpt lat="45.8333" lon="4.86919">
        <ele>223</ele>
        <time>2012-01-08T08:14:39Z</time>
      </trkpt>
      <trkpt lat="45.8333" lon="4.86921">
        <ele>223</ele>
        <time>2012-01-08T08:14:40Z</time>
      </trkpt>
      <trkpt lat="45.83334" lon="4.86922">
        <ele>227</ele>
        <time>2012-01-08T08:14:43Z</time>
      </trkpt>
      <trkpt lat="45.83336" lon="4.86921">
        <ele>227</ele>
        <time>2012-01-08T08:14:44Z</time>
      </trkpt>
      <trkpt lat="45.83339" lon="4.86918">
        <ele>227</ele>
        <time>2012-01-08T08:14:46Z</time>
      </trkpt>
      <trkpt lat="45.8334" lon="4.86913">
        <ele>227</ele>
        <time>2012-01-08T08:14:48Z</time>
      </trkpt>
      <trkpt lat="45.83341" lon="4.86906">
        <ele>228</ele>
        <time>2012-01-08T08:14:50Z</time>
      </trkpt>
      <trkpt lat="45.83342" lon="4.86899">
        <ele>229</ele>
        <time>2012-01-08T08:14:52Z</time>
      </trkpt>
      <trkpt lat="45.83344" lon="4.86891">
        <ele>230</ele>
        <time>2012-01-08T08:14:55Z</time>
      </trkpt>
      <trkpt lat="45.8335" lon="4.86866">
        <ele>231</ele>
        <time>2012-01-08T08:15:03Z</time>
      </trkpt>
      <trkpt lat="45.83354" lon="4.86855">
        <ele>230</ele>
        <time>2012-01-08T08:15:07Z</time>
      </trkpt>
      <trkpt lat="45.83358" lon="4.86839">
        <ele>230</ele>
        <time>2012-01-08T08:15:13Z</time>
      </trkpt>
      <trkpt lat="45.83362" lon="4.8682">
        <ele>229</ele>
        <time>2012-01-08T08:15:19Z</time>
      </trkpt>
      <trkpt lat="45.83363" lon="4.86805">
        <ele>230</ele>
        <time>2012-01-08T08:15:24Z</time>
      </trkpt>
      <trkpt lat="45.83364" lon="4.86797">
        <ele>230</ele>
        <time>2012-01-08T08:15:27Z</time>
      </trkpt>
      <trkpt lat="45.83366" lon="4.86778">
        <ele>230</ele>
        <time>2012-01-08T08:15:33Z</time>
      </trkpt>
      <trkpt lat="45.8337" lon="4.86762">
        <ele>230</ele>
        <time>2012-01-08T08:15:39Z</time>
      </trkpt>
      <trkpt lat="45.83372" lon="4.86754">
        <ele>231</ele>
        <time>2012-01-08T08:15:42Z</time>
      </trkpt>
      <trkpt lat="45.8337" lon="4.86739">
        <ele>227</ele>
        <time>2012-01-08T08:15:48Z</time>
      </trkpt>
      <trkpt lat="45.83368" lon="4.86733">
        <ele>227</ele>
        <time>2012-01-08T08:15:51Z</time>
      </trkpt>
      <trkpt lat="45.83366" lon="4.86728">
        <ele>227</ele>
        <time>2012-01-08T08:15:54Z</time>
      </trkpt>
      <trkpt lat="45.83361" lon="4.86717">
        <ele>226</ele>
        <time>2012-01-08T08:16:00Z</time>
      </trkpt>
      <trkpt lat="45.83357" lon="4.86708">
        <ele>225</ele>
        <time>2012-01-08T08:16:04Z</time>
      </trkpt>
      <trkpt lat="45.83355" lon="4.86703">
        <ele>225</ele>
        <time>2012-01-08T08:16:06Z</time>
      </trkpt>
      <trkpt lat="45.83351" lon="4.86683">
        <ele>223</ele>
        <time>2012-01-08T08:16:13Z</time>
      </trkpt>
      <trkpt lat="45.83351" lon="4.86663">
        <ele>221</ele>
        <time>2012-01-08T08:16:19Z</time>
      </trkpt>
      <trkpt lat="45.83353" lon="4.86658">
        <ele>221</ele>
        <time>2012-01-08T08:16:21Z</time>
      </trkpt>
      <trkpt lat="45.83356" lon="4.86647">
        <ele>222</ele>
        <time>2012-01-08T08:16:26Z</time>
      </trkpt>
      <trkpt lat="45.83364" lon="4.86636">
        <ele>224</ele>
        <time>2012-01-08T08:16:32Z</time>
      </trkpt>
      <trkpt lat="45.83376" lon="4.86635">
        <ele>225</ele>
        <time>2012-01-08T08:16:38Z</time>
      </trkpt>
      <trkpt lat="45.8338" lon="4.86634">
        <ele>226</ele>
        <time>2012-01-08T08:16:40Z</time>
      </trkpt>
      <trkpt lat="45.83391" lon="4.86633">
        <ele>227</ele>
        <time>2012-01-08T08:16:46Z</time>
      </trkpt>
      <trkpt lat="45.83404" lon="4.86635">
        <ele>228</ele>
        <time>2012-01-08T08:16:53Z</time>
      </trkpt>
      <trkpt lat="45.83416" lon="4.86637">
        <ele>229</ele>
        <time>2012-01-08T08:16:59Z</time>
      </trkpt>
      <trkpt lat="45.83418" lon="4.86638">
        <ele>239</ele>
        <time>2012-01-08T08:17:00Z</time>
      </trkpt>
      <trkpt lat="45.83432" lon="4.86644">
        <ele>240</ele>
        <time>2012-01-08T08:17:07Z</time>
      </trkpt>
      <trkpt lat="45.83448" lon="4.86648">
        <ele>241</ele>
        <time>2012-01-08T08:17:15Z</time>
      </trkpt>
      <trkpt lat="45.83452" lon="4.86649">
        <ele>242</ele>
        <time>2012-01-08T08:17:17Z</time>
      </trkpt>
      <trkpt lat="45.83464" lon="4.86651">
        <ele>243</ele>
        <time>2012-01-08T08:17:23Z</time>
      </trkpt>
      <trkpt lat="45.83476" lon="4.86652">
        <ele>245</ele>
        <time>2012-01-08T08:17:30Z</time>
      </trkpt>
      <trkpt lat="45.83488" lon="4.86653">
        <ele>246</ele>
        <time>2012-01-08T08:17:36Z</time>
      </trkpt>
      <trkpt lat="45.8349" lon="4.86653">
        <ele>246</ele>
        <time>2012-01-08T08:17:37Z</time>
      </trkpt>
      <trkpt lat="45.83501" lon="4.86654">
        <ele>253</ele>
        <time>2012-01-08T08:17:43Z</time>
      </trkpt>
      <trkpt lat="45.83515" lon="4.86658">
        <ele>254</ele>
        <time>2012-01-08T08:17:50Z</time>
      </trkpt>
      <trkpt lat="45.83524" lon="4.86668">
        <ele>259</ele>
        <time>2012-01-08T08:17:56Z</time>
      </trkpt>
      <trkpt lat="45.83532" lon="4.86679">
        <ele>261</ele>
        <time>2012-01-08T08:18:02Z</time>
      </trkpt>
      <trkpt lat="45.83541" lon="4.86687">
        <ele>262</ele>
        <time>2012-01-08T08:18:08Z</time>
      </trkpt>
      <trkpt lat="45.83548" lon="4.86689">
        <ele>263</ele>
        <time>2012-01-08T08:18:11Z</time>
      </trkpt>
      <trkpt lat="45.83553" lon="4.86686">
        <ele>263</ele>
        <time>2012-01-08T08:18:13Z</time>
      </trkpt>
      <trkpt lat="45.83555" lon="4.86681">
        <ele>263</ele>
        <time>2012-01-08T08:18:15Z</time>
      </trkpt>
      <trkpt lat="45.83559" lon="4.86669">
        <ele>263</ele>
        <time>2012-01-08T08:18:20Z</time>
      </trkpt>
      <trkpt lat="45.83569" lon="4.86653">
        <ele>260</ele>
        <time>2012-01-08T08:18:28Z</time>
      </trkpt>
      <trkpt lat="45.83573" lon="4.86651">
        <ele>260</ele>
        <time>2012-01-08T08:18:30Z</time>
      </trkpt>
      <trkpt lat="45.8358" lon="4.8665">
        <ele>261</ele>
        <time>2012-01-08T08:18:34Z</time>
      </trkpt>
      <trkpt lat="45.83582" lon="4.8665">
        <ele>261</ele>
        <time>2012-01-08T08:18:35Z</time>
      </trkpt>
      <trkpt lat="45.8359" lon="4.86648">
        <ele>267</ele>
        <time>2012-01-08T08:18:40Z</time>
      </trkpt>
      <trkpt lat="45.83601" lon="4.86645">
        <ele>268</ele>
        <time>2012-01-08T08:18:46Z</time>
      </trkpt>
      <trkpt lat="45.83609" lon="4.86644">
        <ele>268</ele>
        <time>2012-01-08T08:18:51Z</time>
      </trkpt>
      <trkpt lat="45.83618" lon="4.86641">
        <ele>269</ele>
        <time>2012-01-08T08:18:56Z</time>
      </trkpt>
      <trkpt lat="45.8362" lon="4.8664">
        <ele>269</ele>
        <time>2012-01-08T08:18:57Z</time>
      </trkpt>
      <trkpt lat="45.83637" lon="4.8664">
        <ele>271</ele>
        <time>2012-01-08T08:19:05Z</time>
      </trkpt>
      <trkpt lat="45.83645" lon="4.86645">
        <ele>271</ele>
        <time>2012-01-08T08:19:10Z</time>
      </trkpt>
      <trkpt lat="45.83654" lon="4.8665">
        <ele>272</ele>
        <time>2012-01-08T08:19:15Z</time>
      </trkpt>
      <trkpt lat="45.83658" lon="4.86652">
        <ele>272</ele>
        <time>2012-01-08T08:19:17Z</time>
      </trkpt>
      <trkpt lat="45.83667" lon="4.86651">
        <ele>273</ele>
        <time>2012-01-08T08:19:21Z</time>
      </trkpt>
      <trkpt lat="45.83671" lon="4.86651">
        <ele>276</ele>
        <time>2012-01-08T08:19:23Z</time>
      </trkpt>
      <trkpt lat="45.8368" lon="4.8665">
        <ele>277</ele>
        <time>2012-01-08T08:19:27Z</time>
      </trkpt>
      <trkpt lat="45.8369" lon="4.86651">
        <ele>277</ele>
        <time>2012-01-08T08:19:30Z</time>
      </trkpt>
      <trkpt lat="45.83694" lon="4.86652">
        <ele>277</ele>
        <time>2012-01-08T08:19:32Z</time>
      </trkpt>
      <trkpt lat="45.83706" lon="4.86652">
        <ele>278</ele>
        <time>2012-01-08T08:19:39Z</time>
      </trkpt>
      <trkpt lat="45.83723" lon="4.86653">
        <ele>279</ele>
        <time>2012-01-08T08:19:46Z</time>
      </trkpt>
      <trkpt lat="45.83727" lon="4.86653">
        <ele>279</ele>
        <time>2012-01-08T08:19:48Z</time>
      </trkpt>
      <trkpt lat="45.83738" lon="4.86652">
        <ele>279</ele>
        <time>2012-01-08T08:19:53Z</time>
      </trkpt>
      <trkpt lat="45.8375" lon="4.86655">
        <ele>280</ele>
        <time>2012-01-08T08:19:59Z</time>
      </trkpt>
      <trkpt lat="45.83762" lon="4.8666">
        <ele>281</ele>
        <time>2012-01-08T08:20:05Z</time>
      </trkpt>
      <trkpt lat="45.8378" lon="4.8667">
        <ele>282</ele>
        <time>2012-01-08T08:20:14Z</time>
      </trkpt>
      <trkpt lat="45.83794" lon="4.86675">
        <ele>283</ele>
        <time>2012-01-08T08:20:21Z</time>
      </trkpt>
      <trkpt lat="45.83798" lon="4.86677">
        <ele>283</ele>
        <time>2012-01-08T08:20:23Z</time>
      </trkpt>
      <trkpt lat="45.83807" lon="4.8668">
        <ele>283</ele>
        <time>2012-01-08T08:20:28Z</time>
      </trkpt>
      <trkpt lat="45.83814" lon="4.86683">
        <ele>283</ele>
        <time>2012-01-08T08:20:33Z</time>
      </trkpt>
      <trkpt lat="45.83817" lon="4.8668">
        <ele>283</ele>
        <time>2012-01-08T08:20:35Z</time>
      </trkpt>
      <trkpt lat="45.83821" lon="4.8668">
        <ele>283</ele>
        <time>2012-01-08T08:20:39Z</time>
      </trkpt>
      <trkpt lat="45.83823" lon="4.86679">
        <ele>283</ele>
        <time>2012-01-08T08:20:46Z</time>
      </trkpt>
      <trkpt lat="45.83826" lon="4.86682">
        <ele>283</ele>
        <time>2012-01-08T08:21:44Z</time>
      </trkpt>
      <trkpt lat="45.83827" lon="4.86684">
        <ele>283</ele>
        <time>2012-01-08T08:21:45Z</time>
      </trkpt>
      <trkpt lat="45.83826" lon="4.86692">
        <ele>283</ele>
        <time>2012-01-08T08:21:48Z</time>
      </trkpt>
      <trkpt lat="45.83826" lon="4.86694">
        <ele>283</ele>
        <time>2012-01-08T08:21:49Z</time>
      </trkpt>
      <trkpt lat="45.83823" lon="4.86709">
        <ele>283</ele>
        <time>2012-01-08T08:21:54Z</time>
      </trkpt>
      <trkpt lat="45.83817" lon="4.86735">
        <ele>283</ele>
        <time>2012-01-08T08:22:00Z</time>
      </trkpt>
      <trkpt lat="45.83815" lon="4.86744">
        <ele>284</ele>
        <time>2012-01-08T08:22:02Z</time>
      </trkpt>
      <trkpt lat="45.83812" lon="4.86767">
        <ele>284</ele>
        <time>2012-01-08T08:22:07Z</time>
      </trkpt>
      <trkpt lat="45.83808" lon="4.86796">
        <ele>284</ele>
        <time>2012-01-08T08:22:13Z</time>
      </trkpt>
      <trkpt lat="45.83807" lon="4.86801">
        <ele>284</ele>
        <time>2012-01-08T08:22:14Z</time>
      </trkpt>
      <trkpt lat="45.83801" lon="4.8684">
        <ele>286</ele>
        <time>2012-01-08T08:22:22Z</time>
      </trkpt>
      <trkpt lat="45.83799" lon="4.8685">
        <ele>286</ele>
        <time>2012-01-08T08:22:24Z</time>
      </trkpt>
      <trkpt lat="45.83793" lon="4.86877">
        <ele>286</ele>
        <time>2012-01-08T08:22:30Z</time>
      </trkpt>
      <trkpt lat="45.83788" lon="4.86901">
        <ele>287</ele>
        <time>2012-01-08T08:22:35Z</time>
      </trkpt>
      <trkpt lat="45.83784" lon="4.86922">
        <ele>288</ele>
        <time>2012-01-08T08:22:39Z</time>
      </trkpt>
      <trkpt lat="45.83776" lon="4.86955">
        <ele>288</ele>
        <time>2012-01-08T08:22:45Z</time>
      </trkpt>
      <trkpt lat="45.83774" lon="4.86966">
        <ele>288</ele>
        <time>2012-01-08T08:22:47Z</time>
      </trkpt>
      <trkpt lat="45.83767" lon="4.87004">
        <ele>289</ele>
        <time>2012-01-08T08:22:53Z</time>
      </trkpt>
      <trkpt lat="45.83765" lon="4.8701">
        <ele>289</ele>
        <time>2012-01-08T08:22:54Z</time>
      </trkpt>
      <trkpt lat="45.83755" lon="4.87053">
        <ele>288</ele>
        <time>2012-01-08T08:23:00Z</time>
      </trkpt>
      <trkpt lat="45.83754" lon="4.87061">
        <ele>288</ele>
        <time>2012-01-08T08:23:01Z</time>
      </trkpt>
      <trkpt lat="45.83741" lon="4.87116">
        <ele>287</ele>
        <time>2012-01-08T08:23:08Z</time>
      </trkpt>
      <trkpt lat="45.83731" lon="4.87174">
        <ele>285</ele>
        <time>2012-01-08T08:23:15Z</time>
      </trkpt>
      <trkpt lat="45.83729" lon="4.87183">
        <ele>285</ele>
        <time>2012-01-08T08:23:16Z</time>
      </trkpt>
      <trkpt lat="45.83721" lon="4.87215">
        <ele>285</ele>
        <time>2012-01-08T08:23:20Z</time>
      </trkpt>
      <trkpt lat="45.83715" lon="4.87229">
        <ele>285</ele>
        <time>2012-01-08T08:23:22Z</time>
      </trkpt>
      <trkpt lat="45.83705" lon="4.8725">
        <ele>284</ele>
        <time>2012-01-08T08:23:25Z</time>
      </trkpt>
      <trkpt lat="45.83701" lon="4.87257">
        <ele>284</ele>
        <time>2012-01-08T08:23:26Z</time>
      </trkpt>
      <trkpt lat="45.83688" lon="4.87273">
        <ele>285</ele>
        <time>2012-01-08T08:23:29Z</time>
      </trkpt>
      <trkpt lat="45.83674" lon="4.87291">
        <ele>284</ele>
        <time>2012-01-08T08:23:32Z</time>
      </trkpt>
      <trkpt lat="45.8366" lon="4.8731">
        <ele>285</ele>
        <time>2012-01-08T08:23:35Z</time>
      </trkpt>
      <trkpt lat="45.83649" lon="4.87332">
        <ele>285</ele>
        <time>2012-01-08T08:23:38Z</time>
      </trkpt>
      <trkpt lat="45.83639" lon="4.87355">
        <ele>285</ele>
        <time>2012-01-08T08:23:41Z</time>
      </trkpt>
      <trkpt lat="45.83632" lon="4.87378">
        <ele>285</ele>
        <time>2012-01-08T08:23:44Z</time>
      </trkpt>
      <trkpt lat="45.83625" lon="4.874">
        <ele>285</ele>
        <time>2012-01-08T08:23:47Z</time>
      </trkpt>
      <trkpt lat="45.83622" lon="4.87408">
        <ele>285</ele>
        <time>2012-01-08T08:23:48Z</time>
      </trkpt>
      <trkpt lat="45.83613" lon="4.8743">
        <ele>284</ele>
        <time>2012-01-08T08:23:51Z</time>
      </trkpt>
      <trkpt lat="45.83602" lon="4.87459">
        <ele>285</ele>
        <time>2012-01-08T08:23:55Z</time>
      </trkpt>
      <trkpt lat="45.83588" lon="4.87495">
        <ele>286</ele>
        <time>2012-01-08T08:24:00Z</time>
      </trkpt>
      <trkpt lat="45.83583" lon="4.87509">
        <ele>286</ele>
        <time>2012-01-08T08:24:02Z</time>
      </trkpt>
      <trkpt lat="45.83571" lon="4.87544">
        <ele>286</ele>
        <time>2012-01-08T08:24:07Z</time>
      </trkpt>
      <trkpt lat="45.83569" lon="4.87552">
        <ele>286</ele>
        <time>2012-01-08T08:24:08Z</time>
      </trkpt>
      <trkpt lat="45.83567" lon="4.87559">
        <ele>286</ele>
        <time>2012-01-08T08:24:09Z</time>
      </trkpt>
      <trkpt lat="45.8356" lon="4.87608">
        <ele>286</ele>
        <time>2012-01-08T08:24:15Z</time>
      </trkpt>
      <trkpt lat="45.8356" lon="4.87616">
        <ele>286</ele>
        <time>2012-01-08T08:24:16Z</time>
      </trkpt>
      <trkpt lat="45.83557" lon="4.87669">
        <ele>286</ele>
        <time>2012-01-08T08:24:23Z</time>
      </trkpt>
      <trkpt lat="45.83555" lon="4.87718">
        <ele>285</ele>
        <time>2012-01-08T08:24:31Z</time>
      </trkpt>
      <trkpt lat="45.83555" lon="4.87721">
        <ele>285</ele>
        <time>2012-01-08T08:24:32Z</time>
      </trkpt>
      <trkpt lat="45.83561" lon="4.87735">
        <ele>285</ele>
        <time>2012-01-08T08:24:35Z</time>
      </trkpt>
      <trkpt lat="45.83563" lon="4.87741">
        <ele>285</ele>
        <time>2012-01-08T08:24:36Z</time>
      </trkpt>
      <trkpt lat="45.83569" lon="4.87765">
        <ele>285</ele>
        <time>2012-01-08T08:24:40Z</time>
      </trkpt>
      <trkpt lat="45.83571" lon="4.87771">
        <ele>285</ele>
        <time>2012-01-08T08:24:41Z</time>
      </trkpt>
      <trkpt lat="45.83576" lon="4.87782">
        <ele>284</ele>
        <time>2012-01-08T08:24:43Z</time>
      </trkpt>
      <trkpt lat="45.83587" lon="4.87798">
        <ele>283</ele>
        <time>2012-01-08T08:24:46Z</time>
      </trkpt>
      <trkpt lat="45.83595" lon="4.87809">
        <ele>283</ele>
        <time>2012-01-08T08:24:48Z</time>
      </trkpt>
      <trkpt lat="45.83611" lon="4.87823">
        <ele>283</ele>
        <time>2012-01-08T08:24:51Z</time>
      </trkpt>
      <trkpt lat="45.83628" lon="4.87838">
        <ele>282</ele>
        <time>2012-01-08T08:24:54Z</time>
      </trkpt>
      <trkpt lat="45.83651" lon="4.87859">
        <ele>282</ele>
        <time>2012-01-08T08:24:58Z</time>
      </trkpt>
      <trkpt lat="45.83662" lon="4.87869">
        <ele>282</ele>
        <time>2012-01-08T08:25:00Z</time>
      </trkpt>
      <trkpt lat="45.83687" lon="4.87894">
        <ele>280</ele>
        <time>2012-01-08T08:25:05Z</time>
      </trkpt>
      <trkpt lat="45.83693" lon="4.879">
        <ele>280</ele>
        <time>2012-01-08T08:25:06Z</time>
      </trkpt>
      <trkpt lat="45.83723" lon="4.87933">
        <ele>281</ele>
        <time>2012-01-08T08:25:12Z</time>
      </trkpt>
      <trkpt lat="45.83727" lon="4.87939">
        <ele>281</ele>
        <time>2012-01-08T08:25:13Z</time>
      </trkpt>
      <trkpt lat="45.8375" lon="4.87972">
        <ele>281</ele>
        <time>2012-01-08T08:25:18Z</time>
      </trkpt>
      <trkpt lat="45.83763" lon="4.87992">
        <ele>281</ele>
        <time>2012-01-08T08:25:21Z</time>
      </trkpt>
      <trkpt lat="45.83773" lon="4.88015">
        <ele>281</ele>
        <time>2012-01-08T08:25:24Z</time>
      </trkpt>
      <trkpt lat="45.83779" lon="4.8803">
        <ele>281</ele>
        <time>2012-01-08T08:25:26Z</time>
      </trkpt>
      <trkpt lat="45.83789" lon="4.88063">
        <ele>282</ele>
        <time>2012-01-08T08:25:30Z</time>
      </trkpt>
      <trkpt lat="45.83805" lon="4.88111">
        <ele>282</ele>
        <time>2012-01-08T08:25:36Z</time>
      </trkpt>
      <trkpt lat="45.83821" lon="4.88158">
        <ele>283</ele>
        <time>2012-01-08T08:25:42Z</time>
      </trkpt>
      <trkpt lat="45.83831" lon="4.88189">
        <ele>284</ele>
        <time>2012-01-08T08:25:46Z</time>
      </trkpt>
      <trkpt lat="45.83836" lon="4.88205">
        <ele>283</ele>
        <time>2012-01-08T08:25:48Z</time>
      </trkpt>
      <trkpt lat="45.83852" lon="4.88258">
        <ele>285</ele>
        <time>2012-01-08T08:25:55Z</time>
      </trkpt>
      <trkpt lat="45.83854" lon="4.88265">
        <ele>285</ele>
        <time>2012-01-08T08:25:56Z</time>
      </trkpt>
      <trkpt lat="45.83856" lon="4.88295">
        <ele>286</ele>
        <time>2012-01-08T08:26:00Z</time>
      </trkpt>
      <trkpt lat="45.83855" lon="4.88309">
        <ele>286</ele>
        <time>2012-01-08T08:26:02Z</time>
      </trkpt>
      <trkpt lat="45.83849" lon="4.88335">
        <ele>288</ele>
        <time>2012-01-08T08:26:06Z</time>
      </trkpt>
      <trkpt lat="45.83844" lon="4.88359">
        <ele>289</ele>
        <time>2012-01-08T08:26:10Z</time>
      </trkpt>
      <trkpt lat="45.8384" lon="4.88384">
        <ele>289</ele>
        <time>2012-01-08T08:26:14Z</time>
      </trkpt>
      <trkpt lat="45.83834" lon="4.88414">
        <ele>291</ele>
        <time>2012-01-08T08:26:19Z</time>
      </trkpt>
      <trkpt lat="45.83831" lon="4.88433">
        <ele>292</ele>
        <time>2012-01-08T08:26:22Z</time>
      </trkpt>
      <trkpt lat="45.83824" lon="4.88466">
        <ele>293</ele>
        <time>2012-01-08T08:26:28Z</time>
      </trkpt>
      <trkpt lat="45.83821" lon="4.88473">
        <ele>294</ele>
        <time>2012-01-08T08:26:30Z</time>
      </trkpt>
      <trkpt lat="45.83814" lon="4.88486">
        <ele>294</ele>
        <time>2012-01-08T08:26:35Z</time>
      </trkpt>
      <trkpt lat="45.83814" lon="4.88488">
        <ele>294</ele>
        <time>2012-01-08T08:26:36Z</time>
      </trkpt>
      <trkpt lat="45.83819" lon="4.88494">
        <ele>294</ele>
        <time>2012-01-08T08:26:40Z</time>
      </trkpt>
      <trkpt lat="45.83821" lon="4.88496">
        <ele>294</ele>
        <time>2012-01-08T08:26:42Z</time>
      </trkpt>
      <trkpt lat="45.83828" lon="4.885">
        <ele>294</ele>
        <time>2012-01-08T08:26:49Z</time>
      </trkpt>
      <trkpt lat="45.83828" lon="4.885">
        <ele>294</ele>
        <time>2012-01-08T08:26:56Z</time>
      </trkpt>
      <trkpt lat="45.83829" lon="4.885">
        <ele>294</ele>
        <time>2012-01-08T08:27:00Z</time>
      </trkpt>
      <trkpt lat="45.83834" lon="4.88501">
        <ele>294</ele>
        <time>2012-01-08T08:27:02Z</time>
      </trkpt>
      <trkpt lat="45.83851" lon="4.88505">
        <ele>294</ele>
        <time>2012-01-08T08:27:07Z</time>
      </trkpt>
      <trkpt lat="45.83865" lon="4.88509">
        <ele>294</ele>
        <time>2012-01-08T08:27:11Z</time>
      </trkpt>
      <trkpt lat="45.83876" lon="4.88512">
        <ele>294</ele>
        <time>2012-01-08T08:27:14Z</time>
      </trkpt>
      <trkpt lat="45.83896" lon="4.8852">
        <ele>295</ele>
        <time>2012-01-08T08:27:19Z</time>
      </trkpt>
      <trkpt lat="45.839" lon="4.88522">
        <ele>295</ele>
        <time>2012-01-08T08:27:20Z</time>
      </trkpt>
      <trkpt lat="45.83922" lon="4.88533">
        <ele>295</ele>
        <time>2012-01-08T08:27:26Z</time>
      </trkpt>
      <trkpt lat="45.83937" lon="4.88539">
        <ele>295</ele>
        <time>2012-01-08T08:27:30Z</time>
      </trkpt>
      <trkpt lat="45.83946" lon="4.88542">
        <ele>295</ele>
        <time>2012-01-08T08:27:33Z</time>
      </trkpt>
      <trkpt lat="45.83968" lon="4.8855">
        <ele>296</ele>
        <time>2012-01-08T08:27:40Z</time>
      </trkpt>
      <trkpt lat="45.83975" lon="4.88553">
        <ele>296</ele>
        <time>2012-01-08T08:27:42Z</time>
      </trkpt>
      <trkpt lat="45.83991" lon="4.88557">
        <ele>296</ele>
        <time>2012-01-08T08:27:46Z</time>
      </trkpt>
      <trkpt lat="45.84011" lon="4.88564">
        <ele>296</ele>
        <time>2012-01-08T08:27:51Z</time>
      </trkpt>
      <trkpt lat="45.84022" lon="4.88569">
        <ele>296</ele>
        <time>2012-01-08T08:27:54Z</time>
      </trkpt>
      <trkpt lat="45.84044" lon="4.88578">
        <ele>296</ele>
        <time>2012-01-08T08:28:01Z</time>
      </trkpt>
      <trkpt lat="45.84047" lon="4.8858">
        <ele>296</ele>
        <time>2012-01-08T08:28:02Z</time>
      </trkpt>
      <trkpt lat="45.84059" lon="4.88586">
        <ele>296</ele>
        <time>2012-01-08T08:28:06Z</time>
      </trkpt>
      <trkpt lat="45.84081" lon="4.88596">
        <ele>297</ele>
        <time>2012-01-08T08:28:12Z</time>
      </trkpt>
      <trkpt lat="45.84087" lon="4.88599">
        <ele>297</ele>
        <time>2012-01-08T08:28:14Z</time>
      </trkpt>
      <trkpt lat="45.84115" lon="4.88605">
        <ele>296</ele>
        <time>2012-01-08T08:28:22Z</time>
      </trkpt>
      <trkpt lat="45.84119" lon="4.88606">
        <ele>296</ele>
        <time>2012-01-08T08:28:23Z</time>
      </trkpt>
      <trkpt lat="45.84145" lon="4.88607">
        <ele>296</ele>
        <time>2012-01-08T08:28:30Z</time>
      </trkpt>
      <trkpt lat="45.84156" lon="4.88606">
        <ele>296</ele>
        <time>2012-01-08T08:28:33Z</time>
      </trkpt>
      <trkpt lat="45.84176" lon="4.88602">
        <ele>296</ele>
        <time>2012-01-08T08:28:38Z</time>
      </trkpt>
      <trkpt lat="45.84193" lon="4.88596">
        <ele>296</ele>
        <time>2012-01-08T08:28:42Z</time>
      </trkpt>
      <trkpt lat="45.84216" lon="4.88589">
        <ele>295</ele>
        <time>2012-01-08T08:28:47Z</time>
      </trkpt>
      <trkpt lat="45.84229" lon="4.88586">
        <ele>295</ele>
        <time>2012-01-08T08:28:51Z</time>
      </trkpt>
      <trkpt lat="45.84228" lon="4.88588">
        <ele>295</ele>
        <time>2012-01-08T08:29:07Z</time>
      </trkpt>
      <trkpt lat="45.84226" lon="4.88588">
        <ele>295</ele>
        <time>2012-01-08T08:31:21Z</time>
      </trkpt>
      <trkpt lat="45.84226" lon="4.88588">
        <ele>295</ele>
        <time>2012-01-08T08:31:24Z</time>
      </trkpt>
      <trkpt lat="45.84226" lon="4.88588">
        <ele>295</ele>
        <time>2012-01-08T08:31:35Z</time>
      </trkpt>
      <trkpt lat="45.84231" lon="4.88586">
        <ele>295</ele>
        <time>2012-01-08T08:31:37Z</time>
      </trkpt>
      <trkpt lat="45.84238" lon="4.88585">
        <ele>295</ele>
        <time>2012-01-08T08:31:39Z</time>
      </trkpt>
      <trkpt lat="45.84252" lon="4.88583">
        <ele>295</ele>
        <time>2012-01-08T08:31:42Z</time>
      </trkpt>
      <trkpt lat="45.84261" lon="4.88582">
        <ele>293</ele>
        <time>2012-01-08T08:31:44Z</time>
      </trkpt>
      <trkpt lat="45.84295" lon="4.88575">
        <ele>291</ele>
        <time>2012-01-08T08:31:51Z</time>
      </trkpt>
      <trkpt lat="45.84299" lon="4.88575">
        <ele>291</ele>
        <time>2012-01-08T08:31:52Z</time>
      </trkpt>
      <trkpt lat="45.84325" lon="4.88571">
        <ele>291</ele>
        <time>2012-01-08T08:31:58Z</time>
      </trkpt>
      <trkpt lat="45.84337" lon="4.88571">
        <ele>290</ele>
        <time>2012-01-08T08:32:01Z</time>
      </trkpt>
      <trkpt lat="45.84347" lon="4.88574">
        <ele>289</ele>
        <time>2012-01-08T08:32:04Z</time>
      </trkpt>
      <trkpt lat="45.8435" lon="4.88578">
        <ele>289</ele>
        <time>2012-01-08T08:32:08Z</time>
      </trkpt>
      <trkpt lat="45.84352" lon="4.88583">
        <ele>291</ele>
        <time>2012-01-08T08:32:56Z</time>
      </trkpt>
      <trkpt lat="45.84358" lon="4.88584">
        <ele>290</ele>
        <time>2012-01-08T08:32:59Z</time>
      </trkpt>
      <trkpt lat="45.8437" lon="4.88591">
        <ele>290</ele>
        <time>2012-01-08T08:33:03Z</time>
      </trkpt>
      <trkpt lat="45.84373" lon="4.88593">
        <ele>290</ele>
        <time>2012-01-08T08:33:04Z</time>
      </trkpt>
      <trkpt lat="45.84384" lon="4.88599">
        <ele>289</ele>
        <time>2012-01-08T08:33:08Z</time>
      </trkpt>
      <trkpt lat="45.84387" lon="4.886">
        <ele>289</ele>
        <time>2012-01-08T08:33:10Z</time>
      </trkpt>
      <trkpt lat="45.84392" lon="4.88601">
        <ele>289</ele>
        <time>2012-01-08T08:33:12Z</time>
      </trkpt>
      <trkpt lat="45.84398" lon="4.88603">
        <ele>289</ele>
        <time>2012-01-08T08:33:14Z</time>
      </trkpt>
      <trkpt lat="45.84405" lon="4.88605">
        <ele>289</ele>
        <time>2012-01-08T08:33:17Z</time>
      </trkpt>
      <trkpt lat="45.84409" lon="4.88605">
        <ele>289</ele>
        <time>2012-01-08T08:33:21Z</time>
      </trkpt>
      <trkpt lat="45.8441" lon="4.88607">
        <ele>289</ele>
        <time>2012-01-08T08:33:31Z</time>
      </trkpt>
      <trkpt lat="45.84412" lon="4.88613">
        <ele>289</ele>
        <time>2012-01-08T08:33:34Z</time>
      </trkpt>
      <trkpt lat="45.84417" lon="4.88618">
        <ele>285</ele>
        <time>2012-01-08T08:33:38Z</time>
      </trkpt>
      <trkpt lat="45.84426" lon="4.88623">
        <ele>285</ele>
        <time>2012-01-08T08:33:43Z</time>
      </trkpt>
      <trkpt lat="45.84429" lon="4.88633">
        <ele>285</ele>
        <time>2012-01-08T08:33:46Z</time>
      </trkpt>
      <trkpt lat="45.8443" lon="4.88635">
        <ele>285</ele>
        <time>2012-01-08T08:33:47Z</time>
      </trkpt>
      <trkpt lat="45.84431" lon="4.88638">
        <ele>285</ele>
        <time>2012-01-08T08:33:48Z</time>
      </trkpt>
      <trkpt lat="45.84436" lon="4.88644">
        <ele>285</ele>
        <time>2012-01-08T08:33:52Z</time>
      </trkpt>
      <trkpt lat="45.84442" lon="4.88655">
        <ele>285</ele>
        <time>2012-01-08T08:34:11Z</time>
      </trkpt>
      <trkpt lat="45.84444" lon="4.8866">
        <ele>285</ele>
        <time>2012-01-08T08:34:16Z</time>
      </trkpt>
      <trkpt lat="45.84442" lon="4.88666">
        <ele>285</ele>
        <time>2012-01-08T08:34:22Z</time>
      </trkpt>
      <trkpt lat="45.84441" lon="4.88666">
        <ele>285</ele>
        <time>2012-01-08T08:34:23Z</time>
      </trkpt>
      <trkpt lat="45.84438" lon="4.88664">
        <ele>285</ele>
        <time>2012-01-08T08:34:31Z</time>
      </trkpt>
      <trkpt lat="45.84445" lon="4.88668">
        <ele>285</ele>
        <time>2012-01-08T08:35:07Z</time>
      </trkpt>
      <trkpt lat="45.84448" lon="4.88666">
        <ele>285</ele>
        <time>2012-01-08T08:35:09Z</time>
      </trkpt>
      <trkpt lat="45.84454" lon="4.88663">
        <ele>284</ele>
        <time>2012-01-08T08:35:13Z</time>
      </trkpt>
      <trkpt lat="45.84474" lon="4.88656">
        <ele>283</ele>
        <time>2012-01-08T08:35:20Z</time>
      </trkpt>
      <trkpt lat="45.84483" lon="4.88661">
        <ele>283</ele>
        <time>2012-01-08T08:35:23Z</time>
      </trkpt>
      <trkpt lat="45.84486" lon="4.88664">
        <ele>283</ele>
        <time>2012-01-08T08:35:24Z</time>
      </trkpt>
      <trkpt lat="45.84501" lon="4.88668">
        <ele>282</ele>
        <time>2012-01-08T08:35:28Z</time>
      </trkpt>
      <trkpt lat="45.8452" lon="4.88662">
        <ele>280</ele>
        <time>2012-01-08T08:35:33Z</time>
      </trkpt>
      <trkpt lat="45.84535" lon="4.88673">
        <ele>279</ele>
        <time>2012-01-08T08:35:38Z</time>
      </trkpt>
      <trkpt lat="45.84547" lon="4.88672">
        <ele>278</ele>
        <time>2012-01-08T08:35:42Z</time>
      </trkpt>
      <trkpt lat="45.84555" lon="4.88669">
        <ele>278</ele>
        <time>2012-01-08T08:35:44Z</time>
      </trkpt>
      <trkpt lat="45.84568" lon="4.88666">
        <ele>277</ele>
        <time>2012-01-08T08:35:47Z</time>
      </trkpt>
      <trkpt lat="45.84585" lon="4.88671">
        <ele>275</ele>
        <time>2012-01-08T08:35:52Z</time>
      </trkpt>
      <trkpt lat="45.84592" lon="4.88678">
        <ele>274</ele>
        <time>2012-01-08T08:35:54Z</time>
      </trkpt>
      <trkpt lat="45.84596" lon="4.8868">
        <ele>274</ele>
        <time>2012-01-08T08:35:55Z</time>
      </trkpt>
      <trkpt lat="45.84604" lon="4.88685">
        <ele>274</ele>
        <time>2012-01-08T08:35:57Z</time>
      </trkpt>
      <trkpt lat="45.84609" lon="4.88686">
        <ele>274</ele>
        <time>2012-01-08T08:35:58Z</time>
      </trkpt>
      <trkpt lat="45.84628" lon="4.8869">
        <ele>273</ele>
        <time>2012-01-08T08:36:02Z</time>
      </trkpt>
      <trkpt lat="45.84651" lon="4.88691">
        <ele>272</ele>
        <time>2012-01-08T08:36:07Z</time>
      </trkpt>
      <trkpt lat="45.84656" lon="4.88692">
        <ele>272</ele>
        <time>2012-01-08T08:36:08Z</time>
      </trkpt>
      <trkpt lat="45.84666" lon="4.88696">
        <ele>272</ele>
        <time>2012-01-08T08:36:10Z</time>
      </trkpt>
      <trkpt lat="45.8467" lon="4.88696">
        <ele>270</ele>
        <time>2012-01-08T08:36:11Z</time>
      </trkpt>
      <trkpt lat="45.84701" lon="4.88704">
        <ele>270</ele>
        <time>2012-01-08T08:36:17Z</time>
      </trkpt>
      <trkpt lat="45.84706" lon="4.88707">
        <ele>270</ele>
        <time>2012-01-08T08:36:18Z</time>
      </trkpt>
      <trkpt lat="45.84718" lon="4.88713">
        <ele>269</ele>
        <time>2012-01-08T08:36:21Z</time>
      </trkpt>
      <trkpt lat="45.84729" lon="4.88717">
        <ele>269</ele>
        <time>2012-01-08T08:36:24Z</time>
      </trkpt>
      <trkpt lat="45.84739" lon="4.88716">
        <ele>269</ele>
        <time>2012-01-08T08:36:27Z</time>
      </trkpt>
      <trkpt lat="45.84758" lon="4.88712">
        <ele>267</ele>
        <time>2012-01-08T08:36:32Z</time>
      </trkpt>
      <trkpt lat="45.84776" lon="4.88713">
        <ele>267</ele>
        <time>2012-01-08T08:36:36Z</time>
      </trkpt>
      <trkpt lat="45.84782" lon="4.88712">
        <ele>266</ele>
        <time>2012-01-08T08:36:37Z</time>
      </trkpt>
      <trkpt lat="45.84788" lon="4.88709">
        <ele>266</ele>
        <time>2012-01-08T08:36:38Z</time>
      </trkpt>
      <trkpt lat="45.84798" lon="4.88705">
        <ele>266</ele>
        <time>2012-01-08T08:36:40Z</time>
      </trkpt>
      <trkpt lat="45.84812" lon="4.88705">
        <ele>266</ele>
        <time>2012-01-08T08:36:43Z</time>
      </trkpt>
      <trkpt lat="45.84816" lon="4.88706">
        <ele>266</ele>
        <time>2012-01-08T08:36:44Z</time>
      </trkpt>
      <trkpt lat="45.84831" lon="4.88708">
        <ele>266</ele>
        <time>2012-01-08T08:36:47Z</time>
      </trkpt>
      <trkpt lat="45.84836" lon="4.88706">
        <ele>265</ele>
        <time>2012-01-08T08:36:48Z</time>
      </trkpt>
      <trkpt lat="45.84851" lon="4.88701">
        <ele>265</ele>
        <time>2012-01-08T08:36:51Z</time>
      </trkpt>
      <trkpt lat="45.84856" lon="4.887">
        <ele>265</ele>
        <time>2012-01-08T08:36:52Z</time>
      </trkpt>
      <trkpt lat="45.84865" lon="4.88699">
        <ele>265</ele>
        <time>2012-01-08T08:36:54Z</time>
      </trkpt>
      <trkpt lat="45.84879" lon="4.887">
        <ele>265</ele>
        <time>2012-01-08T08:36:57Z</time>
      </trkpt>
      <trkpt lat="45.84889" lon="4.88704">
        <ele>265</ele>
        <time>2012-01-08T08:37:00Z</time>
      </trkpt>
      <trkpt lat="45.84892" lon="4.88711">
        <ele>265</ele>
        <time>2012-01-08T08:37:02Z</time>
      </trkpt>
      <trkpt lat="45.84898" lon="4.88735">
        <ele>265</ele>
        <time>2012-01-08T08:37:07Z</time>
      </trkpt>
      <trkpt lat="45.84903" lon="4.88754">
        <ele>266</ele>
        <time>2012-01-08T08:37:12Z</time>
      </trkpt>
      <trkpt lat="45.84908" lon="4.88772">
        <ele>267</ele>
        <time>2012-01-08T08:37:18Z</time>
      </trkpt>
      <trkpt lat="45.8491" lon="4.88771">
        <ele>267</ele>
        <time>2012-01-08T08:37:21Z</time>
      </trkpt>
      <trkpt lat="45.84909" lon="4.88768">
        <ele>267</ele>
        <time>2012-01-08T08:37:22Z</time>
      </trkpt>
      <trkpt lat="45.84904" lon="4.8875">
        <ele>266</ele>
        <time>2012-01-08T08:37:28Z</time>
      </trkpt>
      <trkpt lat="45.84902" lon="4.88745">
        <ele>265</ele>
        <time>2012-01-08T08:37:31Z</time>
      </trkpt>
      <trkpt lat="45.84901" lon="4.88746">
        <ele>265</ele>
        <time>2012-01-08T08:37:32Z</time>
      </trkpt>
      <trkpt lat="45.84901" lon="4.88749">
        <ele>265</ele>
        <time>2012-01-08T08:37:33Z</time>
      </trkpt>
      <trkpt lat="45.84903" lon="4.8876">
        <ele>266</ele>
        <time>2012-01-08T08:37:36Z</time>
      </trkpt>
      <trkpt lat="45.84904" lon="4.88764">
        <ele>266</ele>
        <time>2012-01-08T08:37:37Z</time>
      </trkpt>
      <trkpt lat="45.84914" lon="4.88788">
        <ele>267</ele>
        <time>2012-01-08T08:37:43Z</time>
      </trkpt>
      <trkpt lat="45.84916" lon="4.88792">
        <ele>267</ele>
        <time>2012-01-08T08:37:44Z</time>
      </trkpt>
      <trkpt lat="45.8493" lon="4.8881">
        <ele>267</ele>
        <time>2012-01-08T08:37:48Z</time>
      </trkpt>
      <trkpt lat="45.84934" lon="4.88815">
        <ele>267</ele>
        <time>2012-01-08T08:37:49Z</time>
      </trkpt>
      <trkpt lat="45.84941" lon="4.88832">
        <ele>267</ele>
        <time>2012-01-08T08:37:52Z</time>
      </trkpt>
      <trkpt lat="45.84943" lon="4.88838">
        <ele>267</ele>
        <time>2012-01-08T08:37:53Z</time>
      </trkpt>
      <trkpt lat="45.84952" lon="4.88866">
        <ele>267</ele>
        <time>2012-01-08T08:37:59Z</time>
      </trkpt>
      <trkpt lat="45.84957" lon="4.8888">
        <ele>267</ele>
        <time>2012-01-08T08:38:04Z</time>
      </trkpt>
      <trkpt lat="45.84958" lon="4.88883">
        <ele>267</ele>
        <time>2012-01-08T08:38:05Z</time>
      </trkpt>
      <trkpt lat="45.8496" lon="4.88891">
        <ele>268</ele>
        <time>2012-01-08T08:38:09Z</time>
      </trkpt>
      <trkpt lat="45.84959" lon="4.88893">
        <ele>268</ele>
        <time>2012-01-08T08:38:10Z</time>
      </trkpt>
      <trkpt lat="45.8495" lon="4.88895">
        <ele>267</ele>
        <time>2012-01-08T08:38:14Z</time>
      </trkpt>
      <trkpt lat="45.84943" lon="4.88894">
        <ele>267</ele>
        <time>2012-01-08T08:38:17Z</time>
      </trkpt>
      <trkpt lat="45.84935" lon="4.88893">
        <ele>267</ele>
        <time>2012-01-08T08:38:20Z</time>
      </trkpt>
      <trkpt lat="45.8493" lon="4.88894">
        <ele>267</ele>
        <time>2012-01-08T08:38:22Z</time>
      </trkpt>
      <trkpt lat="45.84916" lon="4.88895">
        <ele>268</ele>
        <time>2012-01-08T08:38:27Z</time>
      </trkpt>
      <trkpt lat="45.84892" lon="4.88899">
        <ele>269</ele>
        <time>2012-01-08T08:38:34Z</time>
      </trkpt>
      <trkpt lat="45.84852" lon="4.88906">
        <ele>271</ele>
        <time>2012-01-08T08:38:44Z</time>
      </trkpt>
      <trkpt lat="45.84821" lon="4.88913">
        <ele>273</ele>
        <time>2012-01-08T08:38:52Z</time>
      </trkpt>
      <trkpt lat="45.84814" lon="4.88915">
        <ele>273</ele>
        <time>2012-01-08T08:38:54Z</time>
      </trkpt>
      <trkpt lat="45.84794" lon="4.8892">
        <ele>274</ele>
        <time>2012-01-08T08:38:59Z</time>
      </trkpt>
      <trkpt lat="45.84776" lon="4.88924">
        <ele>274</ele>
        <time>2012-01-08T08:39:04Z</time>
      </trkpt>
      <trkpt lat="45.84773" lon="4.88925">
        <ele>275</ele>
        <time>2012-01-08T08:39:05Z</time>
      </trkpt>
      <trkpt lat="45.84749" lon="4.88933">
        <ele>277</ele>
        <time>2012-01-08T08:39:12Z</time>
      </trkpt>
      <trkpt lat="45.84741" lon="4.88935">
        <ele>277</ele>
        <time>2012-01-08T08:39:14Z</time>
      </trkpt>
      <trkpt lat="45.8472" lon="4.88939">
        <ele>278</ele>
        <time>2012-01-08T08:39:20Z</time>
      </trkpt>
      <trkpt lat="45.84703" lon="4.88944">
        <ele>278</ele>
        <time>2012-01-08T08:39:25Z</time>
      </trkpt>
      <trkpt lat="45.84695" lon="4.88946">
        <ele>279</ele>
        <time>2012-01-08T08:39:28Z</time>
      </trkpt>
      <trkpt lat="45.84671" lon="4.88951">
        <ele>279</ele>
        <time>2012-01-08T08:39:36Z</time>
      </trkpt>
      <trkpt lat="45.84665" lon="4.88951">
        <ele>282</ele>
        <time>2012-01-08T08:39:38Z</time>
      </trkpt>
      <trkpt lat="45.84649" lon="4.88952">
        <ele>283</ele>
        <time>2012-01-08T08:39:44Z</time>
      </trkpt>
      <trkpt lat="45.84636" lon="4.88956">
        <ele>283</ele>
        <time>2012-01-08T08:39:50Z</time>
      </trkpt>
      <trkpt lat="45.84635" lon="4.88957">
        <ele>283</ele>
        <time>2012-01-08T08:39:51Z</time>
      </trkpt>
      <trkpt lat="45.84635" lon="4.8896">
        <ele>283</ele>
        <time>2012-01-08T08:39:54Z</time>
      </trkpt>
      <trkpt lat="45.84636" lon="4.88964">
        <ele>284</ele>
        <time>2012-01-08T08:40:04Z</time>
      </trkpt>
      <trkpt lat="45.84638" lon="4.88972">
        <ele>284</ele>
        <time>2012-01-08T08:40:08Z</time>
      </trkpt>
      <trkpt lat="45.8464" lon="4.88976">
        <ele>284</ele>
        <time>2012-01-08T08:40:10Z</time>
      </trkpt>
      <trkpt lat="45.84647" lon="4.88997">
        <ele>284</ele>
        <time>2012-01-08T08:40:17Z</time>
      </trkpt>
      <trkpt lat="45.84652" lon="4.89013">
        <ele>286</ele>
        <time>2012-01-08T08:40:22Z</time>
      </trkpt>
      <trkpt lat="45.84654" lon="4.89019">
        <ele>286</ele>
        <time>2012-01-08T08:40:24Z</time>
      </trkpt>
      <trkpt lat="45.84662" lon="4.89042">
        <ele>288</ele>
        <time>2012-01-08T08:40:32Z</time>
      </trkpt>
      <trkpt lat="45.84667" lon="4.89062">
        <ele>285</ele>
        <time>2012-01-08T08:40:39Z</time>
      </trkpt>
      <trkpt lat="45.84669" lon="4.8908">
        <ele>287</ele>
        <time>2012-01-08T08:40:45Z</time>
      </trkpt>
      <trkpt lat="45.84674" lon="4.89101">
        <ele>287</ele>
        <time>2012-01-08T08:40:52Z</time>
      </trkpt>
      <trkpt lat="45.84676" lon="4.89112">
        <ele>287</ele>
        <time>2012-01-08T08:40:55Z</time>
      </trkpt>
      <trkpt lat="45.84678" lon="4.89121">
        <ele>287</ele>
        <time>2012-01-08T08:40:58Z</time>
      </trkpt>
      <trkpt lat="45.84679" lon="4.8913">
        <ele>287</ele>
        <time>2012-01-08T08:41:02Z</time>
      </trkpt>
      <trkpt lat="45.84678" lon="4.89133">
        <ele>287</ele>
        <time>2012-01-08T08:41:03Z</time>
      </trkpt>
      <trkpt lat="45.84672" lon="4.89132">
        <ele>287</ele>
        <time>2012-01-08T08:41:07Z</time>
      </trkpt>
      <trkpt lat="45.84664" lon="4.89127">
        <ele>292</ele>
        <time>2012-01-08T08:41:12Z</time>
      </trkpt>
      <trkpt lat="45.84662" lon="4.89125">
        <ele>292</ele>
        <time>2012-01-08T08:41:13Z</time>
      </trkpt>
      <trkpt lat="45.84659" lon="4.89122">
        <ele>292</ele>
        <time>2012-01-08T08:41:15Z</time>
      </trkpt>
      <trkpt lat="45.84644" lon="4.8911">
        <ele>291</ele>
        <time>2012-01-08T08:41:22Z</time>
      </trkpt>
      <trkpt lat="45.84632" lon="4.89099">
        <ele>292</ele>
        <time>2012-01-08T08:41:28Z</time>
      </trkpt>
      <trkpt lat="45.84628" lon="4.89095">
        <ele>292</ele>
        <time>2012-01-08T08:41:31Z</time>
      </trkpt>
      <trkpt lat="45.84624" lon="4.89088">
        <ele>292</ele>
        <time>2012-01-08T08:41:34Z</time>
      </trkpt>
      <trkpt lat="45.84622" lon="4.89084">
        <ele>292</ele>
        <time>2012-01-08T08:41:39Z</time>
      </trkpt>
      <trkpt lat="45.84622" lon="4.89084">
        <ele>292</ele>
        <time>2012-01-08T08:42:17Z</time>
      </trkpt>
      <trkpt lat="45.84628" lon="4.89092">
        <ele>292</ele>
        <time>2012-01-08T08:42:23Z</time>
      </trkpt>
      <trkpt lat="45.84639" lon="4.89103">
        <ele>291</ele>
        <time>2012-01-08T08:42:28Z</time>
      </trkpt>
      <trkpt lat="45.84641" lon="4.89104">
        <ele>291</ele>
        <time>2012-01-08T08:42:29Z</time>
      </trkpt>
      <trkpt lat="45.84655" lon="4.89119">
        <ele>291</ele>
        <time>2012-01-08T08:42:37Z</time>
      </trkpt>
      <trkpt lat="45.84668" lon="4.8913">
        <ele>287</ele>
        <time>2012-01-08T08:42:46Z</time>
      </trkpt>
      <trkpt lat="45.8467" lon="4.89131">
        <ele>287</ele>
        <time>2012-01-08T08:42:48Z</time>
      </trkpt>
      <trkpt lat="45.84676" lon="4.8913">
        <ele>287</ele>
        <time>2012-01-08T08:42:52Z</time>
      </trkpt>
      <trkpt lat="45.84679" lon="4.89125">
        <ele>287</ele>
        <time>2012-01-08T08:43:11Z</time>
      </trkpt>
      <trkpt lat="45.84675" lon="4.89104">
        <ele>287</ele>
        <time>2012-01-08T08:43:15Z</time>
      </trkpt>
      <trkpt lat="45.84671" lon="4.89091">
        <ele>287</ele>
        <time>2012-01-08T08:43:17Z</time>
      </trkpt>
      <trkpt lat="45.84669" lon="4.8908">
        <ele>287</ele>
        <time>2012-01-08T08:43:19Z</time>
      </trkpt>
      <trkpt lat="45.8466" lon="4.89046">
        <ele>288</ele>
        <time>2012-01-08T08:43:25Z</time>
      </trkpt>
      <trkpt lat="45.84658" lon="4.8904">
        <ele>288</ele>
        <time>2012-01-08T08:43:26Z</time>
      </trkpt>
      <trkpt lat="45.84647" lon="4.89007">
        <ele>286</ele>
        <time>2012-01-08T08:43:31Z</time>
      </trkpt>
      <trkpt lat="45.84642" lon="4.88988">
        <ele>284</ele>
        <time>2012-01-08T08:43:34Z</time>
      </trkpt>
      <trkpt lat="45.84637" lon="4.88973">
        <ele>284</ele>
        <time>2012-01-08T08:43:37Z</time>
      </trkpt>
      <trkpt lat="45.84633" lon="4.88954">
        <ele>283</ele>
        <time>2012-01-08T08:43:41Z</time>
      </trkpt>
      <trkpt lat="45.84642" lon="4.88946">
        <ele>283</ele>
        <time>2012-01-08T08:43:44Z</time>
      </trkpt>
      <trkpt lat="45.84648" lon="4.88946">
        <ele>283</ele>
        <time>2012-01-08T08:43:45Z</time>
      </trkpt>
      <trkpt lat="45.84667" lon="4.88946">
        <ele>279</ele>
        <time>2012-01-08T08:43:48Z</time>
      </trkpt>
      <trkpt lat="45.84681" lon="4.88944">
        <ele>279</ele>
        <time>2012-01-08T08:43:50Z</time>
      </trkpt>
      <trkpt lat="45.84707" lon="4.88939">
        <ele>278</ele>
        <time>2012-01-08T08:43:54Z</time>
      </trkpt>
      <trkpt lat="45.84722" lon="4.88935">
        <ele>278</ele>
        <time>2012-01-08T08:43:56Z</time>
      </trkpt>
      <trkpt lat="45.84747" lon="4.8893">
        <ele>276</ele>
        <time>2012-01-08T08:44:00Z</time>
      </trkpt>
      <trkpt lat="45.8476" lon="4.88925">
        <ele>275</ele>
        <time>2012-01-08T08:44:02Z</time>
      </trkpt>
      <trkpt lat="45.84767" lon="4.88923">
        <ele>275</ele>
        <time>2012-01-08T08:44:03Z</time>
      </trkpt>
      <trkpt lat="45.84781" lon="4.88921">
        <ele>274</ele>
        <time>2012-01-08T08:44:05Z</time>
      </trkpt>
      <trkpt lat="45.848" lon="4.88917">
        <ele>273</ele>
        <time>2012-01-08T08:44:08Z</time>
      </trkpt>
      <trkpt lat="45.84826" lon="4.88911">
        <ele>273</ele>
        <time>2012-01-08T08:44:12Z</time>
      </trkpt>
      <trkpt lat="45.84837" lon="4.88909">
        <ele>272</ele>
        <time>2012-01-08T08:44:14Z</time>
      </trkpt>
      <trkpt lat="45.84857" lon="4.88904">
        <ele>270</ele>
        <time>2012-01-08T08:44:18Z</time>
      </trkpt>
      <trkpt lat="45.84874" lon="4.88899">
        <ele>269</ele>
        <time>2012-01-08T08:44:21Z</time>
      </trkpt>
      <trkpt lat="45.84886" lon="4.88897">
        <ele>269</ele>
        <time>2012-01-08T08:44:23Z</time>
      </trkpt>
      <trkpt lat="45.84913" lon="4.88893">
        <ele>268</ele>
        <time>2012-01-08T08:44:28Z</time>
      </trkpt>
      <trkpt lat="45.84923" lon="4.88892">
        <ele>267</ele>
        <time>2012-01-08T08:44:30Z</time>
      </trkpt>
      <trkpt lat="45.84938" lon="4.88892">
        <ele>267</ele>
        <time>2012-01-08T08:44:34Z</time>
      </trkpt>
      <trkpt lat="45.84952" lon="4.88893">
        <ele>267</ele>
        <time>2012-01-08T08:44:37Z</time>
      </trkpt>
      <trkpt lat="45.8496" lon="4.88895">
        <ele>268</ele>
        <time>2012-01-08T08:44:39Z</time>
      </trkpt>
      <trkpt lat="45.84965" lon="4.889">
        <ele>268</ele>
        <time>2012-01-08T08:44:41Z</time>
      </trkpt>
      <trkpt lat="45.84967" lon="4.88904">
        <ele>268</ele>
        <time>2012-01-08T08:44:42Z</time>
      </trkpt>
      <trkpt lat="45.84968" lon="4.88928">
        <ele>268</ele>
        <time>2012-01-08T08:44:46Z</time>
      </trkpt>
      <trkpt lat="45.84968" lon="4.88935">
        <ele>268</ele>
        <time>2012-01-08T08:44:47Z</time>
      </trkpt>
      <trkpt lat="45.84969" lon="4.88942">
        <ele>268</ele>
        <time>2012-01-08T08:44:48Z</time>
      </trkpt>
      <trkpt lat="45.84973" lon="4.8896">
        <ele>269</ele>
        <time>2012-01-08T08:44:51Z</time>
      </trkpt>
      <trkpt lat="45.84979" lon="4.88986">
        <ele>269</ele>
        <time>2012-01-08T08:44:55Z</time>
      </trkpt>
      <trkpt lat="45.84987" lon="4.8901">
        <ele>270</ele>
        <time>2012-01-08T08:44:59Z</time>
      </trkpt>
      <trkpt lat="45.84998" lon="4.89036">
        <ele>271</ele>
        <time>2012-01-08T08:45:04Z</time>
      </trkpt>
      <trkpt lat="45.85003" lon="4.89047">
        <ele>272</ele>
        <time>2012-01-08T08:45:06Z</time>
      </trkpt>
      <trkpt lat="45.85019" lon="4.89079">
        <ele>273</ele>
        <time>2012-01-08T08:45:12Z</time>
      </trkpt>
      <trkpt lat="45.85024" lon="4.8909">
        <ele>273</ele>
        <time>2012-01-08T08:45:14Z</time>
      </trkpt>
      <trkpt lat="45.85034" lon="4.8913">
        <ele>273</ele>
        <time>2012-01-08T08:45:21Z</time>
      </trkpt>
      <trkpt lat="45.85037" lon="4.89141">
        <ele>273</ele>
        <time>2012-01-08T08:45:23Z</time>
      </trkpt>
      <trkpt lat="45.8505" lon="4.89168">
        <ele>273</ele>
        <time>2012-01-08T08:45:28Z</time>
      </trkpt>
      <trkpt lat="45.85053" lon="4.89173">
        <ele>273</ele>
        <time>2012-01-08T08:45:29Z</time>
      </trkpt>
      <trkpt lat="45.85069" lon="4.89202">
        <ele>273</ele>
        <time>2012-01-08T08:45:35Z</time>
      </trkpt>
      <trkpt lat="45.85071" lon="4.89208">
        <ele>273</ele>
        <time>2012-01-08T08:45:36Z</time>
      </trkpt>
      <trkpt lat="45.85075" lon="4.89218">
        <ele>273</ele>
        <time>2012-01-08T08:45:38Z</time>
      </trkpt>
      <trkpt lat="45.8508" lon="4.89234">
        <ele>273</ele>
        <time>2012-01-08T08:45:41Z</time>
      </trkpt>
      <trkpt lat="45.85092" lon="4.89267">
        <ele>274</ele>
        <time>2012-01-08T08:45:46Z</time>
      </trkpt>
      <trkpt lat="45.85095" lon="4.89273">
        <ele>274</ele>
        <time>2012-01-08T08:45:47Z</time>
      </trkpt>
      <trkpt lat="45.8511" lon="4.89313">
        <ele>275</ele>
        <time>2012-01-08T08:45:54Z</time>
      </trkpt>
      <trkpt lat="45.85113" lon="4.89338">
        <ele>275</ele>
        <time>2012-01-08T08:45:58Z</time>
      </trkpt>
      <trkpt lat="45.85112" lon="4.89344">
        <ele>275</ele>
        <time>2012-01-08T08:45:59Z</time>
      </trkpt>
      <trkpt lat="45.85109" lon="4.89369">
        <ele>275</ele>
        <time>2012-01-08T08:46:03Z</time>
      </trkpt>
      <trkpt lat="45.85106" lon="4.89394">
        <ele>276</ele>
        <time>2012-01-08T08:46:07Z</time>
      </trkpt>
      <trkpt lat="45.85102" lon="4.89426">
        <ele>276</ele>
        <time>2012-01-08T08:46:12Z</time>
      </trkpt>
      <trkpt lat="45.85101" lon="4.89438">
        <ele>276</ele>
        <time>2012-01-08T08:46:14Z</time>
      </trkpt>
      <trkpt lat="45.85097" lon="4.89481">
        <ele>277</ele>
        <time>2012-01-08T08:46:21Z</time>
      </trkpt>
      <trkpt lat="45.85092" lon="4.89526">
        <ele>278</ele>
        <time>2012-01-08T08:46:29Z</time>
      </trkpt>
      <trkpt lat="45.85091" lon="4.89536">
        <ele>278</ele>
        <time>2012-01-08T08:46:31Z</time>
      </trkpt>
      <trkpt lat="45.85084" lon="4.89584">
        <ele>279</ele>
        <time>2012-01-08T08:46:40Z</time>
      </trkpt>
      <trkpt lat="45.85083" lon="4.89589">
        <ele>279</ele>
        <time>2012-01-08T08:46:41Z</time>
      </trkpt>
      <trkpt lat="45.85079" lon="4.89618">
        <ele>282</ele>
        <time>2012-01-08T08:46:47Z</time>
      </trkpt>
      <trkpt lat="45.85075" lon="4.89641">
        <ele>283</ele>
        <time>2012-01-08T08:46:52Z</time>
      </trkpt>
      <trkpt lat="45.85072" lon="4.89655">
        <ele>283</ele>
        <time>2012-01-08T08:46:55Z</time>
      </trkpt>
      <trkpt lat="45.85062" lon="4.8969">
        <ele>285</ele>
        <time>2012-01-08T08:47:03Z</time>
      </trkpt>
      <trkpt lat="45.8506" lon="4.89717">
        <ele>285</ele>
        <time>2012-01-08T08:47:08Z</time>
      </trkpt>
      <trkpt lat="45.85067" lon="4.89734">
        <ele>285</ele>
        <time>2012-01-08T08:47:12Z</time>
      </trkpt>
      <trkpt lat="45.85072" lon="4.8974">
        <ele>285</ele>
        <time>2012-01-08T08:47:14Z</time>
      </trkpt>
      <trkpt lat="45.85083" lon="4.89755">
        <ele>284</ele>
        <time>2012-01-08T08:47:19Z</time>
      </trkpt>
      <trkpt lat="45.85098" lon="4.89776">
        <ele>284</ele>
        <time>2012-01-08T08:47:24Z</time>
      </trkpt>
      <trkpt lat="45.85108" lon="4.89788">
        <ele>284</ele>
        <time>2012-01-08T08:47:27Z</time>
      </trkpt>
      <trkpt lat="45.85124" lon="4.89808">
        <ele>284</ele>
        <time>2012-01-08T08:47:33Z</time>
      </trkpt>
      <trkpt lat="45.85126" lon="4.89812">
        <ele>283</ele>
        <time>2012-01-08T08:47:34Z</time>
      </trkpt>
      <trkpt lat="45.85127" lon="4.89823">
        <ele>284</ele>
        <time>2012-01-08T08:47:37Z</time>
      </trkpt>
      <trkpt lat="45.85126" lon="4.89826">
        <ele>284</ele>
        <time>2012-01-08T08:47:38Z</time>
      </trkpt>
      <trkpt lat="45.85119" lon="4.89839">
        <ele>285</ele>
        <time>2012-01-08T08:47:43Z</time>
      </trkpt>
      <trkpt lat="45.85117" lon="4.89841">
        <ele>285</ele>
        <time>2012-01-08T08:47:44Z</time>
      </trkpt>
      <trkpt lat="45.85112" lon="4.89842">
        <ele>285</ele>
        <time>2012-01-08T08:47:47Z</time>
      </trkpt>
      <trkpt lat="45.85111" lon="4.89842">
        <ele>285</ele>
        <time>2012-01-08T08:47:52Z</time>
      </trkpt>
      <trkpt lat="45.85106" lon="4.89838">
        <ele>286</ele>
        <time>2012-01-08T08:48:26Z</time>
      </trkpt>
      <trkpt lat="45.85094" lon="4.89821">
        <ele>285</ele>
        <time>2012-01-08T08:48:33Z</time>
      </trkpt>
      <trkpt lat="45.85078" lon="4.89802">
        <ele>286</ele>
        <time>2012-01-08T08:48:39Z</time>
      </trkpt>
      <trkpt lat="45.85055" lon="4.89775">
        <ele>286</ele>
        <time>2012-01-08T08:48:47Z</time>
      </trkpt>
      <trkpt lat="45.85048" lon="4.8977">
        <ele>286</ele>
        <time>2012-01-08T08:48:49Z</time>
      </trkpt>
      <trkpt lat="45.85033" lon="4.89759">
        <ele>286</ele>
        <time>2012-01-08T08:48:53Z</time>
      </trkpt>
      <trkpt lat="45.85018" lon="4.89746">
        <ele>287</ele>
        <time>2012-01-08T08:48:58Z</time>
      </trkpt>
      <trkpt lat="45.85014" lon="4.89744">
        <ele>287</ele>
        <time>2012-01-08T08:48:59Z</time>
      </trkpt>
      <trkpt lat="45.8499" lon="4.89727">
        <ele>288</ele>
        <time>2012-01-08T08:49:06Z</time>
      </trkpt>
      <trkpt lat="45.84979" lon="4.8972">
        <ele>288</ele>
        <time>2012-01-08T08:49:09Z</time>
      </trkpt>
      <trkpt lat="45.84968" lon="4.89714">
        <ele>288</ele>
        <time>2012-01-08T08:49:12Z</time>
      </trkpt>
      <trkpt lat="45.84944" lon="4.89703">
        <ele>288</ele>
        <time>2012-01-08T08:49:18Z</time>
      </trkpt>
      <trkpt lat="45.84937" lon="4.89701">
        <ele>288</ele>
        <time>2012-01-08T08:49:20Z</time>
      </trkpt>
      <trkpt lat="45.84915" lon="4.89697">
        <ele>289</ele>
        <time>2012-01-08T08:49:26Z</time>
      </trkpt>
      <trkpt lat="45.84906" lon="4.89695">
        <ele>289</ele>
        <time>2012-01-08T08:49:29Z</time>
      </trkpt>
      <trkpt lat="45.84897" lon="4.89692">
        <ele>289</ele>
        <time>2012-01-08T08:49:32Z</time>
      </trkpt>
      <trkpt lat="45.84893" lon="4.89689">
        <ele>289</ele>
        <time>2012-01-08T08:49:33Z</time>
      </trkpt>
      <trkpt lat="45.8488" lon="4.89687">
        <ele>289</ele>
        <time>2012-01-08T08:49:36Z</time>
      </trkpt>
      <trkpt lat="45.84872" lon="4.89687">
        <ele>289</ele>
        <time>2012-01-08T08:49:38Z</time>
      </trkpt>
      <trkpt lat="45.84869" lon="4.89686">
        <ele>289</ele>
        <time>2012-01-08T08:49:39Z</time>
      </trkpt>
      <trkpt lat="45.84858" lon="4.89683">
        <ele>289</ele>
        <time>2012-01-08T08:49:42Z</time>
      </trkpt>
      <trkpt lat="45.84831" lon="4.89678">
        <ele>289</ele>
        <time>2012-01-08T08:49:49Z</time>
      </trkpt>
      <trkpt lat="45.84827" lon="4.89678">
        <ele>289</ele>
        <time>2012-01-08T08:49:50Z</time>
      </trkpt>
      <trkpt lat="45.848" lon="4.89672">
        <ele>290</ele>
        <time>2012-01-08T08:49:57Z</time>
      </trkpt>
      <trkpt lat="45.84793" lon="4.8967">
        <ele>290</ele>
        <time>2012-01-08T08:49:59Z</time>
      </trkpt>
      <trkpt lat="45.84779" lon="4.89665">
        <ele>291</ele>
        <time>2012-01-08T08:50:03Z</time>
      </trkpt>
      <trkpt lat="45.8477" lon="4.89662">
        <ele>291</ele>
        <time>2012-01-08T08:50:07Z</time>
      </trkpt>
      <trkpt lat="45.84767" lon="4.89663">
        <ele>291</ele>
        <time>2012-01-08T08:50:12Z</time>
      </trkpt>
      <trkpt lat="45.84768" lon="4.89665">
        <ele>291</ele>
        <time>2012-01-08T08:50:36Z</time>
      </trkpt>
      <trkpt lat="45.84769" lon="4.89665">
        <ele>291</ele>
        <time>2012-01-08T08:50:38Z</time>
      </trkpt>
      <trkpt lat="45.84771" lon="4.8967">
        <ele>290</ele>
        <time>2012-01-08T08:50:41Z</time>
      </trkpt>
      <trkpt lat="45.84772" lon="4.89672">
        <ele>290</ele>
        <time>2012-01-08T08:50:42Z</time>
      </trkpt>
      <trkpt lat="45.84773" lon="4.89675">
        <ele>290</ele>
        <time>2012-01-08T08:50:43Z</time>
      </trkpt>
      <trkpt lat="45.84779" lon="4.89686">
        <ele>290</ele>
        <time>2012-01-08T08:50:46Z</time>
      </trkpt>
      <trkpt lat="45.84788" lon="4.89708">
        <ele>290</ele>
        <time>2012-01-08T08:50:50Z</time>
      </trkpt>
      <trkpt lat="45.84794" lon="4.89721">
        <ele>289</ele>
        <time>2012-01-08T08:50:52Z</time>
      </trkpt>
      <trkpt lat="45.84803" lon="4.89744">
        <ele>289</ele>
        <time>2012-01-08T08:50:55Z</time>
      </trkpt>
      <trkpt lat="45.84814" lon="4.89769">
        <ele>288</ele>
        <time>2012-01-08T08:50:58Z</time>
      </trkpt>
      <trkpt lat="45.84837" lon="4.8982">
        <ele>288</ele>
        <time>2012-01-08T08:51:04Z</time>
      </trkpt>
      <trkpt lat="45.84841" lon="4.89829">
        <ele>288</ele>
        <time>2012-01-08T08:51:05Z</time>
      </trkpt>
      <trkpt lat="45.8486" lon="4.8987">
        <ele>287</ele>
        <time>2012-01-08T08:51:10Z</time>
      </trkpt>
      <trkpt lat="45.84864" lon="4.89878">
        <ele>287</ele>
        <time>2012-01-08T08:51:11Z</time>
      </trkpt>
      <trkpt lat="45.84882" lon="4.89919">
        <ele>286</ele>
        <time>2012-01-08T08:51:16Z</time>
      </trkpt>
      <trkpt lat="45.84893" lon="4.89944">
        <ele>286</ele>
        <time>2012-01-08T08:51:19Z</time>
      </trkpt>
      <trkpt lat="45.84904" lon="4.8997">
        <ele>286</ele>
        <time>2012-01-08T08:51:22Z</time>
      </trkpt>
      <trkpt lat="45.84927" lon="4.9002">
        <ele>285</ele>
        <time>2012-01-08T08:51:28Z</time>
      </trkpt>
      <trkpt lat="45.8495" lon="4.9007">
        <ele>285</ele>
        <time>2012-01-08T08:51:34Z</time>
      </trkpt>
      <trkpt lat="45.84969" lon="4.90111">
        <ele>285</ele>
        <time>2012-01-08T08:51:39Z</time>
      </trkpt>
      <trkpt lat="45.84973" lon="4.90119">
        <ele>285</ele>
        <time>2012-01-08T08:51:40Z</time>
      </trkpt>
      <trkpt lat="45.84995" lon="4.90168">
        <ele>284</ele>
        <time>2012-01-08T08:51:46Z</time>
      </trkpt>
      <trkpt lat="45.85011" lon="4.90204">
        <ele>285</ele>
        <time>2012-01-08T08:51:51Z</time>
      </trkpt>
      <trkpt lat="45.85013" lon="4.9021">
        <ele>285</ele>
        <time>2012-01-08T08:51:52Z</time>
      </trkpt>
      <trkpt lat="45.85013" lon="4.90216">
        <ele>285</ele>
        <time>2012-01-08T08:51:53Z</time>
      </trkpt>
      <trkpt lat="45.85011" lon="4.9022">
        <ele>285</ele>
        <time>2012-01-08T08:51:54Z</time>
      </trkpt>
      <trkpt lat="45.84998" lon="4.90221">
        <ele>285</ele>
        <time>2012-01-08T08:51:57Z</time>
      </trkpt>
      <trkpt lat="45.84988" lon="4.9022">
        <ele>285</ele>
        <time>2012-01-08T08:51:59Z</time>
      </trkpt>
      <trkpt lat="45.84978" lon="4.9022">
        <ele>285</ele>
        <time>2012-01-08T08:52:01Z</time>
      </trkpt>
      <trkpt lat="45.84972" lon="4.9022">
        <ele>285</ele>
        <time>2012-01-08T08:52:02Z</time>
      </trkpt>
      <trkpt lat="45.84967" lon="4.9022">
        <ele>285</ele>
        <time>2012-01-08T08:52:03Z</time>
      </trkpt>
      <trkpt lat="45.84939" lon="4.90221">
        <ele>285</ele>
        <time>2012-01-08T08:52:08Z</time>
      </trkpt>
      <trkpt lat="45.84921" lon="4.90222">
        <ele>285</ele>
        <time>2012-01-08T08:52:11Z</time>
      </trkpt>
      <trkpt lat="45.84915" lon="4.90223">
        <ele>285</ele>
        <time>2012-01-08T08:52:12Z</time>
      </trkpt>
      <trkpt lat="45.84897" lon="4.90222">
        <ele>285</ele>
        <time>2012-01-08T08:52:15Z</time>
      </trkpt>
      <trkpt lat="45.84885" lon="4.90222">
        <ele>285</ele>
        <time>2012-01-08T08:52:17Z</time>
      </trkpt>
      <trkpt lat="45.84861" lon="4.90221">
        <ele>284</ele>
        <time>2012-01-08T08:52:21Z</time>
      </trkpt>
      <trkpt lat="45.84838" lon="4.9022">
        <ele>284</ele>
        <time>2012-01-08T08:52:25Z</time>
      </trkpt>
      <trkpt lat="45.84821" lon="4.90221">
        <ele>284</ele>
        <time>2012-01-08T08:52:28Z</time>
      </trkpt>
      <trkpt lat="45.84792" lon="4.90221">
        <ele>285</ele>
        <time>2012-01-08T08:52:33Z</time>
      </trkpt>
      <trkpt lat="45.8478" lon="4.90221">
        <ele>285</ele>
        <time>2012-01-08T08:52:35Z</time>
      </trkpt>
      <trkpt lat="45.84748" lon="4.90221">
        <ele>286</ele>
        <time>2012-01-08T08:52:41Z</time>
      </trkpt>
      <trkpt lat="45.84742" lon="4.90221">
        <ele>286</ele>
        <time>2012-01-08T08:52:42Z</time>
      </trkpt>
      <trkpt lat="45.84707" lon="4.90221">
        <ele>287</ele>
        <time>2012-01-08T08:52:48Z</time>
      </trkpt>
      <trkpt lat="45.84701" lon="4.90221">
        <ele>287</ele>
        <time>2012-01-08T08:52:49Z</time>
      </trkpt>
      <trkpt lat="45.84662" lon="4.90221">
        <ele>288</ele>
        <time>2012-01-08T08:52:56Z</time>
      </trkpt>
      <trkpt lat="45.84657" lon="4.90221">
        <ele>288</ele>
        <time>2012-01-08T08:52:57Z</time>
      </trkpt>
      <trkpt lat="45.84623" lon="4.9022">
        <ele>288</ele>
        <time>2012-01-08T08:53:03Z</time>
      </trkpt>
      <trkpt lat="45.8459" lon="4.9022">
        <ele>288</ele>
        <time>2012-01-08T08:53:09Z</time>
      </trkpt>
      <trkpt lat="45.84585" lon="4.9022">
        <ele>288</ele>
        <time>2012-01-08T08:53:10Z</time>
      </trkpt>
      <trkpt lat="45.84548" lon="4.9022">
        <ele>288</ele>
        <time>2012-01-08T08:53:17Z</time>
      </trkpt>
      <trkpt lat="45.84543" lon="4.9022">
        <ele>288</ele>
        <time>2012-01-08T08:53:18Z</time>
      </trkpt>
      <trkpt lat="45.84512" lon="4.9022">
        <ele>289</ele>
        <time>2012-01-08T08:53:24Z</time>
      </trkpt>
      <trkpt lat="45.8449" lon="4.9022">
        <ele>290</ele>
        <time>2012-01-08T08:53:28Z</time>
      </trkpt>
      <trkpt lat="45.84473" lon="4.90219">
        <ele>290</ele>
        <time>2012-01-08T08:53:31Z</time>
      </trkpt>
      <trkpt lat="45.84452" lon="4.90219">
        <ele>291</ele>
        <time>2012-01-08T08:53:35Z</time>
      </trkpt>
      <trkpt lat="45.84447" lon="4.90221">
        <ele>291</ele>
        <time>2012-01-08T08:53:36Z</time>
      </trkpt>
      <trkpt lat="45.84438" lon="4.90235">
        <ele>291</ele>
        <time>2012-01-08T08:53:39Z</time>
      </trkpt>
      <trkpt lat="45.84437" lon="4.90259">
        <ele>291</ele>
        <time>2012-01-08T08:53:42Z</time>
      </trkpt>
      <trkpt lat="45.84437" lon="4.90267">
        <ele>291</ele>
        <time>2012-01-08T08:53:43Z</time>
      </trkpt>
      <trkpt lat="45.84438" lon="4.9029">
        <ele>291</ele>
        <time>2012-01-08T08:53:46Z</time>
      </trkpt>
      <trkpt lat="45.84439" lon="4.90328">
        <ele>292</ele>
        <time>2012-01-08T08:53:51Z</time>
      </trkpt>
      <trkpt lat="45.84439" lon="4.90346">
        <ele>292</ele>
        <time>2012-01-08T08:53:54Z</time>
      </trkpt>
      <trkpt lat="45.84439" lon="4.90354">
        <ele>292</ele>
        <time>2012-01-08T08:53:56Z</time>
      </trkpt>
      <trkpt lat="45.84438" lon="4.90362">
        <ele>292</ele>
        <time>2012-01-08T08:54:01Z</time>
      </trkpt>
      <trkpt lat="45.84439" lon="4.90374">
        <ele>292</ele>
        <time>2012-01-08T08:54:07Z</time>
      </trkpt>
      <trkpt lat="45.84439" lon="4.90394">
        <ele>292</ele>
        <time>2012-01-08T08:54:12Z</time>
      </trkpt>
      <trkpt lat="45.84439" lon="4.90399">
        <ele>292</ele>
        <time>2012-01-08T08:54:13Z</time>
      </trkpt>
      <trkpt lat="45.84438" lon="4.90423">
        <ele>292</ele>
        <time>2012-01-08T08:54:18Z</time>
      </trkpt>
      <trkpt lat="45.84436" lon="4.90451">
        <ele>292</ele>
        <time>2012-01-08T08:54:23Z</time>
      </trkpt>
      <trkpt lat="45.84435" lon="4.90457">
        <ele>292</ele>
        <time>2012-01-08T08:54:24Z</time>
      </trkpt>
      <trkpt lat="45.84427" lon="4.90505">
        <ele>292</ele>
        <time>2012-01-08T08:54:32Z</time>
      </trkpt>
      <trkpt lat="45.84427" lon="4.90511">
        <ele>292</ele>
        <time>2012-01-08T08:54:33Z</time>
      </trkpt>
      <trkpt lat="45.84419" lon="4.90558">
        <ele>292</ele>
        <time>2012-01-08T08:54:41Z</time>
      </trkpt>
      <trkpt lat="45.84418" lon="4.90564">
        <ele>292</ele>
        <time>2012-01-08T08:54:42Z</time>
      </trkpt>
      <trkpt lat="45.84411" lon="4.90611">
        <ele>295</ele>
        <time>2012-01-08T08:54:50Z</time>
      </trkpt>
      <trkpt lat="45.84408" lon="4.9063">
        <ele>296</ele>
        <time>2012-01-08T08:54:53Z</time>
      </trkpt>
      <trkpt lat="45.84406" lon="4.90649">
        <ele>295</ele>
        <time>2012-01-08T08:54:56Z</time>
      </trkpt>
      <trkpt lat="45.84404" lon="4.90663">
        <ele>295</ele>
        <time>2012-01-08T08:54:58Z</time>
      </trkpt>
      <trkpt lat="45.84402" lon="4.90677">
        <ele>295</ele>
        <time>2012-01-08T08:55:00Z</time>
      </trkpt>
      <trkpt lat="45.84396" lon="4.90716">
        <ele>296</ele>
        <time>2012-01-08T08:55:06Z</time>
      </trkpt>
      <trkpt lat="45.84388" lon="4.9076">
        <ele>295</ele>
        <time>2012-01-08T08:55:13Z</time>
      </trkpt>
      <trkpt lat="45.84387" lon="4.90768">
        <ele>295</ele>
        <time>2012-01-08T08:55:14Z</time>
      </trkpt>
      <trkpt lat="45.84382" lon="4.90796">
        <ele>295</ele>
        <time>2012-01-08T08:55:18Z</time>
      </trkpt>
      <trkpt lat="45.84379" lon="4.908">
        <ele>296</ele>
        <time>2012-01-08T08:55:19Z</time>
      </trkpt>
      <trkpt lat="45.84368" lon="4.90803">
        <ele>296</ele>
        <time>2012-01-08T08:55:22Z</time>
      </trkpt>
      <trkpt lat="45.84364" lon="4.90803">
        <ele>296</ele>
        <time>2012-01-08T08:55:23Z</time>
      </trkpt>
      <trkpt lat="45.84332" lon="4.90805">
        <ele>301</ele>
        <time>2012-01-08T08:55:32Z</time>
      </trkpt>
      <trkpt lat="45.84325" lon="4.90806">
        <ele>301</ele>
        <time>2012-01-08T08:55:34Z</time>
      </trkpt>
      <trkpt lat="45.84307" lon="4.90807">
        <ele>302</ele>
        <time>2012-01-08T08:55:40Z</time>
      </trkpt>
      <trkpt lat="45.84287" lon="4.90809">
        <ele>303</ele>
        <time>2012-01-08T08:55:47Z</time>
      </trkpt>
      <trkpt lat="45.84265" lon="4.9081">
        <ele>304</ele>
        <time>2012-01-08T08:55:56Z</time>
      </trkpt>
      <trkpt lat="45.8425" lon="4.90812">
        <ele>304</ele>
        <time>2012-01-08T08:56:03Z</time>
      </trkpt>
      <trkpt lat="45.84246" lon="4.90812">
        <ele>308</ele>
        <time>2012-01-08T08:56:05Z</time>
      </trkpt>
      <trkpt lat="45.84229" lon="4.90813">
        <ele>309</ele>
        <time>2012-01-08T08:56:13Z</time>
      </trkpt>
      <trkpt lat="45.84214" lon="4.90814">
        <ele>310</ele>
        <time>2012-01-08T08:56:20Z</time>
      </trkpt>
      <trkpt lat="45.84212" lon="4.90814">
        <ele>310</ele>
        <time>2012-01-08T08:56:21Z</time>
      </trkpt>
      <trkpt lat="45.84194" lon="4.90816">
        <ele>311</ele>
        <time>2012-01-08T08:56:30Z</time>
      </trkpt>
      <trkpt lat="45.84181" lon="4.90816">
        <ele>312</ele>
        <time>2012-01-08T08:56:36Z</time>
      </trkpt>
      <trkpt lat="45.84177" lon="4.90817">
        <ele>312</ele>
        <time>2012-01-08T08:56:38Z</time>
      </trkpt>
      <trkpt lat="45.84169" lon="4.90819">
        <ele>312</ele>
        <time>2012-01-08T08:56:43Z</time>
      </trkpt>
      <trkpt lat="45.8416" lon="4.90819">
        <ele>315</ele>
        <time>2012-01-08T08:56:47Z</time>
      </trkpt>
      <trkpt lat="45.84155" lon="4.90819">
        <ele>315</ele>
        <time>2012-01-08T08:56:52Z</time>
      </trkpt>
      <trkpt lat="45.84155" lon="4.90818">
        <ele>315</ele>
        <time>2012-01-08T08:56:53Z</time>
      </trkpt>
      <trkpt lat="45.84154" lon="4.90817">
        <ele>315</ele>
        <time>2012-01-08T08:56:54Z</time>
      </trkpt>
      <trkpt lat="45.84153" lon="4.90818">
        <ele>315</ele>
        <time>2012-01-08T08:56:56Z</time>
      </trkpt>
      <trkpt lat="45.84151" lon="4.90819">
        <ele>315</ele>
        <time>2012-01-08T08:56:57Z</time>
      </trkpt>
      <trkpt lat="45.84148" lon="4.90821">
        <ele>315</ele>
        <time>2012-01-08T08:57:00Z</time>
      </trkpt>
      <trkpt lat="45.84145" lon="4.9082">
        <ele>315</ele>
        <time>2012-01-08T08:57:02Z</time>
      </trkpt>
      <trkpt lat="45.84141" lon="4.90819">
        <ele>315</ele>
        <time>2012-01-08T08:57:04Z</time>
      </trkpt>
      <trkpt lat="45.8413" lon="4.9082">
        <ele>316</ele>
        <time>2012-01-08T08:57:09Z</time>
      </trkpt>
      <trkpt lat="45.84106" lon="4.90821">
        <ele>317</ele>
        <time>2012-01-08T08:57:17Z</time>
      </trkpt>
      <trkpt lat="45.8409" lon="4.9082">
        <ele>318</ele>
        <time>2012-01-08T08:57:23Z</time>
      </trkpt>
      <trkpt lat="45.84085" lon="4.90811">
        <ele>317</ele>
        <time>2012-01-08T08:57:28Z</time>
      </trkpt>
      <trkpt lat="45.84083" lon="4.90795">
        <ele>320</ele>
        <time>2012-01-08T08:57:35Z</time>
      </trkpt>
      <trkpt lat="45.84082" lon="4.90793">
        <ele>320</ele>
        <time>2012-01-08T08:57:37Z</time>
      </trkpt>
      <trkpt lat="45.84081" lon="4.90782">
        <ele>320</ele>
        <time>2012-01-08T08:57:41Z</time>
      </trkpt>
      <trkpt lat="45.8408" lon="4.90767">
        <ele>320</ele>
        <time>2012-01-08T08:57:46Z</time>
      </trkpt>
      <trkpt lat="45.84079" lon="4.90754">
        <ele>319</ele>
        <time>2012-01-08T08:57:52Z</time>
      </trkpt>
      <trkpt lat="45.84078" lon="4.90739">
        <ele>319</ele>
        <time>2012-01-08T08:57:58Z</time>
      </trkpt>
      <trkpt lat="45.84077" lon="4.90736">
        <ele>319</ele>
        <time>2012-01-08T08:58:00Z</time>
      </trkpt>
      <trkpt lat="45.84073" lon="4.90713">
        <ele>319</ele>
        <time>2012-01-08T08:58:05Z</time>
      </trkpt>
      <trkpt lat="45.84069" lon="4.90689">
        <ele>318</ele>
        <time>2012-01-08T08:58:10Z</time>
      </trkpt>
      <trkpt lat="45.84068" lon="4.90682">
        <ele>318</ele>
        <time>2012-01-08T08:58:12Z</time>
      </trkpt>
      <trkpt lat="45.84065" lon="4.90679">
        <ele>318</ele>
        <time>2012-01-08T08:58:17Z</time>
      </trkpt>
      <trkpt lat="45.84061" lon="4.9068">
        <ele>318</ele>
        <time>2012-01-08T08:58:25Z</time>
      </trkpt>
      <trkpt lat="45.84055" lon="4.9068">
        <ele>319</ele>
        <time>2012-01-08T08:58:32Z</time>
      </trkpt>
      <trkpt lat="45.84054" lon="4.90679">
        <ele>319</ele>
        <time>2012-01-08T08:58:43Z</time>
      </trkpt>
      <trkpt lat="45.84054" lon="4.9068">
        <ele>319</ele>
        <time>2012-01-08T08:58:44Z</time>
      </trkpt>
      <trkpt lat="45.84055" lon="4.90686">
        <ele>319</ele>
        <time>2012-01-08T08:58:48Z</time>
      </trkpt>
      <trkpt lat="45.84057" lon="4.907">
        <ele>320</ele>
        <time>2012-01-08T08:58:53Z</time>
      </trkpt>
      <trkpt lat="45.8406" lon="4.90714">
        <ele>320</ele>
        <time>2012-01-08T08:58:56Z</time>
      </trkpt>
      <trkpt lat="45.8406" lon="4.90721">
        <ele>320</ele>
        <time>2012-01-08T08:58:58Z</time>
      </trkpt>
      <trkpt lat="45.84058" lon="4.90735">
        <ele>320</ele>
        <time>2012-01-08T08:59:00Z</time>
      </trkpt>
      <trkpt lat="45.84051" lon="4.90747">
        <ele>320</ele>
        <time>2012-01-08T08:59:03Z</time>
      </trkpt>
      <trkpt lat="45.84048" lon="4.90754">
        <ele>321</ele>
        <time>2012-01-08T08:59:05Z</time>
      </trkpt>
      <trkpt lat="45.84048" lon="4.90775">
        <ele>321</ele>
        <time>2012-01-08T08:59:10Z</time>
      </trkpt>
      <trkpt lat="45.8405" lon="4.90789">
        <ele>321</ele>
        <time>2012-01-08T08:59:15Z</time>
      </trkpt>
      <trkpt lat="45.8405" lon="4.90793">
        <ele>321</ele>
        <time>2012-01-08T08:59:20Z</time>
      </trkpt>
      <trkpt lat="45.84048" lon="4.90797">
        <ele>321</ele>
        <time>2012-01-08T08:59:23Z</time>
      </trkpt>
      <trkpt lat="45.84047" lon="4.90799">
        <ele>321</ele>
        <time>2012-01-08T08:59:26Z</time>
      </trkpt>
      <trkpt lat="45.84049" lon="4.90801">
        <ele>321</ele>
        <time>2012-01-08T08:59:40Z</time>
      </trkpt>
      <trkpt lat="45.8405" lon="4.90808">
        <ele>321</ele>
        <time>2012-01-08T08:59:42Z</time>
      </trkpt>
      <trkpt lat="45.84056" lon="4.90832">
        <ele>321</ele>
        <time>2012-01-08T08:59:47Z</time>
      </trkpt>
      <trkpt lat="45.8406" lon="4.90842">
        <ele>319</ele>
        <time>2012-01-08T08:59:49Z</time>
      </trkpt>
      <trkpt lat="45.84058" lon="4.90858">
        <ele>319</ele>
        <time>2012-01-08T08:59:52Z</time>
      </trkpt>
      <trkpt lat="45.84049" lon="4.90871">
        <ele>319</ele>
        <time>2012-01-08T08:59:56Z</time>
      </trkpt>
      <trkpt lat="45.84037" lon="4.90883">
        <ele>319</ele>
        <time>2012-01-08T09:00:00Z</time>
      </trkpt>
      <trkpt lat="45.84034" lon="4.90888">
        <ele>319</ele>
        <time>2012-01-08T09:00:01Z</time>
      </trkpt>
      <trkpt lat="45.84016" lon="4.90908">
        <ele>320</ele>
        <time>2012-01-08T09:00:06Z</time>
      </trkpt>
      <trkpt lat="45.84004" lon="4.90916">
        <ele>320</ele>
        <time>2012-01-08T09:00:09Z</time>
      </trkpt>
      <trkpt lat="45.83996" lon="4.90923">
        <ele>320</ele>
        <time>2012-01-08T09:00:11Z</time>
      </trkpt>
      <trkpt lat="45.83986" lon="4.90941">
        <ele>319</ele>
        <time>2012-01-08T09:00:15Z</time>
      </trkpt>
      <trkpt lat="45.83975" lon="4.90954">
        <ele>319</ele>
        <time>2012-01-08T09:00:18Z</time>
      </trkpt>
      <trkpt lat="45.83972" lon="4.90958">
        <ele>319</ele>
        <time>2012-01-08T09:00:20Z</time>
      </trkpt>
      <trkpt lat="45.83961" lon="4.90971">
        <ele>319</ele>
        <time>2012-01-08T09:00:23Z</time>
      </trkpt>
      <trkpt lat="45.83959" lon="4.90974">
        <ele>319</ele>
        <time>2012-01-08T09:00:24Z</time>
      </trkpt>
      <trkpt lat="45.83951" lon="4.90986">
        <ele>319</ele>
        <time>2012-01-08T09:00:27Z</time>
      </trkpt>
      <trkpt lat="45.83948" lon="4.9099">
        <ele>319</ele>
        <time>2012-01-08T09:00:28Z</time>
      </trkpt>
      <trkpt lat="45.83942" lon="4.90998">
        <ele>319</ele>
        <time>2012-01-08T09:00:30Z</time>
      </trkpt>
      <trkpt lat="45.83937" lon="4.91006">
        <ele>318</ele>
        <time>2012-01-08T09:00:32Z</time>
      </trkpt>
      <trkpt lat="45.83921" lon="4.91019">
        <ele>319</ele>
        <time>2012-01-08T09:00:37Z</time>
      </trkpt>
      <trkpt lat="45.83919" lon="4.91021">
        <ele>319</ele>
        <time>2012-01-08T09:00:38Z</time>
      </trkpt>
      <trkpt lat="45.8391" lon="4.91026">
        <ele>322</ele>
        <time>2012-01-08T09:00:41Z</time>
      </trkpt>
      <trkpt lat="45.83898" lon="4.91033">
        <ele>322</ele>
        <time>2012-01-08T09:00:46Z</time>
      </trkpt>
      <trkpt lat="45.83886" lon="4.91032">
        <ele>322</ele>
        <time>2012-01-08T09:00:49Z</time>
      </trkpt>
      <trkpt lat="45.83883" lon="4.91034">
        <ele>322</ele>
        <time>2012-01-08T09:00:50Z</time>
      </trkpt>
      <trkpt lat="45.83875" lon="4.91038">
        <ele>322</ele>
        <time>2012-01-08T09:00:54Z</time>
      </trkpt>
      <trkpt lat="45.83869" lon="4.91033">
        <ele>322</ele>
        <time>2012-01-08T09:00:58Z</time>
      </trkpt>
      <trkpt lat="45.8386" lon="4.9103">
        <ele>322</ele>
        <time>2012-01-08T09:01:04Z</time>
      </trkpt>
      <trkpt lat="45.83851" lon="4.91023">
        <ele>323</ele>
        <time>2012-01-08T09:01:09Z</time>
      </trkpt>
      <trkpt lat="45.8385" lon="4.91019">
        <ele>323</ele>
        <time>2012-01-08T09:01:12Z</time>
      </trkpt>
      <trkpt lat="45.83849" lon="4.91016">
        <ele>323</ele>
        <time>2012-01-08T09:01:16Z</time>
      </trkpt>
      <trkpt lat="45.83849" lon="4.91016">
        <ele>323</ele>
        <time>2012-01-08T09:01:53Z</time>
      </trkpt>
      <trkpt lat="45.83847" lon="4.91016">
        <ele>323</ele>
        <time>2012-01-08T09:01:59Z</time>
      </trkpt>
      <trkpt lat="45.83844" lon="4.9101">
        <ele>324</ele>
        <time>2012-01-08T09:02:01Z</time>
      </trkpt>
      <trkpt lat="45.83834" lon="4.90995">
        <ele>325</ele>
        <time>2012-01-08T09:02:05Z</time>
      </trkpt>
      <trkpt lat="45.83832" lon="4.90989">
        <ele>326</ele>
        <time>2012-01-08T09:02:08Z</time>
      </trkpt>
      <trkpt lat="45.83831" lon="4.90987">
        <ele>326</ele>
        <time>2012-01-08T09:02:15Z</time>
      </trkpt>
      <trkpt lat="45.83828" lon="4.90984">
        <ele>327</ele>
        <time>2012-01-08T09:02:33Z</time>
      </trkpt>
      <trkpt lat="45.83824" lon="4.90983">
        <ele>327</ele>
        <time>2012-01-08T09:02:37Z</time>
      </trkpt>
      <trkpt lat="45.83807" lon="4.90982">
        <ele>327</ele>
        <time>2012-01-08T09:02:42Z</time>
      </trkpt>
      <trkpt lat="45.83791" lon="4.90978">
        <ele>328</ele>
        <time>2012-01-08T09:02:46Z</time>
      </trkpt>
      <trkpt lat="45.83787" lon="4.90976">
        <ele>328</ele>
        <time>2012-01-08T09:02:47Z</time>
      </trkpt>
      <trkpt lat="45.83771" lon="4.90969">
        <ele>328</ele>
        <time>2012-01-08T09:02:51Z</time>
      </trkpt>
      <trkpt lat="45.83756" lon="4.90963">
        <ele>328</ele>
        <time>2012-01-08T09:02:56Z</time>
      </trkpt>
      <trkpt lat="45.83738" lon="4.90961">
        <ele>328</ele>
        <time>2012-01-08T09:03:02Z</time>
      </trkpt>
      <trkpt lat="45.83723" lon="4.90955">
        <ele>328</ele>
        <time>2012-01-08T09:03:06Z</time>
      </trkpt>
      <trkpt lat="45.8372" lon="4.90954">
        <ele>328</ele>
        <time>2012-01-08T09:03:07Z</time>
      </trkpt>
      <trkpt lat="45.83706" lon="4.90951">
        <ele>328</ele>
        <time>2012-01-08T09:03:11Z</time>
      </trkpt>
      <trkpt lat="45.83696" lon="4.90952">
        <ele>328</ele>
        <time>2012-01-08T09:03:15Z</time>
      </trkpt>
      <trkpt lat="45.83693" lon="4.90953">
        <ele>328</ele>
        <time>2012-01-08T09:03:16Z</time>
      </trkpt>
      <trkpt lat="45.83681" lon="4.90955">
        <ele>327</ele>
        <time>2012-01-08T09:03:19Z</time>
      </trkpt>
      <trkpt lat="45.83672" lon="4.90951">
        <ele>327</ele>
        <time>2012-01-08T09:03:21Z</time>
      </trkpt>
      <trkpt lat="45.8367" lon="4.90931">
        <ele>327</ele>
        <time>2012-01-08T09:03:26Z</time>
      </trkpt>
      <trkpt lat="45.83671" lon="4.90914">
        <ele>327</ele>
        <time>2012-01-08T09:03:29Z</time>
      </trkpt>
      <trkpt lat="45.83671" lon="4.90902">
        <ele>328</ele>
        <time>2012-01-08T09:03:31Z</time>
      </trkpt>
      <trkpt lat="45.83671" lon="4.90889">
        <ele>328</ele>
        <time>2012-01-08T09:03:33Z</time>
      </trkpt>
      <trkpt lat="45.83673" lon="4.90871">
        <ele>328</ele>
        <time>2012-01-08T09:03:36Z</time>
      </trkpt>
      <trkpt lat="45.83674" lon="4.90864">
        <ele>328</ele>
        <time>2012-01-08T09:03:37Z</time>
      </trkpt>
      <trkpt lat="45.83674" lon="4.90858">
        <ele>328</ele>
        <time>2012-01-08T09:03:38Z</time>
      </trkpt>
      <trkpt lat="45.83675" lon="4.9085">
        <ele>328</ele>
        <time>2012-01-08T09:03:39Z</time>
      </trkpt>
      <trkpt lat="45.83673" lon="4.90835">
        <ele>328</ele>
        <time>2012-01-08T09:03:41Z</time>
      </trkpt>
      <trkpt lat="45.83672" lon="4.90806">
        <ele>328</ele>
        <time>2012-01-08T09:03:45Z</time>
      </trkpt>
      <trkpt lat="45.83671" lon="4.90787">
        <ele>328</ele>
        <time>2012-01-08T09:03:47Z</time>
      </trkpt>
      <trkpt lat="45.83675" lon="4.9077">
        <ele>328</ele>
        <time>2012-01-08T09:03:49Z</time>
      </trkpt>
      <trkpt lat="45.83678" lon="4.90751">
        <ele>327</ele>
        <time>2012-01-08T09:03:51Z</time>
      </trkpt>
      <trkpt lat="45.83679" lon="4.90729">
        <ele>327</ele>
        <time>2012-01-08T09:03:53Z</time>
      </trkpt>
      <trkpt lat="45.83677" lon="4.90695">
        <ele>327</ele>
        <time>2012-01-08T09:03:57Z</time>
      </trkpt>
      <trkpt lat="45.8368" lon="4.9068">
        <ele>327</ele>
        <time>2012-01-08T09:04:01Z</time>
      </trkpt>
      <trkpt lat="45.83681" lon="4.90651">
        <ele>326</ele>
        <time>2012-01-08T09:04:06Z</time>
      </trkpt>
      <trkpt lat="45.83682" lon="4.90644">
        <ele>326</ele>
        <time>2012-01-08T09:04:07Z</time>
      </trkpt>
      <trkpt lat="45.83683" lon="4.90638">
        <ele>326</ele>
        <time>2012-01-08T09:04:08Z</time>
      </trkpt>
      <trkpt lat="45.83688" lon="4.90621">
        <ele>325</ele>
        <time>2012-01-08T09:04:11Z</time>
      </trkpt>
      <trkpt lat="45.837" lon="4.90606">
        <ele>325</ele>
        <time>2012-01-08T09:04:15Z</time>
      </trkpt>
      <trkpt lat="45.83702" lon="4.90589">
        <ele>325</ele>
        <time>2012-01-08T09:04:18Z</time>
      </trkpt>
      <trkpt lat="45.83703" lon="4.90576">
        <ele>323</ele>
        <time>2012-01-08T09:04:20Z</time>
      </trkpt>
      <trkpt lat="45.83706" lon="4.90551">
        <ele>323</ele>
        <time>2012-01-08T09:04:25Z</time>
      </trkpt>
      <trkpt lat="45.83713" lon="4.90538">
        <ele>323</ele>
        <time>2012-01-08T09:04:30Z</time>
      </trkpt>
      <trkpt lat="45.83715" lon="4.90535">
        <ele>323</ele>
        <time>2012-01-08T09:04:31Z</time>
      </trkpt>
      <trkpt lat="45.83715" lon="4.90514">
        <ele>322</ele>
        <time>2012-01-08T09:04:35Z</time>
      </trkpt>
      <trkpt lat="45.83715" lon="4.90485">
        <ele>318</ele>
        <time>2012-01-08T09:04:39Z</time>
      </trkpt>
      <trkpt lat="45.83715" lon="4.90477">
        <ele>317</ele>
        <time>2012-01-08T09:04:40Z</time>
      </trkpt>
      <trkpt lat="45.83715" lon="4.9047">
        <ele>317</ele>
        <time>2012-01-08T09:04:41Z</time>
      </trkpt>
      <trkpt lat="45.8372" lon="4.90457">
        <ele>316</ele>
        <time>2012-01-08T09:04:44Z</time>
      </trkpt>
      <trkpt lat="45.83729" lon="4.90457">
        <ele>316</ele>
        <time>2012-01-08T09:04:46Z</time>
      </trkpt>
      <trkpt lat="45.83734" lon="4.90456">
        <ele>316</ele>
        <time>2012-01-08T09:04:47Z</time>
      </trkpt>
      <trkpt lat="45.83738" lon="4.90455">
        <ele>316</ele>
        <time>2012-01-08T09:04:48Z</time>
      </trkpt>
      <trkpt lat="45.83756" lon="4.90453">
        <ele>319</ele>
        <time>2012-01-08T09:04:51Z</time>
      </trkpt>
      <trkpt lat="45.83773" lon="4.90447">
        <ele>319</ele>
        <time>2012-01-08T09:04:56Z</time>
      </trkpt>
      <trkpt lat="45.83777" lon="4.90445">
        <ele>319</ele>
        <time>2012-01-08T09:04:57Z</time>
      </trkpt>
      <trkpt lat="45.83791" lon="4.90443">
        <ele>320</ele>
        <time>2012-01-08T09:05:01Z</time>
      </trkpt>
      <trkpt lat="45.83808" lon="4.90441">
        <ele>320</ele>
        <time>2012-01-08T09:05:05Z</time>
      </trkpt>
      <trkpt lat="45.83817" lon="4.9044">
        <ele>320</ele>
        <time>2012-01-08T09:05:07Z</time>
      </trkpt>
      <trkpt lat="45.83831" lon="4.90433">
        <ele>321</ele>
        <time>2012-01-08T09:05:11Z</time>
      </trkpt>
      <trkpt lat="45.83849" lon="4.90423">
        <ele>322</ele>
        <time>2012-01-08T09:05:16Z</time>
      </trkpt>
      <trkpt lat="45.83853" lon="4.9042">
        <ele>322</ele>
        <time>2012-01-08T09:05:17Z</time>
      </trkpt>
      <trkpt lat="45.83863" lon="4.90408">
        <ele>319</ele>
        <time>2012-01-08T09:05:20Z</time>
      </trkpt>
      <trkpt lat="45.83871" lon="4.90401">
        <ele>318</ele>
        <time>2012-01-08T09:05:21Z</time>
      </trkpt>
      <trkpt lat="45.83885" lon="4.90391">
        <ele>318</ele>
        <time>2012-01-08T09:05:25Z</time>
      </trkpt>
      <trkpt lat="45.83889" lon="4.90388">
        <ele>318</ele>
        <time>2012-01-08T09:05:26Z</time>
      </trkpt>
      <trkpt lat="45.83908" lon="4.9038">
        <ele>318</ele>
        <time>2012-01-08T09:05:31Z</time>
      </trkpt>
      <trkpt lat="45.83916" lon="4.90388">
        <ele>318</ele>
        <time>2012-01-08T09:05:34Z</time>
      </trkpt>
      <trkpt lat="45.83918" lon="4.90391">
        <ele>317</ele>
        <time>2012-01-08T09:05:35Z</time>
      </trkpt>
      <trkpt lat="45.83927" lon="4.90406">
        <ele>318</ele>
        <time>2012-01-08T09:05:39Z</time>
      </trkpt>
      <trkpt lat="45.83938" lon="4.90418">
        <ele>320</ele>
        <time>2012-01-08T09:05:43Z</time>
      </trkpt>
      <trkpt lat="45.83947" lon="4.90425">
        <ele>320</ele>
        <time>2012-01-08T09:05:45Z</time>
      </trkpt>
      <trkpt lat="45.83958" lon="4.90434">
        <ele>319</ele>
        <time>2012-01-08T09:05:48Z</time>
      </trkpt>
      <trkpt lat="45.83974" lon="4.9045">
        <ele>319</ele>
        <time>2012-01-08T09:05:54Z</time>
      </trkpt>
      <trkpt lat="45.83977" lon="4.90459">
        <ele>320</ele>
        <time>2012-01-08T09:05:56Z</time>
      </trkpt>
      <trkpt lat="45.83985" lon="4.9047">
        <ele>320</ele>
        <time>2012-01-08T09:05:59Z</time>
      </trkpt>
      <trkpt lat="45.83995" lon="4.9048">
        <ele>321</ele>
        <time>2012-01-08T09:06:03Z</time>
      </trkpt>
      <trkpt lat="45.84002" lon="4.90486">
        <ele>318</ele>
        <time>2012-01-08T09:06:07Z</time>
      </trkpt>
      <trkpt lat="45.84004" lon="4.90485">
        <ele>318</ele>
        <time>2012-01-08T09:06:08Z</time>
      </trkpt>
      <trkpt lat="45.84006" lon="4.90482">
        <ele>318</ele>
        <time>2012-01-08T09:06:09Z</time>
      </trkpt>
      <trkpt lat="45.84012" lon="4.90478">
        <ele>317</ele>
        <time>2012-01-08T09:06:12Z</time>
      </trkpt>
      <trkpt lat="45.84015" lon="4.9048">
        <ele>316</ele>
        <time>2012-01-08T09:06:15Z</time>
      </trkpt>
      <trkpt lat="45.84016" lon="4.90482">
        <ele>317</ele>
        <time>2012-01-08T09:06:17Z</time>
      </trkpt>
      <trkpt lat="45.84016" lon="4.90483">
        <ele>317</ele>
        <time>2012-01-08T09:06:27Z</time>
      </trkpt>
      <trkpt lat="45.84015" lon="4.90474">
        <ele>316</ele>
        <time>2012-01-08T09:06:33Z</time>
      </trkpt>
      <trkpt lat="45.84016" lon="4.90472">
        <ele>316</ele>
        <time>2012-01-08T09:06:35Z</time>
      </trkpt>
      <trkpt lat="45.8402" lon="4.90472">
        <ele>315</ele>
        <time>2012-01-08T09:06:38Z</time>
      </trkpt>
      <trkpt lat="45.84026" lon="4.90474">
        <ele>315</ele>
        <time>2012-01-08T09:06:42Z</time>
      </trkpt>
      <trkpt lat="45.84029" lon="4.90476">
        <ele>315</ele>
        <time>2012-01-08T09:06:43Z</time>
      </trkpt>
      <trkpt lat="45.84031" lon="4.90479">
        <ele>315</ele>
        <time>2012-01-08T09:06:44Z</time>
      </trkpt>
      <trkpt lat="45.84039" lon="4.90494">
        <ele>315</ele>
        <time>2012-01-08T09:06:47Z</time>
      </trkpt>
      <trkpt lat="45.84048" lon="4.90508">
        <ele>316</ele>
        <time>2012-01-08T09:06:50Z</time>
      </trkpt>
      <trkpt lat="45.8405" lon="4.90512">
        <ele>316</ele>
        <time>2012-01-08T09:06:51Z</time>
      </trkpt>
      <trkpt lat="45.84056" lon="4.90521">
        <ele>316</ele>
        <time>2012-01-08T09:06:53Z</time>
      </trkpt>
      <trkpt lat="45.84064" lon="4.90539">
        <ele>316</ele>
        <time>2012-01-08T09:06:57Z</time>
      </trkpt>
      <trkpt lat="45.84062" lon="4.90549">
        <ele>316</ele>
        <time>2012-01-08T09:07:01Z</time>
      </trkpt>
      <trkpt lat="45.84055" lon="4.90561">
        <ele>316</ele>
        <time>2012-01-08T09:07:07Z</time>
      </trkpt>
      <trkpt lat="45.84052" lon="4.90566">
        <ele>317</ele>
        <time>2012-01-08T09:07:09Z</time>
      </trkpt>
      <trkpt lat="45.84049" lon="4.9058">
        <ele>317</ele>
        <time>2012-01-08T09:07:12Z</time>
      </trkpt>
      <trkpt lat="45.84045" lon="4.90601">
        <ele>319</ele>
        <time>2012-01-08T09:07:17Z</time>
      </trkpt>
      <trkpt lat="45.84043" lon="4.90617">
        <ele>319</ele>
        <time>2012-01-08T09:07:21Z</time>
      </trkpt>
      <trkpt lat="45.84041" lon="4.90627">
        <ele>319</ele>
        <time>2012-01-08T09:07:24Z</time>
      </trkpt>
      <trkpt lat="45.84046" lon="4.90643">
        <ele>319</ele>
        <time>2012-01-08T09:07:28Z</time>
      </trkpt>
      <trkpt lat="45.84056" lon="4.90661">
        <ele>318</ele>
        <time>2012-01-08T09:07:33Z</time>
      </trkpt>
      <trkpt lat="45.84057" lon="4.90664">
        <ele>318</ele>
        <time>2012-01-08T09:07:34Z</time>
      </trkpt>
      <trkpt lat="45.84058" lon="4.90667">
        <ele>318</ele>
        <time>2012-01-08T09:07:35Z</time>
      </trkpt>
      <trkpt lat="45.84057" lon="4.90674">
        <ele>319</ele>
        <time>2012-01-08T09:07:37Z</time>
      </trkpt>
      <trkpt lat="45.84058" lon="4.90681">
        <ele>319</ele>
        <time>2012-01-08T09:07:39Z</time>
      </trkpt>
      <trkpt lat="45.84059" lon="4.90686">
        <ele>319</ele>
        <time>2012-01-08T09:07:41Z</time>
      </trkpt>
      <trkpt lat="45.8406" lon="4.90702">
        <ele>319</ele>
        <time>2012-01-08T09:07:46Z</time>
      </trkpt>
      <trkpt lat="45.84061" lon="4.90718">
        <ele>320</ele>
        <time>2012-01-08T09:07:51Z</time>
      </trkpt>
      <trkpt lat="45.84059" lon="4.90731">
        <ele>320</ele>
        <time>2012-01-08T09:07:54Z</time>
      </trkpt>
      <trkpt lat="45.84058" lon="4.90734">
        <ele>320</ele>
        <time>2012-01-08T09:07:55Z</time>
      </trkpt>
      <trkpt lat="45.84048" lon="4.9075">
        <ele>321</ele>
        <time>2012-01-08T09:08:01Z</time>
      </trkpt>
      <trkpt lat="45.84046" lon="4.90764">
        <ele>321</ele>
        <time>2012-01-08T09:08:06Z</time>
      </trkpt>
      <trkpt lat="45.84046" lon="4.90774">
        <ele>321</ele>
        <time>2012-01-08T09:08:10Z</time>
      </trkpt>
      <trkpt lat="45.84045" lon="4.9078">
        <ele>321</ele>
        <time>2012-01-08T09:08:12Z</time>
      </trkpt>
      <trkpt lat="45.84045" lon="4.90789">
        <ele>321</ele>
        <time>2012-01-08T09:08:14Z</time>
      </trkpt>
      <trkpt lat="45.84043" lon="4.90795">
        <ele>321</ele>
        <time>2012-01-08T09:08:16Z</time>
      </trkpt>
      <trkpt lat="45.84043" lon="4.90796">
        <ele>321</ele>
        <time>2012-01-08T09:08:17Z</time>
      </trkpt>
      <trkpt lat="45.84046" lon="4.90803">
        <ele>321</ele>
        <time>2012-01-08T09:08:30Z</time>
      </trkpt>
      <trkpt lat="45.84052" lon="4.90811">
        <ele>321</ele>
        <time>2012-01-08T09:08:51Z</time>
      </trkpt>
      <trkpt lat="45.84052" lon="4.90814">
        <ele>321</ele>
        <time>2012-01-08T09:08:52Z</time>
      </trkpt>
      <trkpt lat="45.84054" lon="4.90834">
        <ele>320</ele>
        <time>2012-01-08T09:08:56Z</time>
      </trkpt>
      <trkpt lat="45.84056" lon="4.9086">
        <ele>319</ele>
        <time>2012-01-08T09:09:01Z</time>
      </trkpt>
      <trkpt lat="45.84047" lon="4.90879">
        <ele>319</ele>
        <time>2012-01-08T09:09:06Z</time>
      </trkpt>
      <trkpt lat="45.84036" lon="4.90888">
        <ele>319</ele>
        <time>2012-01-08T09:09:11Z</time>
      </trkpt>
      <trkpt lat="45.8403" lon="4.90897">
        <ele>319</ele>
        <time>2012-01-08T09:09:14Z</time>
      </trkpt>
      <trkpt lat="45.84027" lon="4.90901">
        <ele>319</ele>
        <time>2012-01-08T09:09:15Z</time>
      </trkpt>
      <trkpt lat="45.84009" lon="4.90913">
        <ele>320</ele>
        <time>2012-01-08T09:09:19Z</time>
      </trkpt>
      <trkpt lat="45.83999" lon="4.90923">
        <ele>320</ele>
        <time>2012-01-08T09:09:22Z</time>
      </trkpt>
      <trkpt lat="45.83993" lon="4.90931">
        <ele>319</ele>
        <time>2012-01-08T09:09:24Z</time>
      </trkpt>
      <trkpt lat="45.83978" lon="4.90953">
        <ele>319</ele>
        <time>2012-01-08T09:09:29Z</time>
      </trkpt>
      <trkpt lat="45.83971" lon="4.90961">
        <ele>319</ele>
        <time>2012-01-08T09:09:31Z</time>
      </trkpt>
      <trkpt lat="45.83964" lon="4.9097">
        <ele>319</ele>
        <time>2012-01-08T09:09:34Z</time>
      </trkpt>
      <trkpt lat="45.83959" lon="4.90975">
        <ele>319</ele>
        <time>2012-01-08T09:09:36Z</time>
      </trkpt>
      <trkpt lat="45.83951" lon="4.90985">
        <ele>319</ele>
        <time>2012-01-08T09:09:39Z</time>
      </trkpt>
      <trkpt lat="45.83943" lon="4.90996">
        <ele>319</ele>
        <time>2012-01-08T09:09:42Z</time>
      </trkpt>
      <trkpt lat="45.83938" lon="4.91004">
        <ele>318</ele>
        <time>2012-01-08T09:09:44Z</time>
      </trkpt>
      <trkpt lat="45.83927" lon="4.91015">
        <ele>319</ele>
        <time>2012-01-08T09:09:48Z</time>
      </trkpt>
      <trkpt lat="45.83915" lon="4.91025">
        <ele>322</ele>
        <time>2012-01-08T09:09:53Z</time>
      </trkpt>
      <trkpt lat="45.83912" lon="4.91026">
        <ele>322</ele>
        <time>2012-01-08T09:09:54Z</time>
      </trkpt>
      <trkpt lat="45.83904" lon="4.91031">
        <ele>322</ele>
        <time>2012-01-08T09:09:58Z</time>
      </trkpt>
      <trkpt lat="45.83899" lon="4.91035">
        <ele>322</ele>
        <time>2012-01-08T09:10:00Z</time>
      </trkpt>
      <trkpt lat="45.83893" lon="4.91035">
        <ele>322</ele>
        <time>2012-01-08T09:10:02Z</time>
      </trkpt>
      <trkpt lat="45.83887" lon="4.91038">
        <ele>322</ele>
        <time>2012-01-08T09:10:04Z</time>
      </trkpt>
      <trkpt lat="45.83882" lon="4.9104">
        <ele>322</ele>
        <time>2012-01-08T09:10:06Z</time>
      </trkpt>
      <trkpt lat="45.8388" lon="4.9104">
        <ele>322</ele>
        <time>2012-01-08T09:10:07Z</time>
      </trkpt>
      <trkpt lat="45.83878" lon="4.9104">
        <ele>322</ele>
        <time>2012-01-08T09:10:08Z</time>
      </trkpt>
      <trkpt lat="45.83874" lon="4.91037">
        <ele>322</ele>
        <time>2012-01-08T09:10:10Z</time>
      </trkpt>
      <trkpt lat="45.8387" lon="4.91035">
        <ele>322</ele>
        <time>2012-01-08T09:10:12Z</time>
      </trkpt>
      <trkpt lat="45.83867" lon="4.91034">
        <ele>322</ele>
        <time>2012-01-08T09:10:14Z</time>
      </trkpt>
      <trkpt lat="45.83865" lon="4.91031">
        <ele>322</ele>
        <time>2012-01-08T09:10:15Z</time>
      </trkpt>
      <trkpt lat="45.83861" lon="4.9103">
        <ele>322</ele>
        <time>2012-01-08T09:10:17Z</time>
      </trkpt>
      <trkpt lat="45.83855" lon="4.91026">
        <ele>323</ele>
        <time>2012-01-08T09:10:20Z</time>
      </trkpt>
      <trkpt lat="45.83851" lon="4.9102">
        <ele>323</ele>
        <time>2012-01-08T09:10:25Z</time>
      </trkpt>
      <trkpt lat="45.8385" lon="4.91019">
        <ele>323</ele>
        <time>2012-01-08T09:10:27Z</time>
      </trkpt>
      <trkpt lat="45.8385" lon="4.91018">
        <ele>323</ele>
        <time>2012-01-08T09:10:30Z</time>
      </trkpt>
      <trkpt lat="45.83851" lon="4.91015">
        <ele>323</ele>
        <time>2012-01-08T09:11:10Z</time>
      </trkpt>
      <trkpt lat="45.8385" lon="4.91009">
        <ele>323</ele>
        <time>2012-01-08T09:11:12Z</time>
      </trkpt>
      <trkpt lat="45.83836" lon="4.90996">
        <ele>325</ele>
        <time>2012-01-08T09:11:16Z</time>
      </trkpt>
      <trkpt lat="45.83835" lon="4.90989">
        <ele>325</ele>
        <time>2012-01-08T09:11:19Z</time>
      </trkpt>
      <trkpt lat="45.83833" lon="4.90977">
        <ele>327</ele>
        <time>2012-01-08T09:11:23Z</time>
      </trkpt>
      <trkpt lat="45.83825" lon="4.90964">
        <ele>328</ele>
        <time>2012-01-08T09:11:28Z</time>
      </trkpt>
      <trkpt lat="45.83813" lon="4.90961">
        <ele>328</ele>
        <time>2012-01-08T09:11:34Z</time>
      </trkpt>
      <trkpt lat="45.83806" lon="4.90954">
        <ele>328</ele>
        <time>2012-01-08T09:11:38Z</time>
      </trkpt>
      <trkpt lat="45.83805" lon="4.90953">
        <ele>328</ele>
        <time>2012-01-08T09:11:39Z</time>
      </trkpt>
      <trkpt lat="45.83803" lon="4.90951">
        <ele>328</ele>
        <time>2012-01-08T09:11:40Z</time>
      </trkpt>
      <trkpt lat="45.83797" lon="4.90948">
        <ele>328</ele>
        <time>2012-01-08T09:11:43Z</time>
      </trkpt>
      <trkpt lat="45.83782" lon="4.90946">
        <ele>329</ele>
        <time>2012-01-08T09:11:48Z</time>
      </trkpt>
      <trkpt lat="45.83768" lon="4.90942">
        <ele>329</ele>
        <time>2012-01-08T09:11:52Z</time>
      </trkpt>
      <trkpt lat="45.83761" lon="4.90942">
        <ele>329</ele>
        <time>2012-01-08T09:11:54Z</time>
      </trkpt>
      <trkpt lat="45.83749" lon="4.90938">
        <ele>329</ele>
        <time>2012-01-08T09:11:59Z</time>
      </trkpt>
      <trkpt lat="45.83736" lon="4.90935">
        <ele>329</ele>
        <time>2012-01-08T09:12:04Z</time>
      </trkpt>
      <trkpt lat="45.83731" lon="4.90935">
        <ele>329</ele>
        <time>2012-01-08T09:12:06Z</time>
      </trkpt>
      <trkpt lat="45.83725" lon="4.90934">
        <ele>329</ele>
        <time>2012-01-08T09:12:08Z</time>
      </trkpt>
      <trkpt lat="45.83708" lon="4.90931">
        <ele>328</ele>
        <time>2012-01-08T09:12:14Z</time>
      </trkpt>
      <trkpt lat="45.83703" lon="4.90929">
        <ele>328</ele>
        <time>2012-01-08T09:12:16Z</time>
      </trkpt>
      <trkpt lat="45.83695" lon="4.90927">
        <ele>328</ele>
        <time>2012-01-08T09:12:19Z</time>
      </trkpt>
      <trkpt lat="45.83689" lon="4.90923">
        <ele>328</ele>
        <time>2012-01-08T09:12:21Z</time>
      </trkpt>
      <trkpt lat="45.83684" lon="4.90917">
        <ele>328</ele>
        <time>2012-01-08T09:12:23Z</time>
      </trkpt>
      <trkpt lat="45.83681" lon="4.90903">
        <ele>328</ele>
        <time>2012-01-08T09:12:27Z</time>
      </trkpt>
      <trkpt lat="45.83681" lon="4.90881">
        <ele>329</ele>
        <time>2012-01-08T09:12:32Z</time>
      </trkpt>
      <trkpt lat="45.83683" lon="4.90876">
        <ele>329</ele>
        <time>2012-01-08T09:12:33Z</time>
      </trkpt>
      <trkpt lat="45.83696" lon="4.90848">
        <ele>329</ele>
        <time>2012-01-08T09:12:40Z</time>
      </trkpt>
      <trkpt lat="45.83703" lon="4.90836">
        <ele>329</ele>
        <time>2012-01-08T09:12:44Z</time>
      </trkpt>
      <trkpt lat="45.83706" lon="4.90832">
        <ele>329</ele>
        <time>2012-01-08T09:12:45Z</time>
      </trkpt>
      <trkpt lat="45.8371" lon="4.90808">
        <ele>329</ele>
        <time>2012-01-08T09:12:49Z</time>
      </trkpt>
      <trkpt lat="45.83709" lon="4.90802">
        <ele>329</ele>
        <time>2012-01-08T09:12:50Z</time>
      </trkpt>
      <trkpt lat="45.83705" lon="4.90796">
        <ele>329</ele>
        <time>2012-01-08T09:12:52Z</time>
      </trkpt>
      <trkpt lat="45.83703" lon="4.90793">
        <ele>329</ele>
        <time>2012-01-08T09:12:54Z</time>
      </trkpt>
      <trkpt lat="45.83701" lon="4.9079">
        <ele>329</ele>
        <time>2012-01-08T09:12:56Z</time>
      </trkpt>
      <trkpt lat="45.83706" lon="4.90786">
        <ele>329</ele>
        <time>2012-01-08T09:13:14Z</time>
      </trkpt>
      <trkpt lat="45.83706" lon="4.90765">
        <ele>328</ele>
        <time>2012-01-08T09:13:19Z</time>
      </trkpt>
      <trkpt lat="45.83707" lon="4.9076">
        <ele>328</ele>
        <time>2012-01-08T09:13:20Z</time>
      </trkpt>
      <trkpt lat="45.83709" lon="4.90753">
        <ele>329</ele>
        <time>2012-01-08T09:13:23Z</time>
      </trkpt>
      <trkpt lat="45.83713" lon="4.90751">
        <ele>329</ele>
        <time>2012-01-08T09:13:27Z</time>
      </trkpt>
      <trkpt lat="45.83716" lon="4.90753">
        <ele>329</ele>
        <time>2012-01-08T09:13:29Z</time>
      </trkpt>
      <trkpt lat="45.83722" lon="4.90748">
        <ele>328</ele>
        <time>2012-01-08T09:13:33Z</time>
      </trkpt>
      <trkpt lat="45.83726" lon="4.90725">
        <ele>328</ele>
        <time>2012-01-08T09:13:37Z</time>
      </trkpt>
      <trkpt lat="45.83726" lon="4.90706">
        <ele>327</ele>
        <time>2012-01-08T09:13:40Z</time>
      </trkpt>
      <trkpt lat="45.83728" lon="4.90695">
        <ele>327</ele>
        <time>2012-01-08T09:13:42Z</time>
      </trkpt>
      <trkpt lat="45.83727" lon="4.90678">
        <ele>327</ele>
        <time>2012-01-08T09:13:46Z</time>
      </trkpt>
      <trkpt lat="45.83732" lon="4.9067">
        <ele>327</ele>
        <time>2012-01-08T09:13:51Z</time>
      </trkpt>
      <trkpt lat="45.83733" lon="4.90664">
        <ele>326</ele>
        <time>2012-01-08T09:13:56Z</time>
      </trkpt>
      <trkpt lat="45.83735" lon="4.90663">
        <ele>326</ele>
        <time>2012-01-08T09:13:57Z</time>
      </trkpt>
      <trkpt lat="45.83733" lon="4.90669">
        <ele>327</ele>
        <time>2012-01-08T09:14:01Z</time>
      </trkpt>
      <trkpt lat="45.83732" lon="4.9067">
        <ele>327</ele>
        <time>2012-01-08T09:14:02Z</time>
      </trkpt>
      <trkpt lat="45.83728" lon="4.90671">
        <ele>327</ele>
        <time>2012-01-08T09:14:05Z</time>
      </trkpt>
      <trkpt lat="45.83727" lon="4.9067">
        <ele>327</ele>
        <time>2012-01-08T09:14:07Z</time>
      </trkpt>
      <trkpt lat="45.83728" lon="4.90665">
        <ele>326</ele>
        <time>2012-01-08T09:14:56Z</time>
      </trkpt>
      <trkpt lat="45.83738" lon="4.90665">
        <ele>326</ele>
        <time>2012-01-08T09:15:01Z</time>
      </trkpt>
      <trkpt lat="45.83744" lon="4.90658">
        <ele>326</ele>
        <time>2012-01-08T09:15:04Z</time>
      </trkpt>
      <trkpt lat="45.83749" lon="4.90653">
        <ele>326</ele>
        <time>2012-01-08T09:15:06Z</time>
      </trkpt>
      <trkpt lat="45.83761" lon="4.90649">
        <ele>326</ele>
        <time>2012-01-08T09:15:11Z</time>
      </trkpt>
      <trkpt lat="45.83776" lon="4.90643">
        <ele>326</ele>
        <time>2012-01-08T09:15:17Z</time>
      </trkpt>
      <trkpt lat="45.83778" lon="4.90642">
        <ele>326</ele>
        <time>2012-01-08T09:15:18Z</time>
      </trkpt>
      <trkpt lat="45.8379" lon="4.90642">
        <ele>326</ele>
        <time>2012-01-08T09:15:23Z</time>
      </trkpt>
      <trkpt lat="45.83792" lon="4.90642">
        <ele>326</ele>
        <time>2012-01-08T09:15:24Z</time>
      </trkpt>
      <trkpt lat="45.83792" lon="4.9064">
        <ele>326</ele>
        <time>2012-01-08T09:15:27Z</time>
      </trkpt>
      <trkpt lat="45.8379" lon="4.90639">
        <ele>326</ele>
        <time>2012-01-08T09:15:28Z</time>
      </trkpt>
      <trkpt lat="45.83785" lon="4.90638">
        <ele>326</ele>
        <time>2012-01-08T09:15:33Z</time>
      </trkpt>
      <trkpt lat="45.83788" lon="4.90638">
        <ele>326</ele>
        <time>2012-01-08T09:15:38Z</time>
      </trkpt>
      <trkpt lat="45.83787" lon="4.90636">
        <ele>326</ele>
        <time>2012-01-08T09:15:43Z</time>
      </trkpt>
      <trkpt lat="45.83782" lon="4.90628">
        <ele>326</ele>
        <time>2012-01-08T09:15:46Z</time>
      </trkpt>
      <trkpt lat="45.8378" lon="4.90627">
        <ele>326</ele>
        <time>2012-01-08T09:15:47Z</time>
      </trkpt>
      <trkpt lat="45.83778" lon="4.90627">
        <ele>326</ele>
        <time>2012-01-08T09:15:51Z</time>
      </trkpt>
      <trkpt lat="45.83783" lon="4.90628">
        <ele>326</ele>
        <time>2012-01-08T09:16:04Z</time>
      </trkpt>
      <trkpt lat="45.83788" lon="4.90634">
        <ele>326</ele>
        <time>2012-01-08T09:16:09Z</time>
      </trkpt>
      <trkpt lat="45.83789" lon="4.90636">
        <ele>326</ele>
        <time>2012-01-08T09:16:14Z</time>
      </trkpt>
      <trkpt lat="45.83782" lon="4.90635">
        <ele>326</ele>
        <time>2012-01-08T09:16:22Z</time>
      </trkpt>
      <trkpt lat="45.83778" lon="4.90636">
        <ele>326</ele>
        <time>2012-01-08T09:16:24Z</time>
      </trkpt>
      <trkpt lat="45.8377" lon="4.90639">
        <ele>326</ele>
        <time>2012-01-08T09:16:28Z</time>
      </trkpt>
      <trkpt lat="45.83764" lon="4.90643">
        <ele>326</ele>
        <time>2012-01-08T09:16:31Z</time>
      </trkpt>
      <trkpt lat="45.83752" lon="4.90655">
        <ele>326</ele>
        <time>2012-01-08T09:16:37Z</time>
      </trkpt>
      <trkpt lat="45.83745" lon="4.90663">
        <ele>326</ele>
        <time>2012-01-08T09:16:41Z</time>
      </trkpt>
      <trkpt lat="45.83736" lon="4.90667">
        <ele>327</ele>
        <time>2012-01-08T09:16:44Z</time>
      </trkpt>
      <trkpt lat="45.8373" lon="4.90671">
        <ele>327</ele>
        <time>2012-01-08T09:16:46Z</time>
      </trkpt>
      <trkpt lat="45.83725" lon="4.90667">
        <ele>327</ele>
        <time>2012-01-08T09:16:48Z</time>
      </trkpt>
      <trkpt lat="45.83725" lon="4.90664">
        <ele>326</ele>
        <time>2012-01-08T09:16:49Z</time>
      </trkpt>
      <trkpt lat="45.83727" lon="4.90651">
        <ele>326</ele>
        <time>2012-01-08T09:16:52Z</time>
      </trkpt>
      <trkpt lat="45.83727" lon="4.9064">
        <ele>326</ele>
        <time>2012-01-08T09:16:55Z</time>
      </trkpt>
      <trkpt lat="45.83727" lon="4.90633">
        <ele>326</ele>
        <time>2012-01-08T09:16:57Z</time>
      </trkpt>
      <trkpt lat="45.83729" lon="4.90621">
        <ele>326</ele>
        <time>2012-01-08T09:17:00Z</time>
      </trkpt>
      <trkpt lat="45.83733" lon="4.90611">
        <ele>326</ele>
        <time>2012-01-08T09:17:04Z</time>
      </trkpt>
      <trkpt lat="45.83737" lon="4.90605">
        <ele>326</ele>
        <time>2012-01-08T09:17:11Z</time>
      </trkpt>
      <trkpt lat="45.83739" lon="4.90597">
        <ele>326</ele>
        <time>2012-01-08T09:17:18Z</time>
      </trkpt>
      <trkpt lat="45.83741" lon="4.90585">
        <ele>326</ele>
        <time>2012-01-08T09:17:22Z</time>
      </trkpt>
      <trkpt lat="45.83742" lon="4.90582">
        <ele>326</ele>
        <time>2012-01-08T09:17:23Z</time>
      </trkpt>
      <trkpt lat="45.83744" lon="4.90576">
        <ele>326</ele>
        <time>2012-01-08T09:17:27Z</time>
      </trkpt>
      <trkpt lat="45.83746" lon="4.90568">
        <ele>325</ele>
        <time>2012-01-08T09:17:31Z</time>
      </trkpt>
      <trkpt lat="45.83747" lon="4.90562">
        <ele>324</ele>
        <time>2012-01-08T09:17:34Z</time>
      </trkpt>
      <trkpt lat="45.83747" lon="4.90553">
        <ele>324</ele>
        <time>2012-01-08T09:17:37Z</time>
      </trkpt>
      <trkpt lat="45.8375" lon="4.90543">
        <ele>323</ele>
        <time>2012-01-08T09:17:40Z</time>
      </trkpt>
      <trkpt lat="45.83753" lon="4.90534">
        <ele>325</ele>
        <time>2012-01-08T09:17:44Z</time>
      </trkpt>
      <trkpt lat="45.83752" lon="4.90532">
        <ele>325</ele>
        <time>2012-01-08T09:17:46Z</time>
      </trkpt>
      <trkpt lat="45.83758" lon="4.90535">
        <ele>325</ele>
        <time>2012-01-08T09:17:52Z</time>
      </trkpt>
      <trkpt lat="45.83763" lon="4.90536">
        <ele>325</ele>
        <time>2012-01-08T09:17:59Z</time>
      </trkpt>
      <trkpt lat="45.8377" lon="4.90548">
        <ele>325</ele>
        <time>2012-01-08T09:18:05Z</time>
      </trkpt>
      <trkpt lat="45.83772" lon="4.9055">
        <ele>325</ele>
        <time>2012-01-08T09:18:06Z</time>
      </trkpt>
      <trkpt lat="45.83779" lon="4.90556">
        <ele>325</ele>
        <time>2012-01-08T09:18:09Z</time>
      </trkpt>
      <trkpt lat="45.83782" lon="4.90559">
        <ele>325</ele>
        <time>2012-01-08T09:18:10Z</time>
      </trkpt>
      <trkpt lat="45.83783" lon="4.90563">
        <ele>325</ele>
        <time>2012-01-08T09:18:11Z</time>
      </trkpt>
      <trkpt lat="45.83794" lon="4.90571">
        <ele>325</ele>
        <time>2012-01-08T09:18:16Z</time>
      </trkpt>
      <trkpt lat="45.83796" lon="4.90573">
        <ele>325</ele>
        <time>2012-01-08T09:18:18Z</time>
      </trkpt>
      <trkpt lat="45.83796" lon="4.90577">
        <ele>325</ele>
        <time>2012-01-08T09:18:21Z</time>
      </trkpt>
      <trkpt lat="45.83791" lon="4.90585">
        <ele>326</ele>
        <time>2012-01-08T09:18:25Z</time>
      </trkpt>
      <trkpt lat="45.8379" lon="4.90587">
        <ele>326</ele>
        <time>2012-01-08T09:18:26Z</time>
      </trkpt>
      <trkpt lat="45.83786" lon="4.90593">
        <ele>326</ele>
        <time>2012-01-08T09:18:28Z</time>
      </trkpt>
      <trkpt lat="45.83782" lon="4.906">
        <ele>326</ele>
        <time>2012-01-08T09:18:31Z</time>
      </trkpt>
      <trkpt lat="45.83782" lon="4.90609">
        <ele>326</ele>
        <time>2012-01-08T09:18:37Z</time>
      </trkpt>
      <trkpt lat="45.83785" lon="4.90603">
        <ele>326</ele>
        <time>2012-01-08T09:18:47Z</time>
      </trkpt>
      <trkpt lat="45.83791" lon="4.90592">
        <ele>326</ele>
        <time>2012-01-08T09:18:51Z</time>
      </trkpt>
      <trkpt lat="45.83796" lon="4.90582">
        <ele>325</ele>
        <time>2012-01-08T09:18:53Z</time>
      </trkpt>
      <trkpt lat="45.83802" lon="4.9057">
        <ele>325</ele>
        <time>2012-01-08T09:18:55Z</time>
      </trkpt>
      <trkpt lat="45.83804" lon="4.90564">
        <ele>325</ele>
        <time>2012-01-08T09:18:56Z</time>
      </trkpt>
      <trkpt lat="45.83812" lon="4.90531">
        <ele>325</ele>
        <time>2012-01-08T09:19:01Z</time>
      </trkpt>
      <trkpt lat="45.83825" lon="4.90505">
        <ele>324</ele>
        <time>2012-01-08T09:19:06Z</time>
      </trkpt>
      <trkpt lat="45.83826" lon="4.90499">
        <ele>323</ele>
        <time>2012-01-08T09:19:07Z</time>
      </trkpt>
      <trkpt lat="45.83831" lon="4.90482">
        <ele>322</ele>
        <time>2012-01-08T09:19:09Z</time>
      </trkpt>
      <trkpt lat="45.83833" lon="4.90474">
        <ele>322</ele>
        <time>2012-01-08T09:19:10Z</time>
      </trkpt>
      <trkpt lat="45.83841" lon="4.90442">
        <ele>322</ele>
        <time>2012-01-08T09:19:15Z</time>
      </trkpt>
      <trkpt lat="45.83848" lon="4.90433">
        <ele>322</ele>
        <time>2012-01-08T09:19:17Z</time>
      </trkpt>
      <trkpt lat="45.83859" lon="4.9042">
        <ele>322</ele>
        <time>2012-01-08T09:19:20Z</time>
      </trkpt>
      <trkpt lat="45.83877" lon="4.904">
        <ele>318</ele>
        <time>2012-01-08T09:19:25Z</time>
      </trkpt>
      <trkpt lat="45.83881" lon="4.90396">
        <ele>318</ele>
        <time>2012-01-08T09:19:26Z</time>
      </trkpt>
      <trkpt lat="45.83902" lon="4.90382">
        <ele>318</ele>
        <time>2012-01-08T09:19:31Z</time>
      </trkpt>
      <trkpt lat="45.83911" lon="4.90378">
        <ele>318</ele>
        <time>2012-01-08T09:19:35Z</time>
      </trkpt>
      <trkpt lat="45.83912" lon="4.90376">
        <ele>318</ele>
        <time>2012-01-08T09:19:36Z</time>
      </trkpt>
      <trkpt lat="45.83915" lon="4.90372">
        <ele>317</ele>
        <time>2012-01-08T09:19:41Z</time>
      </trkpt>
      <trkpt lat="45.83915" lon="4.9037">
        <ele>317</ele>
        <time>2012-01-08T09:19:42Z</time>
      </trkpt>
      <trkpt lat="45.83916" lon="4.90369">
        <ele>317</ele>
        <time>2012-01-08T09:19:48Z</time>
      </trkpt>
      <trkpt lat="45.83916" lon="4.90369">
        <ele>317</ele>
        <time>2012-01-08T09:20:13Z</time>
      </trkpt>
      <trkpt lat="45.83917" lon="4.90368">
        <ele>316</ele>
        <time>2012-01-08T09:20:58Z</time>
      </trkpt>
      <trkpt lat="45.83918" lon="4.90364">
        <ele>316</ele>
        <time>2012-01-08T09:21:00Z</time>
      </trkpt>
      <trkpt lat="45.83917" lon="4.90351">
        <ele>315</ele>
        <time>2012-01-08T09:21:06Z</time>
      </trkpt>
      <trkpt lat="45.83918" lon="4.90336">
        <ele>315</ele>
        <time>2012-01-08T09:21:11Z</time>
      </trkpt>
      <trkpt lat="45.83919" lon="4.90333">
        <ele>315</ele>
        <time>2012-01-08T09:21:12Z</time>
      </trkpt>
      <trkpt lat="45.83919" lon="4.90323">
        <ele>314</ele>
        <time>2012-01-08T09:21:17Z</time>
      </trkpt>
      <trkpt lat="45.83921" lon="4.90313">
        <ele>313</ele>
        <time>2012-01-08T09:21:23Z</time>
      </trkpt>
      <trkpt lat="45.83921" lon="4.90312">
        <ele>313</ele>
        <time>2012-01-08T09:21:24Z</time>
      </trkpt>
      <trkpt lat="45.83922" lon="4.903">
        <ele>313</ele>
        <time>2012-01-08T09:21:29Z</time>
      </trkpt>
      <trkpt lat="45.83922" lon="4.90298">
        <ele>313</ele>
        <time>2012-01-08T09:21:30Z</time>
      </trkpt>
      <trkpt lat="45.83925" lon="4.90284">
        <ele>312</ele>
        <time>2012-01-08T09:21:35Z</time>
      </trkpt>
      <trkpt lat="45.83926" lon="4.9028">
        <ele>312</ele>
        <time>2012-01-08T09:21:36Z</time>
      </trkpt>
      <trkpt lat="45.83932" lon="4.90247">
        <ele>311</ele>
        <time>2012-01-08T09:21:44Z</time>
      </trkpt>
      <trkpt lat="45.83935" lon="4.9023">
        <ele>310</ele>
        <time>2012-01-08T09:21:48Z</time>
      </trkpt>
      <trkpt lat="45.83937" lon="4.90214">
        <ele>310</ele>
        <time>2012-01-08T09:21:52Z</time>
      </trkpt>
      <trkpt lat="45.8394" lon="4.90189">
        <ele>310</ele>
        <time>2012-01-08T09:21:59Z</time>
      </trkpt>
      <trkpt lat="45.83941" lon="4.90178">
        <ele>310</ele>
        <time>2012-01-08T09:22:02Z</time>
      </trkpt>
      <trkpt lat="45.83942" lon="4.90166">
        <ele>308</ele>
        <time>2012-01-08T09:22:05Z</time>
      </trkpt>
      <trkpt lat="45.83945" lon="4.90136">
        <ele>308</ele>
        <time>2012-01-08T09:22:12Z</time>
      </trkpt>
      <trkpt lat="45.83947" lon="4.90127">
        <ele>308</ele>
        <time>2012-01-08T09:22:14Z</time>
      </trkpt>
      <trkpt lat="45.8395" lon="4.901">
        <ele>307</ele>
        <time>2012-01-08T09:22:19Z</time>
      </trkpt>
      <trkpt lat="45.83954" lon="4.90074">
        <ele>306</ele>
        <time>2012-01-08T09:22:24Z</time>
      </trkpt>
      <trkpt lat="45.83954" lon="4.90069">
        <ele>306</ele>
        <time>2012-01-08T09:22:25Z</time>
      </trkpt>
      <trkpt lat="45.8396" lon="4.90019">
        <ele>305</ele>
        <time>2012-01-08T09:22:34Z</time>
      </trkpt>
      <trkpt lat="45.83967" lon="4.89966">
        <ele>304</ele>
        <time>2012-01-08T09:22:42Z</time>
      </trkpt>
      <trkpt lat="45.83967" lon="4.89959">
        <ele>304</ele>
        <time>2012-01-08T09:22:43Z</time>
      </trkpt>
      <trkpt lat="45.83974" lon="4.89909">
        <ele>303</ele>
        <time>2012-01-08T09:22:50Z</time>
      </trkpt>
      <trkpt lat="45.83975" lon="4.89894">
        <ele>303</ele>
        <time>2012-01-08T09:22:52Z</time>
      </trkpt>
      <trkpt lat="45.8398" lon="4.89857">
        <ele>303</ele>
        <time>2012-01-08T09:22:57Z</time>
      </trkpt>
      <trkpt lat="45.83983" lon="4.89834">
        <ele>304</ele>
        <time>2012-01-08T09:23:00Z</time>
      </trkpt>
      <trkpt lat="45.83986" lon="4.89805">
        <ele>303</ele>
        <time>2012-01-08T09:23:04Z</time>
      </trkpt>
      <trkpt lat="45.8399" lon="4.89777">
        <ele>303</ele>
        <time>2012-01-08T09:23:08Z</time>
      </trkpt>
      <trkpt lat="45.83994" lon="4.89752">
        <ele>303</ele>
        <time>2012-01-08T09:23:12Z</time>
      </trkpt>
      <trkpt lat="45.83998" lon="4.89726">
        <ele>302</ele>
        <time>2012-01-08T09:23:16Z</time>
      </trkpt>
      <trkpt lat="45.84001" lon="4.89699">
        <ele>303</ele>
        <time>2012-01-08T09:23:20Z</time>
      </trkpt>
      <trkpt lat="45.84001" lon="4.89693">
        <ele>302</ele>
        <time>2012-01-08T09:23:21Z</time>
      </trkpt>
      <trkpt lat="45.84001" lon="4.89686">
        <ele>302</ele>
        <time>2012-01-08T09:23:22Z</time>
      </trkpt>
      <trkpt lat="45.83999" lon="4.89648">
        <ele>301</ele>
        <time>2012-01-08T09:23:27Z</time>
      </trkpt>
      <trkpt lat="45.83999" lon="4.8964">
        <ele>301</ele>
        <time>2012-01-08T09:23:28Z</time>
      </trkpt>
      <trkpt lat="45.83993" lon="4.89593">
        <ele>301</ele>
        <time>2012-01-08T09:23:34Z</time>
      </trkpt>
      <trkpt lat="45.8399" lon="4.89579">
        <ele>301</ele>
        <time>2012-01-08T09:23:36Z</time>
      </trkpt>
      <trkpt lat="45.83982" lon="4.89538">
        <ele>300</ele>
        <time>2012-01-08T09:23:42Z</time>
      </trkpt>
      <trkpt lat="45.83978" lon="4.89518">
        <ele>300</ele>
        <time>2012-01-08T09:23:45Z</time>
      </trkpt>
      <trkpt lat="45.83974" lon="4.89486">
        <ele>300</ele>
        <time>2012-01-08T09:23:50Z</time>
      </trkpt>
      <trkpt lat="45.83973" lon="4.89473">
        <ele>300</ele>
        <time>2012-01-08T09:23:52Z</time>
      </trkpt>
      <trkpt lat="45.83972" lon="4.89432">
        <ele>300</ele>
        <time>2012-01-08T09:23:58Z</time>
      </trkpt>
      <trkpt lat="45.83972" lon="4.89426">
        <ele>300</ele>
        <time>2012-01-08T09:23:59Z</time>
      </trkpt>
      <trkpt lat="45.83971" lon="4.89377">
        <ele>298</ele>
        <time>2012-01-08T09:24:06Z</time>
      </trkpt>
      <trkpt lat="45.8397" lon="4.8937">
        <ele>298</ele>
        <time>2012-01-08T09:24:07Z</time>
      </trkpt>
      <trkpt lat="45.83969" lon="4.89321">
        <ele>296</ele>
        <time>2012-01-08T09:24:14Z</time>
      </trkpt>
      <trkpt lat="45.8397" lon="4.89305">
        <ele>295</ele>
        <time>2012-01-08T09:24:16Z</time>
      </trkpt>
      <trkpt lat="45.83973" lon="4.89265">
        <ele>294</ele>
        <time>2012-01-08T09:24:20Z</time>
      </trkpt>
      <trkpt lat="45.83979" lon="4.89203">
        <ele>292</ele>
        <time>2012-01-08T09:24:25Z</time>
      </trkpt>
      <trkpt lat="45.83981" lon="4.89146">
        <ele>290</ele>
        <time>2012-01-08T09:24:30Z</time>
      </trkpt>
      <trkpt lat="45.83982" lon="4.89136">
        <ele>290</ele>
        <time>2012-01-08T09:24:31Z</time>
      </trkpt>
      <trkpt lat="45.83984" lon="4.89113">
        <ele>289</ele>
        <time>2012-01-08T09:24:34Z</time>
      </trkpt>
      <trkpt lat="45.83986" lon="4.89103">
        <ele>289</ele>
        <time>2012-01-08T09:24:38Z</time>
      </trkpt>
      <trkpt lat="45.83994" lon="4.89099">
        <ele>289</ele>
        <time>2012-01-08T09:24:43Z</time>
      </trkpt>
      <trkpt lat="45.83999" lon="4.89098">
        <ele>289</ele>
        <time>2012-01-08T09:24:45Z</time>
      </trkpt>
      <trkpt lat="45.84013" lon="4.89096">
        <ele>289</ele>
        <time>2012-01-08T09:24:49Z</time>
      </trkpt>
      <trkpt lat="45.84032" lon="4.89093">
        <ele>289</ele>
        <time>2012-01-08T09:24:54Z</time>
      </trkpt>
      <trkpt lat="45.84062" lon="4.89083">
        <ele>289</ele>
        <time>2012-01-08T09:25:01Z</time>
      </trkpt>
      <trkpt lat="45.84066" lon="4.89081">
        <ele>289</ele>
        <time>2012-01-08T09:25:02Z</time>
      </trkpt>
      <trkpt lat="45.8407" lon="4.89079">
        <ele>289</ele>
        <time>2012-01-08T09:25:03Z</time>
      </trkpt>
      <trkpt lat="45.8408" lon="4.89077">
        <ele>289</ele>
        <time>2012-01-08T09:25:05Z</time>
      </trkpt>
      <trkpt lat="45.84105" lon="4.89073">
        <ele>289</ele>
        <time>2012-01-08T09:25:10Z</time>
      </trkpt>
      <trkpt lat="45.84109" lon="4.89072">
        <ele>289</ele>
        <time>2012-01-08T09:25:11Z</time>
      </trkpt>
      <trkpt lat="45.84113" lon="4.89071">
        <ele>289</ele>
        <time>2012-01-08T09:25:12Z</time>
      </trkpt>
      <trkpt lat="45.84122" lon="4.89076">
        <ele>289</ele>
        <time>2012-01-08T09:25:14Z</time>
      </trkpt>
      <trkpt lat="45.84135" lon="4.8909">
        <ele>291</ele>
        <time>2012-01-08T09:25:17Z</time>
      </trkpt>
      <trkpt lat="45.8414" lon="4.89094">
        <ele>291</ele>
        <time>2012-01-08T09:25:18Z</time>
      </trkpt>
      <trkpt lat="45.84144" lon="4.89098">
        <ele>291</ele>
        <time>2012-01-08T09:25:19Z</time>
      </trkpt>
      <trkpt lat="45.84173" lon="4.89127">
        <ele>291</ele>
        <time>2012-01-08T09:25:26Z</time>
      </trkpt>
      <trkpt lat="45.84181" lon="4.89135">
        <ele>291</ele>
        <time>2012-01-08T09:25:28Z</time>
      </trkpt>
      <trkpt lat="45.84207" lon="4.89156">
        <ele>291</ele>
        <time>2012-01-08T09:25:34Z</time>
      </trkpt>
      <trkpt lat="45.84215" lon="4.89159">
        <ele>292</ele>
        <time>2012-01-08T09:25:36Z</time>
      </trkpt>
      <trkpt lat="45.84225" lon="4.89152">
        <ele>291</ele>
        <time>2012-01-08T09:25:39Z</time>
      </trkpt>
      <trkpt lat="45.84227" lon="4.89149">
        <ele>291</ele>
        <time>2012-01-08T09:25:40Z</time>
      </trkpt>
      <trkpt lat="45.84231" lon="4.89141">
        <ele>291</ele>
        <time>2012-01-08T09:25:44Z</time>
      </trkpt>
      <trkpt lat="45.84233" lon="4.89138">
        <ele>291</ele>
        <time>2012-01-08T09:25:49Z</time>
      </trkpt>
      <trkpt lat="45.84224" lon="4.89136">
        <ele>291</ele>
        <time>2012-01-08T09:26:52Z</time>
      </trkpt>
      <trkpt lat="45.84216" lon="4.89139">
        <ele>291</ele>
        <time>2012-01-08T09:26:57Z</time>
      </trkpt>
      <trkpt lat="45.84207" lon="4.89135">
        <ele>291</ele>
        <time>2012-01-08T09:27:02Z</time>
      </trkpt>
      <trkpt lat="45.84193" lon="4.89125">
        <ele>291</ele>
        <time>2012-01-08T09:27:07Z</time>
      </trkpt>
      <trkpt lat="45.8419" lon="4.89123">
        <ele>291</ele>
        <time>2012-01-08T09:27:08Z</time>
      </trkpt>
      <trkpt lat="45.84173" lon="4.89109">
        <ele>291</ele>
        <time>2012-01-08T09:27:13Z</time>
      </trkpt>
      <trkpt lat="45.84161" lon="4.89091">
        <ele>291</ele>
        <time>2012-01-08T09:27:18Z</time>
      </trkpt>
      <trkpt lat="45.84156" lon="4.89084">
        <ele>291</ele>
        <time>2012-01-08T09:27:20Z</time>
      </trkpt>
      <trkpt lat="45.84143" lon="4.8906">
        <ele>290</ele>
        <time>2012-01-08T09:27:26Z</time>
      </trkpt>
      <trkpt lat="45.84136" lon="4.89048">
        <ele>289</ele>
        <time>2012-01-08T09:27:29Z</time>
      </trkpt>
      <trkpt lat="45.84128" lon="4.89033">
        <ele>289</ele>
        <time>2012-01-08T09:27:33Z</time>
      </trkpt>
      <trkpt lat="45.84112" lon="4.89005">
        <ele>289</ele>
        <time>2012-01-08T09:27:41Z</time>
      </trkpt>
      <trkpt lat="45.84098" lon="4.88977">
        <ele>289</ele>
        <time>2012-01-08T09:27:48Z</time>
      </trkpt>
      <trkpt lat="45.84096" lon="4.88972">
        <ele>289</ele>
        <time>2012-01-08T09:27:49Z</time>
      </trkpt>
      <trkpt lat="45.8409" lon="4.88962">
        <ele>289</ele>
        <time>2012-01-08T09:27:51Z</time>
      </trkpt>
      <trkpt lat="45.84083" lon="4.8895">
        <ele>289</ele>
        <time>2012-01-08T09:27:53Z</time>
      </trkpt>
      <trkpt lat="45.84067" lon="4.88921">
        <ele>289</ele>
        <time>2012-01-08T09:27:57Z</time>
      </trkpt>
      <trkpt lat="45.84064" lon="4.88914">
        <ele>290</ele>
        <time>2012-01-08T09:27:58Z</time>
      </trkpt>
      <trkpt lat="45.84061" lon="4.88907">
        <ele>290</ele>
        <time>2012-01-08T09:27:59Z</time>
      </trkpt>
      <trkpt lat="45.8406" lon="4.88898">
        <ele>290</ele>
        <time>2012-01-08T09:28:01Z</time>
      </trkpt>
      <trkpt lat="45.84068" lon="4.88897">
        <ele>290</ele>
        <time>2012-01-08T09:28:04Z</time>
      </trkpt>
      <trkpt lat="45.84074" lon="4.88904">
        <ele>290</ele>
        <time>2012-01-08T09:28:06Z</time>
      </trkpt>
      <trkpt lat="45.84077" lon="4.88908">
        <ele>289</ele>
        <time>2012-01-08T09:28:07Z</time>
      </trkpt>
      <trkpt lat="45.84088" lon="4.88921">
        <ele>289</ele>
        <time>2012-01-08T09:28:10Z</time>
      </trkpt>
      <trkpt lat="45.84104" lon="4.8894">
        <ele>289</ele>
        <time>2012-01-08T09:28:14Z</time>
      </trkpt>
      <trkpt lat="45.84121" lon="4.8896">
        <ele>289</ele>
        <time>2012-01-08T09:28:18Z</time>
      </trkpt>
      <trkpt lat="45.84133" lon="4.88974">
        <ele>288</ele>
        <time>2012-01-08T09:28:21Z</time>
      </trkpt>
      <trkpt lat="45.84143" lon="4.8898">
        <ele>288</ele>
        <time>2012-01-08T09:28:23Z</time>
      </trkpt>
      <trkpt lat="45.84163" lon="4.88983">
        <ele>288</ele>
        <time>2012-01-08T09:28:27Z</time>
      </trkpt>
      <trkpt lat="45.84168" lon="4.88982">
        <ele>288</ele>
        <time>2012-01-08T09:28:28Z</time>
      </trkpt>
      <trkpt lat="45.84193" lon="4.88975">
        <ele>288</ele>
        <time>2012-01-08T09:28:33Z</time>
      </trkpt>
      <trkpt lat="45.84207" lon="4.88969">
        <ele>288</ele>
        <time>2012-01-08T09:28:36Z</time>
      </trkpt>
      <trkpt lat="45.84231" lon="4.88958">
        <ele>287</ele>
        <time>2012-01-08T09:28:41Z</time>
      </trkpt>
      <trkpt lat="45.84244" lon="4.88951">
        <ele>287</ele>
        <time>2012-01-08T09:28:44Z</time>
      </trkpt>
      <trkpt lat="45.84261" lon="4.88944">
        <ele>287</ele>
        <time>2012-01-08T09:28:48Z</time>
      </trkpt>
      <trkpt lat="45.84274" lon="4.88933">
        <ele>286</ele>
        <time>2012-01-08T09:28:52Z</time>
      </trkpt>
      <trkpt lat="45.84277" lon="4.88929">
        <ele>286</ele>
        <time>2012-01-08T09:28:53Z</time>
      </trkpt>
      <trkpt lat="45.84291" lon="4.88904">
        <ele>284</ele>
        <time>2012-01-08T09:28:58Z</time>
      </trkpt>
      <trkpt lat="45.84299" lon="4.88885">
        <ele>284</ele>
        <time>2012-01-08T09:29:02Z</time>
      </trkpt>
      <trkpt lat="45.84302" lon="4.8888">
        <ele>284</ele>
        <time>2012-01-08T09:29:03Z</time>
      </trkpt>
      <trkpt lat="45.84313" lon="4.88853">
        <ele>284</ele>
        <time>2012-01-08T09:29:08Z</time>
      </trkpt>
      <trkpt lat="45.8432" lon="4.8884">
        <ele>284</ele>
        <time>2012-01-08T09:29:11Z</time>
      </trkpt>
      <trkpt lat="45.84328" lon="4.8883">
        <ele>284</ele>
        <time>2012-01-08T09:29:14Z</time>
      </trkpt>
      <trkpt lat="45.84339" lon="4.88822">
        <ele>284</ele>
        <time>2012-01-08T09:29:18Z</time>
      </trkpt>
      <trkpt lat="45.84343" lon="4.88821">
        <ele>284</ele>
        <time>2012-01-08T09:29:22Z</time>
      </trkpt>
      <trkpt lat="45.84344" lon="4.8882">
        <ele>284</ele>
        <time>2012-01-08T09:29:27Z</time>
      </trkpt>
      <trkpt lat="45.84348" lon="4.88817">
        <ele>284</ele>
        <time>2012-01-08T09:29:30Z</time>
      </trkpt>
      <trkpt lat="45.8435" lon="4.88815">
        <ele>284</ele>
        <time>2012-01-08T09:29:32Z</time>
      </trkpt>
      <trkpt lat="45.84352" lon="4.88812">
        <ele>284</ele>
        <time>2012-01-08T09:29:33Z</time>
      </trkpt>
      <trkpt lat="45.84358" lon="4.88806">
        <ele>284</ele>
        <time>2012-01-08T09:29:36Z</time>
      </trkpt>
      <trkpt lat="45.8437" lon="4.8879">
        <ele>285</ele>
        <time>2012-01-08T09:29:41Z</time>
      </trkpt>
      <trkpt lat="45.8438" lon="4.88783">
        <ele>285</ele>
        <time>2012-01-08T09:29:46Z</time>
      </trkpt>
      <trkpt lat="45.84384" lon="4.8878">
        <ele>285</ele>
        <time>2012-01-08T09:29:48Z</time>
      </trkpt>
      <trkpt lat="45.84387" lon="4.88774">
        <ele>285</ele>
        <time>2012-01-08T09:29:50Z</time>
      </trkpt>
      <trkpt lat="45.84389" lon="4.88766">
        <ele>285</ele>
        <time>2012-01-08T09:29:52Z</time>
      </trkpt>
      <trkpt lat="45.84393" lon="4.88759">
        <ele>284</ele>
        <time>2012-01-08T09:29:54Z</time>
      </trkpt>
      <trkpt lat="45.84398" lon="4.88753">
        <ele>284</ele>
        <time>2012-01-08T09:29:56Z</time>
      </trkpt>
      <trkpt lat="45.84404" lon="4.88742">
        <ele>286</ele>
        <time>2012-01-08T09:29:59Z</time>
      </trkpt>
      <trkpt lat="45.84408" lon="4.88733">
        <ele>286</ele>
        <time>2012-01-08T09:30:01Z</time>
      </trkpt>
      <trkpt lat="45.84413" lon="4.88711">
        <ele>287</ele>
        <time>2012-01-08T09:30:05Z</time>
      </trkpt>
      <trkpt lat="45.84419" lon="4.88694">
        <ele>285</ele>
        <time>2012-01-08T09:30:09Z</time>
      </trkpt>
      <trkpt lat="45.8442" lon="4.88691">
        <ele>285</ele>
        <time>2012-01-08T09:30:10Z</time>
      </trkpt>
      <trkpt lat="45.84421" lon="4.88687">
        <ele>285</ele>
        <time>2012-01-08T09:30:15Z</time>
      </trkpt>
      <trkpt lat="45.84422" lon="4.88683">
        <ele>285</ele>
        <time>2012-01-08T09:30:23Z</time>
      </trkpt>
      <trkpt lat="45.84424" lon="4.88682">
        <ele>285</ele>
        <time>2012-01-08T09:30:24Z</time>
      </trkpt>
      <trkpt lat="45.84431" lon="4.88669">
        <ele>285</ele>
        <time>2012-01-08T09:30:28Z</time>
      </trkpt>
      <trkpt lat="45.84442" lon="4.88667">
        <ele>285</ele>
        <time>2012-01-08T09:30:32Z</time>
      </trkpt>
      <trkpt lat="45.84445" lon="4.88668">
        <ele>284</ele>
        <time>2012-01-08T09:30:34Z</time>
      </trkpt>
      <trkpt lat="45.8445" lon="4.88669">
        <ele>284</ele>
        <time>2012-01-08T09:30:36Z</time>
      </trkpt>
      <trkpt lat="45.84453" lon="4.88668">
        <ele>284</ele>
        <time>2012-01-08T09:30:37Z</time>
      </trkpt>
      <trkpt lat="45.84462" lon="4.88661">
        <ele>284</ele>
        <time>2012-01-08T09:30:40Z</time>
      </trkpt>
      <trkpt lat="45.84466" lon="4.88658">
        <ele>284</ele>
        <time>2012-01-08T09:30:42Z</time>
      </trkpt>
      <trkpt lat="45.84479" lon="4.88656">
        <ele>283</ele>
        <time>2012-01-08T09:30:48Z</time>
      </trkpt>
      <trkpt lat="45.84481" lon="4.88658">
        <ele>283</ele>
        <time>2012-01-08T09:30:51Z</time>
      </trkpt>
      <trkpt lat="45.84494" lon="4.88661">
        <ele>283</ele>
        <time>2012-01-08T09:32:51Z</time>
      </trkpt>
      <trkpt lat="45.84505" lon="4.88669">
        <ele>281</ele>
        <time>2012-01-08T09:32:56Z</time>
      </trkpt>
      <trkpt lat="45.84508" lon="4.88669">
        <ele>281</ele>
        <time>2012-01-08T09:32:57Z</time>
      </trkpt>
      <trkpt lat="45.84524" lon="4.88662">
        <ele>279</ele>
        <time>2012-01-08T09:33:02Z</time>
      </trkpt>
      <trkpt lat="45.8454" lon="4.88671">
        <ele>279</ele>
        <time>2012-01-08T09:33:07Z</time>
      </trkpt>
      <trkpt lat="45.84554" lon="4.88673">
        <ele>278</ele>
        <time>2012-01-08T09:33:11Z</time>
      </trkpt>
      <trkpt lat="45.84574" lon="4.88667">
        <ele>276</ele>
        <time>2012-01-08T09:33:16Z</time>
      </trkpt>
      <trkpt lat="45.84589" lon="4.8867">
        <ele>275</ele>
        <time>2012-01-08T09:33:20Z</time>
      </trkpt>
      <trkpt lat="45.84593" lon="4.88673">
        <ele>274</ele>
        <time>2012-01-08T09:33:21Z</time>
      </trkpt>
      <trkpt lat="45.84607" lon="4.88683">
        <ele>274</ele>
        <time>2012-01-08T09:33:24Z</time>
      </trkpt>
      <trkpt lat="45.84623" lon="4.88687">
        <ele>273</ele>
        <time>2012-01-08T09:33:27Z</time>
      </trkpt>
      <trkpt lat="45.84633" lon="4.88689">
        <ele>273</ele>
        <time>2012-01-08T09:33:29Z</time>
      </trkpt>
      <trkpt lat="45.84642" lon="4.8869">
        <ele>273</ele>
        <time>2012-01-08T09:33:31Z</time>
      </trkpt>
      <trkpt lat="45.84646" lon="4.8869">
        <ele>273</ele>
        <time>2012-01-08T09:33:32Z</time>
      </trkpt>
      <trkpt lat="45.84655" lon="4.8869">
        <ele>272</ele>
        <time>2012-01-08T09:33:34Z</time>
      </trkpt>
      <trkpt lat="45.8466" lon="4.8869">
        <ele>272</ele>
        <time>2012-01-08T09:33:35Z</time>
      </trkpt>
      <trkpt lat="45.84673" lon="4.88693">
        <ele>270</ele>
        <time>2012-01-08T09:33:37Z</time>
      </trkpt>
      <trkpt lat="45.84684" lon="4.88695">
        <ele>270</ele>
        <time>2012-01-08T09:33:39Z</time>
      </trkpt>
      <trkpt lat="45.84699" lon="4.88697">
        <ele>270</ele>
        <time>2012-01-08T09:33:42Z</time>
      </trkpt>
      <trkpt lat="45.84721" lon="4.88706">
        <ele>269</ele>
        <time>2012-01-08T09:33:47Z</time>
      </trkpt>
      <trkpt lat="45.84732" lon="4.88713">
        <ele>269</ele>
        <time>2012-01-08T09:33:49Z</time>
      </trkpt>
      <trkpt lat="45.84742" lon="4.88717">
        <ele>269</ele>
        <time>2012-01-08T09:33:51Z</time>
      </trkpt>
      <trkpt lat="45.84751" lon="4.88716">
        <ele>267</ele>
        <time>2012-01-08T09:33:53Z</time>
      </trkpt>
      <trkpt lat="45.8476" lon="4.88716">
        <ele>267</ele>
        <time>2012-01-08T09:33:55Z</time>
      </trkpt>
      <trkpt lat="45.84789" lon="4.88714">
        <ele>266</ele>
        <time>2012-01-08T09:34:01Z</time>
      </trkpt>
      <trkpt lat="45.84797" lon="4.8871">
        <ele>266</ele>
        <time>2012-01-08T09:34:03Z</time>
      </trkpt>
      <trkpt lat="45.84812" lon="4.88706">
        <ele>266</ele>
        <time>2012-01-08T09:34:06Z</time>
      </trkpt>
      <trkpt lat="45.84817" lon="4.88706">
        <ele>266</ele>
        <time>2012-01-08T09:34:07Z</time>
      </trkpt>
      <trkpt lat="45.84834" lon="4.88707">
        <ele>265</ele>
        <time>2012-01-08T09:34:10Z</time>
      </trkpt>
      <trkpt lat="45.8484" lon="4.88707">
        <ele>265</ele>
        <time>2012-01-08T09:34:11Z</time>
      </trkpt>
      <trkpt lat="45.84845" lon="4.88706">
        <ele>265</ele>
        <time>2012-01-08T09:34:12Z</time>
      </trkpt>
      <trkpt lat="45.84861" lon="4.887">
        <ele>265</ele>
        <time>2012-01-08T09:34:15Z</time>
      </trkpt>
      <trkpt lat="45.84871" lon="4.887">
        <ele>265</ele>
        <time>2012-01-08T09:34:17Z</time>
      </trkpt>
      <trkpt lat="45.84888" lon="4.88701">
        <ele>265</ele>
        <time>2012-01-08T09:34:21Z</time>
      </trkpt>
      <trkpt lat="45.84894" lon="4.88703">
        <ele>265</ele>
        <time>2012-01-08T09:34:26Z</time>
      </trkpt>
      <trkpt lat="45.84896" lon="4.88707">
        <ele>265</ele>
        <time>2012-01-08T09:36:29Z</time>
      </trkpt>
      <trkpt lat="45.849" lon="4.88702">
        <ele>265</ele>
        <time>2012-01-08T09:36:32Z</time>
      </trkpt>
      <trkpt lat="45.84901" lon="4.88699">
        <ele>265</ele>
        <time>2012-01-08T09:36:33Z</time>
      </trkpt>
      <trkpt lat="45.84902" lon="4.88695">
        <ele>265</ele>
        <time>2012-01-08T09:36:34Z</time>
      </trkpt>
      <trkpt lat="45.84903" lon="4.88685">
        <ele>264</ele>
        <time>2012-01-08T09:36:36Z</time>
      </trkpt>
      <trkpt lat="45.84903" lon="4.88655">
        <ele>263</ele>
        <time>2012-01-08T09:36:41Z</time>
      </trkpt>
      <trkpt lat="45.84901" lon="4.88649">
        <ele>263</ele>
        <time>2012-01-08T09:36:42Z</time>
      </trkpt>
      <trkpt lat="45.84891" lon="4.88626">
        <ele>263</ele>
        <time>2012-01-08T09:36:46Z</time>
      </trkpt>
      <trkpt lat="45.84889" lon="4.88621">
        <ele>263</ele>
        <time>2012-01-08T09:36:47Z</time>
      </trkpt>
      <trkpt lat="45.84885" lon="4.88602">
        <ele>263</ele>
        <time>2012-01-08T09:36:50Z</time>
      </trkpt>
      <trkpt lat="45.84883" lon="4.88588">
        <ele>263</ele>
        <time>2012-01-08T09:36:52Z</time>
      </trkpt>
      <trkpt lat="45.84885" lon="4.8856">
        <ele>262</ele>
        <time>2012-01-08T09:36:56Z</time>
      </trkpt>
      <trkpt lat="45.84887" lon="4.88549">
        <ele>262</ele>
        <time>2012-01-08T09:36:58Z</time>
      </trkpt>
      <trkpt lat="45.84887" lon="4.88538">
        <ele>262</ele>
        <time>2012-01-08T09:37:00Z</time>
      </trkpt>
      <trkpt lat="45.84885" lon="4.88511">
        <ele>262</ele>
        <time>2012-01-08T09:37:05Z</time>
      </trkpt>
      <trkpt lat="45.84885" lon="4.88504">
        <ele>261</ele>
        <time>2012-01-08T09:37:06Z</time>
      </trkpt>
      <trkpt lat="45.84885" lon="4.88498">
        <ele>261</ele>
        <time>2012-01-08T09:37:07Z</time>
      </trkpt>
      <trkpt lat="45.84887" lon="4.88486">
        <ele>260</ele>
        <time>2012-01-08T09:37:09Z</time>
      </trkpt>
      <trkpt lat="45.84889" lon="4.8848">
        <ele>260</ele>
        <time>2012-01-08T09:37:10Z</time>
      </trkpt>
      <trkpt lat="45.84891" lon="4.88473">
        <ele>260</ele>
        <time>2012-01-08T09:37:11Z</time>
      </trkpt>
      <trkpt lat="45.84899" lon="4.88452">
        <ele>260</ele>
        <time>2012-01-08T09:37:14Z</time>
      </trkpt>
      <trkpt lat="45.84901" lon="4.88446">
        <ele>260</ele>
        <time>2012-01-08T09:37:15Z</time>
      </trkpt>
      <trkpt lat="45.84914" lon="4.8842">
        <ele>259</ele>
        <time>2012-01-08T09:37:20Z</time>
      </trkpt>
      <trkpt lat="45.84916" lon="4.88414">
        <ele>259</ele>
        <time>2012-01-08T09:37:21Z</time>
      </trkpt>
      <trkpt lat="45.84921" lon="4.88401">
        <ele>260</ele>
        <time>2012-01-08T09:37:23Z</time>
      </trkpt>
      <trkpt lat="45.84924" lon="4.88386">
        <ele>260</ele>
        <time>2012-01-08T09:37:25Z</time>
      </trkpt>
      <trkpt lat="45.84925" lon="4.8837">
        <ele>260</ele>
        <time>2012-01-08T09:37:27Z</time>
      </trkpt>
      <trkpt lat="45.84925" lon="4.88346">
        <ele>259</ele>
        <time>2012-01-08T09:37:30Z</time>
      </trkpt>
      <trkpt lat="45.8493" lon="4.88307">
        <ele>259</ele>
        <time>2012-01-08T09:37:35Z</time>
      </trkpt>
      <trkpt lat="45.84933" lon="4.883">
        <ele>259</ele>
        <time>2012-01-08T09:37:36Z</time>
      </trkpt>
      <trkpt lat="45.84935" lon="4.88293">
        <ele>259</ele>
        <time>2012-01-08T09:37:37Z</time>
      </trkpt>
      <trkpt lat="45.84944" lon="4.88265">
        <ele>259</ele>
        <time>2012-01-08T09:37:41Z</time>
      </trkpt>
      <trkpt lat="45.84946" lon="4.8825">
        <ele>259</ele>
        <time>2012-01-08T09:37:43Z</time>
      </trkpt>
      <trkpt lat="45.84947" lon="4.88243">
        <ele>258</ele>
        <time>2012-01-08T09:37:44Z</time>
      </trkpt>
      <trkpt lat="45.84951" lon="4.88202">
        <ele>258</ele>
        <time>2012-01-08T09:37:49Z</time>
      </trkpt>
      <trkpt lat="45.84954" lon="4.88186">
        <ele>258</ele>
        <time>2012-01-08T09:37:51Z</time>
      </trkpt>
      <trkpt lat="45.84964" lon="4.88153">
        <ele>257</ele>
        <time>2012-01-08T09:37:55Z</time>
      </trkpt>
      <trkpt lat="45.84969" lon="4.88138">
        <ele>257</ele>
        <time>2012-01-08T09:37:57Z</time>
      </trkpt>
      <trkpt lat="45.84981" lon="4.88107">
        <ele>257</ele>
        <time>2012-01-08T09:38:01Z</time>
      </trkpt>
      <trkpt lat="45.84986" lon="4.8809">
        <ele>257</ele>
        <time>2012-01-08T09:38:03Z</time>
      </trkpt>
      <trkpt lat="45.84992" lon="4.88065">
        <ele>256</ele>
        <time>2012-01-08T09:38:06Z</time>
      </trkpt>
      <trkpt lat="45.84996" lon="4.88037">
        <ele>255</ele>
        <time>2012-01-08T09:38:09Z</time>
      </trkpt>
      <trkpt lat="45.85003" lon="4.87999">
        <ele>253</ele>
        <time>2012-01-08T09:38:13Z</time>
      </trkpt>
      <trkpt lat="45.85008" lon="4.8798">
        <ele>253</ele>
        <time>2012-01-08T09:38:15Z</time>
      </trkpt>
      <trkpt lat="45.8502" lon="4.87943">
        <ele>252</ele>
        <time>2012-01-08T09:38:19Z</time>
      </trkpt>
      <trkpt lat="45.85026" lon="4.87925">
        <ele>252</ele>
        <time>2012-01-08T09:38:21Z</time>
      </trkpt>
      <trkpt lat="45.8504" lon="4.8788">
        <ele>250</ele>
        <time>2012-01-08T09:38:26Z</time>
      </trkpt>
      <trkpt lat="45.85042" lon="4.87872">
        <ele>250</ele>
        <time>2012-01-08T09:38:27Z</time>
      </trkpt>
      <trkpt lat="45.85046" lon="4.87836">
        <ele>250</ele>
        <time>2012-01-08T09:38:31Z</time>
      </trkpt>
      <trkpt lat="45.85044" lon="4.8782">
        <ele>248</ele>
        <time>2012-01-08T09:38:33Z</time>
      </trkpt>
      <trkpt lat="45.85041" lon="4.87805">
        <ele>248</ele>
        <time>2012-01-08T09:38:35Z</time>
      </trkpt>
      <trkpt lat="45.85036" lon="4.87766">
        <ele>247</ele>
        <time>2012-01-08T09:38:41Z</time>
      </trkpt>
      <trkpt lat="45.85035" lon="4.87747">
        <ele>246</ele>
        <time>2012-01-08T09:38:46Z</time>
      </trkpt>
      <trkpt lat="45.85035" lon="4.87747">
        <ele>246</ele>
        <time>2012-01-08T09:38:51Z</time>
      </trkpt>
      <trkpt lat="45.85033" lon="4.8775">
        <ele>247</ele>
        <time>2012-01-08T09:39:28Z</time>
      </trkpt>
      <trkpt lat="45.85035" lon="4.8775">
        <ele>246</ele>
        <time>2012-01-08T09:39:29Z</time>
      </trkpt>
      <trkpt lat="45.85044" lon="4.87752">
        <ele>247</ele>
        <time>2012-01-08T09:39:32Z</time>
      </trkpt>
      <trkpt lat="45.85052" lon="4.87753">
        <ele>247</ele>
        <time>2012-01-08T09:39:34Z</time>
      </trkpt>
      <trkpt lat="45.85082" lon="4.87754">
        <ele>246</ele>
        <time>2012-01-08T09:39:41Z</time>
      </trkpt>
      <trkpt lat="45.85091" lon="4.87753">
        <ele>247</ele>
        <time>2012-01-08T09:39:43Z</time>
      </trkpt>
      <trkpt lat="45.8512" lon="4.8775">
        <ele>248</ele>
        <time>2012-01-08T09:39:49Z</time>
      </trkpt>
      <trkpt lat="45.85131" lon="4.87749">
        <ele>249</ele>
        <time>2012-01-08T09:39:51Z</time>
      </trkpt>
      <trkpt lat="45.85168" lon="4.87746">
        <ele>250</ele>
        <time>2012-01-08T09:39:58Z</time>
      </trkpt>
      <trkpt lat="45.85204" lon="4.87743">
        <ele>252</ele>
        <time>2012-01-08T09:40:05Z</time>
      </trkpt>
      <trkpt lat="45.85215" lon="4.87742">
        <ele>252</ele>
        <time>2012-01-08T09:40:07Z</time>
      </trkpt>
      <trkpt lat="45.85245" lon="4.87738">
        <ele>253</ele>
        <time>2012-01-08T09:40:13Z</time>
      </trkpt>
      <trkpt lat="45.85255" lon="4.87739">
        <ele>254</ele>
        <time>2012-01-08T09:40:15Z</time>
      </trkpt>
      <trkpt lat="45.85269" lon="4.87743">
        <ele>254</ele>
        <time>2012-01-08T09:40:18Z</time>
      </trkpt>
      <trkpt lat="45.85281" lon="4.87752">
        <ele>254</ele>
        <time>2012-01-08T09:40:21Z</time>
      </trkpt>
      <trkpt lat="45.85285" lon="4.87756">
        <ele>254</ele>
        <time>2012-01-08T09:40:22Z</time>
      </trkpt>
      <trkpt lat="45.85313" lon="4.87784">
        <ele>255</ele>
        <time>2012-01-08T09:40:30Z</time>
      </trkpt>
      <trkpt lat="45.85323" lon="4.87795">
        <ele>255</ele>
        <time>2012-01-08T09:40:33Z</time>
      </trkpt>
      <trkpt lat="45.85339" lon="4.8781">
        <ele>255</ele>
        <time>2012-01-08T09:40:37Z</time>
      </trkpt>
      <trkpt lat="45.85343" lon="4.87813">
        <ele>255</ele>
        <time>2012-01-08T09:40:38Z</time>
      </trkpt>
      <trkpt lat="45.85375" lon="4.87842">
        <ele>256</ele>
        <time>2012-01-08T09:40:46Z</time>
      </trkpt>
      <trkpt lat="45.85404" lon="4.8787">
        <ele>257</ele>
        <time>2012-01-08T09:40:53Z</time>
      </trkpt>
      <trkpt lat="45.85409" lon="4.87874">
        <ele>257</ele>
        <time>2012-01-08T09:40:54Z</time>
      </trkpt>
      <trkpt lat="45.85431" lon="4.87892">
        <ele>257</ele>
        <time>2012-01-08T09:40:59Z</time>
      </trkpt>
      <trkpt lat="45.85441" lon="4.87898">
        <ele>257</ele>
        <time>2012-01-08T09:41:01Z</time>
      </trkpt>
      <trkpt lat="45.85477" lon="4.87916">
        <ele>257</ele>
        <time>2012-01-08T09:41:08Z</time>
      </trkpt>
      <trkpt lat="45.85487" lon="4.87921">
        <ele>258</ele>
        <time>2012-01-08T09:41:10Z</time>
      </trkpt>
      <trkpt lat="45.85512" lon="4.87936">
        <ele>258</ele>
        <time>2012-01-08T09:41:15Z</time>
      </trkpt>
      <trkpt lat="45.85538" lon="4.87949">
        <ele>258</ele>
        <time>2012-01-08T09:41:20Z</time>
      </trkpt>
      <trkpt lat="45.85548" lon="4.87955">
        <ele>258</ele>
        <time>2012-01-08T09:41:22Z</time>
      </trkpt>
      <trkpt lat="45.85585" lon="4.87974">
        <ele>258</ele>
        <time>2012-01-08T09:41:29Z</time>
      </trkpt>
      <trkpt lat="45.8562" lon="4.87998">
        <ele>259</ele>
        <time>2012-01-08T09:41:36Z</time>
      </trkpt>
      <trkpt lat="45.8563" lon="4.88006">
        <ele>260</ele>
        <time>2012-01-08T09:41:38Z</time>
      </trkpt>
      <trkpt lat="45.85655" lon="4.88024">
        <ele>260</ele>
        <time>2012-01-08T09:41:43Z</time>
      </trkpt>
      <trkpt lat="45.85669" lon="4.88036">
        <ele>261</ele>
        <time>2012-01-08T09:41:46Z</time>
      </trkpt>
      <trkpt lat="45.85688" lon="4.88052">
        <ele>261</ele>
        <time>2012-01-08T09:41:50Z</time>
      </trkpt>
      <trkpt lat="45.85711" lon="4.88072">
        <ele>261</ele>
        <time>2012-01-08T09:41:55Z</time>
      </trkpt>
      <trkpt lat="45.85719" lon="4.88079">
        <ele>261</ele>
        <time>2012-01-08T09:41:57Z</time>
      </trkpt>
      <trkpt lat="45.85736" lon="4.88091">
        <ele>262</ele>
        <time>2012-01-08T09:42:01Z</time>
      </trkpt>
      <trkpt lat="45.85739" lon="4.88095">
        <ele>262</ele>
        <time>2012-01-08T09:42:02Z</time>
      </trkpt>
      <trkpt lat="45.85745" lon="4.88104">
        <ele>262</ele>
        <time>2012-01-08T09:42:04Z</time>
      </trkpt>
      <trkpt lat="45.85752" lon="4.88109">
        <ele>262</ele>
        <time>2012-01-08T09:42:06Z</time>
      </trkpt>
      <trkpt lat="45.85756" lon="4.8811">
        <ele>261</ele>
        <time>2012-01-08T09:42:07Z</time>
      </trkpt>
      <trkpt lat="45.85762" lon="4.88108">
        <ele>261</ele>
        <time>2012-01-08T09:42:09Z</time>
      </trkpt>
      <trkpt lat="45.8577" lon="4.88107">
        <ele>261</ele>
        <time>2012-01-08T09:42:12Z</time>
      </trkpt>
      <trkpt lat="45.85784" lon="4.8811">
        <ele>261</ele>
        <time>2012-01-08T09:42:16Z</time>
      </trkpt>
      <trkpt lat="45.85788" lon="4.88112">
        <ele>261</ele>
        <time>2012-01-08T09:42:17Z</time>
      </trkpt>
      <trkpt lat="45.85812" lon="4.88117">
        <ele>261</ele>
        <time>2012-01-08T09:42:22Z</time>
      </trkpt>
      <trkpt lat="45.85827" lon="4.88122">
        <ele>260</ele>
        <time>2012-01-08T09:42:25Z</time>
      </trkpt>
      <trkpt lat="45.85847" lon="4.88127">
        <ele>259</ele>
        <time>2012-01-08T09:42:29Z</time>
      </trkpt>
      <trkpt lat="45.85862" lon="4.88131">
        <ele>259</ele>
        <time>2012-01-08T09:42:32Z</time>
      </trkpt>
      <trkpt lat="45.85889" lon="4.88138">
        <ele>259</ele>
        <time>2012-01-08T09:42:37Z</time>
      </trkpt>
      <trkpt lat="45.859" lon="4.8814">
        <ele>259</ele>
        <time>2012-01-08T09:42:39Z</time>
      </trkpt>
      <trkpt lat="45.85941" lon="4.8815">
        <ele>257</ele>
        <time>2012-01-08T09:42:46Z</time>
      </trkpt>
      <trkpt lat="45.85947" lon="4.88151">
        <ele>257</ele>
        <time>2012-01-08T09:42:47Z</time>
      </trkpt>
      <trkpt lat="45.85978" lon="4.88159">
        <ele>257</ele>
        <time>2012-01-08T09:42:52Z</time>
      </trkpt>
      <trkpt lat="45.86002" lon="4.88165">
        <ele>257</ele>
        <time>2012-01-08T09:42:56Z</time>
      </trkpt>
      <trkpt lat="45.86017" lon="4.8817">
        <ele>257</ele>
        <time>2012-01-08T09:42:59Z</time>
      </trkpt>
      <trkpt lat="45.86028" lon="4.88171">
        <ele>257</ele>
        <time>2012-01-08T09:43:02Z</time>
      </trkpt>
      <trkpt lat="45.86031" lon="4.88167">
        <ele>257</ele>
        <time>2012-01-08T09:43:05Z</time>
      </trkpt>
      <trkpt lat="45.8603" lon="4.88166">
        <ele>256</ele>
        <time>2012-01-08T09:43:06Z</time>
      </trkpt>
      <trkpt lat="45.86028" lon="4.88165">
        <ele>256</ele>
        <time>2012-01-08T09:43:12Z</time>
      </trkpt>
      <trkpt lat="45.86026" lon="4.88167">
        <ele>257</ele>
        <time>2012-01-08T09:43:28Z</time>
      </trkpt>
      <trkpt lat="45.86027" lon="4.88171">
        <ele>257</ele>
        <time>2012-01-08T09:43:30Z</time>
      </trkpt>
      <trkpt lat="45.86033" lon="4.88175">
        <ele>257</ele>
        <time>2012-01-08T09:43:33Z</time>
      </trkpt>
      <trkpt lat="45.86035" lon="4.88176">
        <ele>257</ele>
        <time>2012-01-08T09:43:34Z</time>
      </trkpt>
      <trkpt lat="45.86042" lon="4.88177">
        <ele>257</ele>
        <time>2012-01-08T09:43:36Z</time>
      </trkpt>
      <trkpt lat="45.86051" lon="4.88178">
        <ele>257</ele>
        <time>2012-01-08T09:43:38Z</time>
      </trkpt>
      <trkpt lat="45.86082" lon="4.88178">
        <ele>257</ele>
        <time>2012-01-08T09:43:44Z</time>
      </trkpt>
      <trkpt lat="45.86121" lon="4.88174">
        <ele>258</ele>
        <time>2012-01-08T09:43:51Z</time>
      </trkpt>
      <trkpt lat="45.86157" lon="4.88169">
        <ele>259</ele>
        <time>2012-01-08T09:43:57Z</time>
      </trkpt>
      <trkpt lat="45.86164" lon="4.88169">
        <ele>260</ele>
        <time>2012-01-08T09:43:58Z</time>
      </trkpt>
      <trkpt lat="45.86197" lon="4.88163">
        <ele>261</ele>
        <time>2012-01-08T09:44:04Z</time>
      </trkpt>
      <trkpt lat="45.86208" lon="4.88161">
        <ele>262</ele>
        <time>2012-01-08T09:44:06Z</time>
      </trkpt>
      <trkpt lat="45.86238" lon="4.88157">
        <ele>262</ele>
        <time>2012-01-08T09:44:12Z</time>
      </trkpt>
      <trkpt lat="45.86243" lon="4.88156">
        <ele>263</ele>
        <time>2012-01-08T09:44:13Z</time>
      </trkpt>
      <trkpt lat="45.86272" lon="4.88152">
        <ele>265</ele>
        <time>2012-01-08T09:44:20Z</time>
      </trkpt>
      <trkpt lat="45.86276" lon="4.88152">
        <ele>265</ele>
        <time>2012-01-08T09:44:21Z</time>
      </trkpt>
      <trkpt lat="45.86313" lon="4.88146">
        <ele>266</ele>
        <time>2012-01-08T09:44:30Z</time>
      </trkpt>
      <trkpt lat="45.86317" lon="4.88146">
        <ele>266</ele>
        <time>2012-01-08T09:44:31Z</time>
      </trkpt>
      <trkpt lat="45.86349" lon="4.88141">
        <ele>268</ele>
        <time>2012-01-08T09:44:39Z</time>
      </trkpt>
      <trkpt lat="45.86362" lon="4.8814">
        <ele>268</ele>
        <time>2012-01-08T09:44:42Z</time>
      </trkpt>
      <trkpt lat="45.86387" lon="4.88138">
        <ele>268</ele>
        <time>2012-01-08T09:44:48Z</time>
      </trkpt>
      <trkpt lat="45.86407" lon="4.88137">
        <ele>268</ele>
        <time>2012-01-08T09:44:53Z</time>
      </trkpt>
      <trkpt lat="45.86425" lon="4.88136">
        <ele>269</ele>
        <time>2012-01-08T09:44:57Z</time>
      </trkpt>
      <trkpt lat="45.86457" lon="4.88133">
        <ele>269</ele>
        <time>2012-01-08T09:45:04Z</time>
      </trkpt>
      <trkpt lat="45.86462" lon="4.88133">
        <ele>269</ele>
        <time>2012-01-08T09:45:05Z</time>
      </trkpt>
      <trkpt lat="45.86502" lon="4.88132">
        <ele>269</ele>
        <time>2012-01-08T09:45:13Z</time>
      </trkpt>
      <trkpt lat="45.86507" lon="4.88132">
        <ele>269</ele>
        <time>2012-01-08T09:45:14Z</time>
      </trkpt>
      <trkpt lat="45.86526" lon="4.88133">
        <ele>270</ele>
        <time>2012-01-08T09:45:18Z</time>
      </trkpt>
      <trkpt lat="45.86541" lon="4.88135">
        <ele>270</ele>
        <time>2012-01-08T09:45:21Z</time>
      </trkpt>
      <trkpt lat="45.86576" lon="4.88138">
        <ele>270</ele>
        <time>2012-01-08T09:45:29Z</time>
      </trkpt>
      <trkpt lat="45.8658" lon="4.88138">
        <ele>270</ele>
        <time>2012-01-08T09:45:30Z</time>
      </trkpt>
      <trkpt lat="45.86585" lon="4.88137">
        <ele>271</ele>
        <time>2012-01-08T09:45:31Z</time>
      </trkpt>
      <trkpt lat="45.86599" lon="4.88139">
        <ele>271</ele>
        <time>2012-01-08T09:45:34Z</time>
      </trkpt>
      <trkpt lat="45.86613" lon="4.88131">
        <ele>271</ele>
        <time>2012-01-08T09:45:38Z</time>
      </trkpt>
      <trkpt lat="45.86615" lon="4.88127">
        <ele>271</ele>
        <time>2012-01-08T09:45:39Z</time>
      </trkpt>
      <trkpt lat="45.86632" lon="4.88111">
        <ele>271</ele>
        <time>2012-01-08T09:45:44Z</time>
      </trkpt>
      <trkpt lat="45.86636" lon="4.88109">
        <ele>271</ele>
        <time>2012-01-08T09:45:45Z</time>
      </trkpt>
      <trkpt lat="45.86649" lon="4.88102">
        <ele>271</ele>
        <time>2012-01-08T09:45:48Z</time>
      </trkpt>
      <trkpt lat="45.86662" lon="4.88095">
        <ele>271</ele>
        <time>2012-01-08T09:45:51Z</time>
      </trkpt>
      <trkpt lat="45.86684" lon="4.88084">
        <ele>271</ele>
        <time>2012-01-08T09:45:56Z</time>
      </trkpt>
      <trkpt lat="45.86706" lon="4.88073">
        <ele>270</ele>
        <time>2012-01-08T09:46:01Z</time>
      </trkpt>
      <trkpt lat="45.86719" lon="4.88066">
        <ele>270</ele>
        <time>2012-01-08T09:46:04Z</time>
      </trkpt>
      <trkpt lat="45.86753" lon="4.88049">
        <ele>269</ele>
        <time>2012-01-08T09:46:11Z</time>
      </trkpt>
      <trkpt lat="45.86788" lon="4.88031">
        <ele>268</ele>
        <time>2012-01-08T09:46:17Z</time>
      </trkpt>
      <trkpt lat="45.86813" lon="4.88016">
        <ele>267</ele>
        <time>2012-01-08T09:46:21Z</time>
      </trkpt>
      <trkpt lat="45.86824" lon="4.88004">
        <ele>267</ele>
        <time>2012-01-08T09:46:23Z</time>
      </trkpt>
      <trkpt lat="45.86842" lon="4.87972">
        <ele>266</ele>
        <time>2012-01-08T09:46:27Z</time>
      </trkpt>
      <trkpt lat="45.86845" lon="4.87964">
        <ele>266</ele>
        <time>2012-01-08T09:46:28Z</time>
      </trkpt>
      <trkpt lat="45.86849" lon="4.87955">
        <ele>266</ele>
        <time>2012-01-08T09:46:29Z</time>
      </trkpt>
      <trkpt lat="45.86864" lon="4.87923">
        <ele>265</ele>
        <time>2012-01-08T09:46:33Z</time>
      </trkpt>
      <trkpt lat="45.86873" lon="4.87908">
        <ele>264</ele>
        <time>2012-01-08T09:46:35Z</time>
      </trkpt>
      <trkpt lat="45.86886" lon="4.87888">
        <ele>264</ele>
        <time>2012-01-08T09:46:38Z</time>
      </trkpt>
      <trkpt lat="45.86901" lon="4.8787">
        <ele>264</ele>
        <time>2012-01-08T09:46:42Z</time>
      </trkpt>
      <trkpt lat="45.86904" lon="4.87867">
        <ele>264</ele>
        <time>2012-01-08T09:46:43Z</time>
      </trkpt>
      <trkpt lat="45.86908" lon="4.8786">
        <ele>264</ele>
        <time>2012-01-08T09:46:47Z</time>
      </trkpt>
      <trkpt lat="45.86902" lon="4.8786">
        <ele>264</ele>
        <time>2012-01-08T09:46:51Z</time>
      </trkpt>
      <trkpt lat="45.86897" lon="4.87854">
        <ele>264</ele>
        <time>2012-01-08T09:46:53Z</time>
      </trkpt>
      <trkpt lat="45.86893" lon="4.8785">
        <ele>264</ele>
        <time>2012-01-08T09:46:54Z</time>
      </trkpt>
      <trkpt lat="45.8689" lon="4.87846">
        <ele>264</ele>
        <time>2012-01-08T09:46:55Z</time>
      </trkpt>
      <trkpt lat="45.86886" lon="4.87843">
        <ele>264</ele>
        <time>2012-01-08T09:46:56Z</time>
      </trkpt>
      <trkpt lat="45.86883" lon="4.87839">
        <ele>264</ele>
        <time>2012-01-08T09:46:57Z</time>
      </trkpt>
      <trkpt lat="45.86877" lon="4.8783">
        <ele>262</ele>
        <time>2012-01-08T09:46:59Z</time>
      </trkpt>
      <trkpt lat="45.86872" lon="4.87819">
        <ele>262</ele>
        <time>2012-01-08T09:47:01Z</time>
      </trkpt>
      <trkpt lat="45.86866" lon="4.87799">
        <ele>262</ele>
        <time>2012-01-08T09:47:04Z</time>
      </trkpt>
      <trkpt lat="45.86862" lon="4.87787">
        <ele>262</ele>
        <time>2012-01-08T09:47:06Z</time>
      </trkpt>
      <trkpt lat="45.86853" lon="4.87771">
        <ele>262</ele>
        <time>2012-01-08T09:47:09Z</time>
      </trkpt>
      <trkpt lat="45.86841" lon="4.87758">
        <ele>261</ele>
        <time>2012-01-08T09:47:12Z</time>
      </trkpt>
      <trkpt lat="45.86832" lon="4.8775">
        <ele>261</ele>
        <time>2012-01-08T09:47:14Z</time>
      </trkpt>
      <trkpt lat="45.86811" lon="4.87727">
        <ele>262</ele>
        <time>2012-01-08T09:47:19Z</time>
      </trkpt>
      <trkpt lat="45.86808" lon="4.87722">
        <ele>262</ele>
        <time>2012-01-08T09:47:20Z</time>
      </trkpt>
      <trkpt lat="45.86784" lon="4.8769">
        <ele>262</ele>
        <time>2012-01-08T09:47:26Z</time>
      </trkpt>
      <trkpt lat="45.8678" lon="4.87684">
        <ele>262</ele>
        <time>2012-01-08T09:47:27Z</time>
      </trkpt>
      <trkpt lat="45.86755" lon="4.87652">
        <ele>262</ele>
        <time>2012-01-08T09:47:33Z</time>
      </trkpt>
      <trkpt lat="45.86742" lon="4.87635">
        <ele>262</ele>
        <time>2012-01-08T09:47:36Z</time>
      </trkpt>
      <trkpt lat="45.86728" lon="4.87621">
        <ele>263</ele>
        <time>2012-01-08T09:47:39Z</time>
      </trkpt>
      <trkpt lat="45.86723" lon="4.87619">
        <ele>263</ele>
        <time>2012-01-08T09:47:40Z</time>
      </trkpt>
      <trkpt lat="45.86717" lon="4.87617">
        <ele>263</ele>
        <time>2012-01-08T09:47:41Z</time>
      </trkpt>
      <trkpt lat="45.86701" lon="4.87616">
        <ele>263</ele>
        <time>2012-01-08T09:47:44Z</time>
      </trkpt>
      <trkpt lat="45.86696" lon="4.87616">
        <ele>263</ele>
        <time>2012-01-08T09:47:45Z</time>
      </trkpt>
      <trkpt lat="45.86686" lon="4.87617">
        <ele>263</ele>
        <time>2012-01-08T09:47:47Z</time>
      </trkpt>
      <trkpt lat="45.86676" lon="4.8762">
        <ele>263</ele>
        <time>2012-01-08T09:47:49Z</time>
      </trkpt>
      <trkpt lat="45.86666" lon="4.87625">
        <ele>264</ele>
        <time>2012-01-08T09:47:51Z</time>
      </trkpt>
      <trkpt lat="45.86653" lon="4.87642">
        <ele>263</ele>
        <time>2012-01-08T09:47:54Z</time>
      </trkpt>
      <trkpt lat="45.8665" lon="4.87649">
        <ele>263</ele>
        <time>2012-01-08T09:47:55Z</time>
      </trkpt>
      <trkpt lat="45.86632" lon="4.8768">
        <ele>263</ele>
        <time>2012-01-08T09:48:00Z</time>
      </trkpt>
      <trkpt lat="45.86629" lon="4.87684">
        <ele>263</ele>
        <time>2012-01-08T09:48:01Z</time>
      </trkpt>
      <trkpt lat="45.86625" lon="4.87686">
        <ele>263</ele>
        <time>2012-01-08T09:48:02Z</time>
      </trkpt>
      <trkpt lat="45.86611" lon="4.87684">
        <ele>263</ele>
        <time>2012-01-08T09:48:06Z</time>
      </trkpt>
      <trkpt lat="45.86604" lon="4.87671">
        <ele>263</ele>
        <time>2012-01-08T09:48:10Z</time>
      </trkpt>
      <trkpt lat="45.86597" lon="4.87662">
        <ele>263</ele>
        <time>2012-01-08T09:48:13Z</time>
      </trkpt>
      <trkpt lat="45.86594" lon="4.87661">
        <ele>263</ele>
        <time>2012-01-08T09:48:14Z</time>
      </trkpt>
      <trkpt lat="45.86591" lon="4.8766">
        <ele>263</ele>
        <time>2012-01-08T09:48:15Z</time>
      </trkpt>
      <trkpt lat="45.86577" lon="4.87662">
        <ele>263</ele>
        <time>2012-01-08T09:48:20Z</time>
      </trkpt>
      <trkpt lat="45.86566" lon="4.87665">
        <ele>264</ele>
        <time>2012-01-08T09:48:24Z</time>
      </trkpt>
      <trkpt lat="45.86562" lon="4.87664">
        <ele>264</ele>
        <time>2012-01-08T09:48:25Z</time>
      </trkpt>
      <trkpt lat="45.86549" lon="4.8766">
        <ele>265</ele>
        <time>2012-01-08T09:48:28Z</time>
      </trkpt>
      <trkpt lat="45.86544" lon="4.87659">
        <ele>265</ele>
        <time>2012-01-08T09:48:29Z</time>
      </trkpt>
      <trkpt lat="45.8653" lon="4.87654">
        <ele>265</ele>
        <time>2012-01-08T09:48:32Z</time>
      </trkpt>
      <trkpt lat="45.86525" lon="4.87652">
        <ele>265</ele>
        <time>2012-01-08T09:48:33Z</time>
      </trkpt>
      <trkpt lat="45.86516" lon="4.87649">
        <ele>265</ele>
        <time>2012-01-08T09:48:35Z</time>
      </trkpt>
      <trkpt lat="45.86506" lon="4.87645">
        <ele>265</ele>
        <time>2012-01-08T09:48:37Z</time>
      </trkpt>
      <trkpt lat="45.86486" lon="4.8765">
        <ele>265</ele>
        <time>2012-01-08T09:48:41Z</time>
      </trkpt>
      <trkpt lat="45.86466" lon="4.87648">
        <ele>265</ele>
        <time>2012-01-08T09:48:45Z</time>
      </trkpt>
      <trkpt lat="45.86461" lon="4.87652">
        <ele>265</ele>
        <time>2012-01-08T09:48:48Z</time>
      </trkpt>
      <trkpt lat="45.86454" lon="4.87648">
        <ele>265</ele>
        <time>2012-01-08T09:48:52Z</time>
      </trkpt>
      <trkpt lat="45.86448" lon="4.87651">
        <ele>264</ele>
        <time>2012-01-08T09:48:55Z</time>
      </trkpt>
      <trkpt lat="45.86443" lon="4.87655">
        <ele>264</ele>
        <time>2012-01-08T09:48:57Z</time>
      </trkpt>
      <trkpt lat="45.86438" lon="4.87656">
        <ele>264</ele>
        <time>2012-01-08T09:48:59Z</time>
      </trkpt>
      <trkpt lat="45.86433" lon="4.87654">
        <ele>263</ele>
        <time>2012-01-08T09:49:01Z</time>
      </trkpt>
      <trkpt lat="45.86412" lon="4.87653">
        <ele>262</ele>
        <time>2012-01-08T09:49:07Z</time>
      </trkpt>
      <trkpt lat="45.86404" lon="4.87654">
        <ele>262</ele>
        <time>2012-01-08T09:49:09Z</time>
      </trkpt>
      <trkpt lat="45.864" lon="4.8766">
        <ele>262</ele>
        <time>2012-01-08T09:49:11Z</time>
      </trkpt>
      <trkpt lat="45.8639" lon="4.87678">
        <ele>262</ele>
        <time>2012-01-08T09:49:16Z</time>
      </trkpt>
      <trkpt lat="45.86382" lon="4.87679">
        <ele>262</ele>
        <time>2012-01-08T09:49:19Z</time>
      </trkpt>
      <trkpt lat="45.86379" lon="4.87678">
        <ele>262</ele>
        <time>2012-01-08T09:49:20Z</time>
      </trkpt>
      <trkpt lat="45.86375" lon="4.87675">
        <ele>262</ele>
        <time>2012-01-08T09:49:24Z</time>
      </trkpt>
      <trkpt lat="45.86367" lon="4.87669">
        <ele>262</ele>
        <time>2012-01-08T09:49:49Z</time>
      </trkpt>
      <trkpt lat="45.86367" lon="4.87667">
        <ele>262</ele>
        <time>2012-01-08T09:49:50Z</time>
      </trkpt>
      <trkpt lat="45.86365" lon="4.87664">
        <ele>262</ele>
        <time>2012-01-08T09:49:52Z</time>
      </trkpt>
      <trkpt lat="45.86361" lon="4.87662">
        <ele>262</ele>
        <time>2012-01-08T09:49:54Z</time>
      </trkpt>
      <trkpt lat="45.86353" lon="4.87656">
        <ele>262</ele>
        <time>2012-01-08T09:49:57Z</time>
      </trkpt>
      <trkpt lat="45.86349" lon="4.87654">
        <ele>262</ele>
        <time>2012-01-08T09:49:59Z</time>
      </trkpt>
      <trkpt lat="45.86335" lon="4.87649">
        <ele>262</ele>
        <time>2012-01-08T09:50:04Z</time>
      </trkpt>
      <trkpt lat="45.86333" lon="4.8765">
        <ele>261</ele>
        <time>2012-01-08T09:50:05Z</time>
      </trkpt>
      <trkpt lat="45.86326" lon="4.8765">
        <ele>261</ele>
        <time>2012-01-08T09:50:08Z</time>
      </trkpt>
      <trkpt lat="45.86324" lon="4.8765">
        <ele>261</ele>
        <time>2012-01-08T09:50:09Z</time>
      </trkpt>
      <trkpt lat="45.86314" lon="4.87649">
        <ele>262</ele>
        <time>2012-01-08T09:50:13Z</time>
      </trkpt>
      <trkpt lat="45.86311" lon="4.8765">
        <ele>262</ele>
        <time>2012-01-08T09:50:14Z</time>
      </trkpt>
      <trkpt lat="45.86303" lon="4.8765">
        <ele>262</ele>
        <time>2012-01-08T09:50:18Z</time>
      </trkpt>
      <trkpt lat="45.86303" lon="4.87649">
        <ele>262</ele>
        <time>2012-01-08T09:50:19Z</time>
      </trkpt>
      <trkpt lat="45.86293" lon="4.87642">
        <ele>262</ele>
        <time>2012-01-08T09:50:26Z</time>
      </trkpt>
      <trkpt lat="45.86283" lon="4.87632">
        <ele>262</ele>
        <time>2012-01-08T09:50:31Z</time>
      </trkpt>
      <trkpt lat="45.86281" lon="4.8763">
        <ele>262</ele>
        <time>2012-01-08T09:50:32Z</time>
      </trkpt>
      <trkpt lat="45.86279" lon="4.87628">
        <ele>262</ele>
        <time>2012-01-08T09:50:33Z</time>
      </trkpt>
      <trkpt lat="45.86274" lon="4.87628">
        <ele>262</ele>
        <time>2012-01-08T09:50:35Z</time>
      </trkpt>
      <trkpt lat="45.86265" lon="4.87632">
        <ele>262</ele>
        <time>2012-01-08T09:50:39Z</time>
      </trkpt>
      <trkpt lat="45.86253" lon="4.87637">
        <ele>262</ele>
        <time>2012-01-08T09:50:43Z</time>
      </trkpt>
      <trkpt lat="45.86248" lon="4.87634">
        <ele>261</ele>
        <time>2012-01-08T09:50:45Z</time>
      </trkpt>
      <trkpt lat="45.86241" lon="4.87631">
        <ele>260</ele>
        <time>2012-01-08T09:50:47Z</time>
      </trkpt>
      <trkpt lat="45.86238" lon="4.87629">
        <ele>260</ele>
        <time>2012-01-08T09:50:49Z</time>
      </trkpt>
      <trkpt lat="45.86233" lon="4.87624">
        <ele>260</ele>
        <time>2012-01-08T09:50:53Z</time>
      </trkpt>
      <trkpt lat="45.86229" lon="4.87622">
        <ele>260</ele>
        <time>2012-01-08T09:50:55Z</time>
      </trkpt>
      <trkpt lat="45.86223" lon="4.8762">
        <ele>260</ele>
        <time>2012-01-08T09:50:57Z</time>
      </trkpt>
      <trkpt lat="45.86211" lon="4.87619">
        <ele>260</ele>
        <time>2012-01-08T09:51:00Z</time>
      </trkpt>
      <trkpt lat="45.86207" lon="4.8762">
        <ele>259</ele>
        <time>2012-01-08T09:51:01Z</time>
      </trkpt>
      <trkpt lat="45.86193" lon="4.87626">
        <ele>259</ele>
        <time>2012-01-08T09:51:04Z</time>
      </trkpt>
      <trkpt lat="45.86187" lon="4.87628">
        <ele>259</ele>
        <time>2012-01-08T09:51:05Z</time>
      </trkpt>
      <trkpt lat="45.86177" lon="4.87633">
        <ele>259</ele>
        <time>2012-01-08T09:51:07Z</time>
      </trkpt>
      <trkpt lat="45.86167" lon="4.87639">
        <ele>258</ele>
        <time>2012-01-08T09:51:09Z</time>
      </trkpt>
      <trkpt lat="45.86146" lon="4.87654">
        <ele>255</ele>
        <time>2012-01-08T09:51:13Z</time>
      </trkpt>
      <trkpt lat="45.86139" lon="4.87657">
        <ele>255</ele>
        <time>2012-01-08T09:51:14Z</time>
      </trkpt>
      <trkpt lat="45.86115" lon="4.87664">
        <ele>254</ele>
        <time>2012-01-08T09:51:18Z</time>
      </trkpt>
      <trkpt lat="45.8611" lon="4.87665">
        <ele>254</ele>
        <time>2012-01-08T09:51:19Z</time>
      </trkpt>
      <trkpt lat="45.861" lon="4.87669">
        <ele>254</ele>
        <time>2012-01-08T09:51:21Z</time>
      </trkpt>
      <trkpt lat="45.86096" lon="4.87671">
        <ele>254</ele>
        <time>2012-01-08T09:51:22Z</time>
      </trkpt>
      <trkpt lat="45.86079" lon="4.87674">
        <ele>253</ele>
        <time>2012-01-08T09:51:26Z</time>
      </trkpt>
      <trkpt lat="45.86073" lon="4.87673">
        <ele>253</ele>
        <time>2012-01-08T09:51:28Z</time>
      </trkpt>
      <trkpt lat="45.86067" lon="4.87672">
        <ele>253</ele>
        <time>2012-01-08T09:51:30Z</time>
      </trkpt>
      <trkpt lat="45.86062" lon="4.87671">
        <ele>253</ele>
        <time>2012-01-08T09:51:32Z</time>
      </trkpt>
      <trkpt lat="45.86054" lon="4.87676">
        <ele>253</ele>
        <time>2012-01-08T09:51:36Z</time>
      </trkpt>
      <trkpt lat="45.86051" lon="4.87681">
        <ele>253</ele>
        <time>2012-01-08T09:51:39Z</time>
      </trkpt>
      <trkpt lat="45.86048" lon="4.87685">
        <ele>253</ele>
        <time>2012-01-08T09:51:42Z</time>
      </trkpt>
      <trkpt lat="45.86045" lon="4.87693">
        <ele>253</ele>
        <time>2012-01-08T09:51:48Z</time>
      </trkpt>
      <trkpt lat="45.86044" lon="4.87693">
        <ele>253</ele>
        <time>2012-01-08T09:51:53Z</time>
      </trkpt>
      <trkpt lat="45.86043" lon="4.87693">
        <ele>253</ele>
        <time>2012-01-08T09:52:00Z</time>
      </trkpt>
      <trkpt lat="45.8604" lon="4.87699">
        <ele>253</ele>
        <time>2012-01-08T09:53:13Z</time>
      </trkpt>
      <trkpt lat="45.86028" lon="4.87717">
        <ele>253</ele>
        <time>2012-01-08T09:53:19Z</time>
      </trkpt>
      <trkpt lat="45.86014" lon="4.87737">
        <ele>253</ele>
        <time>2012-01-08T09:53:25Z</time>
      </trkpt>
      <trkpt lat="45.85991" lon="4.87773">
        <ele>255</ele>
        <time>2012-01-08T09:53:34Z</time>
      </trkpt>
      <trkpt lat="45.85989" lon="4.87777">
        <ele>255</ele>
        <time>2012-01-08T09:53:35Z</time>
      </trkpt>
      <trkpt lat="45.85968" lon="4.87815">
        <ele>255</ele>
        <time>2012-01-08T09:53:43Z</time>
      </trkpt>
      <trkpt lat="45.85965" lon="4.8782">
        <ele>255</ele>
        <time>2012-01-08T09:53:44Z</time>
      </trkpt>
      <trkpt lat="45.85957" lon="4.87835">
        <ele>256</ele>
        <time>2012-01-08T09:53:47Z</time>
      </trkpt>
      <trkpt lat="45.85946" lon="4.87854">
        <ele>256</ele>
        <time>2012-01-08T09:53:51Z</time>
      </trkpt>
      <trkpt lat="45.85941" lon="4.87863">
        <ele>256</ele>
        <time>2012-01-08T09:53:53Z</time>
      </trkpt>
      <trkpt lat="45.85925" lon="4.87892">
        <ele>256</ele>
        <time>2012-01-08T09:53:59Z</time>
      </trkpt>
      <trkpt lat="45.85922" lon="4.87897">
        <ele>256</ele>
        <time>2012-01-08T09:54:00Z</time>
      </trkpt>
      <trkpt lat="45.85917" lon="4.87907">
        <ele>257</ele>
        <time>2012-01-08T09:54:02Z</time>
      </trkpt>
      <trkpt lat="45.8591" lon="4.87921">
        <ele>257</ele>
        <time>2012-01-08T09:54:05Z</time>
      </trkpt>
      <trkpt lat="45.85899" lon="4.8793">
        <ele>258</ele>
        <time>2012-01-08T09:54:09Z</time>
      </trkpt>
      <trkpt lat="45.85888" lon="4.87919">
        <ele>258</ele>
        <time>2012-01-08T09:54:14Z</time>
      </trkpt>
      <trkpt lat="45.85867" lon="4.87894">
        <ele>258</ele>
        <time>2012-01-08T09:54:21Z</time>
      </trkpt>
      <trkpt lat="45.85858" lon="4.87883">
        <ele>258</ele>
        <time>2012-01-08T09:54:24Z</time>
      </trkpt>
      <trkpt lat="45.85838" lon="4.87858">
        <ele>258</ele>
        <time>2012-01-08T09:54:30Z</time>
      </trkpt>
      <trkpt lat="45.8583" lon="4.87849">
        <ele>258</ele>
        <time>2012-01-08T09:54:32Z</time>
      </trkpt>
      <trkpt lat="45.85816" lon="4.87833">
        <ele>258</ele>
        <time>2012-01-08T09:54:36Z</time>
      </trkpt>
      <trkpt lat="45.85801" lon="4.8782">
        <ele>258</ele>
        <time>2012-01-08T09:54:40Z</time>
      </trkpt>
      <trkpt lat="45.85788" lon="4.87811">
        <ele>259</ele>
        <time>2012-01-08T09:54:43Z</time>
      </trkpt>
      <trkpt lat="45.85766" lon="4.878">
        <ele>259</ele>
        <time>2012-01-08T09:54:48Z</time>
      </trkpt>
      <trkpt lat="45.85744" lon="4.87788">
        <ele>259</ele>
        <time>2012-01-08T09:54:53Z</time>
      </trkpt>
      <trkpt lat="45.8573" lon="4.87781">
        <ele>259</ele>
        <time>2012-01-08T09:54:56Z</time>
      </trkpt>
      <trkpt lat="45.85709" lon="4.87769">
        <ele>259</ele>
        <time>2012-01-08T09:55:01Z</time>
      </trkpt>
      <trkpt lat="45.85693" lon="4.87762">
        <ele>260</ele>
        <time>2012-01-08T09:55:05Z</time>
      </trkpt>
      <trkpt lat="45.85683" lon="4.87757">
        <ele>260</ele>
        <time>2012-01-08T09:55:08Z</time>
      </trkpt>
      <trkpt lat="45.85673" lon="4.87747">
        <ele>260</ele>
        <time>2012-01-08T09:55:13Z</time>
      </trkpt>
      <trkpt lat="45.85671" lon="4.87727">
        <ele>260</ele>
        <time>2012-01-08T09:55:19Z</time>
      </trkpt>
      <trkpt lat="45.85667" lon="4.87698">
        <ele>260</ele>
        <time>2012-01-08T09:55:24Z</time>
      </trkpt>
      <trkpt lat="45.85664" lon="4.87672">
        <ele>261</ele>
        <time>2012-01-08T09:55:28Z</time>
      </trkpt>
      <trkpt lat="45.8566" lon="4.87645">
        <ele>261</ele>
        <time>2012-01-08T09:55:32Z</time>
      </trkpt>
      <trkpt lat="45.85657" lon="4.87616">
        <ele>261</ele>
        <time>2012-01-08T09:55:36Z</time>
      </trkpt>
      <trkpt lat="45.85654" lon="4.87587">
        <ele>262</ele>
        <time>2012-01-08T09:55:40Z</time>
      </trkpt>
      <trkpt lat="45.85651" lon="4.87565">
        <ele>262</ele>
        <time>2012-01-08T09:55:43Z</time>
      </trkpt>
      <trkpt lat="45.85646" lon="4.87513">
        <ele>263</ele>
        <time>2012-01-08T09:55:50Z</time>
      </trkpt>
      <trkpt lat="45.85645" lon="4.87505">
        <ele>263</ele>
        <time>2012-01-08T09:55:51Z</time>
      </trkpt>
      <trkpt lat="45.85642" lon="4.87457">
        <ele>262</ele>
        <time>2012-01-08T09:55:57Z</time>
      </trkpt>
      <trkpt lat="45.85641" lon="4.87442">
        <ele>262</ele>
        <time>2012-01-08T09:55:59Z</time>
      </trkpt>
      <trkpt lat="45.8564" lon="4.87402">
        <ele>262</ele>
        <time>2012-01-08T09:56:04Z</time>
      </trkpt>
      <trkpt lat="45.8564" lon="4.87394">
        <ele>262</ele>
        <time>2012-01-08T09:56:05Z</time>
      </trkpt>
      <trkpt lat="45.85643" lon="4.87347">
        <ele>261</ele>
        <time>2012-01-08T09:56:11Z</time>
      </trkpt>
      <trkpt lat="45.85644" lon="4.87339">
        <ele>261</ele>
        <time>2012-01-08T09:56:12Z</time>
      </trkpt>
      <trkpt lat="45.85646" lon="4.8729">
        <ele>262</ele>
        <time>2012-01-08T09:56:18Z</time>
      </trkpt>
      <trkpt lat="45.85647" lon="4.87274">
        <ele>262</ele>
        <time>2012-01-08T09:56:20Z</time>
      </trkpt>
      <trkpt lat="45.85649" lon="4.87234">
        <ele>262</ele>
        <time>2012-01-08T09:56:25Z</time>
      </trkpt>
      <trkpt lat="45.8565" lon="4.87211">
        <ele>262</ele>
        <time>2012-01-08T09:56:28Z</time>
      </trkpt>
      <trkpt lat="45.85653" lon="4.87175">
        <ele>262</ele>
        <time>2012-01-08T09:56:33Z</time>
      </trkpt>
      <trkpt lat="45.85655" lon="4.87154">
        <ele>262</ele>
        <time>2012-01-08T09:56:36Z</time>
      </trkpt>
      <trkpt lat="45.85658" lon="4.87122">
        <ele>261</ele>
        <time>2012-01-08T09:56:40Z</time>
      </trkpt>
      <trkpt lat="45.85659" lon="4.871">
        <ele>260</ele>
        <time>2012-01-08T09:56:43Z</time>
      </trkpt>
      <trkpt lat="45.8566" lon="4.87083">
        <ele>259</ele>
        <time>2012-01-08T09:56:47Z</time>
      </trkpt>
      <trkpt lat="45.85659" lon="4.87076">
        <ele>259</ele>
        <time>2012-01-08T09:56:50Z</time>
      </trkpt>
      <trkpt lat="45.85658" lon="4.87077">
        <ele>259</ele>
        <time>2012-01-08T09:56:52Z</time>
      </trkpt>
      <trkpt lat="45.85661" lon="4.87079">
        <ele>259</ele>
        <time>2012-01-08T09:56:56Z</time>
      </trkpt>
      <trkpt lat="45.85661" lon="4.87067">
        <ele>259</ele>
        <time>2012-01-08T09:56:59Z</time>
      </trkpt>
      <trkpt lat="45.85661" lon="4.87063">
        <ele>259</ele>
        <time>2012-01-08T09:57:00Z</time>
      </trkpt>
      <trkpt lat="45.8566" lon="4.87028">
        <ele>259</ele>
        <time>2012-01-08T09:57:07Z</time>
      </trkpt>
      <trkpt lat="45.85661" lon="4.87013">
        <ele>259</ele>
        <time>2012-01-08T09:57:11Z</time>
      </trkpt>
      <trkpt lat="45.85662" lon="4.87011">
        <ele>259</ele>
        <time>2012-01-08T09:57:12Z</time>
      </trkpt>
      <trkpt lat="45.85665" lon="4.87009">
        <ele>259</ele>
        <time>2012-01-08T09:57:17Z</time>
      </trkpt>
      <trkpt lat="45.85673" lon="4.87007">
        <ele>258</ele>
        <time>2012-01-08T09:57:32Z</time>
      </trkpt>
      <trkpt lat="45.85686" lon="4.87004">
        <ele>258</ele>
        <time>2012-01-08T09:57:36Z</time>
      </trkpt>
      <trkpt lat="45.8569" lon="4.87003">
        <ele>258</ele>
        <time>2012-01-08T09:57:37Z</time>
      </trkpt>
      <trkpt lat="45.85715" lon="4.86996">
        <ele>256</ele>
        <time>2012-01-08T09:57:42Z</time>
      </trkpt>
      <trkpt lat="45.85725" lon="4.86993">
        <ele>256</ele>
        <time>2012-01-08T09:57:44Z</time>
      </trkpt>
      <trkpt lat="45.85744" lon="4.86987">
        <ele>256</ele>
        <time>2012-01-08T09:57:47Z</time>
      </trkpt>
      <trkpt lat="45.85764" lon="4.86981">
        <ele>253</ele>
        <time>2012-01-08T09:57:50Z</time>
      </trkpt>
      <trkpt lat="45.85787" lon="4.86974">
        <ele>252</ele>
        <time>2012-01-08T09:57:53Z</time>
      </trkpt>
      <trkpt lat="45.85802" lon="4.86968">
        <ele>251</ele>
        <time>2012-01-08T09:57:55Z</time>
      </trkpt>
      <trkpt lat="45.85835" lon="4.86959">
        <ele>246</ele>
        <time>2012-01-08T09:57:59Z</time>
      </trkpt>
      <trkpt lat="45.85843" lon="4.86957">
        <ele>246</ele>
        <time>2012-01-08T09:58:00Z</time>
      </trkpt>
      <trkpt lat="45.85863" lon="4.86953">
        <ele>245</ele>
        <time>2012-01-08T09:58:03Z</time>
      </trkpt>
      <trkpt lat="45.85881" lon="4.86952">
        <ele>245</ele>
        <time>2012-01-08T09:58:07Z</time>
      </trkpt>
      <trkpt lat="45.85884" lon="4.86954">
        <ele>245</ele>
        <time>2012-01-08T09:58:08Z</time>
      </trkpt>
      <trkpt lat="45.85893" lon="4.86961">
        <ele>244</ele>
        <time>2012-01-08T09:58:11Z</time>
      </trkpt>
      <trkpt lat="45.85905" lon="4.86974">
        <ele>244</ele>
        <time>2012-01-08T09:58:15Z</time>
      </trkpt>
      <trkpt lat="45.85907" lon="4.86984">
        <ele>244</ele>
        <time>2012-01-08T09:58:19Z</time>
      </trkpt>
      <trkpt lat="45.85911" lon="4.86986">
        <ele>244</ele>
        <time>2012-01-08T09:58:21Z</time>
      </trkpt>
      <trkpt lat="45.85913" lon="4.86988">
        <ele>244</ele>
        <time>2012-01-08T09:58:22Z</time>
      </trkpt>
      <trkpt lat="45.8592" lon="4.8699">
        <ele>244</ele>
        <time>2012-01-08T09:58:25Z</time>
      </trkpt>
      <trkpt lat="45.85936" lon="4.86988">
        <ele>246</ele>
        <time>2012-01-08T09:58:30Z</time>
      </trkpt>
      <trkpt lat="45.85946" lon="4.86985">
        <ele>247</ele>
        <time>2012-01-08T09:58:33Z</time>
      </trkpt>
      <trkpt lat="45.85959" lon="4.86982">
        <ele>248</ele>
        <time>2012-01-08T09:58:37Z</time>
      </trkpt>
      <trkpt lat="45.85977" lon="4.86977">
        <ele>249</ele>
        <time>2012-01-08T09:58:42Z</time>
      </trkpt>
      <trkpt lat="45.85984" lon="4.86976">
        <ele>249</ele>
        <time>2012-01-08T09:58:44Z</time>
      </trkpt>
      <trkpt lat="45.85992" lon="4.86975">
        <ele>250</ele>
        <time>2012-01-08T09:58:47Z</time>
      </trkpt>
      <trkpt lat="45.86002" lon="4.86973">
        <ele>258</ele>
        <time>2012-01-08T09:58:51Z</time>
      </trkpt>
      <trkpt lat="45.86012" lon="4.86974">
        <ele>258</ele>
        <time>2012-01-08T09:58:56Z</time>
      </trkpt>
      <trkpt lat="45.8602" lon="4.86972">
        <ele>259</ele>
        <time>2012-01-08T09:59:00Z</time>
      </trkpt>
      <trkpt lat="45.86022" lon="4.86972">
        <ele>259</ele>
        <time>2012-01-08T09:59:01Z</time>
      </trkpt>
      <trkpt lat="45.86026" lon="4.8697">
        <ele>260</ele>
        <time>2012-01-08T09:59:03Z</time>
      </trkpt>
      <trkpt lat="45.8603" lon="4.86969">
        <ele>260</ele>
        <time>2012-01-08T09:59:05Z</time>
      </trkpt>
      <trkpt lat="45.86043" lon="4.86972">
        <ele>262</ele>
        <time>2012-01-08T09:59:11Z</time>
      </trkpt>
      <trkpt lat="45.86055" lon="4.86977">
        <ele>263</ele>
        <time>2012-01-08T09:59:17Z</time>
      </trkpt>
      <trkpt lat="45.86058" lon="4.86979">
        <ele>263</ele>
        <time>2012-01-08T09:59:19Z</time>
      </trkpt>
      <trkpt lat="45.86065" lon="4.86979">
        <ele>264</ele>
        <time>2012-01-08T09:59:23Z</time>
      </trkpt>
      <trkpt lat="45.86073" lon="4.8698">
        <ele>265</ele>
        <time>2012-01-08T09:59:28Z</time>
      </trkpt>
      <trkpt lat="45.86084" lon="4.86982">
        <ele>272</ele>
        <time>2012-01-08T09:59:35Z</time>
      </trkpt>
      <trkpt lat="45.86087" lon="4.86983">
        <ele>272</ele>
        <time>2012-01-08T09:59:37Z</time>
      </trkpt>
      <trkpt lat="45.8609" lon="4.86988">
        <ele>271</ele>
        <time>2012-01-08T09:59:41Z</time>
      </trkpt>
      <trkpt lat="45.86093" lon="4.8699">
        <ele>271</ele>
        <time>2012-01-08T09:59:43Z</time>
      </trkpt>
      <trkpt lat="45.86096" lon="4.86989">
        <ele>272</ele>
        <time>2012-01-08T09:59:48Z</time>
      </trkpt>
      <trkpt lat="45.86105" lon="4.86987">
        <ele>273</ele>
        <time>2012-01-08T10:00:07Z</time>
      </trkpt>
      <trkpt lat="45.86114" lon="4.86992">
        <ele>274</ele>
        <time>2012-01-08T10:00:14Z</time>
      </trkpt>
      <trkpt lat="45.86119" lon="4.86992">
        <ele>275</ele>
        <time>2012-01-08T10:00:22Z</time>
      </trkpt>
      <trkpt lat="45.86123" lon="4.86994">
        <ele>275</ele>
        <time>2012-01-08T10:00:29Z</time>
      </trkpt>
      <trkpt lat="45.86125" lon="4.86993">
        <ele>275</ele>
        <time>2012-01-08T10:00:35Z</time>
      </trkpt>
      <trkpt lat="45.86127" lon="4.86994">
        <ele>275</ele>
        <time>2012-01-08T10:00:37Z</time>
      </trkpt>
      <trkpt lat="45.86131" lon="4.86994">
        <ele>276</ele>
        <time>2012-01-08T10:00:42Z</time>
      </trkpt>
      <trkpt lat="45.86138" lon="4.86998">
        <ele>276</ele>
        <time>2012-01-08T10:00:50Z</time>
      </trkpt>
      <trkpt lat="45.86144" lon="4.86999">
        <ele>277</ele>
        <time>2012-01-08T10:00:57Z</time>
      </trkpt>
      <trkpt lat="45.86146" lon="4.87002">
        <ele>278</ele>
        <time>2012-01-08T10:01:04Z</time>
      </trkpt>
      <trkpt lat="45.8615" lon="4.87006">
        <ele>278</ele>
        <time>2012-01-08T10:01:09Z</time>
      </trkpt>
      <trkpt lat="45.86153" lon="4.8701">
        <ele>278</ele>
        <time>2012-01-08T10:01:14Z</time>
      </trkpt>
      <trkpt lat="45.86156" lon="4.87012">
        <ele>279</ele>
        <time>2012-01-08T10:01:22Z</time>
      </trkpt>
      <trkpt lat="45.8616" lon="4.87012">
        <ele>279</ele>
        <time>2012-01-08T10:01:29Z</time>
      </trkpt>
      <trkpt lat="45.86162" lon="4.87013">
        <ele>279</ele>
        <time>2012-01-08T10:01:31Z</time>
      </trkpt>
      <trkpt lat="45.86166" lon="4.87014">
        <ele>279</ele>
        <time>2012-01-08T10:01:35Z</time>
      </trkpt>
      <trkpt lat="45.86172" lon="4.87019">
        <ele>282</ele>
        <time>2012-01-08T10:01:41Z</time>
      </trkpt>
      <trkpt lat="45.86176" lon="4.8702">
        <ele>282</ele>
        <time>2012-01-08T10:01:46Z</time>
      </trkpt>
      <trkpt lat="45.86183" lon="4.87017">
        <ele>282</ele>
        <time>2012-01-08T10:01:55Z</time>
      </trkpt>
      <trkpt lat="45.86189" lon="4.87021">
        <ele>283</ele>
        <time>2012-01-08T10:02:07Z</time>
      </trkpt>
      <trkpt lat="45.86193" lon="4.87025">
        <ele>283</ele>
        <time>2012-01-08T10:02:14Z</time>
      </trkpt>
      <trkpt lat="45.86195" lon="4.87027">
        <ele>283</ele>
        <time>2012-01-08T10:02:18Z</time>
      </trkpt>
      <trkpt lat="45.86198" lon="4.87029">
        <ele>283</ele>
        <time>2012-01-08T10:02:22Z</time>
      </trkpt>
      <trkpt lat="45.86203" lon="4.87035">
        <ele>284</ele>
        <time>2012-01-08T10:02:30Z</time>
      </trkpt>
      <trkpt lat="45.86207" lon="4.87041">
        <ele>284</ele>
        <time>2012-01-08T10:02:37Z</time>
      </trkpt>
      <trkpt lat="45.8621" lon="4.87046">
        <ele>284</ele>
        <time>2012-01-08T10:02:43Z</time>
      </trkpt>
      <trkpt lat="45.86212" lon="4.8705">
        <ele>284</ele>
        <time>2012-01-08T10:02:48Z</time>
      </trkpt>
      <trkpt lat="45.86215" lon="4.87054">
        <ele>284</ele>
        <time>2012-01-08T10:02:54Z</time>
      </trkpt>
      <trkpt lat="45.86222" lon="4.87057">
        <ele>284</ele>
        <time>2012-01-08T10:03:21Z</time>
      </trkpt>
      <trkpt lat="45.86236" lon="4.87062">
        <ele>285</ele>
        <time>2012-01-08T10:03:29Z</time>
      </trkpt>
      <trkpt lat="45.86249" lon="4.87068">
        <ele>285</ele>
        <time>2012-01-08T10:03:37Z</time>
      </trkpt>
      <trkpt lat="45.86254" lon="4.87067">
        <ele>287</ele>
        <time>2012-01-08T10:03:40Z</time>
      </trkpt>
      <trkpt lat="45.86255" lon="4.87063">
        <ele>287</ele>
        <time>2012-01-08T10:03:42Z</time>
      </trkpt>
      <trkpt lat="45.86256" lon="4.87057">
        <ele>287</ele>
        <time>2012-01-08T10:03:44Z</time>
      </trkpt>
      <trkpt lat="45.86256" lon="4.87047">
        <ele>287</ele>
        <time>2012-01-08T10:03:47Z</time>
      </trkpt>
      <trkpt lat="45.86256" lon="4.87019">
        <ele>287</ele>
        <time>2012-01-08T10:03:55Z</time>
      </trkpt>
      <trkpt lat="45.86255" lon="4.87011">
        <ele>287</ele>
        <time>2012-01-08T10:03:57Z</time>
      </trkpt>
      <trkpt lat="45.86255" lon="4.8699">
        <ele>287</ele>
        <time>2012-01-08T10:04:03Z</time>
      </trkpt>
      <trkpt lat="45.86257" lon="4.8696">
        <ele>288</ele>
        <time>2012-01-08T10:04:11Z</time>
      </trkpt>
      <trkpt lat="45.86258" lon="4.86956">
        <ele>288</ele>
        <time>2012-01-08T10:04:12Z</time>
      </trkpt>
      <trkpt lat="45.86268" lon="4.86922">
        <ele>288</ele>
        <time>2012-01-08T10:04:20Z</time>
      </trkpt>
      <trkpt lat="45.86272" lon="4.86908">
        <ele>288</ele>
        <time>2012-01-08T10:04:23Z</time>
      </trkpt>
      <trkpt lat="45.86281" lon="4.8688">
        <ele>288</ele>
        <time>2012-01-08T10:04:29Z</time>
      </trkpt>
      <trkpt lat="45.86288" lon="4.86861">
        <ele>288</ele>
        <time>2012-01-08T10:04:33Z</time>
      </trkpt>
      <trkpt lat="45.8629" lon="4.86851">
        <ele>288</ele>
        <time>2012-01-08T10:04:35Z</time>
      </trkpt>
      <trkpt lat="45.86296" lon="4.8682">
        <ele>288</ele>
        <time>2012-01-08T10:04:42Z</time>
      </trkpt>
      <trkpt lat="45.86299" lon="4.8681">
        <ele>288</ele>
        <time>2012-01-08T10:04:44Z</time>
      </trkpt>
      <trkpt lat="45.86307" lon="4.86785">
        <ele>289</ele>
        <time>2012-01-08T10:04:49Z</time>
      </trkpt>
      <trkpt lat="45.86313" lon="4.86758">
        <ele>289</ele>
        <time>2012-01-08T10:04:55Z</time>
      </trkpt>
      <trkpt lat="45.86315" lon="4.8675">
        <ele>289</ele>
        <time>2012-01-08T10:04:57Z</time>
      </trkpt>
      <trkpt lat="45.86319" lon="4.8673">
        <ele>288</ele>
        <time>2012-01-08T10:05:03Z</time>
      </trkpt>
      <trkpt lat="45.86323" lon="4.86722">
        <ele>288</ele>
        <time>2012-01-08T10:05:08Z</time>
      </trkpt>
      <trkpt lat="45.86323" lon="4.86719">
        <ele>288</ele>
        <time>2012-01-08T10:06:44Z</time>
      </trkpt>
      <trkpt lat="45.86321" lon="4.86712">
        <ele>288</ele>
        <time>2012-01-08T10:06:47Z</time>
      </trkpt>
      <trkpt lat="45.86321" lon="4.8671">
        <ele>288</ele>
        <time>2012-01-08T10:06:48Z</time>
      </trkpt>
      <trkpt lat="45.86323" lon="4.86701">
        <ele>288</ele>
        <time>2012-01-08T10:06:51Z</time>
      </trkpt>
      <trkpt lat="45.86324" lon="4.8669">
        <ele>288</ele>
        <time>2012-01-08T10:06:54Z</time>
      </trkpt>
      <trkpt lat="45.86326" lon="4.86684">
        <ele>288</ele>
        <time>2012-01-08T10:06:56Z</time>
      </trkpt>
      <trkpt lat="45.8633" lon="4.86667">
        <ele>289</ele>
        <time>2012-01-08T10:07:02Z</time>
      </trkpt>
      <trkpt lat="45.86331" lon="4.86662">
        <ele>288</ele>
        <time>2012-01-08T10:07:04Z</time>
      </trkpt>
      <trkpt lat="45.86335" lon="4.86645">
        <ele>288</ele>
        <time>2012-01-08T10:07:10Z</time>
      </trkpt>
      <trkpt lat="45.86336" lon="4.86643">
        <ele>288</ele>
        <time>2012-01-08T10:07:14Z</time>
      </trkpt>
      <trkpt lat="45.86336" lon="4.86645">
        <ele>288</ele>
        <time>2012-01-08T10:07:20Z</time>
      </trkpt>
      <trkpt lat="45.86334" lon="4.86651">
        <ele>288</ele>
        <time>2012-01-08T10:07:24Z</time>
      </trkpt>
      <trkpt lat="45.86329" lon="4.86671">
        <ele>289</ele>
        <time>2012-01-08T10:07:30Z</time>
      </trkpt>
      <trkpt lat="45.86328" lon="4.86675">
        <ele>289</ele>
        <time>2012-01-08T10:07:31Z</time>
      </trkpt>
      <trkpt lat="45.86325" lon="4.86699">
        <ele>288</ele>
        <time>2012-01-08T10:07:38Z</time>
      </trkpt>
      <trkpt lat="45.86324" lon="4.8672">
        <ele>288</ele>
        <time>2012-01-08T10:07:45Z</time>
      </trkpt>
      <trkpt lat="45.86326" lon="4.86722">
        <ele>288</ele>
        <time>2012-01-08T10:07:46Z</time>
      </trkpt>
      <trkpt lat="45.86333" lon="4.86725">
        <ele>289</ele>
        <time>2012-01-08T10:07:49Z</time>
      </trkpt>
      <trkpt lat="45.86354" lon="4.86732">
        <ele>289</ele>
        <time>2012-01-08T10:07:55Z</time>
      </trkpt>
      <trkpt lat="45.86362" lon="4.86734">
        <ele>289</ele>
        <time>2012-01-08T10:07:57Z</time>
      </trkpt>
      <trkpt lat="45.8638" lon="4.86742">
        <ele>289</ele>
        <time>2012-01-08T10:08:02Z</time>
      </trkpt>
      <trkpt lat="45.864" lon="4.8675">
        <ele>289</ele>
        <time>2012-01-08T10:08:07Z</time>
      </trkpt>
      <trkpt lat="45.86408" lon="4.86753">
        <ele>289</ele>
        <time>2012-01-08T10:08:09Z</time>
      </trkpt>
      <trkpt lat="45.86433" lon="4.86761">
        <ele>288</ele>
        <time>2012-01-08T10:08:16Z</time>
      </trkpt>
      <trkpt lat="45.86438" lon="4.86763">
        <ele>288</ele>
        <time>2012-01-08T10:08:18Z</time>
      </trkpt>
      <trkpt lat="45.86439" lon="4.86763">
        <ele>288</ele>
        <time>2012-01-08T10:08:20Z</time>
      </trkpt>
      <trkpt lat="45.8644" lon="4.86763">
        <ele>288</ele>
        <time>2012-01-08T10:08:29Z</time>
      </trkpt>
      <trkpt lat="45.86441" lon="4.86764">
        <ele>288</ele>
        <time>2012-01-08T10:08:30Z</time>
      </trkpt>
      <trkpt lat="45.86441" lon="4.86766">
        <ele>288</ele>
        <time>2012-01-08T10:08:37Z</time>
      </trkpt>
      <trkpt lat="45.86442" lon="4.86767">
        <ele>287</ele>
        <time>2012-01-08T10:08:46Z</time>
      </trkpt>
      <trkpt lat="45.86446" lon="4.86768">
        <ele>287</ele>
        <time>2012-01-08T10:08:49Z</time>
      </trkpt>
      <trkpt lat="45.86452" lon="4.86763">
        <ele>287</ele>
        <time>2012-01-08T10:08:53Z</time>
      </trkpt>
      <trkpt lat="45.86453" lon="4.86755">
        <ele>287</ele>
        <time>2012-01-08T10:08:55Z</time>
      </trkpt>
      <trkpt lat="45.86454" lon="4.86737">
        <ele>287</ele>
        <time>2012-01-08T10:08:59Z</time>
      </trkpt>
      <trkpt lat="45.86457" lon="4.86702">
        <ele>287</ele>
        <time>2012-01-08T10:09:05Z</time>
      </trkpt>
      <trkpt lat="45.86458" lon="4.86684">
        <ele>287</ele>
        <time>2012-01-08T10:09:08Z</time>
      </trkpt>
      <trkpt lat="45.8646" lon="4.86663">
        <ele>287</ele>
        <time>2012-01-08T10:09:11Z</time>
      </trkpt>
      <trkpt lat="45.86463" lon="4.8663">
        <ele>287</ele>
        <time>2012-01-08T10:09:16Z</time>
      </trkpt>
      <trkpt lat="45.86467" lon="4.86611">
        <ele>287</ele>
        <time>2012-01-08T10:09:19Z</time>
      </trkpt>
      <trkpt lat="45.86469" lon="4.86606">
        <ele>287</ele>
        <time>2012-01-08T10:09:20Z</time>
      </trkpt>
      <trkpt lat="45.8648" lon="4.86588">
        <ele>287</ele>
        <time>2012-01-08T10:09:24Z</time>
      </trkpt>
      <trkpt lat="45.86483" lon="4.86584">
        <ele>287</ele>
        <time>2012-01-08T10:09:25Z</time>
      </trkpt>
      <trkpt lat="45.86502" lon="4.86557">
        <ele>287</ele>
        <time>2012-01-08T10:09:31Z</time>
      </trkpt>
      <trkpt lat="45.86506" lon="4.86545">
        <ele>287</ele>
        <time>2012-01-08T10:09:33Z</time>
      </trkpt>
      <trkpt lat="45.86508" lon="4.8653">
        <ele>287</ele>
        <time>2012-01-08T10:09:35Z</time>
      </trkpt>
      <trkpt lat="45.8651" lon="4.86494">
        <ele>286</ele>
        <time>2012-01-08T10:09:39Z</time>
      </trkpt>
      <trkpt lat="45.8651" lon="4.86476">
        <ele>286</ele>
        <time>2012-01-08T10:09:41Z</time>
      </trkpt>
      <trkpt lat="45.86509" lon="4.86442">
        <ele>285</ele>
        <time>2012-01-08T10:09:45Z</time>
      </trkpt>
      <trkpt lat="45.86509" lon="4.86426">
        <ele>284</ele>
        <time>2012-01-08T10:09:47Z</time>
      </trkpt>
      <trkpt lat="45.86508" lon="4.86389">
        <ele>285</ele>
        <time>2012-01-08T10:09:52Z</time>
      </trkpt>
      <trkpt lat="45.86506" lon="4.86336">
        <ele>286</ele>
        <time>2012-01-08T10:09:59Z</time>
      </trkpt>
      <trkpt lat="45.86506" lon="4.86328">
        <ele>287</ele>
        <time>2012-01-08T10:10:00Z</time>
      </trkpt>
      <trkpt lat="45.86506" lon="4.86286">
        <ele>289</ele>
        <time>2012-01-08T10:10:06Z</time>
      </trkpt>
      <trkpt lat="45.86506" lon="4.8628">
        <ele>289</ele>
        <time>2012-01-08T10:10:07Z</time>
      </trkpt>
      <trkpt lat="45.86506" lon="4.86246">
        <ele>290</ele>
        <time>2012-01-08T10:10:13Z</time>
      </trkpt>
      <trkpt lat="45.86505" lon="4.86228">
        <ele>291</ele>
        <time>2012-01-08T10:10:16Z</time>
      </trkpt>
      <trkpt lat="45.86503" lon="4.86209">
        <ele>291</ele>
        <time>2012-01-08T10:10:19Z</time>
      </trkpt>
      <trkpt lat="45.86499" lon="4.86182">
        <ele>289</ele>
        <time>2012-01-08T10:10:24Z</time>
      </trkpt>
      <trkpt lat="45.86499" lon="4.86176">
        <ele>290</ele>
        <time>2012-01-08T10:10:25Z</time>
      </trkpt>
      <trkpt lat="45.86496" lon="4.86144">
        <ele>290</ele>
        <time>2012-01-08T10:10:30Z</time>
      </trkpt>
      <trkpt lat="45.86495" lon="4.86124">
        <ele>290</ele>
        <time>2012-01-08T10:10:33Z</time>
      </trkpt>
      <trkpt lat="45.86493" lon="4.86094">
        <ele>291</ele>
        <time>2012-01-08T10:10:38Z</time>
      </trkpt>
      <trkpt lat="45.86491" lon="4.86067">
        <ele>291</ele>
        <time>2012-01-08T10:10:43Z</time>
      </trkpt>
      <trkpt lat="45.86487" lon="4.86054">
        <ele>291</ele>
        <time>2012-01-08T10:10:46Z</time>
      </trkpt>
      <trkpt lat="45.86479" lon="4.86045">
        <ele>291</ele>
        <time>2012-01-08T10:10:49Z</time>
      </trkpt>
      <trkpt lat="45.86475" lon="4.86044">
        <ele>291</ele>
        <time>2012-01-08T10:10:50Z</time>
      </trkpt>
      <trkpt lat="45.86462" lon="4.86044">
        <ele>291</ele>
        <time>2012-01-08T10:10:53Z</time>
      </trkpt>
      <trkpt lat="45.86452" lon="4.86044">
        <ele>291</ele>
        <time>2012-01-08T10:10:55Z</time>
      </trkpt>
      <trkpt lat="45.86442" lon="4.86043">
        <ele>291</ele>
        <time>2012-01-08T10:10:57Z</time>
      </trkpt>
      <trkpt lat="45.86434" lon="4.86035">
        <ele>290</ele>
        <time>2012-01-08T10:10:59Z</time>
      </trkpt>
      <trkpt lat="45.86429" lon="4.86023">
        <ele>290</ele>
        <time>2012-01-08T10:11:01Z</time>
      </trkpt>
      <trkpt lat="45.86428" lon="4.86016">
        <ele>290</ele>
        <time>2012-01-08T10:11:02Z</time>
      </trkpt>
      <trkpt lat="45.86432" lon="4.85995">
        <ele>290</ele>
        <time>2012-01-08T10:11:05Z</time>
      </trkpt>
      <trkpt lat="45.86435" lon="4.85969">
        <ele>290</ele>
        <time>2012-01-08T10:11:08Z</time>
      </trkpt>
      <trkpt lat="45.86436" lon="4.85951">
        <ele>289</ele>
        <time>2012-01-08T10:11:10Z</time>
      </trkpt>
      <trkpt lat="45.86434" lon="4.85929">
        <ele>289</ele>
        <time>2012-01-08T10:11:13Z</time>
      </trkpt>
      <trkpt lat="45.86425" lon="4.85918">
        <ele>288</ele>
        <time>2012-01-08T10:11:16Z</time>
      </trkpt>
      <trkpt lat="45.86421" lon="4.85915">
        <ele>288</ele>
        <time>2012-01-08T10:11:17Z</time>
      </trkpt>
      <trkpt lat="45.8639" lon="4.85901">
        <ele>286</ele>
        <time>2012-01-08T10:11:23Z</time>
      </trkpt>
      <trkpt lat="45.86354" lon="4.85884">
        <ele>285</ele>
        <time>2012-01-08T10:11:29Z</time>
      </trkpt>
      <trkpt lat="45.86344" lon="4.85876">
        <ele>285</ele>
        <time>2012-01-08T10:11:31Z</time>
      </trkpt>
      <trkpt lat="45.86339" lon="4.85869">
        <ele>284</ele>
        <time>2012-01-08T10:11:33Z</time>
      </trkpt>
      <trkpt lat="45.86338" lon="4.85862">
        <ele>284</ele>
        <time>2012-01-08T10:11:37Z</time>
      </trkpt>
      <trkpt lat="45.8634" lon="4.85864">
        <ele>284</ele>
        <time>2012-01-08T10:14:29Z</time>
      </trkpt>
      <trkpt lat="45.86338" lon="4.85866">
        <ele>284</ele>
        <time>2012-01-08T10:14:40Z</time>
      </trkpt>
      <trkpt lat="45.86331" lon="4.85874">
        <ele>282</ele>
        <time>2012-01-08T10:14:44Z</time>
      </trkpt>
      <trkpt lat="45.86317" lon="4.85901">
        <ele>283</ele>
        <time>2012-01-08T10:14:50Z</time>
      </trkpt>
      <trkpt lat="45.86309" lon="4.85919">
        <ele>284</ele>
        <time>2012-01-08T10:14:53Z</time>
      </trkpt>
      <trkpt lat="45.86291" lon="4.85956">
        <ele>284</ele>
        <time>2012-01-08T10:14:59Z</time>
      </trkpt>
      <trkpt lat="45.86288" lon="4.85962">
        <ele>284</ele>
        <time>2012-01-08T10:15:00Z</time>
      </trkpt>
      <trkpt lat="45.86278" lon="4.8599">
        <ele>284</ele>
        <time>2012-01-08T10:15:05Z</time>
      </trkpt>
      <trkpt lat="45.86275" lon="4.86012">
        <ele>284</ele>
        <time>2012-01-08T10:15:09Z</time>
      </trkpt>
      <trkpt lat="45.86274" lon="4.86022">
        <ele>284</ele>
        <time>2012-01-08T10:15:11Z</time>
      </trkpt>
      <trkpt lat="45.86277" lon="4.86052">
        <ele>284</ele>
        <time>2012-01-08T10:15:17Z</time>
      </trkpt>
      <trkpt lat="45.86279" lon="4.86063">
        <ele>284</ele>
        <time>2012-01-08T10:15:19Z</time>
      </trkpt>
      <trkpt lat="45.86282" lon="4.86074">
        <ele>285</ele>
        <time>2012-01-08T10:15:21Z</time>
      </trkpt>
      <trkpt lat="45.86284" lon="4.86084">
        <ele>284</ele>
        <time>2012-01-08T10:15:23Z</time>
      </trkpt>
      <trkpt lat="45.8629" lon="4.86103">
        <ele>285</ele>
        <time>2012-01-08T10:15:28Z</time>
      </trkpt>
      <trkpt lat="45.86293" lon="4.86107">
        <ele>285</ele>
        <time>2012-01-08T10:15:29Z</time>
      </trkpt>
      <trkpt lat="45.86295" lon="4.8611">
        <ele>285</ele>
        <time>2012-01-08T10:15:30Z</time>
      </trkpt>
      <trkpt lat="45.86307" lon="4.86124">
        <ele>285</ele>
        <time>2012-01-08T10:15:34Z</time>
      </trkpt>
      <trkpt lat="45.86317" lon="4.86136">
        <ele>285</ele>
        <time>2012-01-08T10:15:38Z</time>
      </trkpt>
      <trkpt lat="45.86314" lon="4.86146">
        <ele>285</ele>
        <time>2012-01-08T10:15:41Z</time>
      </trkpt>
      <trkpt lat="45.86312" lon="4.86148">
        <ele>285</ele>
        <time>2012-01-08T10:15:42Z</time>
      </trkpt>
      <trkpt lat="45.86303" lon="4.86141">
        <ele>285</ele>
        <time>2012-01-08T10:15:46Z</time>
      </trkpt>
      <trkpt lat="45.86299" lon="4.86138">
        <ele>285</ele>
        <time>2012-01-08T10:15:48Z</time>
      </trkpt>
      <trkpt lat="45.86289" lon="4.86133">
        <ele>284</ele>
        <time>2012-01-08T10:15:52Z</time>
      </trkpt>
      <trkpt lat="45.8628" lon="4.86128">
        <ele>284</ele>
        <time>2012-01-08T10:15:56Z</time>
      </trkpt>
      <trkpt lat="45.86275" lon="4.86127">
        <ele>284</ele>
        <time>2012-01-08T10:15:58Z</time>
      </trkpt>
      <trkpt lat="45.86258" lon="4.86123">
        <ele>284</ele>
        <time>2012-01-08T10:16:03Z</time>
      </trkpt>
      <trkpt lat="45.86244" lon="4.86119">
        <ele>282</ele>
        <time>2012-01-08T10:16:06Z</time>
      </trkpt>
      <trkpt lat="45.8624" lon="4.86117">
        <ele>282</ele>
        <time>2012-01-08T10:16:07Z</time>
      </trkpt>
      <trkpt lat="45.86215" lon="4.86114">
        <ele>282</ele>
        <time>2012-01-08T10:16:12Z</time>
      </trkpt>
      <trkpt lat="45.8621" lon="4.86114">
        <ele>282</ele>
        <time>2012-01-08T10:16:13Z</time>
      </trkpt>
      <trkpt lat="45.86204" lon="4.8612">
        <ele>281</ele>
        <time>2012-01-08T10:16:15Z</time>
      </trkpt>
      <trkpt lat="45.86185" lon="4.86126">
        <ele>281</ele>
        <time>2012-01-08T10:16:19Z</time>
      </trkpt>
      <trkpt lat="45.86176" lon="4.86135">
        <ele>281</ele>
        <time>2012-01-08T10:16:22Z</time>
      </trkpt>
      <trkpt lat="45.86172" lon="4.86134">
        <ele>281</ele>
        <time>2012-01-08T10:16:24Z</time>
      </trkpt>
      <trkpt lat="45.86171" lon="4.86133">
        <ele>281</ele>
        <time>2012-01-08T10:16:25Z</time>
      </trkpt>
      <trkpt lat="45.86168" lon="4.86133">
        <ele>281</ele>
        <time>2012-01-08T10:16:26Z</time>
      </trkpt>
      <trkpt lat="45.86156" lon="4.86137">
        <ele>279</ele>
        <time>2012-01-08T10:16:29Z</time>
      </trkpt>
      <trkpt lat="45.86147" lon="4.86143">
        <ele>279</ele>
        <time>2012-01-08T10:16:31Z</time>
      </trkpt>
      <trkpt lat="45.86143" lon="4.86147">
        <ele>279</ele>
        <time>2012-01-08T10:16:32Z</time>
      </trkpt>
      <trkpt lat="45.8614" lon="4.86152">
        <ele>279</ele>
        <time>2012-01-08T10:16:33Z</time>
      </trkpt>
      <trkpt lat="45.86135" lon="4.86159">
        <ele>279</ele>
        <time>2012-01-08T10:16:35Z</time>
      </trkpt>
      <trkpt lat="45.8613" lon="4.86166">
        <ele>279</ele>
        <time>2012-01-08T10:16:37Z</time>
      </trkpt>
      <trkpt lat="45.86117" lon="4.86187">
        <ele>278</ele>
        <time>2012-01-08T10:16:42Z</time>
      </trkpt>
      <trkpt lat="45.86106" lon="4.862">
        <ele>278</ele>
        <time>2012-01-08T10:16:46Z</time>
      </trkpt>
      <trkpt lat="45.86102" lon="4.8623">
        <ele>278</ele>
        <time>2012-01-08T10:16:51Z</time>
      </trkpt>
      <trkpt lat="45.86104" lon="4.86236">
        <ele>278</ele>
        <time>2012-01-08T10:16:52Z</time>
      </trkpt>
      <trkpt lat="45.86106" lon="4.86254">
        <ele>276</ele>
        <time>2012-01-08T10:16:55Z</time>
      </trkpt>
      <trkpt lat="45.86104" lon="4.86278">
        <ele>275</ele>
        <time>2012-01-08T10:16:59Z</time>
      </trkpt>
      <trkpt lat="45.86103" lon="4.86288">
        <ele>274</ele>
        <time>2012-01-08T10:17:01Z</time>
      </trkpt>
      <trkpt lat="45.861" lon="4.86304">
        <ele>273</ele>
        <time>2012-01-08T10:17:04Z</time>
      </trkpt>
      <trkpt lat="45.86092" lon="4.86327">
        <ele>269</ele>
        <time>2012-01-08T10:17:09Z</time>
      </trkpt>
      <trkpt lat="45.86089" lon="4.86337">
        <ele>267</ele>
        <time>2012-01-08T10:17:11Z</time>
      </trkpt>
      <trkpt lat="45.86082" lon="4.86344">
        <ele>266</ele>
        <time>2012-01-08T10:17:13Z</time>
      </trkpt>
      <trkpt lat="45.86073" lon="4.8635">
        <ele>266</ele>
        <time>2012-01-08T10:17:17Z</time>
      </trkpt>
      <trkpt lat="45.86069" lon="4.86365">
        <ele>266</ele>
        <time>2012-01-08T10:17:21Z</time>
      </trkpt>
      <trkpt lat="45.86066" lon="4.86378">
        <ele>265</ele>
        <time>2012-01-08T10:17:23Z</time>
      </trkpt>
      <trkpt lat="45.8606" lon="4.86387">
        <ele>265</ele>
        <time>2012-01-08T10:17:25Z</time>
      </trkpt>
      <trkpt lat="45.86054" lon="4.86405">
        <ele>265</ele>
        <time>2012-01-08T10:17:29Z</time>
      </trkpt>
      <trkpt lat="45.86046" lon="4.86423">
        <ele>262</ele>
        <time>2012-01-08T10:17:33Z</time>
      </trkpt>
      <trkpt lat="45.86036" lon="4.86441">
        <ele>261</ele>
        <time>2012-01-08T10:17:38Z</time>
      </trkpt>
      <trkpt lat="45.86033" lon="4.86447">
        <ele>261</ele>
        <time>2012-01-08T10:17:42Z</time>
      </trkpt>
      <trkpt lat="45.86025" lon="4.8646">
        <ele>260</ele>
        <time>2012-01-08T10:18:08Z</time>
      </trkpt>
      <trkpt lat="45.86022" lon="4.86465">
        <ele>260</ele>
        <time>2012-01-08T10:18:11Z</time>
      </trkpt>
      <trkpt lat="45.8602" lon="4.86467">
        <ele>260</ele>
        <time>2012-01-08T10:18:12Z</time>
      </trkpt>
      <trkpt lat="45.86017" lon="4.86472">
        <ele>259</ele>
        <time>2012-01-08T10:18:14Z</time>
      </trkpt>
      <trkpt lat="45.86008" lon="4.86487">
        <ele>257</ele>
        <time>2012-01-08T10:18:20Z</time>
      </trkpt>
      <trkpt lat="45.86002" lon="4.8649">
        <ele>256</ele>
        <time>2012-01-08T10:18:25Z</time>
      </trkpt>
      <trkpt lat="45.85992" lon="4.86489">
        <ele>252</ele>
        <time>2012-01-08T10:18:45Z</time>
      </trkpt>
      <trkpt lat="45.85989" lon="4.86492">
        <ele>252</ele>
        <time>2012-01-08T10:19:03Z</time>
      </trkpt>
      <trkpt lat="45.85988" lon="4.86491">
        <ele>252</ele>
        <time>2012-01-08T10:19:04Z</time>
      </trkpt>
      <trkpt lat="45.85981" lon="4.86487">
        <ele>251</ele>
        <time>2012-01-08T10:19:08Z</time>
      </trkpt>
      <trkpt lat="45.85979" lon="4.86493">
        <ele>251</ele>
        <time>2012-01-08T10:19:10Z</time>
      </trkpt>
      <trkpt lat="45.85974" lon="4.865">
        <ele>250</ele>
        <time>2012-01-08T10:19:12Z</time>
      </trkpt>
      <trkpt lat="45.85967" lon="4.86506">
        <ele>249</ele>
        <time>2012-01-08T10:19:14Z</time>
      </trkpt>
      <trkpt lat="45.85959" lon="4.86512">
        <ele>248</ele>
        <time>2012-01-08T10:19:16Z</time>
      </trkpt>
      <trkpt lat="45.85945" lon="4.86523">
        <ele>246</ele>
        <time>2012-01-08T10:19:20Z</time>
      </trkpt>
      <trkpt lat="45.85941" lon="4.86526">
        <ele>246</ele>
        <time>2012-01-08T10:19:21Z</time>
      </trkpt>
      <trkpt lat="45.85932" lon="4.86531">
        <ele>245</ele>
        <time>2012-01-08T10:19:24Z</time>
      </trkpt>
      <trkpt lat="45.85926" lon="4.86533">
        <ele>245</ele>
        <time>2012-01-08T10:19:26Z</time>
      </trkpt>
      <trkpt lat="45.85911" lon="4.86545">
        <ele>239</ele>
        <time>2012-01-08T10:19:31Z</time>
      </trkpt>
      <trkpt lat="45.85898" lon="4.8655">
        <ele>239</ele>
        <time>2012-01-08T10:19:34Z</time>
      </trkpt>
      <trkpt lat="45.85893" lon="4.8655">
        <ele>239</ele>
        <time>2012-01-08T10:19:35Z</time>
      </trkpt>
      <trkpt lat="45.85878" lon="4.8655">
        <ele>240</ele>
        <time>2012-01-08T10:19:39Z</time>
      </trkpt>
      <trkpt lat="45.85863" lon="4.86533">
        <ele>239</ele>
        <time>2012-01-08T10:19:44Z</time>
      </trkpt>
      <trkpt lat="45.85846" lon="4.86518">
        <ele>239</ele>
        <time>2012-01-08T10:19:49Z</time>
      </trkpt>
      <trkpt lat="45.85831" lon="4.86524">
        <ele>241</ele>
        <time>2012-01-08T10:19:53Z</time>
      </trkpt>
      <trkpt lat="45.85812" lon="4.8654">
        <ele>242</ele>
        <time>2012-01-08T10:19:59Z</time>
      </trkpt>
      <trkpt lat="45.858" lon="4.86556">
        <ele>242</ele>
        <time>2012-01-08T10:20:04Z</time>
      </trkpt>
      <trkpt lat="45.85793" lon="4.86566">
        <ele>243</ele>
        <time>2012-01-08T10:20:07Z</time>
      </trkpt>
      <trkpt lat="45.85775" lon="4.86584">
        <ele>245</ele>
        <time>2012-01-08T10:20:14Z</time>
      </trkpt>
      <trkpt lat="45.8577" lon="4.86588">
        <ele>245</ele>
        <time>2012-01-08T10:20:16Z</time>
      </trkpt>
      <trkpt lat="45.85749" lon="4.86599">
        <ele>248</ele>
        <time>2012-01-08T10:20:22Z</time>
      </trkpt>
      <trkpt lat="45.85735" lon="4.86606">
        <ele>248</ele>
        <time>2012-01-08T10:20:26Z</time>
      </trkpt>
      <trkpt lat="45.85715" lon="4.86616">
        <ele>248</ele>
        <time>2012-01-08T10:20:32Z</time>
      </trkpt>
      <trkpt lat="45.857" lon="4.86623">
        <ele>248</ele>
        <time>2012-01-08T10:20:37Z</time>
      </trkpt>
      <trkpt lat="45.85685" lon="4.8663">
        <ele>248</ele>
        <time>2012-01-08T10:20:42Z</time>
      </trkpt>
      <trkpt lat="45.85663" lon="4.86638">
        <ele>249</ele>
        <time>2012-01-08T10:20:49Z</time>
      </trkpt>
      <trkpt lat="45.8566" lon="4.86639">
        <ele>249</ele>
        <time>2012-01-08T10:20:50Z</time>
      </trkpt>
      <trkpt lat="45.85635" lon="4.86657">
        <ele>249</ele>
        <time>2012-01-08T10:20:58Z</time>
      </trkpt>
      <trkpt lat="45.85628" lon="4.86662">
        <ele>249</ele>
        <time>2012-01-08T10:21:00Z</time>
      </trkpt>
      <trkpt lat="45.85606" lon="4.8668">
        <ele>250</ele>
        <time>2012-01-08T10:21:08Z</time>
      </trkpt>
      <trkpt lat="45.85595" lon="4.86689">
        <ele>250</ele>
        <time>2012-01-08T10:21:12Z</time>
      </trkpt>
      <trkpt lat="45.85582" lon="4.867">
        <ele>252</ele>
        <time>2012-01-08T10:21:16Z</time>
      </trkpt>
      <trkpt lat="45.85566" lon="4.86713">
        <ele>253</ele>
        <time>2012-01-08T10:21:22Z</time>
      </trkpt>
      <trkpt lat="45.85562" lon="4.86716">
        <ele>253</ele>
        <time>2012-01-08T10:21:24Z</time>
      </trkpt>
      <trkpt lat="45.85558" lon="4.8672">
        <ele>253</ele>
        <time>2012-01-08T10:21:27Z</time>
      </trkpt>
      <trkpt lat="45.85557" lon="4.8672">
        <ele>253</ele>
        <time>2012-01-08T10:21:32Z</time>
      </trkpt>
      <trkpt lat="45.85554" lon="4.86717">
        <ele>253</ele>
        <time>2012-01-08T10:26:17Z</time>
      </trkpt>
      <trkpt lat="45.85546" lon="4.86701">
        <ele>253</ele>
        <time>2012-01-08T10:26:23Z</time>
      </trkpt>
      <trkpt lat="45.85544" lon="4.86698">
        <ele>253</ele>
        <time>2012-01-08T10:26:24Z</time>
      </trkpt>
      <trkpt lat="45.85535" lon="4.86682">
        <ele>253</ele>
        <time>2012-01-08T10:26:29Z</time>
      </trkpt>
      <trkpt lat="45.85525" lon="4.86661">
        <ele>253</ele>
        <time>2012-01-08T10:26:35Z</time>
      </trkpt>
      <trkpt lat="45.85523" lon="4.86656">
        <ele>253</ele>
        <time>2012-01-08T10:26:37Z</time>
      </trkpt>
      <trkpt lat="45.85516" lon="4.86643">
        <ele>253</ele>
        <time>2012-01-08T10:26:41Z</time>
      </trkpt>
      <trkpt lat="45.85501" lon="4.86617">
        <ele>253</ele>
        <time>2012-01-08T10:26:47Z</time>
      </trkpt>
      <trkpt lat="45.85495" lon="4.86608">
        <ele>254</ele>
        <time>2012-01-08T10:26:49Z</time>
      </trkpt>
      <trkpt lat="45.85483" lon="4.86587">
        <ele>254</ele>
        <time>2012-01-08T10:26:55Z</time>
      </trkpt>
      <trkpt lat="45.85477" lon="4.86576">
        <ele>254</ele>
        <time>2012-01-08T10:26:58Z</time>
      </trkpt>
      <trkpt lat="45.85466" lon="4.86556">
        <ele>254</ele>
        <time>2012-01-08T10:27:03Z</time>
      </trkpt>
      <trkpt lat="45.85455" lon="4.86534">
        <ele>255</ele>
        <time>2012-01-08T10:27:08Z</time>
      </trkpt>
      <trkpt lat="45.85451" lon="4.86524">
        <ele>255</ele>
        <time>2012-01-08T10:27:10Z</time>
      </trkpt>
      <trkpt lat="45.85439" lon="4.86494">
        <ele>255</ele>
        <time>2012-01-08T10:27:16Z</time>
      </trkpt>
      <trkpt lat="45.85436" lon="4.86486">
        <ele>255</ele>
        <time>2012-01-08T10:27:18Z</time>
      </trkpt>
      <trkpt lat="45.85432" lon="4.86469">
        <ele>255</ele>
        <time>2012-01-08T10:27:22Z</time>
      </trkpt>
      <trkpt lat="45.85433" lon="4.86461">
        <ele>255</ele>
        <time>2012-01-08T10:27:24Z</time>
      </trkpt>
      <trkpt lat="45.85438" lon="4.86457">
        <ele>255</ele>
        <time>2012-01-08T10:27:26Z</time>
      </trkpt>
      <trkpt lat="45.8545" lon="4.86448">
        <ele>255</ele>
        <time>2012-01-08T10:27:30Z</time>
      </trkpt>
      <trkpt lat="45.85457" lon="4.86443">
        <ele>255</ele>
        <time>2012-01-08T10:27:32Z</time>
      </trkpt>
      <trkpt lat="45.85482" lon="4.86427">
        <ele>255</ele>
        <time>2012-01-08T10:27:39Z</time>
      </trkpt>
      <trkpt lat="45.85485" lon="4.86425">
        <ele>255</ele>
        <time>2012-01-08T10:27:40Z</time>
      </trkpt>
      <trkpt lat="45.85505" lon="4.86412">
        <ele>256</ele>
        <time>2012-01-08T10:27:46Z</time>
      </trkpt>
      <trkpt lat="45.8552" lon="4.864">
        <ele>255</ele>
        <time>2012-01-08T10:27:51Z</time>
      </trkpt>
      <trkpt lat="45.85524" lon="4.86398">
        <ele>255</ele>
        <time>2012-01-08T10:27:52Z</time>
      </trkpt>
      <trkpt lat="45.85542" lon="4.86382">
        <ele>255</ele>
        <time>2012-01-08T10:27:57Z</time>
      </trkpt>
      <trkpt lat="45.85554" lon="4.86373">
        <ele>255</ele>
        <time>2012-01-08T10:28:00Z</time>
      </trkpt>
      <trkpt lat="45.8557" lon="4.86359">
        <ele>255</ele>
        <time>2012-01-08T10:28:04Z</time>
      </trkpt>
      <trkpt lat="45.85588" lon="4.86347">
        <ele>254</ele>
        <time>2012-01-08T10:28:08Z</time>
      </trkpt>
      <trkpt lat="45.85609" lon="4.86332">
        <ele>253</ele>
        <time>2012-01-08T10:28:13Z</time>
      </trkpt>
      <trkpt lat="45.85617" lon="4.86325">
        <ele>253</ele>
        <time>2012-01-08T10:28:15Z</time>
      </trkpt>
      <trkpt lat="45.8562" lon="4.8632">
        <ele>253</ele>
        <time>2012-01-08T10:28:16Z</time>
      </trkpt>
      <trkpt lat="45.85623" lon="4.86308">
        <ele>253</ele>
        <time>2012-01-08T10:28:18Z</time>
      </trkpt>
      <trkpt lat="45.85621" lon="4.86293">
        <ele>253</ele>
        <time>2012-01-08T10:28:20Z</time>
      </trkpt>
      <trkpt lat="45.85618" lon="4.86272">
        <ele>253</ele>
        <time>2012-01-08T10:28:23Z</time>
      </trkpt>
      <trkpt lat="45.85617" lon="4.86265">
        <ele>253</ele>
        <time>2012-01-08T10:28:24Z</time>
      </trkpt>
      <trkpt lat="45.85609" lon="4.86219">
        <ele>251</ele>
        <time>2012-01-08T10:28:31Z</time>
      </trkpt>
      <trkpt lat="45.85607" lon="4.86212">
        <ele>251</ele>
        <time>2012-01-08T10:28:32Z</time>
      </trkpt>
      <trkpt lat="45.856" lon="4.86178">
        <ele>251</ele>
        <time>2012-01-08T10:28:37Z</time>
      </trkpt>
      <trkpt lat="45.85597" lon="4.86157">
        <ele>250</ele>
        <time>2012-01-08T10:28:40Z</time>
      </trkpt>
      <trkpt lat="45.85593" lon="4.86133">
        <ele>250</ele>
        <time>2012-01-08T10:28:44Z</time>
      </trkpt>
      <trkpt lat="45.85588" lon="4.86103">
        <ele>249</ele>
        <time>2012-01-08T10:28:49Z</time>
      </trkpt>
      <trkpt lat="45.85584" lon="4.86083">
        <ele>249</ele>
        <time>2012-01-08T10:28:52Z</time>
      </trkpt>
      <trkpt lat="45.85583" lon="4.86076">
        <ele>249</ele>
        <time>2012-01-08T10:28:53Z</time>
      </trkpt>
      <trkpt lat="45.85576" lon="4.86061">
        <ele>249</ele>
        <time>2012-01-08T10:28:56Z</time>
      </trkpt>
      <trkpt lat="45.85574" lon="4.86058">
        <ele>249</ele>
        <time>2012-01-08T10:28:57Z</time>
      </trkpt>
      <trkpt lat="45.85571" lon="4.86055">
        <ele>249</ele>
        <time>2012-01-08T10:28:58Z</time>
      </trkpt>
      <trkpt lat="45.85556" lon="4.86043">
        <ele>249</ele>
        <time>2012-01-08T10:29:02Z</time>
      </trkpt>
      <trkpt lat="45.85538" lon="4.86028">
        <ele>249</ele>
        <time>2012-01-08T10:29:06Z</time>
      </trkpt>
      <trkpt lat="45.85532" lon="4.86024">
        <ele>249</ele>
        <time>2012-01-08T10:29:07Z</time>
      </trkpt>
      <trkpt lat="45.85514" lon="4.86009">
        <ele>249</ele>
        <time>2012-01-08T10:29:11Z</time>
      </trkpt>
      <trkpt lat="45.85503" lon="4.86">
        <ele>250</ele>
        <time>2012-01-08T10:29:14Z</time>
      </trkpt>
      <trkpt lat="45.8549" lon="4.85991">
        <ele>250</ele>
        <time>2012-01-08T10:29:18Z</time>
      </trkpt>
      <trkpt lat="45.85469" lon="4.85976">
        <ele>250</ele>
        <time>2012-01-08T10:29:25Z</time>
      </trkpt>
      <trkpt lat="45.85466" lon="4.85974">
        <ele>250</ele>
        <time>2012-01-08T10:29:26Z</time>
      </trkpt>
      <trkpt lat="45.85448" lon="4.85956">
        <ele>250</ele>
        <time>2012-01-08T10:29:32Z</time>
      </trkpt>
      <trkpt lat="45.85438" lon="4.85944">
        <ele>250</ele>
        <time>2012-01-08T10:29:35Z</time>
      </trkpt>
      <trkpt lat="45.85426" lon="4.85925">
        <ele>250</ele>
        <time>2012-01-08T10:29:39Z</time>
      </trkpt>
      <trkpt lat="45.85414" lon="4.85905">
        <ele>250</ele>
        <time>2012-01-08T10:29:43Z</time>
      </trkpt>
      <trkpt lat="45.85403" lon="4.85887">
        <ele>250</ele>
        <time>2012-01-08T10:29:47Z</time>
      </trkpt>
      <trkpt lat="45.85389" lon="4.85866">
        <ele>249</ele>
        <time>2012-01-08T10:29:52Z</time>
      </trkpt>
      <trkpt lat="45.85383" lon="4.85858">
        <ele>249</ele>
        <time>2012-01-08T10:29:54Z</time>
      </trkpt>
      <trkpt lat="45.85365" lon="4.85825">
        <ele>248</ele>
        <time>2012-01-08T10:30:02Z</time>
      </trkpt>
      <trkpt lat="45.85353" lon="4.85805">
        <ele>248</ele>
        <time>2012-01-08T10:30:09Z</time>
      </trkpt>
      <trkpt lat="45.85345" lon="4.85789">
        <ele>248</ele>
        <time>2012-01-08T10:30:15Z</time>
      </trkpt>
      <trkpt lat="45.85342" lon="4.85783">
        <ele>248</ele>
        <time>2012-01-08T10:30:17Z</time>
      </trkpt>
      <trkpt lat="45.85333" lon="4.85768">
        <ele>249</ele>
        <time>2012-01-08T10:30:22Z</time>
      </trkpt>
      <trkpt lat="45.85322" lon="4.85749">
        <ele>249</ele>
        <time>2012-01-08T10:30:28Z</time>
      </trkpt>
      <trkpt lat="45.85319" lon="4.85743">
        <ele>249</ele>
        <time>2012-01-08T10:30:30Z</time>
      </trkpt>
      <trkpt lat="45.85307" lon="4.85727">
        <ele>249</ele>
        <time>2012-01-08T10:30:36Z</time>
      </trkpt>
      <trkpt lat="45.85297" lon="4.85718">
        <ele>249</ele>
        <time>2012-01-08T10:30:42Z</time>
      </trkpt>
      <trkpt lat="45.85296" lon="4.85716">
        <ele>249</ele>
        <time>2012-01-08T10:30:43Z</time>
      </trkpt>
      <trkpt lat="45.85297" lon="4.85708">
        <ele>248</ele>
        <time>2012-01-08T10:30:46Z</time>
      </trkpt>
      <trkpt lat="45.85299" lon="4.85705">
        <ele>248</ele>
        <time>2012-01-08T10:30:47Z</time>
      </trkpt>
      <trkpt lat="45.85301" lon="4.85702">
        <ele>248</ele>
        <time>2012-01-08T10:30:48Z</time>
      </trkpt>
      <trkpt lat="45.85308" lon="4.8569">
        <ele>248</ele>
        <time>2012-01-08T10:30:52Z</time>
      </trkpt>
      <trkpt lat="45.85326" lon="4.85667">
        <ele>248</ele>
        <time>2012-01-08T10:30:59Z</time>
      </trkpt>
      <trkpt lat="45.85332" lon="4.85659">
        <ele>248</ele>
        <time>2012-01-08T10:31:01Z</time>
      </trkpt>
      <trkpt lat="45.85346" lon="4.85645">
        <ele>248</ele>
        <time>2012-01-08T10:31:05Z</time>
      </trkpt>
      <trkpt lat="45.85357" lon="4.85634">
        <ele>248</ele>
        <time>2012-01-08T10:31:08Z</time>
      </trkpt>
      <trkpt lat="45.85366" lon="4.85626">
        <ele>247</ele>
        <time>2012-01-08T10:31:11Z</time>
      </trkpt>
      <trkpt lat="45.85376" lon="4.85618">
        <ele>247</ele>
        <time>2012-01-08T10:31:17Z</time>
      </trkpt>
      <trkpt lat="45.85386" lon="4.85608">
        <ele>247</ele>
        <time>2012-01-08T10:31:22Z</time>
      </trkpt>
      <trkpt lat="45.85389" lon="4.85604">
        <ele>247</ele>
        <time>2012-01-08T10:31:23Z</time>
      </trkpt>
      <trkpt lat="45.85405" lon="4.85586">
        <ele>246</ele>
        <time>2012-01-08T10:31:28Z</time>
      </trkpt>
      <trkpt lat="45.85414" lon="4.85575">
        <ele>245</ele>
        <time>2012-01-08T10:31:32Z</time>
      </trkpt>
      <trkpt lat="45.85418" lon="4.85571">
        <ele>244</ele>
        <time>2012-01-08T10:31:33Z</time>
      </trkpt>
      <trkpt lat="45.85425" lon="4.85563">
        <ele>244</ele>
        <time>2012-01-08T10:31:35Z</time>
      </trkpt>
      <trkpt lat="45.85433" lon="4.85557">
        <ele>243</ele>
        <time>2012-01-08T10:31:37Z</time>
      </trkpt>
      <trkpt lat="45.85451" lon="4.85541">
        <ele>242</ele>
        <time>2012-01-08T10:31:42Z</time>
      </trkpt>
      <trkpt lat="45.85451" lon="4.85538">
        <ele>242</ele>
        <time>2012-01-08T10:31:43Z</time>
      </trkpt>
      <trkpt lat="45.85449" lon="4.85534">
        <ele>242</ele>
        <time>2012-01-08T10:31:45Z</time>
      </trkpt>
      <trkpt lat="45.85443" lon="4.8553">
        <ele>242</ele>
        <time>2012-01-08T10:31:47Z</time>
      </trkpt>
      <trkpt lat="45.85432" lon="4.85524">
        <ele>242</ele>
        <time>2012-01-08T10:31:50Z</time>
      </trkpt>
      <trkpt lat="45.85422" lon="4.85518">
        <ele>243</ele>
        <time>2012-01-08T10:31:53Z</time>
      </trkpt>
      <trkpt lat="45.85413" lon="4.85513">
        <ele>244</ele>
        <time>2012-01-08T10:31:56Z</time>
      </trkpt>
      <trkpt lat="45.85399" lon="4.85498">
        <ele>243</ele>
        <time>2012-01-08T10:32:02Z</time>
      </trkpt>
      <trkpt lat="45.8539" lon="4.85485">
        <ele>243</ele>
        <time>2012-01-08T10:32:07Z</time>
      </trkpt>
      <trkpt lat="45.8539" lon="4.85479">
        <ele>243</ele>
        <time>2012-01-08T10:32:17Z</time>
      </trkpt>
      <trkpt lat="45.85395" lon="4.85479">
        <ele>243</ele>
        <time>2012-01-08T10:32:41Z</time>
      </trkpt>
      <trkpt lat="45.85394" lon="4.85476">
        <ele>243</ele>
        <time>2012-01-08T10:32:43Z</time>
      </trkpt>
      <trkpt lat="45.85394" lon="4.85475">
        <ele>243</ele>
        <time>2012-01-08T10:32:46Z</time>
      </trkpt>
      <trkpt lat="45.85393" lon="4.85474">
        <ele>243</ele>
        <time>2012-01-08T10:32:47Z</time>
      </trkpt>
      <trkpt lat="45.85393" lon="4.85459">
        <ele>242</ele>
        <time>2012-01-08T10:32:51Z</time>
      </trkpt>
      <trkpt lat="45.85395" lon="4.85441">
        <ele>241</ele>
        <time>2012-01-08T10:32:54Z</time>
      </trkpt>
      <trkpt lat="45.85394" lon="4.85427">
        <ele>240</ele>
        <time>2012-01-08T10:32:56Z</time>
      </trkpt>
      <trkpt lat="45.85389" lon="4.85399">
        <ele>236</ele>
        <time>2012-01-08T10:33:00Z</time>
      </trkpt>
      <trkpt lat="45.85385" lon="4.85384">
        <ele>236</ele>
        <time>2012-01-08T10:33:02Z</time>
      </trkpt>
      <trkpt lat="45.85382" lon="4.85357">
        <ele>234</ele>
        <time>2012-01-08T10:33:05Z</time>
      </trkpt>
      <trkpt lat="45.85381" lon="4.85348">
        <ele>234</ele>
        <time>2012-01-08T10:33:06Z</time>
      </trkpt>
      <trkpt lat="45.85377" lon="4.85337">
        <ele>234</ele>
        <time>2012-01-08T10:33:07Z</time>
      </trkpt>
      <trkpt lat="45.85369" lon="4.85309">
        <ele>229</ele>
        <time>2012-01-08T10:33:10Z</time>
      </trkpt>
      <trkpt lat="45.85359" lon="4.85281">
        <ele>229</ele>
        <time>2012-01-08T10:33:13Z</time>
      </trkpt>
      <trkpt lat="45.85354" lon="4.85271">
        <ele>229</ele>
        <time>2012-01-08T10:33:14Z</time>
      </trkpt>
      <trkpt lat="45.85347" lon="4.85254">
        <ele>229</ele>
        <time>2012-01-08T10:33:16Z</time>
      </trkpt>
      <trkpt lat="45.8534" lon="4.85236">
        <ele>226</ele>
        <time>2012-01-08T10:33:18Z</time>
      </trkpt>
      <trkpt lat="45.85331" lon="4.85204">
        <ele>229</ele>
        <time>2012-01-08T10:33:21Z</time>
      </trkpt>
      <trkpt lat="45.85329" lon="4.85191">
        <ele>228</ele>
        <time>2012-01-08T10:33:22Z</time>
      </trkpt>
      <trkpt lat="45.85328" lon="4.85179">
        <ele>226</ele>
        <time>2012-01-08T10:33:23Z</time>
      </trkpt>
      <trkpt lat="45.85325" lon="4.85169">
        <ele>225</ele>
        <time>2012-01-08T10:33:24Z</time>
      </trkpt>
      <trkpt lat="45.85321" lon="4.85151">
        <ele>223</ele>
        <time>2012-01-08T10:33:26Z</time>
      </trkpt>
      <trkpt lat="45.85312" lon="4.85123">
        <ele>222</ele>
        <time>2012-01-08T10:33:29Z</time>
      </trkpt>
      <trkpt lat="45.85309" lon="4.85115">
        <ele>222</ele>
        <time>2012-01-08T10:33:30Z</time>
      </trkpt>
      <trkpt lat="45.85301" lon="4.85101">
        <ele>222</ele>
        <time>2012-01-08T10:33:33Z</time>
      </trkpt>
      <trkpt lat="45.85299" lon="4.85096">
        <ele>222</ele>
        <time>2012-01-08T10:33:36Z</time>
      </trkpt>
      <trkpt lat="45.85297" lon="4.85086">
        <ele>221</ele>
        <time>2012-01-08T10:33:55Z</time>
      </trkpt>
      <trkpt lat="45.85301" lon="4.85071">
        <ele>218</ele>
        <time>2012-01-08T10:33:59Z</time>
      </trkpt>
      <trkpt lat="45.85315" lon="4.85053">
        <ele>218</ele>
        <time>2012-01-08T10:34:04Z</time>
      </trkpt>
      <trkpt lat="45.8532" lon="4.85043">
        <ele>218</ele>
        <time>2012-01-08T10:34:07Z</time>
      </trkpt>
      <trkpt lat="45.8532" lon="4.8504">
        <ele>219</ele>
        <time>2012-01-08T10:34:08Z</time>
      </trkpt>
      <trkpt lat="45.85314" lon="4.85033">
        <ele>219</ele>
        <time>2012-01-08T10:34:11Z</time>
      </trkpt>
      <trkpt lat="45.85312" lon="4.85033">
        <ele>219</ele>
        <time>2012-01-08T10:34:12Z</time>
      </trkpt>
      <trkpt lat="45.85301" lon="4.8504">
        <ele>219</ele>
        <time>2012-01-08T10:34:17Z</time>
      </trkpt>
      <trkpt lat="45.85299" lon="4.85043">
        <ele>218</ele>
        <time>2012-01-08T10:34:18Z</time>
      </trkpt>
      <trkpt lat="45.85284" lon="4.85053">
        <ele>219</ele>
        <time>2012-01-08T10:34:23Z</time>
      </trkpt>
      <trkpt lat="45.8528" lon="4.85053">
        <ele>219</ele>
        <time>2012-01-08T10:34:24Z</time>
      </trkpt>
      <trkpt lat="45.85271" lon="4.85052">
        <ele>219</ele>
        <time>2012-01-08T10:34:27Z</time>
      </trkpt>
      <trkpt lat="45.85261" lon="4.85051">
        <ele>219</ele>
        <time>2012-01-08T10:34:30Z</time>
      </trkpt>
      <trkpt lat="45.85258" lon="4.85052">
        <ele>219</ele>
        <time>2012-01-08T10:34:31Z</time>
      </trkpt>
      <trkpt lat="45.85244" lon="4.85052">
        <ele>222</ele>
        <time>2012-01-08T10:34:35Z</time>
      </trkpt>
      <trkpt lat="45.8523" lon="4.85058">
        <ele>222</ele>
        <time>2012-01-08T10:34:38Z</time>
      </trkpt>
      <trkpt lat="45.85225" lon="4.85059">
        <ele>223</ele>
        <time>2012-01-08T10:34:39Z</time>
      </trkpt>
      <trkpt lat="45.85208" lon="4.85059">
        <ele>224</ele>
        <time>2012-01-08T10:34:43Z</time>
      </trkpt>
      <trkpt lat="45.85203" lon="4.85059">
        <ele>224</ele>
        <time>2012-01-08T10:34:44Z</time>
      </trkpt>
      <trkpt lat="45.85191" lon="4.85058">
        <ele>225</ele>
        <time>2012-01-08T10:34:49Z</time>
      </trkpt>
      <trkpt lat="45.85186" lon="4.85048">
        <ele>224</ele>
        <time>2012-01-08T10:34:55Z</time>
      </trkpt>
      <trkpt lat="45.85181" lon="4.85033">
        <ele>224</ele>
        <time>2012-01-08T10:35:00Z</time>
      </trkpt>
      <trkpt lat="45.85178" lon="4.8502">
        <ele>224</ele>
        <time>2012-01-08T10:35:06Z</time>
      </trkpt>
      <trkpt lat="45.85175" lon="4.85014">
        <ele>224</ele>
        <time>2012-01-08T10:35:11Z</time>
      </trkpt>
      <trkpt lat="45.85174" lon="4.85013">
        <ele>224</ele>
        <time>2012-01-08T10:35:12Z</time>
      </trkpt>
      <trkpt lat="45.85168" lon="4.85011">
        <ele>224</ele>
        <time>2012-01-08T10:35:17Z</time>
      </trkpt>
      <trkpt lat="45.85165" lon="4.85009">
        <ele>227</ele>
        <time>2012-01-08T10:35:22Z</time>
      </trkpt>
      <trkpt lat="45.85163" lon="4.85004">
        <ele>226</ele>
        <time>2012-01-08T10:35:28Z</time>
      </trkpt>
      <trkpt lat="45.85161" lon="4.85002">
        <ele>226</ele>
        <time>2012-01-08T10:35:30Z</time>
      </trkpt>
      <trkpt lat="45.85161" lon="4.84998">
        <ele>225</ele>
        <time>2012-01-08T10:35:33Z</time>
      </trkpt>
      <trkpt lat="45.85161" lon="4.84995">
        <ele>225</ele>
        <time>2012-01-08T10:35:34Z</time>
      </trkpt>
      <trkpt lat="45.85161" lon="4.84992">
        <ele>225</ele>
        <time>2012-01-08T10:35:35Z</time>
      </trkpt>
      <trkpt lat="45.85161" lon="4.84988">
        <ele>225</ele>
        <time>2012-01-08T10:35:38Z</time>
      </trkpt>
      <trkpt lat="45.85162" lon="4.84981">
        <ele>225</ele>
        <time>2012-01-08T10:35:40Z</time>
      </trkpt>
      <trkpt lat="45.85159" lon="4.84961">
        <ele>224</ele>
        <time>2012-01-08T10:35:45Z</time>
      </trkpt>
      <trkpt lat="45.85158" lon="4.84957">
        <ele>224</ele>
        <time>2012-01-08T10:35:46Z</time>
      </trkpt>
      <trkpt lat="45.85156" lon="4.84953">
        <ele>223</ele>
        <time>2012-01-08T10:35:47Z</time>
      </trkpt>
      <trkpt lat="45.85154" lon="4.84945">
        <ele>223</ele>
        <time>2012-01-08T10:35:49Z</time>
      </trkpt>
      <trkpt lat="45.85152" lon="4.84939">
        <ele>222</ele>
        <time>2012-01-08T10:35:51Z</time>
      </trkpt>
      <trkpt lat="45.85151" lon="4.84936">
        <ele>222</ele>
        <time>2012-01-08T10:35:52Z</time>
      </trkpt>
      <trkpt lat="45.85146" lon="4.84927">
        <ele>222</ele>
        <time>2012-01-08T10:35:55Z</time>
      </trkpt>
      <trkpt lat="45.85145" lon="4.84924">
        <ele>222</ele>
        <time>2012-01-08T10:35:56Z</time>
      </trkpt>
      <trkpt lat="45.8514" lon="4.8492">
        <ele>222</ele>
        <time>2012-01-08T10:36:00Z</time>
      </trkpt>
      <trkpt lat="45.85135" lon="4.8491">
        <ele>218</ele>
        <time>2012-01-08T10:36:23Z</time>
      </trkpt>
      <trkpt lat="45.85134" lon="4.84906">
        <ele>218</ele>
        <time>2012-01-08T10:36:25Z</time>
      </trkpt>
      <trkpt lat="45.85132" lon="4.84902">
        <ele>218</ele>
        <time>2012-01-08T10:36:26Z</time>
      </trkpt>
      <trkpt lat="45.85125" lon="4.84894">
        <ele>218</ele>
        <time>2012-01-08T10:36:29Z</time>
      </trkpt>
      <trkpt lat="45.85124" lon="4.84892">
        <ele>218</ele>
        <time>2012-01-08T10:36:30Z</time>
      </trkpt>
      <trkpt lat="45.85118" lon="4.84882">
        <ele>218</ele>
        <time>2012-01-08T10:36:34Z</time>
      </trkpt>
      <trkpt lat="45.85116" lon="4.8488">
        <ele>218</ele>
        <time>2012-01-08T10:36:35Z</time>
      </trkpt>
      <trkpt lat="45.85103" lon="4.8487">
        <ele>217</ele>
        <time>2012-01-08T10:36:39Z</time>
      </trkpt>
      <trkpt lat="45.85084" lon="4.84852">
        <ele>215</ele>
        <time>2012-01-08T10:36:44Z</time>
      </trkpt>
      <trkpt lat="45.85072" lon="4.84841">
        <ele>214</ele>
        <time>2012-01-08T10:36:47Z</time>
      </trkpt>
      <trkpt lat="45.85063" lon="4.84838">
        <ele>215</ele>
        <time>2012-01-08T10:36:49Z</time>
      </trkpt>
      <trkpt lat="45.85041" lon="4.84836">
        <ele>217</ele>
        <time>2012-01-08T10:36:54Z</time>
      </trkpt>
      <trkpt lat="45.85033" lon="4.84837">
        <ele>217</ele>
        <time>2012-01-08T10:36:56Z</time>
      </trkpt>
      <trkpt lat="45.85024" lon="4.84836">
        <ele>217</ele>
        <time>2012-01-08T10:36:58Z</time>
      </trkpt>
      <trkpt lat="45.85002" lon="4.84834">
        <ele>215</ele>
        <time>2012-01-08T10:37:03Z</time>
      </trkpt>
      <trkpt lat="45.84997" lon="4.84832">
        <ele>215</ele>
        <time>2012-01-08T10:37:04Z</time>
      </trkpt>
      <trkpt lat="45.84993" lon="4.84829">
        <ele>216</ele>
        <time>2012-01-08T10:37:05Z</time>
      </trkpt>
      <trkpt lat="45.84986" lon="4.8482">
        <ele>217</ele>
        <time>2012-01-08T10:37:07Z</time>
      </trkpt>
      <trkpt lat="45.84975" lon="4.84793">
        <ele>217</ele>
        <time>2012-01-08T10:37:11Z</time>
      </trkpt>
      <trkpt lat="45.84973" lon="4.84786">
        <ele>217</ele>
        <time>2012-01-08T10:37:12Z</time>
      </trkpt>
      <trkpt lat="45.84971" lon="4.84764">
        <ele>217</ele>
        <time>2012-01-08T10:37:16Z</time>
      </trkpt>
      <trkpt lat="45.8497" lon="4.84738">
        <ele>213</ele>
        <time>2012-01-08T10:37:20Z</time>
      </trkpt>
      <trkpt lat="45.84964" lon="4.84706">
        <ele>213</ele>
        <time>2012-01-08T10:37:25Z</time>
      </trkpt>
      <trkpt lat="45.8496" lon="4.84693">
        <ele>212</ele>
        <time>2012-01-08T10:37:27Z</time>
      </trkpt>
      <trkpt lat="45.84957" lon="4.84688">
        <ele>212</ele>
        <time>2012-01-08T10:37:28Z</time>
      </trkpt>
      <trkpt lat="45.8495" lon="4.84674">
        <ele>211</ele>
        <time>2012-01-08T10:37:31Z</time>
      </trkpt>
      <trkpt lat="45.84948" lon="4.84671">
        <ele>211</ele>
        <time>2012-01-08T10:37:32Z</time>
      </trkpt>
      <trkpt lat="45.84932" lon="4.84671">
        <ele>210</ele>
        <time>2012-01-08T10:37:36Z</time>
      </trkpt>
      <trkpt lat="45.84928" lon="4.84673">
        <ele>210</ele>
        <time>2012-01-08T10:37:37Z</time>
      </trkpt>
      <trkpt lat="45.8492" lon="4.84678">
        <ele>209</ele>
        <time>2012-01-08T10:37:39Z</time>
      </trkpt>
      <trkpt lat="45.84917" lon="4.8468">
        <ele>210</ele>
        <time>2012-01-08T10:37:40Z</time>
      </trkpt>
      <trkpt lat="45.8491" lon="4.84684">
        <ele>213</ele>
        <time>2012-01-08T10:37:43Z</time>
      </trkpt>
      <trkpt lat="45.84894" lon="4.84685">
        <ele>215</ele>
        <time>2012-01-08T10:37:47Z</time>
      </trkpt>
      <trkpt lat="45.8489" lon="4.84684">
        <ele>215</ele>
        <time>2012-01-08T10:37:48Z</time>
      </trkpt>
      <trkpt lat="45.84882" lon="4.84677">
        <ele>216</ele>
        <time>2012-01-08T10:37:50Z</time>
      </trkpt>
      <trkpt lat="45.84874" lon="4.84668">
        <ele>216</ele>
        <time>2012-01-08T10:37:52Z</time>
      </trkpt>
      <trkpt lat="45.84864" lon="4.84659">
        <ele>212</ele>
        <time>2012-01-08T10:37:55Z</time>
      </trkpt>
      <trkpt lat="45.84857" lon="4.84655">
        <ele>213</ele>
        <time>2012-01-08T10:37:57Z</time>
      </trkpt>
      <trkpt lat="45.84844" lon="4.84641">
        <ele>212</ele>
        <time>2012-01-08T10:38:00Z</time>
      </trkpt>
      <trkpt lat="45.84835" lon="4.84624">
        <ele>211</ele>
        <time>2012-01-08T10:38:04Z</time>
      </trkpt>
      <trkpt lat="45.8483" lon="4.84616">
        <ele>213</ele>
        <time>2012-01-08T10:38:06Z</time>
      </trkpt>
      <trkpt lat="45.84828" lon="4.84608">
        <ele>212</ele>
        <time>2012-01-08T10:38:08Z</time>
      </trkpt>
      <trkpt lat="45.84824" lon="4.84588">
        <ele>209</ele>
        <time>2012-01-08T10:38:12Z</time>
      </trkpt>
      <trkpt lat="45.84815" lon="4.84571">
        <ele>206</ele>
        <time>2012-01-08T10:38:17Z</time>
      </trkpt>
      <trkpt lat="45.84808" lon="4.84559">
        <ele>206</ele>
        <time>2012-01-08T10:38:22Z</time>
      </trkpt>
      <trkpt lat="45.84807" lon="4.84557">
        <ele>206</ele>
        <time>2012-01-08T10:38:23Z</time>
      </trkpt>
      <trkpt lat="45.84806" lon="4.84554">
        <ele>206</ele>
        <time>2012-01-08T10:38:28Z</time>
      </trkpt>
      <trkpt lat="45.84804" lon="4.84552">
        <ele>206</ele>
        <time>2012-01-08T10:39:27Z</time>
      </trkpt>
      <trkpt lat="45.848" lon="4.84554">
        <ele>206</ele>
        <time>2012-01-08T10:39:30Z</time>
      </trkpt>
      <trkpt lat="45.8479" lon="4.84561">
        <ele>207</ele>
        <time>2012-01-08T10:39:35Z</time>
      </trkpt>
      <trkpt lat="45.84775" lon="4.84561">
        <ele>207</ele>
        <time>2012-01-08T10:39:40Z</time>
      </trkpt>
      <trkpt lat="45.84759" lon="4.84558">
        <ele>208</ele>
        <time>2012-01-08T10:39:45Z</time>
      </trkpt>
      <trkpt lat="45.84752" lon="4.84556">
        <ele>208</ele>
        <time>2012-01-08T10:39:47Z</time>
      </trkpt>
      <trkpt lat="45.84734" lon="4.84553">
        <ele>207</ele>
        <time>2012-01-08T10:39:52Z</time>
      </trkpt>
      <trkpt lat="45.84715" lon="4.84554">
        <ele>207</ele>
        <time>2012-01-08T10:39:58Z</time>
      </trkpt>
      <trkpt lat="45.84693" lon="4.84559">
        <ele>207</ele>
        <time>2012-01-08T10:40:06Z</time>
      </trkpt>
      <trkpt lat="45.84678" lon="4.84562">
        <ele>208</ele>
        <time>2012-01-08T10:40:12Z</time>
      </trkpt>
      <trkpt lat="45.84662" lon="4.84567">
        <ele>210</ele>
        <time>2012-01-08T10:40:18Z</time>
      </trkpt>
      <trkpt lat="45.84641" lon="4.8457">
        <ele>210</ele>
        <time>2012-01-08T10:40:25Z</time>
      </trkpt>
      <trkpt lat="45.84626" lon="4.8457">
        <ele>211</ele>
        <time>2012-01-08T10:40:32Z</time>
      </trkpt>
      <trkpt lat="45.84614" lon="4.84573">
        <ele>212</ele>
        <time>2012-01-08T10:40:39Z</time>
      </trkpt>
      <trkpt lat="45.84608" lon="4.84573">
        <ele>213</ele>
        <time>2012-01-08T10:40:42Z</time>
      </trkpt>
      <trkpt lat="45.84606" lon="4.84574">
        <ele>213</ele>
        <time>2012-01-08T10:40:43Z</time>
      </trkpt>
      <trkpt lat="45.84605" lon="4.84575">
        <ele>213</ele>
        <time>2012-01-08T10:40:44Z</time>
      </trkpt>
      <trkpt lat="45.84601" lon="4.84576">
        <ele>214</ele>
        <time>2012-01-08T10:40:47Z</time>
      </trkpt>
      <trkpt lat="45.84597" lon="4.84574">
        <ele>214</ele>
        <time>2012-01-08T10:40:49Z</time>
      </trkpt>
      <trkpt lat="45.84595" lon="4.84574">
        <ele>215</ele>
        <time>2012-01-08T10:40:50Z</time>
      </trkpt>
      <trkpt lat="45.8459" lon="4.84572">
        <ele>215</ele>
        <time>2012-01-08T10:40:55Z</time>
      </trkpt>
      <trkpt lat="45.84586" lon="4.84574">
        <ele>216</ele>
        <time>2012-01-08T10:41:04Z</time>
      </trkpt>
      <trkpt lat="45.84585" lon="4.84575">
        <ele>216</ele>
        <time>2012-01-08T10:41:08Z</time>
      </trkpt>
      <trkpt lat="45.8458" lon="4.84577">
        <ele>219</ele>
        <time>2012-01-08T10:41:12Z</time>
      </trkpt>
      <trkpt lat="45.84568" lon="4.84581">
        <ele>218</ele>
        <time>2012-01-08T10:41:19Z</time>
      </trkpt>
      <trkpt lat="45.84551" lon="4.84587">
        <ele>222</ele>
        <time>2012-01-08T10:41:28Z</time>
      </trkpt>
      <trkpt lat="45.84534" lon="4.84593">
        <ele>223</ele>
        <time>2012-01-08T10:41:37Z</time>
      </trkpt>
      <trkpt lat="45.84532" lon="4.84593">
        <ele>223</ele>
        <time>2012-01-08T10:41:38Z</time>
      </trkpt>
      <trkpt lat="45.84517" lon="4.84596">
        <ele>223</ele>
        <time>2012-01-08T10:41:46Z</time>
      </trkpt>
      <trkpt lat="45.84515" lon="4.84595">
        <ele>223</ele>
        <time>2012-01-08T10:41:48Z</time>
      </trkpt>
      <trkpt lat="45.84511" lon="4.84596">
        <ele>223</ele>
        <time>2012-01-08T10:41:52Z</time>
      </trkpt>
      <trkpt lat="45.845" lon="4.846">
        <ele>223</ele>
        <time>2012-01-08T10:42:01Z</time>
      </trkpt>
      <trkpt lat="45.84497" lon="4.84601">
        <ele>222</ele>
        <time>2012-01-08T10:42:03Z</time>
      </trkpt>
      <trkpt lat="45.84486" lon="4.84605">
        <ele>222</ele>
        <time>2012-01-08T10:42:06Z</time>
      </trkpt>
      <trkpt lat="45.84469" lon="4.84614">
        <ele>221</ele>
        <time>2012-01-08T10:42:10Z</time>
      </trkpt>
      <trkpt lat="45.84464" lon="4.84617">
        <ele>221</ele>
        <time>2012-01-08T10:42:11Z</time>
      </trkpt>
      <trkpt lat="45.84434" lon="4.84637">
        <ele>220</ele>
        <time>2012-01-08T10:42:16Z</time>
      </trkpt>
      <trkpt lat="45.84427" lon="4.84642">
        <ele>220</ele>
        <time>2012-01-08T10:42:17Z</time>
      </trkpt>
      <trkpt lat="45.84405" lon="4.84663">
        <ele>218</ele>
        <time>2012-01-08T10:42:21Z</time>
      </trkpt>
      <trkpt lat="45.84393" lon="4.8467">
        <ele>218</ele>
        <time>2012-01-08T10:42:24Z</time>
      </trkpt>
      <trkpt lat="45.8439" lon="4.84672">
        <ele>218</ele>
        <time>2012-01-08T10:42:25Z</time>
      </trkpt>
      <trkpt lat="45.84379" lon="4.84683">
        <ele>218</ele>
        <time>2012-01-08T10:42:31Z</time>
      </trkpt>
      <trkpt lat="45.84368" lon="4.84697">
        <ele>218</ele>
        <time>2012-01-08T10:42:39Z</time>
      </trkpt>
      <trkpt lat="45.84363" lon="4.84706">
        <ele>218</ele>
        <time>2012-01-08T10:42:43Z</time>
      </trkpt>
      <trkpt lat="45.84361" lon="4.8471">
        <ele>218</ele>
        <time>2012-01-08T10:42:46Z</time>
      </trkpt>
      <trkpt lat="45.84359" lon="4.84712">
        <ele>218</ele>
        <time>2012-01-08T10:42:52Z</time>
      </trkpt>
      <trkpt lat="45.84357" lon="4.84714">
        <ele>218</ele>
        <time>2012-01-08T10:43:07Z</time>
      </trkpt>
      <trkpt lat="45.84355" lon="4.84722">
        <ele>218</ele>
        <time>2012-01-08T10:43:10Z</time>
      </trkpt>
      <trkpt lat="45.84353" lon="4.84741">
        <ele>217</ele>
        <time>2012-01-08T10:43:13Z</time>
      </trkpt>
      <trkpt lat="45.84351" lon="4.8475">
        <ele>217</ele>
        <time>2012-01-08T10:43:14Z</time>
      </trkpt>
      <trkpt lat="45.84342" lon="4.84776">
        <ele>216</ele>
        <time>2012-01-08T10:43:17Z</time>
      </trkpt>
      <trkpt lat="45.84338" lon="4.84782">
        <ele>216</ele>
        <time>2012-01-08T10:43:18Z</time>
      </trkpt>
      <trkpt lat="45.84328" lon="4.84792">
        <ele>209</ele>
        <time>2012-01-08T10:43:20Z</time>
      </trkpt>
      <trkpt lat="45.84309" lon="4.84799">
        <ele>208</ele>
        <time>2012-01-08T10:43:23Z</time>
      </trkpt>
      <trkpt lat="45.84302" lon="4.848">
        <ele>207</ele>
        <time>2012-01-08T10:43:24Z</time>
      </trkpt>
      <trkpt lat="45.8429" lon="4.84799">
        <ele>207</ele>
        <time>2012-01-08T10:43:26Z</time>
      </trkpt>
      <trkpt lat="45.84278" lon="4.84799">
        <ele>206</ele>
        <time>2012-01-08T10:43:28Z</time>
      </trkpt>
      <trkpt lat="45.84274" lon="4.848">
        <ele>205</ele>
        <time>2012-01-08T10:43:29Z</time>
      </trkpt>
      <trkpt lat="45.84265" lon="4.84803">
        <ele>205</ele>
        <time>2012-01-08T10:43:31Z</time>
      </trkpt>
      <trkpt lat="45.84249" lon="4.84813">
        <ele>197</ele>
        <time>2012-01-08T10:43:34Z</time>
      </trkpt>
      <trkpt lat="45.84244" lon="4.84819">
        <ele>197</ele>
        <time>2012-01-08T10:43:35Z</time>
      </trkpt>
      <trkpt lat="45.84223" lon="4.84842">
        <ele>195</ele>
        <time>2012-01-08T10:43:39Z</time>
      </trkpt>
      <trkpt lat="45.84217" lon="4.84847">
        <ele>195</ele>
        <time>2012-01-08T10:43:40Z</time>
      </trkpt>
      <trkpt lat="45.84197" lon="4.84859">
        <ele>194</ele>
        <time>2012-01-08T10:43:43Z</time>
      </trkpt>
      <trkpt lat="45.8419" lon="4.84862">
        <ele>193</ele>
        <time>2012-01-08T10:43:44Z</time>
      </trkpt>
      <trkpt lat="45.84182" lon="4.84864">
        <ele>193</ele>
        <time>2012-01-08T10:43:45Z</time>
      </trkpt>
      <trkpt lat="45.84167" lon="4.84868">
        <ele>193</ele>
        <time>2012-01-08T10:43:47Z</time>
      </trkpt>
      <trkpt lat="45.84152" lon="4.84873">
        <ele>190</ele>
        <time>2012-01-08T10:43:49Z</time>
      </trkpt>
      <trkpt lat="45.84145" lon="4.84875">
        <ele>190</ele>
        <time>2012-01-08T10:43:50Z</time>
      </trkpt>
      <trkpt lat="45.84129" lon="4.84879">
        <ele>190</ele>
        <time>2012-01-08T10:43:53Z</time>
      </trkpt>
      <trkpt lat="45.84119" lon="4.84883">
        <ele>189</ele>
        <time>2012-01-08T10:43:57Z</time>
      </trkpt>
      <trkpt lat="45.84107" lon="4.84881">
        <ele>189</ele>
        <time>2012-01-08T10:44:01Z</time>
      </trkpt>
      <trkpt lat="45.84082" lon="4.84874">
        <ele>190</ele>
        <time>2012-01-08T10:44:07Z</time>
      </trkpt>
      <trkpt lat="45.84068" lon="4.84871">
        <ele>190</ele>
        <time>2012-01-08T10:44:10Z</time>
      </trkpt>
      <trkpt lat="45.84053" lon="4.84863">
        <ele>191</ele>
        <time>2012-01-08T10:44:14Z</time>
      </trkpt>
      <trkpt lat="45.8404" lon="4.84856">
        <ele>191</ele>
        <time>2012-01-08T10:44:18Z</time>
      </trkpt>
      <trkpt lat="45.84033" lon="4.84853">
        <ele>191</ele>
        <time>2012-01-08T10:44:20Z</time>
      </trkpt>
      <trkpt lat="45.84018" lon="4.84843">
        <ele>192</ele>
        <time>2012-01-08T10:44:24Z</time>
      </trkpt>
      <trkpt lat="45.83998" lon="4.84826">
        <ele>193</ele>
        <time>2012-01-08T10:44:29Z</time>
      </trkpt>
      <trkpt lat="45.83994" lon="4.84824">
        <ele>193</ele>
        <time>2012-01-08T10:44:30Z</time>
      </trkpt>
      <trkpt lat="45.83985" lon="4.84817">
        <ele>194</ele>
        <time>2012-01-08T10:44:32Z</time>
      </trkpt>
      <trkpt lat="45.83971" lon="4.84807">
        <ele>195</ele>
        <time>2012-01-08T10:44:35Z</time>
      </trkpt>
      <trkpt lat="45.83967" lon="4.84803">
        <ele>195</ele>
        <time>2012-01-08T10:44:36Z</time>
      </trkpt>
      <trkpt lat="45.83963" lon="4.848">
        <ele>195</ele>
        <time>2012-01-08T10:44:37Z</time>
      </trkpt>
      <trkpt lat="45.83943" lon="4.84787">
        <ele>195</ele>
        <time>2012-01-08T10:44:41Z</time>
      </trkpt>
      <trkpt lat="45.83929" lon="4.84776">
        <ele>195</ele>
        <time>2012-01-08T10:44:44Z</time>
      </trkpt>
      <trkpt lat="45.83909" lon="4.84762">
        <ele>198</ele>
        <time>2012-01-08T10:44:48Z</time>
      </trkpt>
      <trkpt lat="45.83894" lon="4.84752">
        <ele>200</ele>
        <time>2012-01-08T10:44:51Z</time>
      </trkpt>
      <trkpt lat="45.83885" lon="4.84744">
        <ele>197</ele>
        <time>2012-01-08T10:44:53Z</time>
      </trkpt>
      <trkpt lat="45.83876" lon="4.84737">
        <ele>198</ele>
        <time>2012-01-08T10:44:55Z</time>
      </trkpt>
      <trkpt lat="45.83862" lon="4.84726">
        <ele>198</ele>
        <time>2012-01-08T10:44:58Z</time>
      </trkpt>
      <trkpt lat="45.83847" lon="4.84716">
        <ele>199</ele>
        <time>2012-01-08T10:45:01Z</time>
      </trkpt>
      <trkpt lat="45.83827" lon="4.84702">
        <ele>201</ele>
        <time>2012-01-08T10:45:06Z</time>
      </trkpt>
      <trkpt lat="45.83823" lon="4.847">
        <ele>201</ele>
        <time>2012-01-08T10:45:07Z</time>
      </trkpt>
      <trkpt lat="45.83803" lon="4.84691">
        <ele>201</ele>
        <time>2012-01-08T10:45:12Z</time>
      </trkpt>
      <trkpt lat="45.83793" lon="4.84688">
        <ele>200</ele>
        <time>2012-01-08T10:45:14Z</time>
      </trkpt>
      <trkpt lat="45.8377" lon="4.8468">
        <ele>200</ele>
        <time>2012-01-08T10:45:18Z</time>
      </trkpt>
      <trkpt lat="45.83759" lon="4.84676">
        <ele>199</ele>
        <time>2012-01-08T10:45:20Z</time>
      </trkpt>
      <trkpt lat="45.83727" lon="4.84671">
        <ele>198</ele>
        <time>2012-01-08T10:45:25Z</time>
      </trkpt>
      <trkpt lat="45.8372" lon="4.84671">
        <ele>198</ele>
        <time>2012-01-08T10:45:26Z</time>
      </trkpt>
      <trkpt lat="45.83678" lon="4.84673">
        <ele>197</ele>
        <time>2012-01-08T10:45:32Z</time>
      </trkpt>
      <trkpt lat="45.83657" lon="4.84679">
        <ele>193</ele>
        <time>2012-01-08T10:45:35Z</time>
      </trkpt>
      <trkpt lat="45.83642" lon="4.84686">
        <ele>192</ele>
        <time>2012-01-08T10:45:37Z</time>
      </trkpt>
      <trkpt lat="45.83618" lon="4.84692">
        <ele>190</ele>
        <time>2012-01-08T10:45:40Z</time>
      </trkpt>
      <trkpt lat="45.8361" lon="4.84697">
        <ele>189</ele>
        <time>2012-01-08T10:45:41Z</time>
      </trkpt>
      <trkpt lat="45.83602" lon="4.84702">
        <ele>189</ele>
        <time>2012-01-08T10:45:42Z</time>
      </trkpt>
      <trkpt lat="45.83569" lon="4.84723">
        <ele>183</ele>
        <time>2012-01-08T10:45:46Z</time>
      </trkpt>
      <trkpt lat="45.83527" lon="4.84744">
        <ele>182</ele>
        <time>2012-01-08T10:45:51Z</time>
      </trkpt>
      <trkpt lat="45.83512" lon="4.84752">
        <ele>182</ele>
        <time>2012-01-08T10:45:53Z</time>
      </trkpt>
      <trkpt lat="45.83499" lon="4.84753">
        <ele>180</ele>
        <time>2012-01-08T10:45:56Z</time>
      </trkpt>
      <trkpt lat="45.83491" lon="4.84752">
        <ele>179</ele>
        <time>2012-01-08T10:45:59Z</time>
      </trkpt>
      <trkpt lat="45.83489" lon="4.84754">
        <ele>179</ele>
        <time>2012-01-08T10:46:00Z</time>
      </trkpt>
      <trkpt lat="45.83484" lon="4.84765">
        <ele>179</ele>
        <time>2012-01-08T10:46:06Z</time>
      </trkpt>
      <trkpt lat="45.83477" lon="4.84769">
        <ele>178</ele>
        <time>2012-01-08T10:46:10Z</time>
      </trkpt>
      <trkpt lat="45.83469" lon="4.8478">
        <ele>178</ele>
        <time>2012-01-08T10:46:14Z</time>
      </trkpt>
      <trkpt lat="45.83463" lon="4.84792">
        <ele>178</ele>
        <time>2012-01-08T10:46:18Z</time>
      </trkpt>
      <trkpt lat="45.83457" lon="4.84805">
        <ele>178</ele>
        <time>2012-01-08T10:46:20Z</time>
      </trkpt>
      <trkpt lat="45.83444" lon="4.84822">
        <ele>177</ele>
        <time>2012-01-08T10:46:25Z</time>
      </trkpt>
      <trkpt lat="45.8344" lon="4.84826">
        <ele>177</ele>
        <time>2012-01-08T10:46:26Z</time>
      </trkpt>
      <trkpt lat="45.83436" lon="4.84829">
        <ele>176</ele>
        <time>2012-01-08T10:46:27Z</time>
      </trkpt>
      <trkpt lat="45.83429" lon="4.84836">
        <ele>177</ele>
        <time>2012-01-08T10:46:29Z</time>
      </trkpt>
      <trkpt lat="45.83426" lon="4.84839">
        <ele>176</ele>
        <time>2012-01-08T10:46:30Z</time>
      </trkpt>
      <trkpt lat="45.83418" lon="4.84855">
        <ele>177</ele>
        <time>2012-01-08T10:46:35Z</time>
      </trkpt>
      <trkpt lat="45.83409" lon="4.84868">
        <ele>174</ele>
        <time>2012-01-08T10:46:39Z</time>
      </trkpt>
      <trkpt lat="45.83403" lon="4.8488">
        <ele>174</ele>
        <time>2012-01-08T10:46:42Z</time>
      </trkpt>
      <trkpt lat="45.83391" lon="4.84904">
        <ele>174</ele>
        <time>2012-01-08T10:46:47Z</time>
      </trkpt>
      <trkpt lat="45.83387" lon="4.84913">
        <ele>174</ele>
        <time>2012-01-08T10:46:49Z</time>
      </trkpt>
      <trkpt lat="45.8338" lon="4.84926">
        <ele>177</ele>
        <time>2012-01-08T10:46:52Z</time>
      </trkpt>
      <trkpt lat="45.83373" lon="4.84943">
        <ele>177</ele>
        <time>2012-01-08T10:46:57Z</time>
      </trkpt>
      <trkpt lat="45.83367" lon="4.8496">
        <ele>177</ele>
        <time>2012-01-08T10:47:01Z</time>
      </trkpt>
      <trkpt lat="45.83367" lon="4.84963">
        <ele>177</ele>
        <time>2012-01-08T10:47:02Z</time>
      </trkpt>
      <trkpt lat="45.83362" lon="4.84973">
        <ele>177</ele>
        <time>2012-01-08T10:47:06Z</time>
      </trkpt>
      <trkpt lat="45.83357" lon="4.84988">
        <ele>177</ele>
        <time>2012-01-08T10:47:09Z</time>
      </trkpt>
      <trkpt lat="45.83352" lon="4.84998">
        <ele>177</ele>
        <time>2012-01-08T10:47:11Z</time>
      </trkpt>
      <trkpt lat="45.83348" lon="4.85006">
        <ele>179</ele>
        <time>2012-01-08T10:47:13Z</time>
      </trkpt>
      <trkpt lat="45.83344" lon="4.85008">
        <ele>179</ele>
        <time>2012-01-08T10:47:15Z</time>
      </trkpt>
      <trkpt lat="45.83341" lon="4.85008">
        <ele>178</ele>
        <time>2012-01-08T10:47:16Z</time>
      </trkpt>
      <trkpt lat="45.83329" lon="4.85002">
        <ele>176</ele>
        <time>2012-01-08T10:47:19Z</time>
      </trkpt>
      <trkpt lat="45.8332" lon="4.84995">
        <ele>175</ele>
        <time>2012-01-08T10:47:20Z</time>
      </trkpt>
      <trkpt lat="45.83316" lon="4.8499">
        <ele>174</ele>
        <time>2012-01-08T10:47:22Z</time>
      </trkpt>
      <trkpt lat="45.83306" lon="4.84982">
        <ele>174</ele>
        <time>2012-01-08T10:47:24Z</time>
      </trkpt>
      <trkpt lat="45.83287" lon="4.84957">
        <ele>173</ele>
        <time>2012-01-08T10:47:28Z</time>
      </trkpt>
      <trkpt lat="45.83275" lon="4.84944">
        <ele>173</ele>
        <time>2012-01-08T10:47:31Z</time>
      </trkpt>
      <trkpt lat="45.8327" lon="4.84937">
        <ele>173</ele>
        <time>2012-01-08T10:47:33Z</time>
      </trkpt>
      <trkpt lat="45.83271" lon="4.84933">
        <ele>173</ele>
        <time>2012-01-08T10:47:34Z</time>
      </trkpt>
      <trkpt lat="45.83274" lon="4.84923">
        <ele>173</ele>
        <time>2012-01-08T10:47:37Z</time>
      </trkpt>
      <trkpt lat="45.83274" lon="4.8492">
        <ele>173</ele>
        <time>2012-01-08T10:47:38Z</time>
      </trkpt>
      <trkpt lat="45.83272" lon="4.84918">
        <ele>173</ele>
        <time>2012-01-08T10:47:39Z</time>
      </trkpt>
      <trkpt lat="45.83265" lon="4.84909">
        <ele>171</ele>
        <time>2012-01-08T10:47:42Z</time>
      </trkpt>
      <trkpt lat="45.83259" lon="4.84905">
        <ele>171</ele>
        <time>2012-01-08T10:47:46Z</time>
      </trkpt>
      <trkpt lat="45.83257" lon="4.84905">
        <ele>171</ele>
        <time>2012-01-08T10:48:39Z</time>
      </trkpt>
      <trkpt lat="45.83256" lon="4.84904">
        <ele>171</ele>
        <time>2012-01-08T10:49:20Z</time>
      </trkpt>
      <trkpt lat="45.83256" lon="4.84902">
        <ele>171</ele>
        <time>2012-01-08T10:49:22Z</time>
      </trkpt>
      <trkpt lat="45.83259" lon="4.84893">
        <ele>170</ele>
        <time>2012-01-08T10:49:25Z</time>
      </trkpt>
      <trkpt lat="45.83259" lon="4.84888">
        <ele>170</ele>
        <time>2012-01-08T10:49:26Z</time>
      </trkpt>
      <trkpt lat="45.8326" lon="4.84875">
        <ele>169</ele>
        <time>2012-01-08T10:49:29Z</time>
      </trkpt>
      <trkpt lat="45.83262" lon="4.84871">
        <ele>169</ele>
        <time>2012-01-08T10:49:30Z</time>
      </trkpt>
      <trkpt lat="45.83268" lon="4.8486">
        <ele>169</ele>
        <time>2012-01-08T10:49:34Z</time>
      </trkpt>
      <trkpt lat="45.83271" lon="4.84859">
        <ele>169</ele>
        <time>2012-01-08T10:49:36Z</time>
      </trkpt>
      <trkpt lat="45.83272" lon="4.84862">
        <ele>169</ele>
        <time>2012-01-08T10:49:38Z</time>
      </trkpt>
      <trkpt lat="45.83269" lon="4.84861">
        <ele>169</ele>
        <time>2012-01-08T10:49:41Z</time>
      </trkpt>
      <trkpt lat="45.83268" lon="4.84859">
        <ele>169</ele>
        <time>2012-01-08T10:49:42Z</time>
      </trkpt>
      <trkpt lat="45.83267" lon="4.84856">
        <ele>168</ele>
        <time>2012-01-08T10:49:44Z</time>
      </trkpt>
      <trkpt lat="45.83264" lon="4.8485">
        <ele>168</ele>
        <time>2012-01-08T10:49:49Z</time>
      </trkpt>
      <trkpt lat="45.83253" lon="4.84843">
        <ele>167</ele>
        <time>2012-01-08T10:49:54Z</time>
      </trkpt>
      <trkpt lat="45.83243" lon="4.84851">
        <ele>166</ele>
        <time>2012-01-08T10:49:57Z</time>
      </trkpt>
      <trkpt lat="45.83241" lon="4.84855">
        <ele>166</ele>
        <time>2012-01-08T10:49:58Z</time>
      </trkpt>
      <trkpt lat="45.83239" lon="4.84857">
        <ele>166</ele>
        <time>2012-01-08T10:49:59Z</time>
      </trkpt>
      <trkpt lat="45.83236" lon="4.84859">
        <ele>167</ele>
        <time>2012-01-08T10:50:00Z</time>
      </trkpt>
      <trkpt lat="45.83231" lon="4.84863">
        <ele>167</ele>
        <time>2012-01-08T10:50:06Z</time>
      </trkpt>
      <trkpt lat="45.83231" lon="4.84863">
        <ele>167</ele>
        <time>2012-01-08T10:50:07Z</time>
      </trkpt>
      <trkpt lat="45.83225" lon="4.84858">
        <ele>167</ele>
        <time>2012-01-08T10:50:08Z</time>
      </trkpt>
      <trkpt lat="45.83215" lon="4.84847">
        <ele>166</ele>
        <time>2012-01-08T10:50:12Z</time>
      </trkpt>
      <trkpt lat="45.83211" lon="4.84843">
        <ele>166</ele>
        <time>2012-01-08T10:50:13Z</time>
      </trkpt>
      <trkpt lat="45.83187" lon="4.84819">
        <ele>165</ele>
        <time>2012-01-08T10:50:18Z</time>
      </trkpt>
      <trkpt lat="45.83177" lon="4.8481">
        <ele>165</ele>
        <time>2012-01-08T10:50:19Z</time>
      </trkpt>
      <trkpt lat="45.83143" lon="4.84776">
        <ele>168</ele>
        <time>2012-01-08T10:50:26Z</time>
      </trkpt>
      <trkpt lat="45.83115" lon="4.84748">
        <ele>170</ele>
        <time>2012-01-08T10:50:32Z</time>
      </trkpt>
      <trkpt lat="45.83115" lon="4.84748">
        <ele>170</ele>
        <time>2012-01-08T10:50:33Z</time>
      </trkpt>
      <trkpt lat="45.83111" lon="4.84742">
        <ele>170</ele>
        <time>2012-01-08T10:50:34Z</time>
      </trkpt>
      <trkpt lat="45.83103" lon="4.8472">
        <ele>170</ele>
        <time>2012-01-08T10:50:36Z</time>
      </trkpt>
      <trkpt lat="45.83094" lon="4.84711">
        <ele>171</ele>
        <time>2012-01-08T10:50:39Z</time>
      </trkpt>
      <trkpt lat="45.83082" lon="4.84708">
        <ele>174</ele>
        <time>2012-01-08T10:50:40Z</time>
      </trkpt>
      <trkpt lat="45.83071" lon="4.84704">
        <ele>174</ele>
        <time>2012-01-08T10:50:43Z</time>
      </trkpt>
      <trkpt lat="45.83061" lon="4.84696">
        <ele>174</ele>
        <time>2012-01-08T10:50:44Z</time>
      </trkpt>
      <trkpt lat="45.83052" lon="4.84687">
        <ele>174</ele>
        <time>2012-01-08T10:50:47Z</time>
      </trkpt>
      <trkpt lat="45.83035" lon="4.8467">
        <ele>174</ele>
        <time>2012-01-08T10:50:51Z</time>
      </trkpt>
      <trkpt lat="45.83028" lon="4.84662">
        <ele>176</ele>
        <time>2012-01-08T10:50:52Z</time>
      </trkpt>
      <trkpt lat="45.8302" lon="4.84654">
        <ele>177</ele>
        <time>2012-01-08T10:50:55Z</time>
      </trkpt>
      <trkpt lat="45.83012" lon="4.84646">
        <ele>177</ele>
        <time>2012-01-08T10:50:56Z</time>
      </trkpt>
      <trkpt lat="45.82985" lon="4.84619">
        <ele>177</ele>
        <time>2012-01-08T10:51:04Z</time>
      </trkpt>
      <trkpt lat="45.82971" lon="4.84604">
        <ele>178</ele>
        <time>2012-01-08T10:51:10Z</time>
      </trkpt>
      <trkpt lat="45.8297" lon="4.84601">
        <ele>178</ele>
        <time>2012-01-08T10:51:14Z</time>
      </trkpt>
      <trkpt lat="45.82967" lon="4.84598">
        <ele>178</ele>
        <time>2012-01-08T10:51:22Z</time>
      </trkpt>
      <trkpt lat="45.82964" lon="4.84598">
        <ele>178</ele>
        <time>2012-01-08T10:51:23Z</time>
      </trkpt>
      <trkpt lat="45.82953" lon="4.84595">
        <ele>178</ele>
        <time>2012-01-08T10:51:26Z</time>
      </trkpt>
      <trkpt lat="45.82946" lon="4.84592">
        <ele>178</ele>
        <time>2012-01-08T10:51:28Z</time>
      </trkpt>
      <trkpt lat="45.82941" lon="4.84589">
        <ele>178</ele>
        <time>2012-01-08T10:51:31Z</time>
      </trkpt>
      <trkpt lat="45.82939" lon="4.84589">
        <ele>179</ele>
        <time>2012-01-08T10:51:36Z</time>
      </trkpt>
      <trkpt lat="45.8293" lon="4.8459">
        <ele>179</ele>
        <time>2012-01-08T10:51:40Z</time>
      </trkpt>
      <trkpt lat="45.82914" lon="4.84585">
        <ele>180</ele>
        <time>2012-01-08T10:51:45Z</time>
      </trkpt>
      <trkpt lat="45.82911" lon="4.84583">
        <ele>181</ele>
        <time>2012-01-08T10:51:46Z</time>
      </trkpt>
      <trkpt lat="45.82894" lon="4.84584">
        <ele>179</ele>
        <time>2012-01-08T10:51:51Z</time>
      </trkpt>
      <trkpt lat="45.82877" lon="4.84582">
        <ele>184</ele>
        <time>2012-01-08T10:51:55Z</time>
      </trkpt>
      <trkpt lat="45.82873" lon="4.84582">
        <ele>184</ele>
        <time>2012-01-08T10:51:56Z</time>
      </trkpt>
      <trkpt lat="45.8285" lon="4.8459">
        <ele>179</ele>
        <time>2012-01-08T10:52:01Z</time>
      </trkpt>
      <trkpt lat="45.82844" lon="4.84591">
        <ele>179</ele>
        <time>2012-01-08T10:52:03Z</time>
      </trkpt>
      <trkpt lat="45.82812" lon="4.84603">
        <ele>179</ele>
        <time>2012-01-08T10:52:08Z</time>
      </trkpt>
      <trkpt lat="45.82801" lon="4.84609">
        <ele>178</ele>
        <time>2012-01-08T10:52:10Z</time>
      </trkpt>
      <trkpt lat="45.8277" lon="4.84624">
        <ele>178</ele>
        <time>2012-01-08T10:52:15Z</time>
      </trkpt>
      <trkpt lat="45.8277" lon="4.84624">
        <ele>178</ele>
        <time>2012-01-08T10:52:16Z</time>
      </trkpt>
      <trkpt lat="45.82736" lon="4.84636">
        <ele>179</ele>
        <time>2012-01-08T10:52:20Z</time>
      </trkpt>
      <trkpt lat="45.82729" lon="4.84636">
        <ele>180</ele>
        <time>2012-01-08T10:52:22Z</time>
      </trkpt>
      <trkpt lat="45.82689" lon="4.84625">
        <ele>180</ele>
        <time>2012-01-08T10:52:28Z</time>
      </trkpt>
      <trkpt lat="45.82667" lon="4.84615">
        <ele>181</ele>
        <time>2012-01-08T10:52:32Z</time>
      </trkpt>
      <trkpt lat="45.82651" lon="4.84609">
        <ele>180</ele>
        <time>2012-01-08T10:52:35Z</time>
      </trkpt>
      <trkpt lat="45.82637" lon="4.84601">
        <ele>180</ele>
        <time>2012-01-08T10:52:38Z</time>
      </trkpt>
      <trkpt lat="45.82626" lon="4.8459">
        <ele>180</ele>
        <time>2012-01-08T10:52:42Z</time>
      </trkpt>
      <trkpt lat="45.82623" lon="4.84576">
        <ele>185</ele>
        <time>2012-01-08T10:52:46Z</time>
      </trkpt>
      <trkpt lat="45.82623" lon="4.84574">
        <ele>185</ele>
        <time>2012-01-08T10:52:47Z</time>
      </trkpt>
      <trkpt lat="45.82623" lon="4.84566">
        <ele>185</ele>
        <time>2012-01-08T10:52:50Z</time>
      </trkpt>
      <trkpt lat="45.82622" lon="4.84571">
        <ele>185</ele>
        <time>2012-01-08T10:52:52Z</time>
      </trkpt>
      <trkpt lat="45.82618" lon="4.84592">
        <ele>179</ele>
        <time>2012-01-08T10:52:56Z</time>
      </trkpt>
      <trkpt lat="45.82618" lon="4.84592">
        <ele>179</ele>
        <time>2012-01-08T10:52:57Z</time>
      </trkpt>
      <trkpt lat="45.8261" lon="4.84597">
        <ele>179</ele>
        <time>2012-01-08T10:52:59Z</time>
      </trkpt>
      <trkpt lat="45.826" lon="4.84591">
        <ele>179</ele>
        <time>2012-01-08T10:53:00Z</time>
      </trkpt>
      <trkpt lat="45.82594" lon="4.84588">
        <ele>178</ele>
        <time>2012-01-08T10:53:02Z</time>
      </trkpt>
      <trkpt lat="45.82575" lon="4.84579">
        <ele>180</ele>
        <time>2012-01-08T10:53:05Z</time>
      </trkpt>
      <trkpt lat="45.82538" lon="4.84562">
        <ele>182</ele>
        <time>2012-01-08T10:53:10Z</time>
      </trkpt>
      <trkpt lat="45.8253" lon="4.84561">
        <ele>181</ele>
        <time>2012-01-08T10:53:11Z</time>
      </trkpt>
      <trkpt lat="45.82514" lon="4.84564">
        <ele>181</ele>
        <time>2012-01-08T10:53:13Z</time>
      </trkpt>
      <trkpt lat="45.82498" lon="4.84566">
        <ele>178</ele>
        <time>2012-01-08T10:53:15Z</time>
      </trkpt>
      <trkpt lat="45.82463" lon="4.84563">
        <ele>179</ele>
        <time>2012-01-08T10:53:19Z</time>
      </trkpt>
      <trkpt lat="45.82455" lon="4.8456">
        <ele>179</ele>
        <time>2012-01-08T10:53:20Z</time>
      </trkpt>
      <trkpt lat="45.82427" lon="4.84547">
        <ele>178</ele>
        <time>2012-01-08T10:53:25Z</time>
      </trkpt>
      <trkpt lat="45.82406" lon="4.84539">
        <ele>178</ele>
        <time>2012-01-08T10:53:28Z</time>
      </trkpt>
      <trkpt lat="45.82386" lon="4.84533">
        <ele>179</ele>
        <time>2012-01-08T10:53:31Z</time>
      </trkpt>
      <trkpt lat="45.82366" lon="4.84529">
        <ele>179</ele>
        <time>2012-01-08T10:53:34Z</time>
      </trkpt>
      <trkpt lat="45.82346" lon="4.84528">
        <ele>180</ele>
        <time>2012-01-08T10:53:37Z</time>
      </trkpt>
      <trkpt lat="45.82306" lon="4.84521">
        <ele>181</ele>
        <time>2012-01-08T10:53:43Z</time>
      </trkpt>
      <trkpt lat="45.82285" lon="4.84518">
        <ele>182</ele>
        <time>2012-01-08T10:53:46Z</time>
      </trkpt>
      <trkpt lat="45.82259" lon="4.84519">
        <ele>183</ele>
        <time>2012-01-08T10:53:49Z</time>
      </trkpt>
      <trkpt lat="45.82252" lon="4.8452">
        <ele>183</ele>
        <time>2012-01-08T10:53:50Z</time>
      </trkpt>
      <trkpt lat="45.82225" lon="4.84523">
        <ele>181</ele>
        <time>2012-01-08T10:53:55Z</time>
      </trkpt>
      <trkpt lat="45.82187" lon="4.84525">
        <ele>181</ele>
        <time>2012-01-08T10:54:00Z</time>
      </trkpt>
      <trkpt lat="45.82187" lon="4.84525">
        <ele>181</ele>
        <time>2012-01-08T10:54:01Z</time>
      </trkpt>
      <trkpt lat="45.82147" lon="4.84531">
        <ele>180</ele>
        <time>2012-01-08T10:54:07Z</time>
      </trkpt>
      <trkpt lat="45.82141" lon="4.84531">
        <ele>180</ele>
        <time>2012-01-08T10:54:08Z</time>
      </trkpt>
      <trkpt lat="45.82107" lon="4.84534">
        <ele>179</ele>
        <time>2012-01-08T10:54:13Z</time>
      </trkpt>
      <trkpt lat="45.821" lon="4.84533">
        <ele>180</ele>
        <time>2012-01-08T10:54:14Z</time>
      </trkpt>
      <trkpt lat="45.82076" lon="4.84531">
        <ele>179</ele>
        <time>2012-01-08T10:54:18Z</time>
      </trkpt>
      <trkpt lat="45.8206" lon="4.84524">
        <ele>179</ele>
        <time>2012-01-08T10:54:20Z</time>
      </trkpt>
      <trkpt lat="45.82029" lon="4.84511">
        <ele>178</ele>
        <time>2012-01-08T10:54:26Z</time>
      </trkpt>
      <trkpt lat="45.82023" lon="4.84507">
        <ele>178</ele>
        <time>2012-01-08T10:54:27Z</time>
      </trkpt>
      <trkpt lat="45.81994" lon="4.84496">
        <ele>180</ele>
        <time>2012-01-08T10:54:32Z</time>
      </trkpt>
      <trkpt lat="45.81976" lon="4.8449">
        <ele>182</ele>
        <time>2012-01-08T10:54:34Z</time>
      </trkpt>
      <trkpt lat="45.8196" lon="4.84487">
        <ele>183</ele>
        <time>2012-01-08T10:54:38Z</time>
      </trkpt>
      <trkpt lat="45.81954" lon="4.84486">
        <ele>183</ele>
        <time>2012-01-08T10:54:39Z</time>
      </trkpt>
      <trkpt lat="45.81935" lon="4.84482">
        <ele>182</ele>
        <time>2012-01-08T10:54:42Z</time>
      </trkpt>
      <trkpt lat="45.81925" lon="4.84481">
        <ele>181</ele>
        <time>2012-01-08T10:54:44Z</time>
      </trkpt>
      <trkpt lat="45.81914" lon="4.8448">
        <ele>180</ele>
        <time>2012-01-08T10:54:47Z</time>
      </trkpt>
      <trkpt lat="45.81887" lon="4.84475">
        <ele>182</ele>
        <time>2012-01-08T10:54:51Z</time>
      </trkpt>
      <trkpt lat="45.81875" lon="4.84472">
        <ele>182</ele>
        <time>2012-01-08T10:54:54Z</time>
      </trkpt>
      <trkpt lat="45.81859" lon="4.84469">
        <ele>183</ele>
        <time>2012-01-08T10:54:56Z</time>
      </trkpt>
      <trkpt lat="45.81853" lon="4.84468">
        <ele>183</ele>
        <time>2012-01-08T10:54:57Z</time>
      </trkpt>
      <trkpt lat="45.81837" lon="4.84465">
        <ele>183</ele>
        <time>2012-01-08T10:55:00Z</time>
      </trkpt>
      <trkpt lat="45.81837" lon="4.84465">
        <ele>183</ele>
        <time>2012-01-08T10:55:01Z</time>
      </trkpt>
      <trkpt lat="45.81828" lon="4.84461">
        <ele>183</ele>
        <time>2012-01-08T10:55:02Z</time>
      </trkpt>
      <trkpt lat="45.81807" lon="4.84445">
        <ele>183</ele>
        <time>2012-01-08T10:55:09Z</time>
      </trkpt>
      <trkpt lat="45.81799" lon="4.84438">
        <ele>183</ele>
        <time>2012-01-08T10:55:11Z</time>
      </trkpt>
      <trkpt lat="45.8179" lon="4.84429">
        <ele>183</ele>
        <time>2012-01-08T10:55:15Z</time>
      </trkpt>
      <trkpt lat="45.81774" lon="4.84417">
        <ele>186</ele>
        <time>2012-01-08T10:55:20Z</time>
      </trkpt>
      <trkpt lat="45.81767" lon="4.84411">
        <ele>186</ele>
        <time>2012-01-08T10:55:22Z</time>
      </trkpt>
      <trkpt lat="45.81759" lon="4.84405">
        <ele>185</ele>
        <time>2012-01-08T10:55:25Z</time>
      </trkpt>
      <trkpt lat="45.81732" lon="4.84388">
        <ele>185</ele>
        <time>2012-01-08T10:55:31Z</time>
      </trkpt>
      <trkpt lat="45.81728" lon="4.84385">
        <ele>185</ele>
        <time>2012-01-08T10:55:32Z</time>
      </trkpt>
      <trkpt lat="45.81696" lon="4.84367">
        <ele>184</ele>
        <time>2012-01-08T10:55:40Z</time>
      </trkpt>
      <trkpt lat="45.81692" lon="4.84365">
        <ele>184</ele>
        <time>2012-01-08T10:55:42Z</time>
      </trkpt>
      <trkpt lat="45.81669" lon="4.84345">
        <ele>185</ele>
        <time>2012-01-08T10:55:48Z</time>
      </trkpt>
      <trkpt lat="45.81665" lon="4.84337">
        <ele>184</ele>
        <time>2012-01-08T10:55:50Z</time>
      </trkpt>
      <trkpt lat="45.81659" lon="4.84319">
        <ele>186</ele>
        <time>2012-01-08T10:55:54Z</time>
      </trkpt>
      <trkpt lat="45.81655" lon="4.843">
        <ele>188</ele>
        <time>2012-01-08T10:55:59Z</time>
      </trkpt>
      <trkpt lat="45.81654" lon="4.8429">
        <ele>188</ele>
        <time>2012-01-08T10:56:03Z</time>
      </trkpt>
      <trkpt lat="45.81654" lon="4.84282">
        <ele>189</ele>
        <time>2012-01-08T10:56:05Z</time>
      </trkpt>
      <trkpt lat="45.81649" lon="4.84263">
        <ele>191</ele>
        <time>2012-01-08T10:56:10Z</time>
      </trkpt>
      <trkpt lat="45.81645" lon="4.8424">
        <ele>195</ele>
        <time>2012-01-08T10:56:17Z</time>
      </trkpt>
      <trkpt lat="45.81644" lon="4.84237">
        <ele>195</ele>
        <time>2012-01-08T10:56:18Z</time>
      </trkpt>
      <trkpt lat="45.81644" lon="4.84223">
        <ele>195</ele>
        <time>2012-01-08T10:56:22Z</time>
      </trkpt>
      <trkpt lat="45.81648" lon="4.842">
        <ele>196</ele>
        <time>2012-01-08T10:56:29Z</time>
      </trkpt>
      <trkpt lat="45.81652" lon="4.84186">
        <ele>197</ele>
        <time>2012-01-08T10:56:35Z</time>
      </trkpt>
      <trkpt lat="45.81653" lon="4.84183">
        <ele>197</ele>
        <time>2012-01-08T10:56:36Z</time>
      </trkpt>
      <trkpt lat="45.81657" lon="4.84169">
        <ele>198</ele>
        <time>2012-01-08T10:56:42Z</time>
      </trkpt>
      <trkpt lat="45.81659" lon="4.84151">
        <ele>200</ele>
        <time>2012-01-08T10:56:48Z</time>
      </trkpt>
      <trkpt lat="45.81662" lon="4.84134">
        <ele>200</ele>
        <time>2012-01-08T10:56:53Z</time>
      </trkpt>
      <trkpt lat="45.81663" lon="4.84132">
        <ele>200</ele>
        <time>2012-01-08T10:56:54Z</time>
      </trkpt>
      <trkpt lat="45.81668" lon="4.84111">
        <ele>203</ele>
        <time>2012-01-08T10:57:01Z</time>
      </trkpt>
      <trkpt lat="45.81674" lon="4.84102">
        <ele>203</ele>
        <time>2012-01-08T10:57:05Z</time>
      </trkpt>
      <trkpt lat="45.81676" lon="4.84096">
        <ele>203</ele>
        <time>2012-01-08T10:57:07Z</time>
      </trkpt>
      <trkpt lat="45.81677" lon="4.84088">
        <ele>203</ele>
        <time>2012-01-08T10:57:09Z</time>
      </trkpt>
      <trkpt lat="45.81677" lon="4.84084">
        <ele>203</ele>
        <time>2012-01-08T10:57:10Z</time>
      </trkpt>
      <trkpt lat="45.81678" lon="4.84077">
        <ele>204</ele>
        <time>2012-01-08T10:57:12Z</time>
      </trkpt>
      <trkpt lat="45.81686" lon="4.84056">
        <ele>206</ele>
        <time>2012-01-08T10:57:19Z</time>
      </trkpt>
      <trkpt lat="45.81686" lon="4.84036">
        <ele>207</ele>
        <time>2012-01-08T10:57:23Z</time>
      </trkpt>
      <trkpt lat="45.81686" lon="4.84027">
        <ele>207</ele>
        <time>2012-01-08T10:57:25Z</time>
      </trkpt>
      <trkpt lat="45.81678" lon="4.84009">
        <ele>208</ele>
        <time>2012-01-08T10:57:30Z</time>
      </trkpt>
      <trkpt lat="45.81666" lon="4.84002">
        <ele>208</ele>
        <time>2012-01-08T10:57:36Z</time>
      </trkpt>
      <trkpt lat="45.81664" lon="4.84001">
        <ele>208</ele>
        <time>2012-01-08T10:57:37Z</time>
      </trkpt>
      <trkpt lat="45.81654" lon="4.83995">
        <ele>208</ele>
        <time>2012-01-08T10:57:43Z</time>
      </trkpt>
      <trkpt lat="45.81644" lon="4.83988">
        <ele>209</ele>
        <time>2012-01-08T10:57:50Z</time>
      </trkpt>
      <trkpt lat="45.81631" lon="4.83979">
        <ele>209</ele>
        <time>2012-01-08T10:57:54Z</time>
      </trkpt>
      <trkpt lat="45.81614" lon="4.83968">
        <ele>209</ele>
        <time>2012-01-08T10:57:59Z</time>
      </trkpt>
      <trkpt lat="45.81596" lon="4.8396">
        <ele>209</ele>
        <time>2012-01-08T10:58:04Z</time>
      </trkpt>
      <trkpt lat="45.81592" lon="4.83958">
        <ele>209</ele>
        <time>2012-01-08T10:58:05Z</time>
      </trkpt>
      <trkpt lat="45.81567" lon="4.83945">
        <ele>207</ele>
        <time>2012-01-08T10:58:09Z</time>
      </trkpt>
      <trkpt lat="45.81562" lon="4.83942">
        <ele>207</ele>
        <time>2012-01-08T10:58:10Z</time>
      </trkpt>
      <trkpt lat="45.81536" lon="4.8393">
        <ele>207</ele>
        <time>2012-01-08T10:58:14Z</time>
      </trkpt>
      <trkpt lat="45.81527" lon="4.83926">
        <ele>207</ele>
        <time>2012-01-08T10:58:15Z</time>
      </trkpt>
      <trkpt lat="45.81521" lon="4.83922">
        <ele>206</ele>
        <time>2012-01-08T10:58:16Z</time>
      </trkpt>
      <trkpt lat="45.81502" lon="4.83917">
        <ele>206</ele>
        <time>2012-01-08T10:58:19Z</time>
      </trkpt>
      <trkpt lat="45.81487" lon="4.83913">
        <ele>207</ele>
        <time>2012-01-08T10:58:21Z</time>
      </trkpt>
      <trkpt lat="45.8146" lon="4.83909">
        <ele>208</ele>
        <time>2012-01-08T10:58:25Z</time>
      </trkpt>
      <trkpt lat="45.81447" lon="4.83909">
        <ele>208</ele>
        <time>2012-01-08T10:58:27Z</time>
      </trkpt>
      <trkpt lat="45.81416" lon="4.83914">
        <ele>208</ele>
        <time>2012-01-08T10:58:32Z</time>
      </trkpt>
      <trkpt lat="45.8141" lon="4.83915">
        <ele>208</ele>
        <time>2012-01-08T10:58:33Z</time>
      </trkpt>
      <trkpt lat="45.81397" lon="4.83918">
        <ele>208</ele>
        <time>2012-01-08T10:58:35Z</time>
      </trkpt>
      <trkpt lat="45.81384" lon="4.83917">
        <ele>208</ele>
        <time>2012-01-08T10:58:37Z</time>
      </trkpt>
      <trkpt lat="45.8137" lon="4.83914">
        <ele>210</ele>
        <time>2012-01-08T10:58:39Z</time>
      </trkpt>
      <trkpt lat="45.81339" lon="4.83904">
        <ele>210</ele>
        <time>2012-01-08T10:58:44Z</time>
      </trkpt>
      <trkpt lat="45.81332" lon="4.839">
        <ele>209</ele>
        <time>2012-01-08T10:58:45Z</time>
      </trkpt>
      <trkpt lat="45.81299" lon="4.83889">
        <ele>208</ele>
        <time>2012-01-08T10:58:50Z</time>
      </trkpt>
      <trkpt lat="45.81292" lon="4.83886">
        <ele>208</ele>
        <time>2012-01-08T10:58:51Z</time>
      </trkpt>
      <trkpt lat="45.81258" lon="4.83875">
        <ele>207</ele>
        <time>2012-01-08T10:58:56Z</time>
      </trkpt>
      <trkpt lat="45.81251" lon="4.83873">
        <ele>207</ele>
        <time>2012-01-08T10:58:57Z</time>
      </trkpt>
      <trkpt lat="45.81229" lon="4.83866">
        <ele>206</ele>
        <time>2012-01-08T10:59:00Z</time>
      </trkpt>
      <trkpt lat="45.81216" lon="4.83863">
        <ele>206</ele>
        <time>2012-01-08T10:59:02Z</time>
      </trkpt>
      <trkpt lat="45.81191" lon="4.83858">
        <ele>206</ele>
        <time>2012-01-08T10:59:06Z</time>
      </trkpt>
      <trkpt lat="45.81179" lon="4.83857">
        <ele>206</ele>
        <time>2012-01-08T10:59:08Z</time>
      </trkpt>
      <trkpt lat="45.81156" lon="4.83854">
        <ele>207</ele>
        <time>2012-01-08T10:59:12Z</time>
      </trkpt>
      <trkpt lat="45.81151" lon="4.83852">
        <ele>207</ele>
        <time>2012-01-08T10:59:13Z</time>
      </trkpt>
      <trkpt lat="45.81141" lon="4.83849">
        <ele>207</ele>
        <time>2012-01-08T10:59:15Z</time>
      </trkpt>
      <trkpt lat="45.81136" lon="4.83848">
        <ele>207</ele>
        <time>2012-01-08T10:59:16Z</time>
      </trkpt>
      <trkpt lat="45.81105" lon="4.8384">
        <ele>207</ele>
        <time>2012-01-08T10:59:22Z</time>
      </trkpt>
      <trkpt lat="45.811" lon="4.83839">
        <ele>208</ele>
        <time>2012-01-08T10:59:23Z</time>
      </trkpt>
      <trkpt lat="45.81085" lon="4.83834">
        <ele>209</ele>
        <time>2012-01-08T10:59:26Z</time>
      </trkpt>
      <trkpt lat="45.81075" lon="4.8383">
        <ele>209</ele>
        <time>2012-01-08T10:59:28Z</time>
      </trkpt>
      <trkpt lat="45.81069" lon="4.83827">
        <ele>209</ele>
        <time>2012-01-08T10:59:29Z</time>
      </trkpt>
      <trkpt lat="45.81038" lon="4.83818">
        <ele>209</ele>
        <time>2012-01-08T10:59:35Z</time>
      </trkpt>
      <trkpt lat="45.81032" lon="4.83816">
        <ele>209</ele>
        <time>2012-01-08T10:59:36Z</time>
      </trkpt>
      <trkpt lat="45.80996" lon="4.83804">
        <ele>208</ele>
        <time>2012-01-08T10:59:43Z</time>
      </trkpt>
      <trkpt lat="45.80971" lon="4.83794">
        <ele>208</ele>
        <time>2012-01-08T10:59:48Z</time>
      </trkpt>
      <trkpt lat="45.8096" lon="4.8379">
        <ele>208</ele>
        <time>2012-01-08T10:59:50Z</time>
      </trkpt>
      <trkpt lat="45.8095" lon="4.83786">
        <ele>208</ele>
        <time>2012-01-08T10:59:52Z</time>
      </trkpt>
      <trkpt lat="45.80925" lon="4.83768">
        <ele>208</ele>
        <time>2012-01-08T10:59:57Z</time>
      </trkpt>
      <trkpt lat="45.80919" lon="4.83763">
        <ele>208</ele>
        <time>2012-01-08T10:59:58Z</time>
      </trkpt>
      <trkpt lat="45.80895" lon="4.83739">
        <ele>207</ele>
        <time>2012-01-08T11:00:02Z</time>
      </trkpt>
      <trkpt lat="45.80881" lon="4.83728">
        <ele>207</ele>
        <time>2012-01-08T11:00:04Z</time>
      </trkpt>
      <trkpt lat="45.8086" lon="4.83715">
        <ele>206</ele>
        <time>2012-01-08T11:00:07Z</time>
      </trkpt>
      <trkpt lat="45.80838" lon="4.83703">
        <ele>206</ele>
        <time>2012-01-08T11:00:10Z</time>
      </trkpt>
      <trkpt lat="45.80825" lon="4.83697">
        <ele>204</ele>
        <time>2012-01-08T11:00:12Z</time>
      </trkpt>
      <trkpt lat="45.80807" lon="4.83684">
        <ele>204</ele>
        <time>2012-01-08T11:00:15Z</time>
      </trkpt>
      <trkpt lat="45.80789" lon="4.8367">
        <ele>204</ele>
        <time>2012-01-08T11:00:18Z</time>
      </trkpt>
      <trkpt lat="45.80777" lon="4.83661">
        <ele>206</ele>
        <time>2012-01-08T11:00:20Z</time>
      </trkpt>
      <trkpt lat="45.80754" lon="4.83647">
        <ele>206</ele>
        <time>2012-01-08T11:00:24Z</time>
      </trkpt>
      <trkpt lat="45.80742" lon="4.8364">
        <ele>206</ele>
        <time>2012-01-08T11:00:26Z</time>
      </trkpt>
      <trkpt lat="45.8072" lon="4.83627">
        <ele>207</ele>
        <time>2012-01-08T11:00:30Z</time>
      </trkpt>
      <trkpt lat="45.8071" lon="4.83621">
        <ele>207</ele>
        <time>2012-01-08T11:00:32Z</time>
      </trkpt>
      <trkpt lat="45.80684" lon="4.83606">
        <ele>208</ele>
        <time>2012-01-08T11:00:38Z</time>
      </trkpt>
      <trkpt lat="45.80675" lon="4.83602">
        <ele>208</ele>
        <time>2012-01-08T11:00:40Z</time>
      </trkpt>
      <trkpt lat="45.80671" lon="4.83601">
        <ele>208</ele>
        <time>2012-01-08T11:00:41Z</time>
      </trkpt>
      <trkpt lat="45.80646" lon="4.83595">
        <ele>208</ele>
        <time>2012-01-08T11:00:47Z</time>
      </trkpt>
      <trkpt lat="45.80642" lon="4.83594">
        <ele>208</ele>
        <time>2012-01-08T11:00:48Z</time>
      </trkpt>
      <trkpt lat="45.80612" lon="4.83588">
        <ele>210</ele>
        <time>2012-01-08T11:00:56Z</time>
      </trkpt>
      <trkpt lat="45.80609" lon="4.83587">
        <ele>210</ele>
        <time>2012-01-08T11:00:57Z</time>
      </trkpt>
      <trkpt lat="45.80589" lon="4.83584">
        <ele>213</ele>
        <time>2012-01-08T11:01:04Z</time>
      </trkpt>
      <trkpt lat="45.80573" lon="4.83576">
        <ele>216</ele>
        <time>2012-01-08T11:01:10Z</time>
      </trkpt>
      <trkpt lat="45.80557" lon="4.83564">
        <ele>217</ele>
        <time>2012-01-08T11:01:16Z</time>
      </trkpt>
      <trkpt lat="45.80542" lon="4.83549">
        <ele>217</ele>
        <time>2012-01-08T11:01:23Z</time>
      </trkpt>
      <trkpt lat="45.8054" lon="4.83547">
        <ele>218</ele>
        <time>2012-01-08T11:01:24Z</time>
      </trkpt>
      <trkpt lat="45.80521" lon="4.83528">
        <ele>218</ele>
        <time>2012-01-08T11:01:32Z</time>
      </trkpt>
      <trkpt lat="45.80512" lon="4.83519">
        <ele>218</ele>
        <time>2012-01-08T11:01:35Z</time>
      </trkpt>
      <trkpt lat="45.80498" lon="4.83508">
        <ele>218</ele>
        <time>2012-01-08T11:01:39Z</time>
      </trkpt>
      <trkpt lat="45.80491" lon="4.83503">
        <ele>217</ele>
        <time>2012-01-08T11:01:41Z</time>
      </trkpt>
      <trkpt lat="45.80481" lon="4.83493">
        <ele>218</ele>
        <time>2012-01-08T11:01:44Z</time>
      </trkpt>
      <trkpt lat="45.80455" lon="4.83473">
        <ele>218</ele>
        <time>2012-01-08T11:01:50Z</time>
      </trkpt>
      <trkpt lat="45.80446" lon="4.83466">
        <ele>218</ele>
        <time>2012-01-08T11:01:52Z</time>
      </trkpt>
      <trkpt lat="45.80428" lon="4.83449">
        <ele>217</ele>
        <time>2012-01-08T11:01:56Z</time>
      </trkpt>
      <trkpt lat="45.80415" lon="4.83436">
        <ele>215</ele>
        <time>2012-01-08T11:01:59Z</time>
      </trkpt>
      <trkpt lat="45.80393" lon="4.83412">
        <ele>218</ele>
        <time>2012-01-08T11:02:04Z</time>
      </trkpt>
      <trkpt lat="45.80385" lon="4.83402">
        <ele>219</ele>
        <time>2012-01-08T11:02:06Z</time>
      </trkpt>
      <trkpt lat="45.80365" lon="4.83382">
        <ele>219</ele>
        <time>2012-01-08T11:02:11Z</time>
      </trkpt>
      <trkpt lat="45.80354" lon="4.83369">
        <ele>220</ele>
        <time>2012-01-08T11:02:16Z</time>
      </trkpt>
      <trkpt lat="45.80353" lon="4.83364">
        <ele>221</ele>
        <time>2012-01-08T11:02:18Z</time>
      </trkpt>
      <trkpt lat="45.80355" lon="4.83358">
        <ele>221</ele>
        <time>2012-01-08T11:02:20Z</time>
      </trkpt>
      <trkpt lat="45.80359" lon="4.8335">
        <ele>221</ele>
        <time>2012-01-08T11:02:24Z</time>
      </trkpt>
      <trkpt lat="45.80361" lon="4.83345">
        <ele>221</ele>
        <time>2012-01-08T11:02:26Z</time>
      </trkpt>
      <trkpt lat="45.80363" lon="4.83341">
        <ele>222</ele>
        <time>2012-01-08T11:02:28Z</time>
      </trkpt>
      <trkpt lat="45.80367" lon="4.83328">
        <ele>227</ele>
        <time>2012-01-08T11:02:33Z</time>
      </trkpt>
      <trkpt lat="45.80369" lon="4.83322">
        <ele>227</ele>
        <time>2012-01-08T11:02:36Z</time>
      </trkpt>
      <trkpt lat="45.80371" lon="4.83312">
        <ele>228</ele>
        <time>2012-01-08T11:02:40Z</time>
      </trkpt>
      <trkpt lat="45.80377" lon="4.83296">
        <ele>228</ele>
        <time>2012-01-08T11:02:48Z</time>
      </trkpt>
      <trkpt lat="45.80382" lon="4.83278">
        <ele>229</ele>
        <time>2012-01-08T11:02:55Z</time>
      </trkpt>
      <trkpt lat="45.80383" lon="4.83272">
        <ele>230</ele>
        <time>2012-01-08T11:02:57Z</time>
      </trkpt>
      <trkpt lat="45.80388" lon="4.83258">
        <ele>230</ele>
        <time>2012-01-08T11:03:02Z</time>
      </trkpt>
      <trkpt lat="45.80392" lon="4.83243">
        <ele>234</ele>
        <time>2012-01-08T11:03:08Z</time>
      </trkpt>
      <trkpt lat="45.80393" lon="4.8324">
        <ele>234</ele>
        <time>2012-01-08T11:03:09Z</time>
      </trkpt>
      <trkpt lat="45.80389" lon="4.83235">
        <ele>234</ele>
        <time>2012-01-08T11:03:12Z</time>
      </trkpt>
      <trkpt lat="45.80383" lon="4.83231">
        <ele>234</ele>
        <time>2012-01-08T11:03:16Z</time>
      </trkpt>
      <trkpt lat="45.80378" lon="4.83229">
        <ele>234</ele>
        <time>2012-01-08T11:03:18Z</time>
      </trkpt>
      <trkpt lat="45.80366" lon="4.83221">
        <ele>234</ele>
        <time>2012-01-08T11:03:24Z</time>
      </trkpt>
      <trkpt lat="45.80363" lon="4.83208">
        <ele>234</ele>
        <time>2012-01-08T11:03:28Z</time>
      </trkpt>
      <trkpt lat="45.80366" lon="4.83194">
        <ele>234</ele>
        <time>2012-01-08T11:03:32Z</time>
      </trkpt>
      <trkpt lat="45.80368" lon="4.83188">
        <ele>234</ele>
        <time>2012-01-08T11:03:34Z</time>
      </trkpt>
      <trkpt lat="45.80375" lon="4.83173">
        <ele>235</ele>
        <time>2012-01-08T11:03:39Z</time>
      </trkpt>
      <trkpt lat="45.80384" lon="4.83153">
        <ele>237</ele>
        <time>2012-01-08T11:03:46Z</time>
      </trkpt>
      <trkpt lat="45.80386" lon="4.83148">
        <ele>237</ele>
        <time>2012-01-08T11:03:48Z</time>
      </trkpt>
    </trkseg>
  </trk>
</gpx>